<?xml version="1.0" encoding="UTF-8" standalone="no" ?>
<gpx xmlns="http://www.topografix.com/GPX/1/1" xmlns:xsi="http://www.w3.org/2001/XMLSchema-instance" xsi:schemaLocation="http://www.topografix.com/GPX/1/1 http://www.topografix.com/GPX/1/1/gpx.xsd" version="1.1" creator="VisuGPX - https://www.visugpx.com">
  <metadata>
    <name>Chamousillon navette 30 souches</name>
    <desc><![CDATA[Trace AlpineQuest 13/07/2013 10:32:06
navette entraunes - col des trente souches - cime de chamousillon - bouchanieres -guillaumes]]></desc>
  </metadata>
  <wpt lat="44.18683" lon="6.7623">
    <ele>1590.2</ele>
  </wpt>
  <wpt lat="44.18686" lon="6.76229">
    <ele>1591.6</ele>
  </wpt>
  <wpt lat="44.18686" lon="6.76229">
    <ele>1591.6</ele>
  </wpt>
  <wpt lat="44.18963" lon="6.78985">
    <ele>1701.1</ele>
  </wpt>
  <wpt lat="44.19022" lon="6.79319">
    <ele>1738.4</ele>
  </wpt>
  <wpt lat="44.19018" lon="6.79318">
    <ele>1739.5</ele>
  </wpt>
  <wpt lat="44.19036" lon="6.79359">
    <ele>1740.9</ele>
  </wpt>
  <wpt lat="44.19135" lon="6.79515">
    <ele>1762.6</ele>
  </wpt>
  <wpt lat="44.19135" lon="6.79515">
    <ele>1762.6</ele>
  </wpt>
  <wpt lat="44.19252" lon="6.79541">
    <ele>1787.1</ele>
  </wpt>
  <wpt lat="44.19248" lon="6.79539">
    <ele>1787.8</ele>
  </wpt>
  <wpt lat="44.19006" lon="6.80274">
    <ele>2038.2</ele>
  </wpt>
  <wpt lat="44.19006" lon="6.80274">
    <ele>2038.2</ele>
  </wpt>
  <wpt lat="44.19058" lon="6.80994">
    <ele>2045</ele>
  </wpt>
  <wpt lat="44.19061" lon="6.80992">
    <ele>2046.9</ele>
  </wpt>
  <wpt lat="44.18999" lon="6.81314">
    <ele>2068.8</ele>
  </wpt>
  <wpt lat="44.18999" lon="6.81314">
    <ele>2068.8</ele>
  </wpt>
  <wpt lat="44.18988" lon="6.81317">
    <ele>2069</ele>
  </wpt>
  <wpt lat="44.18985" lon="6.8132">
    <ele>2069.6</ele>
  </wpt>
  <wpt lat="44.18114" lon="6.82377">
    <ele>2089.3</ele>
  </wpt>
  <wpt lat="44.18114" lon="6.82377">
    <ele>2089.3</ele>
  </wpt>
  <wpt lat="44.16608" lon="6.81839">
    <ele>2152.7</ele>
  </wpt>
  <wpt lat="44.16605" lon="6.81835">
    <ele>2154.1</ele>
  </wpt>
  <wpt lat="44.15751" lon="6.81511">
    <ele>2203.9</ele>
  </wpt>
  <wpt lat="44.15747" lon="6.81509">
    <ele>2203.9</ele>
  </wpt>
  <wpt lat="44.15747" lon="6.81509">
    <ele>2203.9</ele>
  </wpt>
  <wpt lat="44.15425" lon="6.8153">
    <ele>2138.9</ele>
  </wpt>
  <wpt lat="44.15425" lon="6.8153">
    <ele>2138.9</ele>
  </wpt>
  <wpt lat="44.14959" lon="6.81923">
    <ele>2012.6</ele>
  </wpt>
  <wpt lat="44.14959" lon="6.81923">
    <ele>2012.6</ele>
  </wpt>
  <wpt lat="44.14959" lon="6.81923">
    <ele>2012.6</ele>
  </wpt>
  <wpt lat="44.14959" lon="6.81923">
    <ele>2012.6</ele>
  </wpt>
  <wpt lat="44.14431" lon="6.82396">
    <ele>1899.3</ele>
  </wpt>
  <wpt lat="44.14587" lon="6.83235">
    <ele>1748.3</ele>
  </wpt>
  <wpt lat="44.13916" lon="6.83523">
    <ele>1498.5</ele>
  </wpt>
  <wpt lat="44.13916" lon="6.83523">
    <ele>1498.5</ele>
  </wpt>
  <wpt lat="44.13916" lon="6.83523">
    <ele>1498.5</ele>
  </wpt>
  <wpt lat="44.13875" lon="6.84379">
    <ele>1155</ele>
  </wpt>
  <wpt lat="44.10893" lon="6.85213">
    <ele>1207.1</ele>
  </wpt>
  <wpt lat="44.10893" lon="6.85213">
    <ele>1207.1</ele>
  </wpt>
  <wpt lat="44.10893" lon="6.85213">
    <ele>1207.1</ele>
  </wpt>
  <trk>
    <name><![CDATA[chamousillon]]></name>
    <desc><![CDATA[navette entraunes - col des trente souches - cime de chamousillon - bouchanieres -guillaumes]]></desc>
    <trkseg>
      <trkpt lat="44.1878" lon="6.74775">
        <ele>1303.8</ele>
        <time>2013-07-13T08:32:06Z</time>
      </trkpt>
      <trkpt lat="44.18787" lon="6.74778">
        <ele>1305.5</ele>
        <time>2013-07-13T08:32:35Z</time>
      </trkpt>
      <trkpt lat="44.18785" lon="6.74774">
        <ele>1303.4</ele>
        <time>2013-07-13T08:32:52Z</time>
      </trkpt>
      <trkpt lat="44.18782" lon="6.74775">
        <ele>1303</ele>
        <time>2013-07-13T08:32:54Z</time>
      </trkpt>
      <trkpt lat="44.18785" lon="6.74778">
        <ele>1303.3</ele>
        <time>2013-07-13T08:35:12Z</time>
      </trkpt>
      <trkpt lat="44.18785" lon="6.74774">
        <ele>1302.2</ele>
        <time>2013-07-13T08:35:17Z</time>
      </trkpt>
      <trkpt lat="44.18789" lon="6.74774">
        <ele>1302</ele>
        <time>2013-07-13T08:35:21Z</time>
      </trkpt>
      <trkpt lat="44.18792" lon="6.74778">
        <ele>1302</ele>
        <time>2013-07-13T08:35:24Z</time>
      </trkpt>
      <trkpt lat="44.18796" lon="6.74779">
        <ele>1301.8</ele>
        <time>2013-07-13T08:35:26Z</time>
      </trkpt>
      <trkpt lat="44.18797" lon="6.74775">
        <ele>1302</ele>
        <time>2013-07-13T08:35:28Z</time>
      </trkpt>
      <trkpt lat="44.18794" lon="6.74775">
        <ele>1301.8</ele>
        <time>2013-07-13T08:35:30Z</time>
      </trkpt>
      <trkpt lat="44.1879" lon="6.74776">
        <ele>1302.5</ele>
        <time>2013-07-13T08:36:22Z</time>
      </trkpt>
      <trkpt lat="44.18787" lon="6.74775">
        <ele>1302.6</ele>
        <time>2013-07-13T08:36:27Z</time>
      </trkpt>
      <trkpt lat="44.18781" lon="6.74774">
        <ele>1302.6</ele>
        <time>2013-07-13T08:36:29Z</time>
      </trkpt>
      <trkpt lat="44.18777" lon="6.74775">
        <ele>1302.6</ele>
        <time>2013-07-13T08:36:31Z</time>
      </trkpt>
      <trkpt lat="44.18772" lon="6.74776">
        <ele>1302.5</ele>
        <time>2013-07-13T08:36:33Z</time>
      </trkpt>
      <trkpt lat="44.18767" lon="6.74777">
        <ele>1302.4</ele>
        <time>2013-07-13T08:36:35Z</time>
      </trkpt>
      <trkpt lat="44.18759" lon="6.74779">
        <ele>1302.1</ele>
        <time>2013-07-13T08:36:38Z</time>
      </trkpt>
      <trkpt lat="44.18756" lon="6.7478">
        <ele>1302</ele>
        <time>2013-07-13T08:36:40Z</time>
      </trkpt>
      <trkpt lat="44.18752" lon="6.74782">
        <ele>1301.9</ele>
        <time>2013-07-13T08:36:42Z</time>
      </trkpt>
      <trkpt lat="44.18749" lon="6.74784">
        <ele>1301.8</ele>
        <time>2013-07-13T08:36:44Z</time>
      </trkpt>
      <trkpt lat="44.18745" lon="6.74788">
        <ele>1301.5</ele>
        <time>2013-07-13T08:36:46Z</time>
      </trkpt>
      <trkpt lat="44.18745" lon="6.74795">
        <ele>1301.6</ele>
        <time>2013-07-13T08:36:48Z</time>
      </trkpt>
      <trkpt lat="44.18751" lon="6.74804">
        <ele>1301.6</ele>
        <time>2013-07-13T08:36:50Z</time>
      </trkpt>
      <trkpt lat="44.18757" lon="6.7481">
        <ele>1301.2</ele>
        <time>2013-07-13T08:36:52Z</time>
      </trkpt>
      <trkpt lat="44.18765" lon="6.7482">
        <ele>1301.5</ele>
        <time>2013-07-13T08:36:55Z</time>
      </trkpt>
      <trkpt lat="44.1877" lon="6.74826">
        <ele>1301.9</ele>
        <time>2013-07-13T08:36:57Z</time>
      </trkpt>
      <trkpt lat="44.18774" lon="6.74832">
        <ele>1302.2</ele>
        <time>2013-07-13T08:36:59Z</time>
      </trkpt>
      <trkpt lat="44.1878" lon="6.74836">
        <ele>1302</ele>
        <time>2013-07-13T08:37:01Z</time>
      </trkpt>
      <trkpt lat="44.18785" lon="6.7484">
        <ele>1302.1</ele>
        <time>2013-07-13T08:37:03Z</time>
      </trkpt>
      <trkpt lat="44.18791" lon="6.74843">
        <ele>1302.4</ele>
        <time>2013-07-13T08:37:05Z</time>
      </trkpt>
      <trkpt lat="44.18797" lon="6.74845">
        <ele>1302.5</ele>
        <time>2013-07-13T08:37:07Z</time>
      </trkpt>
      <trkpt lat="44.18804" lon="6.74847">
        <ele>1302.5</ele>
        <time>2013-07-13T08:37:10Z</time>
      </trkpt>
      <trkpt lat="44.18807" lon="6.74847">
        <ele>1302.3</ele>
        <time>2013-07-13T08:37:12Z</time>
      </trkpt>
      <trkpt lat="44.18811" lon="6.74847">
        <ele>1302.6</ele>
        <time>2013-07-13T08:37:14Z</time>
      </trkpt>
      <trkpt lat="44.18815" lon="6.74846">
        <ele>1303</ele>
        <time>2013-07-13T08:37:16Z</time>
      </trkpt>
      <trkpt lat="44.1882" lon="6.74846">
        <ele>1303.3</ele>
        <time>2013-07-13T08:37:18Z</time>
      </trkpt>
      <trkpt lat="44.18822" lon="6.74848">
        <ele>1303.5</ele>
        <time>2013-07-13T08:37:20Z</time>
      </trkpt>
      <trkpt lat="44.18825" lon="6.74851">
        <ele>1303.7</ele>
        <time>2013-07-13T08:37:23Z</time>
      </trkpt>
      <trkpt lat="44.18831" lon="6.74855">
        <ele>1303.4</ele>
        <time>2013-07-13T08:37:26Z</time>
      </trkpt>
      <trkpt lat="44.18833" lon="6.74853">
        <ele>1302.8</ele>
        <time>2013-07-13T08:37:28Z</time>
      </trkpt>
      <trkpt lat="44.18838" lon="6.74853">
        <ele>1302.6</ele>
        <time>2013-07-13T08:37:30Z</time>
      </trkpt>
      <trkpt lat="44.18845" lon="6.74854">
        <ele>1302.7</ele>
        <time>2013-07-13T08:37:32Z</time>
      </trkpt>
      <trkpt lat="44.1885" lon="6.74855">
        <ele>1303</ele>
        <time>2013-07-13T08:37:34Z</time>
      </trkpt>
      <trkpt lat="44.18856" lon="6.74859">
        <ele>1303</ele>
        <time>2013-07-13T08:37:36Z</time>
      </trkpt>
      <trkpt lat="44.18863" lon="6.74866">
        <ele>1303.4</ele>
        <time>2013-07-13T08:37:38Z</time>
      </trkpt>
      <trkpt lat="44.18879" lon="6.7488">
        <ele>1303.7</ele>
        <time>2013-07-13T08:37:40Z</time>
      </trkpt>
      <trkpt lat="44.18884" lon="6.74884">
        <ele>1303.5</ele>
        <time>2013-07-13T08:37:42Z</time>
      </trkpt>
      <trkpt lat="44.18889" lon="6.74885">
        <ele>1303.4</ele>
        <time>2013-07-13T08:37:44Z</time>
      </trkpt>
      <trkpt lat="44.18895" lon="6.74886">
        <ele>1303.8</ele>
        <time>2013-07-13T08:37:46Z</time>
      </trkpt>
      <trkpt lat="44.18901" lon="6.74889">
        <ele>1304.1</ele>
        <time>2013-07-13T08:37:48Z</time>
      </trkpt>
      <trkpt lat="44.18907" lon="6.74893">
        <ele>1304.3</ele>
        <time>2013-07-13T08:37:50Z</time>
      </trkpt>
      <trkpt lat="44.18911" lon="6.749">
        <ele>1304.8</ele>
        <time>2013-07-13T08:37:53Z</time>
      </trkpt>
      <trkpt lat="44.18911" lon="6.7491">
        <ele>1304</ele>
        <time>2013-07-13T08:37:55Z</time>
      </trkpt>
      <trkpt lat="44.18912" lon="6.7492">
        <ele>1303.8</ele>
        <time>2013-07-13T08:37:57Z</time>
      </trkpt>
      <trkpt lat="44.18914" lon="6.74931">
        <ele>1303.8</ele>
        <time>2013-07-13T08:37:59Z</time>
      </trkpt>
      <trkpt lat="44.18914" lon="6.74943">
        <ele>1303.1</ele>
        <time>2013-07-13T08:38:01Z</time>
      </trkpt>
      <trkpt lat="44.18915" lon="6.74954">
        <ele>1302.5</ele>
        <time>2013-07-13T08:38:03Z</time>
      </trkpt>
      <trkpt lat="44.18919" lon="6.74966">
        <ele>1302.5</ele>
        <time>2013-07-13T08:38:05Z</time>
      </trkpt>
      <trkpt lat="44.18922" lon="6.74977">
        <ele>1302.6</ele>
        <time>2013-07-13T08:38:07Z</time>
      </trkpt>
      <trkpt lat="44.18924" lon="6.74982">
        <ele>1302.7</ele>
        <time>2013-07-13T08:38:08Z</time>
      </trkpt>
      <trkpt lat="44.18927" lon="6.74994">
        <ele>1302.7</ele>
        <time>2013-07-13T08:38:10Z</time>
      </trkpt>
      <trkpt lat="44.18924" lon="6.75005">
        <ele>1303.2</ele>
        <time>2013-07-13T08:38:12Z</time>
      </trkpt>
      <trkpt lat="44.18919" lon="6.75015">
        <ele>1303.5</ele>
        <time>2013-07-13T08:38:14Z</time>
      </trkpt>
      <trkpt lat="44.18913" lon="6.75022">
        <ele>1303.6</ele>
        <time>2013-07-13T08:38:16Z</time>
      </trkpt>
      <trkpt lat="44.18908" lon="6.75029">
        <ele>1303.8</ele>
        <time>2013-07-13T08:38:19Z</time>
      </trkpt>
      <trkpt lat="44.18904" lon="6.7503">
        <ele>1304</ele>
        <time>2013-07-13T08:38:21Z</time>
      </trkpt>
      <trkpt lat="44.189" lon="6.75026">
        <ele>1304.6</ele>
        <time>2013-07-13T08:38:23Z</time>
      </trkpt>
      <trkpt lat="44.18893" lon="6.75023">
        <ele>1304.9</ele>
        <time>2013-07-13T08:38:25Z</time>
      </trkpt>
      <trkpt lat="44.18885" lon="6.75019">
        <ele>1305.3</ele>
        <time>2013-07-13T08:38:28Z</time>
      </trkpt>
      <trkpt lat="44.1888" lon="6.75016">
        <ele>1305.1</ele>
        <time>2013-07-13T08:38:30Z</time>
      </trkpt>
      <trkpt lat="44.18872" lon="6.75015">
        <ele>1305.1</ele>
        <time>2013-07-13T08:38:33Z</time>
      </trkpt>
      <trkpt lat="44.18867" lon="6.75015">
        <ele>1305.9</ele>
        <time>2013-07-13T08:38:35Z</time>
      </trkpt>
      <trkpt lat="44.18862" lon="6.75015">
        <ele>1306.1</ele>
        <time>2013-07-13T08:38:37Z</time>
      </trkpt>
      <trkpt lat="44.18858" lon="6.75016">
        <ele>1306.4</ele>
        <time>2013-07-13T08:38:39Z</time>
      </trkpt>
      <trkpt lat="44.18853" lon="6.75016">
        <ele>1306.5</ele>
        <time>2013-07-13T08:38:41Z</time>
      </trkpt>
      <trkpt lat="44.18847" lon="6.75014">
        <ele>1306.9</ele>
        <time>2013-07-13T08:38:43Z</time>
      </trkpt>
      <trkpt lat="44.18839" lon="6.75013">
        <ele>1307.4</ele>
        <time>2013-07-13T08:38:45Z</time>
      </trkpt>
      <trkpt lat="44.18832" lon="6.75013">
        <ele>1307.2</ele>
        <time>2013-07-13T08:38:47Z</time>
      </trkpt>
      <trkpt lat="44.18825" lon="6.75014">
        <ele>1306</ele>
        <time>2013-07-13T08:38:49Z</time>
      </trkpt>
      <trkpt lat="44.18819" lon="6.75016">
        <ele>1303.4</ele>
        <time>2013-07-13T08:38:52Z</time>
      </trkpt>
      <trkpt lat="44.18814" lon="6.75015">
        <ele>1303.2</ele>
        <time>2013-07-13T08:38:54Z</time>
      </trkpt>
      <trkpt lat="44.18807" lon="6.75014">
        <ele>1303.5</ele>
        <time>2013-07-13T08:38:56Z</time>
      </trkpt>
      <trkpt lat="44.18801" lon="6.75014">
        <ele>1303.7</ele>
        <time>2013-07-13T08:38:58Z</time>
      </trkpt>
      <trkpt lat="44.18793" lon="6.75013">
        <ele>1303.8</ele>
        <time>2013-07-13T08:39:01Z</time>
      </trkpt>
      <trkpt lat="44.18789" lon="6.75012">
        <ele>1303.9</ele>
        <time>2013-07-13T08:39:03Z</time>
      </trkpt>
      <trkpt lat="44.18783" lon="6.75011">
        <ele>1303.6</ele>
        <time>2013-07-13T08:39:05Z</time>
      </trkpt>
      <trkpt lat="44.18775" lon="6.75011">
        <ele>1303.6</ele>
        <time>2013-07-13T08:39:08Z</time>
      </trkpt>
      <trkpt lat="44.1877" lon="6.75011">
        <ele>1303.8</ele>
        <time>2013-07-13T08:39:10Z</time>
      </trkpt>
      <trkpt lat="44.18763" lon="6.75012">
        <ele>1303.8</ele>
        <time>2013-07-13T08:39:12Z</time>
      </trkpt>
      <trkpt lat="44.18756" lon="6.75014">
        <ele>1304.2</ele>
        <time>2013-07-13T08:39:14Z</time>
      </trkpt>
      <trkpt lat="44.18749" lon="6.75017">
        <ele>1304.5</ele>
        <time>2013-07-13T08:39:16Z</time>
      </trkpt>
      <trkpt lat="44.18741" lon="6.75021">
        <ele>1305</ele>
        <time>2013-07-13T08:39:18Z</time>
      </trkpt>
      <trkpt lat="44.18733" lon="6.75025">
        <ele>1305.5</ele>
        <time>2013-07-13T08:39:20Z</time>
      </trkpt>
      <trkpt lat="44.1873" lon="6.75027">
        <ele>1305.8</ele>
        <time>2013-07-13T08:39:21Z</time>
      </trkpt>
      <trkpt lat="44.18722" lon="6.75031">
        <ele>1305.8</ele>
        <time>2013-07-13T08:39:23Z</time>
      </trkpt>
      <trkpt lat="44.18714" lon="6.75035">
        <ele>1306.3</ele>
        <time>2013-07-13T08:39:25Z</time>
      </trkpt>
      <trkpt lat="44.18706" lon="6.75038">
        <ele>1306.8</ele>
        <time>2013-07-13T08:39:27Z</time>
      </trkpt>
      <trkpt lat="44.18698" lon="6.75039">
        <ele>1307.5</ele>
        <time>2013-07-13T08:39:29Z</time>
      </trkpt>
      <trkpt lat="44.18691" lon="6.7504">
        <ele>1308.3</ele>
        <time>2013-07-13T08:39:31Z</time>
      </trkpt>
      <trkpt lat="44.18683" lon="6.7504">
        <ele>1308.9</ele>
        <time>2013-07-13T08:39:33Z</time>
      </trkpt>
      <trkpt lat="44.18676" lon="6.75039">
        <ele>1309</ele>
        <time>2013-07-13T08:39:36Z</time>
      </trkpt>
      <trkpt lat="44.18671" lon="6.75038">
        <ele>1309.2</ele>
        <time>2013-07-13T08:39:38Z</time>
      </trkpt>
      <trkpt lat="44.18667" lon="6.75039">
        <ele>1309.6</ele>
        <time>2013-07-13T08:39:40Z</time>
      </trkpt>
      <trkpt lat="44.18663" lon="6.7504">
        <ele>1309.8</ele>
        <time>2013-07-13T08:39:42Z</time>
      </trkpt>
      <trkpt lat="44.18662" lon="6.75046">
        <ele>1310.4</ele>
        <time>2013-07-13T08:39:44Z</time>
      </trkpt>
      <trkpt lat="44.18659" lon="6.75049">
        <ele>1310.7</ele>
        <time>2013-07-13T08:39:46Z</time>
      </trkpt>
      <trkpt lat="44.18655" lon="6.7505">
        <ele>1311.1</ele>
        <time>2013-07-13T08:39:48Z</time>
      </trkpt>
      <trkpt lat="44.1865" lon="6.75053">
        <ele>1311.9</ele>
        <time>2013-07-13T08:39:50Z</time>
      </trkpt>
      <trkpt lat="44.18642" lon="6.75058">
        <ele>1312.1</ele>
        <time>2013-07-13T08:39:53Z</time>
      </trkpt>
      <trkpt lat="44.18639" lon="6.75064">
        <ele>1311.8</ele>
        <time>2013-07-13T08:39:55Z</time>
      </trkpt>
      <trkpt lat="44.18633" lon="6.75068">
        <ele>1311.8</ele>
        <time>2013-07-13T08:39:57Z</time>
      </trkpt>
      <trkpt lat="44.1862" lon="6.7507">
        <ele>1311.8</ele>
        <time>2013-07-13T08:40:00Z</time>
      </trkpt>
      <trkpt lat="44.18612" lon="6.75073">
        <ele>1311.6</ele>
        <time>2013-07-13T08:40:02Z</time>
      </trkpt>
      <trkpt lat="44.18603" lon="6.75078">
        <ele>1311.3</ele>
        <time>2013-07-13T08:40:04Z</time>
      </trkpt>
      <trkpt lat="44.18599" lon="6.75082">
        <ele>1311.1</ele>
        <time>2013-07-13T08:40:05Z</time>
      </trkpt>
      <trkpt lat="44.18589" lon="6.75087">
        <ele>1312.1</ele>
        <time>2013-07-13T08:40:07Z</time>
      </trkpt>
      <trkpt lat="44.18581" lon="6.75093">
        <ele>1312.5</ele>
        <time>2013-07-13T08:40:09Z</time>
      </trkpt>
      <trkpt lat="44.18574" lon="6.75101">
        <ele>1312.7</ele>
        <time>2013-07-13T08:40:11Z</time>
      </trkpt>
      <trkpt lat="44.18567" lon="6.75106">
        <ele>1312.2</ele>
        <time>2013-07-13T08:40:13Z</time>
      </trkpt>
      <trkpt lat="44.1856" lon="6.75108">
        <ele>1312.2</ele>
        <time>2013-07-13T08:40:15Z</time>
      </trkpt>
      <trkpt lat="44.18551" lon="6.75109">
        <ele>1312.1</ele>
        <time>2013-07-13T08:40:17Z</time>
      </trkpt>
      <trkpt lat="44.18543" lon="6.7511">
        <ele>1312.2</ele>
        <time>2013-07-13T08:40:19Z</time>
      </trkpt>
      <trkpt lat="44.18536" lon="6.75113">
        <ele>1312.5</ele>
        <time>2013-07-13T08:40:21Z</time>
      </trkpt>
      <trkpt lat="44.18527" lon="6.75116">
        <ele>1312.7</ele>
        <time>2013-07-13T08:40:23Z</time>
      </trkpt>
      <trkpt lat="44.18517" lon="6.75118">
        <ele>1313.2</ele>
        <time>2013-07-13T08:40:25Z</time>
      </trkpt>
      <trkpt lat="44.18511" lon="6.7512">
        <ele>1313.7</ele>
        <time>2013-07-13T08:40:27Z</time>
      </trkpt>
      <trkpt lat="44.18503" lon="6.75126">
        <ele>1315</ele>
        <time>2013-07-13T08:40:30Z</time>
      </trkpt>
      <trkpt lat="44.18495" lon="6.75128">
        <ele>1315.8</ele>
        <time>2013-07-13T08:40:33Z</time>
      </trkpt>
      <trkpt lat="44.18487" lon="6.75131">
        <ele>1316.3</ele>
        <time>2013-07-13T08:40:36Z</time>
      </trkpt>
      <trkpt lat="44.18481" lon="6.75133">
        <ele>1316.4</ele>
        <time>2013-07-13T08:40:38Z</time>
      </trkpt>
      <trkpt lat="44.18473" lon="6.75135">
        <ele>1316.2</ele>
        <time>2013-07-13T08:40:40Z</time>
      </trkpt>
      <trkpt lat="44.18466" lon="6.75139">
        <ele>1316</ele>
        <time>2013-07-13T08:40:42Z</time>
      </trkpt>
      <trkpt lat="44.18457" lon="6.75142">
        <ele>1315.8</ele>
        <time>2013-07-13T08:40:44Z</time>
      </trkpt>
      <trkpt lat="44.1845" lon="6.75146">
        <ele>1315.7</ele>
        <time>2013-07-13T08:40:46Z</time>
      </trkpt>
      <trkpt lat="44.18443" lon="6.7515">
        <ele>1316.3</ele>
        <time>2013-07-13T08:40:48Z</time>
      </trkpt>
      <trkpt lat="44.18436" lon="6.75154">
        <ele>1316.7</ele>
        <time>2013-07-13T08:40:51Z</time>
      </trkpt>
      <trkpt lat="44.18435" lon="6.75163">
        <ele>1317.2</ele>
        <time>2013-07-13T08:40:53Z</time>
      </trkpt>
      <trkpt lat="44.18436" lon="6.75171">
        <ele>1317.3</ele>
        <time>2013-07-13T08:40:55Z</time>
      </trkpt>
      <trkpt lat="44.18434" lon="6.75182">
        <ele>1317.6</ele>
        <time>2013-07-13T08:40:58Z</time>
      </trkpt>
      <trkpt lat="44.1844" lon="6.75191">
        <ele>1318.3</ele>
        <time>2013-07-13T08:41:00Z</time>
      </trkpt>
      <trkpt lat="44.18445" lon="6.75195">
        <ele>1318.4</ele>
        <time>2013-07-13T08:41:02Z</time>
      </trkpt>
      <trkpt lat="44.18448" lon="6.75195">
        <ele>1318.7</ele>
        <time>2013-07-13T08:41:04Z</time>
      </trkpt>
      <trkpt lat="44.18458" lon="6.75194">
        <ele>1319.1</ele>
        <time>2013-07-13T08:41:08Z</time>
      </trkpt>
      <trkpt lat="44.1846" lon="6.75191">
        <ele>1319.2</ele>
        <time>2013-07-13T08:41:10Z</time>
      </trkpt>
      <trkpt lat="44.18463" lon="6.7519">
        <ele>1320</ele>
        <time>2013-07-13T08:41:13Z</time>
      </trkpt>
      <trkpt lat="44.18469" lon="6.75192">
        <ele>1320.6</ele>
        <time>2013-07-13T08:41:15Z</time>
      </trkpt>
      <trkpt lat="44.18472" lon="6.75192">
        <ele>1320.9</ele>
        <time>2013-07-13T08:41:17Z</time>
      </trkpt>
      <trkpt lat="44.18476" lon="6.75194">
        <ele>1321.2</ele>
        <time>2013-07-13T08:41:19Z</time>
      </trkpt>
      <trkpt lat="44.18484" lon="6.75196">
        <ele>1321.7</ele>
        <time>2013-07-13T08:41:22Z</time>
      </trkpt>
      <trkpt lat="44.18488" lon="6.75196">
        <ele>1322</ele>
        <time>2013-07-13T08:41:24Z</time>
      </trkpt>
      <trkpt lat="44.18492" lon="6.75197">
        <ele>1322.1</ele>
        <time>2013-07-13T08:41:26Z</time>
      </trkpt>
      <trkpt lat="44.18497" lon="6.75198">
        <ele>1322.6</ele>
        <time>2013-07-13T08:41:28Z</time>
      </trkpt>
      <trkpt lat="44.185" lon="6.75197">
        <ele>1323</ele>
        <time>2013-07-13T08:41:31Z</time>
      </trkpt>
      <trkpt lat="44.18504" lon="6.75197">
        <ele>1323.3</ele>
        <time>2013-07-13T08:41:33Z</time>
      </trkpt>
      <trkpt lat="44.18507" lon="6.75197">
        <ele>1323.4</ele>
        <time>2013-07-13T08:41:35Z</time>
      </trkpt>
      <trkpt lat="44.1851" lon="6.75196">
        <ele>1323.8</ele>
        <time>2013-07-13T08:41:38Z</time>
      </trkpt>
      <trkpt lat="44.18514" lon="6.75193">
        <ele>1324.6</ele>
        <time>2013-07-13T08:41:41Z</time>
      </trkpt>
      <trkpt lat="44.18516" lon="6.75194">
        <ele>1324.9</ele>
        <time>2013-07-13T08:41:43Z</time>
      </trkpt>
      <trkpt lat="44.18517" lon="6.7519">
        <ele>1325.3</ele>
        <time>2013-07-13T08:41:49Z</time>
      </trkpt>
      <trkpt lat="44.18523" lon="6.75189">
        <ele>1325.9</ele>
        <time>2013-07-13T08:41:52Z</time>
      </trkpt>
      <trkpt lat="44.18526" lon="6.75189">
        <ele>1326.5</ele>
        <time>2013-07-13T08:41:54Z</time>
      </trkpt>
      <trkpt lat="44.18532" lon="6.75191">
        <ele>1327</ele>
        <time>2013-07-13T08:41:56Z</time>
      </trkpt>
      <trkpt lat="44.18535" lon="6.75191">
        <ele>1327.7</ele>
        <time>2013-07-13T08:41:58Z</time>
      </trkpt>
      <trkpt lat="44.18538" lon="6.75191">
        <ele>1328.5</ele>
        <time>2013-07-13T08:42:00Z</time>
      </trkpt>
      <trkpt lat="44.18544" lon="6.75192">
        <ele>1328.9</ele>
        <time>2013-07-13T08:42:02Z</time>
      </trkpt>
      <trkpt lat="44.18548" lon="6.75192">
        <ele>1329.4</ele>
        <time>2013-07-13T08:42:04Z</time>
      </trkpt>
      <trkpt lat="44.18552" lon="6.75192">
        <ele>1329.8</ele>
        <time>2013-07-13T08:42:06Z</time>
      </trkpt>
      <trkpt lat="44.18558" lon="6.75192">
        <ele>1330.2</ele>
        <time>2013-07-13T08:42:09Z</time>
      </trkpt>
      <trkpt lat="44.18562" lon="6.75189">
        <ele>1330.4</ele>
        <time>2013-07-13T08:42:11Z</time>
      </trkpt>
      <trkpt lat="44.18564" lon="6.75186">
        <ele>1330.9</ele>
        <time>2013-07-13T08:42:14Z</time>
      </trkpt>
      <trkpt lat="44.18568" lon="6.75187">
        <ele>1331.6</ele>
        <time>2013-07-13T08:42:16Z</time>
      </trkpt>
      <trkpt lat="44.18576" lon="6.75187">
        <ele>1332.5</ele>
        <time>2013-07-13T08:42:20Z</time>
      </trkpt>
      <trkpt lat="44.18581" lon="6.75187">
        <ele>1333.3</ele>
        <time>2013-07-13T08:42:24Z</time>
      </trkpt>
      <trkpt lat="44.18586" lon="6.75187">
        <ele>1333.2</ele>
        <time>2013-07-13T08:42:26Z</time>
      </trkpt>
      <trkpt lat="44.18591" lon="6.75186">
        <ele>1333.3</ele>
        <time>2013-07-13T08:42:28Z</time>
      </trkpt>
      <trkpt lat="44.18594" lon="6.75185">
        <ele>1333.2</ele>
        <time>2013-07-13T08:42:30Z</time>
      </trkpt>
      <trkpt lat="44.18597" lon="6.75184">
        <ele>1333.9</ele>
        <time>2013-07-13T08:42:33Z</time>
      </trkpt>
      <trkpt lat="44.18602" lon="6.75184">
        <ele>1334.8</ele>
        <time>2013-07-13T08:42:36Z</time>
      </trkpt>
      <trkpt lat="44.18607" lon="6.75183">
        <ele>1336.1</ele>
        <time>2013-07-13T08:42:39Z</time>
      </trkpt>
      <trkpt lat="44.18611" lon="6.75182">
        <ele>1336.5</ele>
        <time>2013-07-13T08:42:41Z</time>
      </trkpt>
      <trkpt lat="44.18618" lon="6.75183">
        <ele>1336.6</ele>
        <time>2013-07-13T08:42:44Z</time>
      </trkpt>
      <trkpt lat="44.18623" lon="6.75184">
        <ele>1336.5</ele>
        <time>2013-07-13T08:42:46Z</time>
      </trkpt>
      <trkpt lat="44.18626" lon="6.75185">
        <ele>1336.5</ele>
        <time>2013-07-13T08:42:48Z</time>
      </trkpt>
      <trkpt lat="44.1863" lon="6.75186">
        <ele>1337</ele>
        <time>2013-07-13T08:42:50Z</time>
      </trkpt>
      <trkpt lat="44.18633" lon="6.75187">
        <ele>1337.9</ele>
        <time>2013-07-13T08:42:52Z</time>
      </trkpt>
      <trkpt lat="44.18636" lon="6.75187">
        <ele>1338.6</ele>
        <time>2013-07-13T08:42:54Z</time>
      </trkpt>
      <trkpt lat="44.18639" lon="6.75185">
        <ele>1339.8</ele>
        <time>2013-07-13T08:42:57Z</time>
      </trkpt>
      <trkpt lat="44.18641" lon="6.75181">
        <ele>1340.3</ele>
        <time>2013-07-13T08:43:00Z</time>
      </trkpt>
      <trkpt lat="44.18644" lon="6.75181">
        <ele>1340.8</ele>
        <time>2013-07-13T08:43:02Z</time>
      </trkpt>
      <trkpt lat="44.18648" lon="6.7518">
        <ele>1341</ele>
        <time>2013-07-13T08:43:04Z</time>
      </trkpt>
      <trkpt lat="44.18656" lon="6.75179">
        <ele>1341.7</ele>
        <time>2013-07-13T08:43:08Z</time>
      </trkpt>
      <trkpt lat="44.18662" lon="6.75181">
        <ele>1342.1</ele>
        <time>2013-07-13T08:43:10Z</time>
      </trkpt>
      <trkpt lat="44.18666" lon="6.75183">
        <ele>1342.6</ele>
        <time>2013-07-13T08:43:12Z</time>
      </trkpt>
      <trkpt lat="44.18671" lon="6.75185">
        <ele>1343.2</ele>
        <time>2013-07-13T08:43:14Z</time>
      </trkpt>
      <trkpt lat="44.18673" lon="6.75187">
        <ele>1343.5</ele>
        <time>2013-07-13T08:43:16Z</time>
      </trkpt>
      <trkpt lat="44.18678" lon="6.75186">
        <ele>1344.2</ele>
        <time>2013-07-13T08:43:19Z</time>
      </trkpt>
      <trkpt lat="44.1868" lon="6.75182">
        <ele>1344.7</ele>
        <time>2013-07-13T08:43:22Z</time>
      </trkpt>
      <trkpt lat="44.18679" lon="6.75179">
        <ele>1345.2</ele>
        <time>2013-07-13T08:43:24Z</time>
      </trkpt>
      <trkpt lat="44.1868" lon="6.75174">
        <ele>1346.2</ele>
        <time>2013-07-13T08:43:27Z</time>
      </trkpt>
      <trkpt lat="44.18682" lon="6.75171">
        <ele>1346.9</ele>
        <time>2013-07-13T08:43:29Z</time>
      </trkpt>
      <trkpt lat="44.18686" lon="6.75169">
        <ele>1348.4</ele>
        <time>2013-07-13T08:43:32Z</time>
      </trkpt>
      <trkpt lat="44.18691" lon="6.75169">
        <ele>1349.9</ele>
        <time>2013-07-13T08:43:34Z</time>
      </trkpt>
      <trkpt lat="44.18697" lon="6.75171">
        <ele>1350.8</ele>
        <time>2013-07-13T08:43:36Z</time>
      </trkpt>
      <trkpt lat="44.18705" lon="6.75173">
        <ele>1351.9</ele>
        <time>2013-07-13T08:43:38Z</time>
      </trkpt>
      <trkpt lat="44.1871" lon="6.75172">
        <ele>1352.4</ele>
        <time>2013-07-13T08:43:40Z</time>
      </trkpt>
      <trkpt lat="44.18713" lon="6.7517">
        <ele>1352.3</ele>
        <time>2013-07-13T08:43:42Z</time>
      </trkpt>
      <trkpt lat="44.18719" lon="6.75169">
        <ele>1352.4</ele>
        <time>2013-07-13T08:43:44Z</time>
      </trkpt>
      <trkpt lat="44.18723" lon="6.75168">
        <ele>1352.5</ele>
        <time>2013-07-13T08:43:46Z</time>
      </trkpt>
      <trkpt lat="44.18727" lon="6.75168">
        <ele>1352.8</ele>
        <time>2013-07-13T08:43:48Z</time>
      </trkpt>
      <trkpt lat="44.18732" lon="6.7517">
        <ele>1353.2</ele>
        <time>2013-07-13T08:43:50Z</time>
      </trkpt>
      <trkpt lat="44.18736" lon="6.7517">
        <ele>1354.6</ele>
        <time>2013-07-13T08:43:53Z</time>
      </trkpt>
      <trkpt lat="44.18739" lon="6.75169">
        <ele>1354.5</ele>
        <time>2013-07-13T08:43:55Z</time>
      </trkpt>
      <trkpt lat="44.18745" lon="6.7517">
        <ele>1355.2</ele>
        <time>2013-07-13T08:43:58Z</time>
      </trkpt>
      <trkpt lat="44.18756" lon="6.75173">
        <ele>1356</ele>
        <time>2013-07-13T08:44:00Z</time>
      </trkpt>
      <trkpt lat="44.18761" lon="6.75173">
        <ele>1356.4</ele>
        <time>2013-07-13T08:44:02Z</time>
      </trkpt>
      <trkpt lat="44.18764" lon="6.75172">
        <ele>1357.2</ele>
        <time>2013-07-13T08:44:04Z</time>
      </trkpt>
      <trkpt lat="44.18767" lon="6.75171">
        <ele>1357.5</ele>
        <time>2013-07-13T08:44:06Z</time>
      </trkpt>
      <trkpt lat="44.18775" lon="6.7517">
        <ele>1358.5</ele>
        <time>2013-07-13T08:44:10Z</time>
      </trkpt>
      <trkpt lat="44.18781" lon="6.75171">
        <ele>1359</ele>
        <time>2013-07-13T08:44:12Z</time>
      </trkpt>
      <trkpt lat="44.18787" lon="6.75172">
        <ele>1359.5</ele>
        <time>2013-07-13T08:44:14Z</time>
      </trkpt>
      <trkpt lat="44.1879" lon="6.75171">
        <ele>1359.8</ele>
        <time>2013-07-13T08:44:16Z</time>
      </trkpt>
      <trkpt lat="44.18793" lon="6.75171">
        <ele>1360.2</ele>
        <time>2013-07-13T08:44:18Z</time>
      </trkpt>
      <trkpt lat="44.18797" lon="6.7517">
        <ele>1360.8</ele>
        <time>2013-07-13T08:44:21Z</time>
      </trkpt>
      <trkpt lat="44.188" lon="6.75169">
        <ele>1361.4</ele>
        <time>2013-07-13T08:44:23Z</time>
      </trkpt>
      <trkpt lat="44.18804" lon="6.75168">
        <ele>1362.1</ele>
        <time>2013-07-13T08:44:26Z</time>
      </trkpt>
      <trkpt lat="44.18808" lon="6.75169">
        <ele>1362.3</ele>
        <time>2013-07-13T08:44:29Z</time>
      </trkpt>
      <trkpt lat="44.18811" lon="6.75169">
        <ele>1362.6</ele>
        <time>2013-07-13T08:44:31Z</time>
      </trkpt>
      <trkpt lat="44.18814" lon="6.75169">
        <ele>1363.5</ele>
        <time>2013-07-13T08:44:34Z</time>
      </trkpt>
      <trkpt lat="44.18818" lon="6.75171">
        <ele>1363.9</ele>
        <time>2013-07-13T08:44:36Z</time>
      </trkpt>
      <trkpt lat="44.18821" lon="6.75172">
        <ele>1364.5</ele>
        <time>2013-07-13T08:44:38Z</time>
      </trkpt>
      <trkpt lat="44.18826" lon="6.75174">
        <ele>1365.1</ele>
        <time>2013-07-13T08:44:40Z</time>
      </trkpt>
      <trkpt lat="44.18829" lon="6.75177">
        <ele>1365.5</ele>
        <time>2013-07-13T08:44:42Z</time>
      </trkpt>
      <trkpt lat="44.18832" lon="6.75179">
        <ele>1365.9</ele>
        <time>2013-07-13T08:44:44Z</time>
      </trkpt>
      <trkpt lat="44.18834" lon="6.75183">
        <ele>1366.2</ele>
        <time>2013-07-13T08:44:47Z</time>
      </trkpt>
      <trkpt lat="44.18836" lon="6.75188">
        <ele>1366.8</ele>
        <time>2013-07-13T08:44:50Z</time>
      </trkpt>
      <trkpt lat="44.18837" lon="6.75192">
        <ele>1366.9</ele>
        <time>2013-07-13T08:44:53Z</time>
      </trkpt>
      <trkpt lat="44.18835" lon="6.75195">
        <ele>1367.7</ele>
        <time>2013-07-13T08:44:55Z</time>
      </trkpt>
      <trkpt lat="44.18833" lon="6.75199">
        <ele>1367.9</ele>
        <time>2013-07-13T08:44:57Z</time>
      </trkpt>
      <trkpt lat="44.1883" lon="6.75204">
        <ele>1368.6</ele>
        <time>2013-07-13T08:44:59Z</time>
      </trkpt>
      <trkpt lat="44.18827" lon="6.75208">
        <ele>1368.8</ele>
        <time>2013-07-13T08:45:01Z</time>
      </trkpt>
      <trkpt lat="44.18827" lon="6.75214">
        <ele>1369.1</ele>
        <time>2013-07-13T08:45:03Z</time>
      </trkpt>
      <trkpt lat="44.18826" lon="6.75222">
        <ele>1369.1</ele>
        <time>2013-07-13T08:45:05Z</time>
      </trkpt>
      <trkpt lat="44.18825" lon="6.75226">
        <ele>1369.3</ele>
        <time>2013-07-13T08:45:07Z</time>
      </trkpt>
      <trkpt lat="44.18825" lon="6.7523">
        <ele>1369.6</ele>
        <time>2013-07-13T08:45:09Z</time>
      </trkpt>
      <trkpt lat="44.18825" lon="6.75235">
        <ele>1369.8</ele>
        <time>2013-07-13T08:45:11Z</time>
      </trkpt>
      <trkpt lat="44.18826" lon="6.7524">
        <ele>1370.1</ele>
        <time>2013-07-13T08:45:13Z</time>
      </trkpt>
      <trkpt lat="44.18829" lon="6.75246">
        <ele>1370.6</ele>
        <time>2013-07-13T08:45:15Z</time>
      </trkpt>
      <trkpt lat="44.18832" lon="6.75252">
        <ele>1370.6</ele>
        <time>2013-07-13T08:45:17Z</time>
      </trkpt>
      <trkpt lat="44.18836" lon="6.75256">
        <ele>1371.1</ele>
        <time>2013-07-13T08:45:19Z</time>
      </trkpt>
      <trkpt lat="44.18838" lon="6.75261">
        <ele>1371.5</ele>
        <time>2013-07-13T08:45:21Z</time>
      </trkpt>
      <trkpt lat="44.1884" lon="6.75266">
        <ele>1371.9</ele>
        <time>2013-07-13T08:45:23Z</time>
      </trkpt>
      <trkpt lat="44.18841" lon="6.75271">
        <ele>1371.8</ele>
        <time>2013-07-13T08:45:25Z</time>
      </trkpt>
      <trkpt lat="44.18843" lon="6.75275">
        <ele>1371.8</ele>
        <time>2013-07-13T08:45:27Z</time>
      </trkpt>
      <trkpt lat="44.18844" lon="6.75278">
        <ele>1372.5</ele>
        <time>2013-07-13T08:45:29Z</time>
      </trkpt>
      <trkpt lat="44.18846" lon="6.75282">
        <ele>1373.2</ele>
        <time>2013-07-13T08:45:35Z</time>
      </trkpt>
      <trkpt lat="44.18848" lon="6.75285">
        <ele>1374.1</ele>
        <time>2013-07-13T08:45:41Z</time>
      </trkpt>
      <trkpt lat="44.1885" lon="6.75289">
        <ele>1374.4</ele>
        <time>2013-07-13T08:45:45Z</time>
      </trkpt>
      <trkpt lat="44.18852" lon="6.75292">
        <ele>1374.8</ele>
        <time>2013-07-13T08:45:48Z</time>
      </trkpt>
      <trkpt lat="44.18855" lon="6.75295">
        <ele>1375.1</ele>
        <time>2013-07-13T08:45:50Z</time>
      </trkpt>
      <trkpt lat="44.18858" lon="6.75298">
        <ele>1375.6</ele>
        <time>2013-07-13T08:45:52Z</time>
      </trkpt>
      <trkpt lat="44.18862" lon="6.753">
        <ele>1375.8</ele>
        <time>2013-07-13T08:45:54Z</time>
      </trkpt>
      <trkpt lat="44.18866" lon="6.75302">
        <ele>1376.2</ele>
        <time>2013-07-13T08:45:56Z</time>
      </trkpt>
      <trkpt lat="44.18869" lon="6.75304">
        <ele>1376.5</ele>
        <time>2013-07-13T08:45:58Z</time>
      </trkpt>
      <trkpt lat="44.18876" lon="6.7531">
        <ele>1377</ele>
        <time>2013-07-13T08:46:02Z</time>
      </trkpt>
      <trkpt lat="44.18879" lon="6.75313">
        <ele>1377.2</ele>
        <time>2013-07-13T08:46:04Z</time>
      </trkpt>
      <trkpt lat="44.18882" lon="6.75316">
        <ele>1377.4</ele>
        <time>2013-07-13T08:46:06Z</time>
      </trkpt>
      <trkpt lat="44.18884" lon="6.75317">
        <ele>1377.6</ele>
        <time>2013-07-13T08:46:16Z</time>
      </trkpt>
      <trkpt lat="44.18888" lon="6.75322">
        <ele>1377.7</ele>
        <time>2013-07-13T08:46:18Z</time>
      </trkpt>
      <trkpt lat="44.18893" lon="6.75325">
        <ele>1378</ele>
        <time>2013-07-13T08:46:20Z</time>
      </trkpt>
      <trkpt lat="44.18898" lon="6.75327">
        <ele>1378.6</ele>
        <time>2013-07-13T08:46:22Z</time>
      </trkpt>
      <trkpt lat="44.18903" lon="6.75329">
        <ele>1379</ele>
        <time>2013-07-13T08:46:24Z</time>
      </trkpt>
      <trkpt lat="44.18909" lon="6.75332">
        <ele>1379.6</ele>
        <time>2013-07-13T08:46:26Z</time>
      </trkpt>
      <trkpt lat="44.18918" lon="6.75337">
        <ele>1379.8</ele>
        <time>2013-07-13T08:46:28Z</time>
      </trkpt>
      <trkpt lat="44.18928" lon="6.75343">
        <ele>1379.8</ele>
        <time>2013-07-13T08:46:30Z</time>
      </trkpt>
      <trkpt lat="44.18936" lon="6.75348">
        <ele>1380</ele>
        <time>2013-07-13T08:46:32Z</time>
      </trkpt>
      <trkpt lat="44.18942" lon="6.75353">
        <ele>1380.8</ele>
        <time>2013-07-13T08:46:35Z</time>
      </trkpt>
      <trkpt lat="44.18942" lon="6.75358">
        <ele>1381.5</ele>
        <time>2013-07-13T08:46:37Z</time>
      </trkpt>
      <trkpt lat="44.18939" lon="6.7536">
        <ele>1381.9</ele>
        <time>2013-07-13T08:46:41Z</time>
      </trkpt>
      <trkpt lat="44.1894" lon="6.75364">
        <ele>1383.6</ele>
        <time>2013-07-13T08:46:45Z</time>
      </trkpt>
      <trkpt lat="44.18938" lon="6.75367">
        <ele>1385.7</ele>
        <time>2013-07-13T08:46:51Z</time>
      </trkpt>
      <trkpt lat="44.18935" lon="6.75366">
        <ele>1386.7</ele>
        <time>2013-07-13T08:46:54Z</time>
      </trkpt>
      <trkpt lat="44.18932" lon="6.75364">
        <ele>1387.1</ele>
        <time>2013-07-13T08:46:56Z</time>
      </trkpt>
      <trkpt lat="44.18929" lon="6.75365">
        <ele>1388.4</ele>
        <time>2013-07-13T08:47:00Z</time>
      </trkpt>
      <trkpt lat="44.1893" lon="6.75369">
        <ele>1389.7</ele>
        <time>2013-07-13T08:47:04Z</time>
      </trkpt>
      <trkpt lat="44.18928" lon="6.75366">
        <ele>1391.6</ele>
        <time>2013-07-13T08:47:10Z</time>
      </trkpt>
      <trkpt lat="44.18925" lon="6.75364">
        <ele>1392.3</ele>
        <time>2013-07-13T08:47:13Z</time>
      </trkpt>
      <trkpt lat="44.18922" lon="6.75361">
        <ele>1392.7</ele>
        <time>2013-07-13T08:47:15Z</time>
      </trkpt>
      <trkpt lat="44.18915" lon="6.75357">
        <ele>1392.9</ele>
        <time>2013-07-13T08:47:18Z</time>
      </trkpt>
      <trkpt lat="44.1891" lon="6.75357">
        <ele>1393.3</ele>
        <time>2013-07-13T08:47:20Z</time>
      </trkpt>
      <trkpt lat="44.18906" lon="6.75356">
        <ele>1393.7</ele>
        <time>2013-07-13T08:47:22Z</time>
      </trkpt>
      <trkpt lat="44.18903" lon="6.75356">
        <ele>1394.3</ele>
        <time>2013-07-13T08:47:24Z</time>
      </trkpt>
      <trkpt lat="44.189" lon="6.75357">
        <ele>1395.7</ele>
        <time>2013-07-13T08:47:26Z</time>
      </trkpt>
      <trkpt lat="44.18897" lon="6.75355">
        <ele>1396.9</ele>
        <time>2013-07-13T08:47:29Z</time>
      </trkpt>
      <trkpt lat="44.18893" lon="6.75354">
        <ele>1398.4</ele>
        <time>2013-07-13T08:47:32Z</time>
      </trkpt>
      <trkpt lat="44.18889" lon="6.75355">
        <ele>1398.7</ele>
        <time>2013-07-13T08:47:34Z</time>
      </trkpt>
      <trkpt lat="44.18886" lon="6.75354">
        <ele>1398.7</ele>
        <time>2013-07-13T08:47:36Z</time>
      </trkpt>
      <trkpt lat="44.18884" lon="6.75355">
        <ele>1399.3</ele>
        <time>2013-07-13T08:47:39Z</time>
      </trkpt>
      <trkpt lat="44.18879" lon="6.75354">
        <ele>1400.3</ele>
        <time>2013-07-13T08:47:42Z</time>
      </trkpt>
      <trkpt lat="44.18875" lon="6.75354">
        <ele>1401.4</ele>
        <time>2013-07-13T08:47:45Z</time>
      </trkpt>
      <trkpt lat="44.18872" lon="6.75352">
        <ele>1402.3</ele>
        <time>2013-07-13T08:47:48Z</time>
      </trkpt>
      <trkpt lat="44.18869" lon="6.75352">
        <ele>1402.9</ele>
        <time>2013-07-13T08:47:50Z</time>
      </trkpt>
      <trkpt lat="44.18865" lon="6.75351">
        <ele>1403.5</ele>
        <time>2013-07-13T08:47:53Z</time>
      </trkpt>
      <trkpt lat="44.18863" lon="6.75349">
        <ele>1403.6</ele>
        <time>2013-07-13T08:47:55Z</time>
      </trkpt>
      <trkpt lat="44.18857" lon="6.75345">
        <ele>1405.5</ele>
        <time>2013-07-13T08:48:02Z</time>
      </trkpt>
      <trkpt lat="44.18855" lon="6.75343">
        <ele>1406.2</ele>
        <time>2013-07-13T08:48:04Z</time>
      </trkpt>
      <trkpt lat="44.18852" lon="6.75341">
        <ele>1407.1</ele>
        <time>2013-07-13T08:48:07Z</time>
      </trkpt>
      <trkpt lat="44.18842" lon="6.75338">
        <ele>1409.9</ele>
        <time>2013-07-13T08:48:15Z</time>
      </trkpt>
      <trkpt lat="44.18839" lon="6.75336">
        <ele>1410.5</ele>
        <time>2013-07-13T08:48:17Z</time>
      </trkpt>
      <trkpt lat="44.18837" lon="6.75334">
        <ele>1411</ele>
        <time>2013-07-13T08:48:19Z</time>
      </trkpt>
      <trkpt lat="44.18834" lon="6.75331">
        <ele>1411.3</ele>
        <time>2013-07-13T08:48:21Z</time>
      </trkpt>
      <trkpt lat="44.18832" lon="6.75328">
        <ele>1411.6</ele>
        <time>2013-07-13T08:48:23Z</time>
      </trkpt>
      <trkpt lat="44.18829" lon="6.75325">
        <ele>1411.9</ele>
        <time>2013-07-13T08:48:25Z</time>
      </trkpt>
      <trkpt lat="44.18827" lon="6.75322">
        <ele>1412.5</ele>
        <time>2013-07-13T08:48:27Z</time>
      </trkpt>
      <trkpt lat="44.18825" lon="6.7532">
        <ele>1412.8</ele>
        <time>2013-07-13T08:48:29Z</time>
      </trkpt>
      <trkpt lat="44.18822" lon="6.75317">
        <ele>1413.2</ele>
        <time>2013-07-13T08:48:31Z</time>
      </trkpt>
      <trkpt lat="44.1882" lon="6.75314">
        <ele>1413.6</ele>
        <time>2013-07-13T08:48:33Z</time>
      </trkpt>
      <trkpt lat="44.18816" lon="6.75313">
        <ele>1413.9</ele>
        <time>2013-07-13T08:48:35Z</time>
      </trkpt>
      <trkpt lat="44.18812" lon="6.75312">
        <ele>1414.1</ele>
        <time>2013-07-13T08:48:37Z</time>
      </trkpt>
      <trkpt lat="44.18807" lon="6.75312">
        <ele>1414.1</ele>
        <time>2013-07-13T08:48:39Z</time>
      </trkpt>
      <trkpt lat="44.18802" lon="6.75311">
        <ele>1414.1</ele>
        <time>2013-07-13T08:48:41Z</time>
      </trkpt>
      <trkpt lat="44.18795" lon="6.75311">
        <ele>1413.4</ele>
        <time>2013-07-13T08:48:43Z</time>
      </trkpt>
      <trkpt lat="44.1879" lon="6.75311">
        <ele>1413</ele>
        <time>2013-07-13T08:48:45Z</time>
      </trkpt>
      <trkpt lat="44.18784" lon="6.75311">
        <ele>1412.3</ele>
        <time>2013-07-13T08:48:47Z</time>
      </trkpt>
      <trkpt lat="44.18778" lon="6.75312">
        <ele>1412.2</ele>
        <time>2013-07-13T08:48:49Z</time>
      </trkpt>
      <trkpt lat="44.18771" lon="6.75312">
        <ele>1411.9</ele>
        <time>2013-07-13T08:48:51Z</time>
      </trkpt>
      <trkpt lat="44.18765" lon="6.75311">
        <ele>1411.4</ele>
        <time>2013-07-13T08:48:53Z</time>
      </trkpt>
      <trkpt lat="44.18759" lon="6.75311">
        <ele>1411.1</ele>
        <time>2013-07-13T08:48:55Z</time>
      </trkpt>
      <trkpt lat="44.18753" lon="6.75312">
        <ele>1410.8</ele>
        <time>2013-07-13T08:48:57Z</time>
      </trkpt>
      <trkpt lat="44.18748" lon="6.75312">
        <ele>1410.8</ele>
        <time>2013-07-13T08:48:59Z</time>
      </trkpt>
      <trkpt lat="44.1874" lon="6.75312">
        <ele>1410.7</ele>
        <time>2013-07-13T08:49:02Z</time>
      </trkpt>
      <trkpt lat="44.18734" lon="6.75312">
        <ele>1410.6</ele>
        <time>2013-07-13T08:49:04Z</time>
      </trkpt>
      <trkpt lat="44.18727" lon="6.75314">
        <ele>1410.8</ele>
        <time>2013-07-13T08:49:07Z</time>
      </trkpt>
      <trkpt lat="44.18722" lon="6.75315">
        <ele>1411.6</ele>
        <time>2013-07-13T08:49:09Z</time>
      </trkpt>
      <trkpt lat="44.18713" lon="6.75315">
        <ele>1411.8</ele>
        <time>2013-07-13T08:49:12Z</time>
      </trkpt>
      <trkpt lat="44.18708" lon="6.75315">
        <ele>1411.4</ele>
        <time>2013-07-13T08:49:14Z</time>
      </trkpt>
      <trkpt lat="44.18703" lon="6.75315">
        <ele>1411.4</ele>
        <time>2013-07-13T08:49:16Z</time>
      </trkpt>
      <trkpt lat="44.18697" lon="6.75315">
        <ele>1412.9</ele>
        <time>2013-07-13T08:49:20Z</time>
      </trkpt>
      <trkpt lat="44.18694" lon="6.75317">
        <ele>1413.4</ele>
        <time>2013-07-13T08:49:22Z</time>
      </trkpt>
      <trkpt lat="44.1869" lon="6.75316">
        <ele>1413.8</ele>
        <time>2013-07-13T08:49:24Z</time>
      </trkpt>
      <trkpt lat="44.18685" lon="6.75315">
        <ele>1414.3</ele>
        <time>2013-07-13T08:49:26Z</time>
      </trkpt>
      <trkpt lat="44.18678" lon="6.75316">
        <ele>1413.7</ele>
        <time>2013-07-13T08:49:28Z</time>
      </trkpt>
      <trkpt lat="44.1867" lon="6.75315">
        <ele>1413.1</ele>
        <time>2013-07-13T08:49:30Z</time>
      </trkpt>
      <trkpt lat="44.18662" lon="6.75316">
        <ele>1412.5</ele>
        <time>2013-07-13T08:49:33Z</time>
      </trkpt>
      <trkpt lat="44.18655" lon="6.75316">
        <ele>1412.5</ele>
        <time>2013-07-13T08:49:35Z</time>
      </trkpt>
      <trkpt lat="44.18647" lon="6.75319">
        <ele>1412.6</ele>
        <time>2013-07-13T08:49:38Z</time>
      </trkpt>
      <trkpt lat="44.18641" lon="6.7532">
        <ele>1412.7</ele>
        <time>2013-07-13T08:49:40Z</time>
      </trkpt>
      <trkpt lat="44.18635" lon="6.7532">
        <ele>1412.7</ele>
        <time>2013-07-13T08:49:42Z</time>
      </trkpt>
      <trkpt lat="44.18629" lon="6.75321">
        <ele>1412.7</ele>
        <time>2013-07-13T08:49:44Z</time>
      </trkpt>
      <trkpt lat="44.18622" lon="6.75321">
        <ele>1412.5</ele>
        <time>2013-07-13T08:49:46Z</time>
      </trkpt>
      <trkpt lat="44.18611" lon="6.75323">
        <ele>1412.9</ele>
        <time>2013-07-13T08:49:50Z</time>
      </trkpt>
      <trkpt lat="44.18604" lon="6.75324">
        <ele>1412.8</ele>
        <time>2013-07-13T08:49:52Z</time>
      </trkpt>
      <trkpt lat="44.18599" lon="6.75324">
        <ele>1413.2</ele>
        <time>2013-07-13T08:49:54Z</time>
      </trkpt>
      <trkpt lat="44.18595" lon="6.75325">
        <ele>1413.1</ele>
        <time>2013-07-13T08:49:56Z</time>
      </trkpt>
      <trkpt lat="44.18591" lon="6.75327">
        <ele>1413.1</ele>
        <time>2013-07-13T08:49:58Z</time>
      </trkpt>
      <trkpt lat="44.18587" lon="6.75328">
        <ele>1413.3</ele>
        <time>2013-07-13T08:50:00Z</time>
      </trkpt>
      <trkpt lat="44.18583" lon="6.75329">
        <ele>1413.4</ele>
        <time>2013-07-13T08:50:02Z</time>
      </trkpt>
      <trkpt lat="44.18578" lon="6.7533">
        <ele>1413.8</ele>
        <time>2013-07-13T08:50:04Z</time>
      </trkpt>
      <trkpt lat="44.18574" lon="6.7533">
        <ele>1414.3</ele>
        <time>2013-07-13T08:50:06Z</time>
      </trkpt>
      <trkpt lat="44.1857" lon="6.75331">
        <ele>1414.3</ele>
        <time>2013-07-13T08:50:08Z</time>
      </trkpt>
      <trkpt lat="44.18564" lon="6.75332">
        <ele>1414</ele>
        <time>2013-07-13T08:50:10Z</time>
      </trkpt>
      <trkpt lat="44.18559" lon="6.75333">
        <ele>1414.1</ele>
        <time>2013-07-13T08:50:12Z</time>
      </trkpt>
      <trkpt lat="44.18556" lon="6.75335">
        <ele>1414.4</ele>
        <time>2013-07-13T08:50:14Z</time>
      </trkpt>
      <trkpt lat="44.18553" lon="6.75337">
        <ele>1414.6</ele>
        <time>2013-07-13T08:50:16Z</time>
      </trkpt>
      <trkpt lat="44.18545" lon="6.75338">
        <ele>1414.9</ele>
        <time>2013-07-13T08:50:20Z</time>
      </trkpt>
      <trkpt lat="44.18542" lon="6.75339">
        <ele>1415.1</ele>
        <time>2013-07-13T08:50:22Z</time>
      </trkpt>
      <trkpt lat="44.18539" lon="6.7534">
        <ele>1415.6</ele>
        <time>2013-07-13T08:50:24Z</time>
      </trkpt>
      <trkpt lat="44.18536" lon="6.75344">
        <ele>1417.2</ele>
        <time>2013-07-13T08:50:27Z</time>
      </trkpt>
      <trkpt lat="44.18534" lon="6.75344">
        <ele>1417.5</ele>
        <time>2013-07-13T08:50:29Z</time>
      </trkpt>
      <trkpt lat="44.1853" lon="6.75346">
        <ele>1418.2</ele>
        <time>2013-07-13T08:50:33Z</time>
      </trkpt>
      <trkpt lat="44.18527" lon="6.75348">
        <ele>1418.9</ele>
        <time>2013-07-13T08:50:36Z</time>
      </trkpt>
      <trkpt lat="44.18526" lon="6.75352">
        <ele>1419.2</ele>
        <time>2013-07-13T08:50:38Z</time>
      </trkpt>
      <trkpt lat="44.18529" lon="6.75357">
        <ele>1420</ele>
        <time>2013-07-13T08:50:42Z</time>
      </trkpt>
      <trkpt lat="44.18533" lon="6.7536">
        <ele>1420.3</ele>
        <time>2013-07-13T08:50:44Z</time>
      </trkpt>
      <trkpt lat="44.1854" lon="6.75363">
        <ele>1420.6</ele>
        <time>2013-07-13T08:50:46Z</time>
      </trkpt>
      <trkpt lat="44.1855" lon="6.7537">
        <ele>1421</ele>
        <time>2013-07-13T08:50:49Z</time>
      </trkpt>
      <trkpt lat="44.18556" lon="6.75373">
        <ele>1421.7</ele>
        <time>2013-07-13T08:50:52Z</time>
      </trkpt>
      <trkpt lat="44.18559" lon="6.75377">
        <ele>1421.7</ele>
        <time>2013-07-13T08:50:54Z</time>
      </trkpt>
      <trkpt lat="44.18563" lon="6.75381">
        <ele>1421.7</ele>
        <time>2013-07-13T08:50:56Z</time>
      </trkpt>
      <trkpt lat="44.18566" lon="6.75384">
        <ele>1422.1</ele>
        <time>2013-07-13T08:50:58Z</time>
      </trkpt>
      <trkpt lat="44.1857" lon="6.75386">
        <ele>1422.4</ele>
        <time>2013-07-13T08:51:01Z</time>
      </trkpt>
      <trkpt lat="44.18574" lon="6.75388">
        <ele>1422.8</ele>
        <time>2013-07-13T08:51:04Z</time>
      </trkpt>
      <trkpt lat="44.18581" lon="6.75392">
        <ele>1423.4</ele>
        <time>2013-07-13T08:51:07Z</time>
      </trkpt>
      <trkpt lat="44.18585" lon="6.75391">
        <ele>1423.6</ele>
        <time>2013-07-13T08:51:09Z</time>
      </trkpt>
      <trkpt lat="44.18589" lon="6.75392">
        <ele>1424.1</ele>
        <time>2013-07-13T08:51:12Z</time>
      </trkpt>
      <trkpt lat="44.18591" lon="6.75392">
        <ele>1424.4</ele>
        <time>2013-07-13T08:51:14Z</time>
      </trkpt>
      <trkpt lat="44.18595" lon="6.75394">
        <ele>1424.6</ele>
        <time>2013-07-13T08:51:17Z</time>
      </trkpt>
      <trkpt lat="44.18598" lon="6.75395">
        <ele>1424.4</ele>
        <time>2013-07-13T08:51:19Z</time>
      </trkpt>
      <trkpt lat="44.18602" lon="6.75396">
        <ele>1424.6</ele>
        <time>2013-07-13T08:51:21Z</time>
      </trkpt>
      <trkpt lat="44.1861" lon="6.75398">
        <ele>1425.2</ele>
        <time>2013-07-13T08:51:24Z</time>
      </trkpt>
      <trkpt lat="44.18614" lon="6.75399">
        <ele>1425.9</ele>
        <time>2013-07-13T08:51:26Z</time>
      </trkpt>
      <trkpt lat="44.1862" lon="6.75402">
        <ele>1426.4</ele>
        <time>2013-07-13T08:51:29Z</time>
      </trkpt>
      <trkpt lat="44.18624" lon="6.75402">
        <ele>1426.7</ele>
        <time>2013-07-13T08:51:31Z</time>
      </trkpt>
      <trkpt lat="44.18631" lon="6.75404">
        <ele>1427.3</ele>
        <time>2013-07-13T08:51:34Z</time>
      </trkpt>
      <trkpt lat="44.18635" lon="6.75403">
        <ele>1427.8</ele>
        <time>2013-07-13T08:51:37Z</time>
      </trkpt>
      <trkpt lat="44.1864" lon="6.75404">
        <ele>1428.5</ele>
        <time>2013-07-13T08:51:39Z</time>
      </trkpt>
      <trkpt lat="44.18645" lon="6.75407">
        <ele>1428.9</ele>
        <time>2013-07-13T08:51:41Z</time>
      </trkpt>
      <trkpt lat="44.18649" lon="6.75407">
        <ele>1429.1</ele>
        <time>2013-07-13T08:51:43Z</time>
      </trkpt>
      <trkpt lat="44.18653" lon="6.75407">
        <ele>1429.7</ele>
        <time>2013-07-13T08:51:45Z</time>
      </trkpt>
      <trkpt lat="44.18657" lon="6.75408">
        <ele>1429.8</ele>
        <time>2013-07-13T08:51:47Z</time>
      </trkpt>
      <trkpt lat="44.18661" lon="6.75406">
        <ele>1430</ele>
        <time>2013-07-13T08:51:50Z</time>
      </trkpt>
      <trkpt lat="44.18665" lon="6.75406">
        <ele>1429.9</ele>
        <time>2013-07-13T08:51:52Z</time>
      </trkpt>
      <trkpt lat="44.18669" lon="6.75408">
        <ele>1430.1</ele>
        <time>2013-07-13T08:51:54Z</time>
      </trkpt>
      <trkpt lat="44.18673" lon="6.75408">
        <ele>1430.3</ele>
        <time>2013-07-13T08:51:56Z</time>
      </trkpt>
      <trkpt lat="44.18679" lon="6.75409">
        <ele>1430.7</ele>
        <time>2013-07-13T08:51:59Z</time>
      </trkpt>
      <trkpt lat="44.18685" lon="6.75409">
        <ele>1430.9</ele>
        <time>2013-07-13T08:52:01Z</time>
      </trkpt>
      <trkpt lat="44.18691" lon="6.75409">
        <ele>1431.2</ele>
        <time>2013-07-13T08:52:06Z</time>
      </trkpt>
      <trkpt lat="44.18695" lon="6.75409">
        <ele>1431.1</ele>
        <time>2013-07-13T08:52:09Z</time>
      </trkpt>
      <trkpt lat="44.18698" lon="6.75408">
        <ele>1431</ele>
        <time>2013-07-13T08:52:12Z</time>
      </trkpt>
      <trkpt lat="44.18704" lon="6.75407">
        <ele>1431.4</ele>
        <time>2013-07-13T08:52:14Z</time>
      </trkpt>
      <trkpt lat="44.18708" lon="6.75408">
        <ele>1431.1</ele>
        <time>2013-07-13T08:52:16Z</time>
      </trkpt>
      <trkpt lat="44.18711" lon="6.75408">
        <ele>1431</ele>
        <time>2013-07-13T08:52:18Z</time>
      </trkpt>
      <trkpt lat="44.18732" lon="6.75424">
        <ele>1431</ele>
        <time>2013-07-13T08:52:20Z</time>
      </trkpt>
      <trkpt lat="44.1874" lon="6.75429">
        <ele>1431.1</ele>
        <time>2013-07-13T08:52:22Z</time>
      </trkpt>
      <trkpt lat="44.18749" lon="6.75431">
        <ele>1431.7</ele>
        <time>2013-07-13T08:52:25Z</time>
      </trkpt>
      <trkpt lat="44.18752" lon="6.75433">
        <ele>1431.7</ele>
        <time>2013-07-13T08:52:27Z</time>
      </trkpt>
      <trkpt lat="44.18755" lon="6.75435">
        <ele>1432.1</ele>
        <time>2013-07-13T08:52:29Z</time>
      </trkpt>
      <trkpt lat="44.18757" lon="6.75437">
        <ele>1432.5</ele>
        <time>2013-07-13T08:52:32Z</time>
      </trkpt>
      <trkpt lat="44.18757" lon="6.75442">
        <ele>1432.9</ele>
        <time>2013-07-13T08:52:36Z</time>
      </trkpt>
      <trkpt lat="44.18759" lon="6.75447">
        <ele>1433</ele>
        <time>2013-07-13T08:52:40Z</time>
      </trkpt>
      <trkpt lat="44.18758" lon="6.75451">
        <ele>1433.2</ele>
        <time>2013-07-13T08:52:45Z</time>
      </trkpt>
      <trkpt lat="44.18758" lon="6.75456">
        <ele>1433.6</ele>
        <time>2013-07-13T08:52:50Z</time>
      </trkpt>
      <trkpt lat="44.18757" lon="6.7546">
        <ele>1433.7</ele>
        <time>2013-07-13T08:52:53Z</time>
      </trkpt>
      <trkpt lat="44.18758" lon="6.75464">
        <ele>1434.2</ele>
        <time>2013-07-13T08:53:00Z</time>
      </trkpt>
      <trkpt lat="44.18761" lon="6.75466">
        <ele>1434.3</ele>
        <time>2013-07-13T08:53:02Z</time>
      </trkpt>
      <trkpt lat="44.18763" lon="6.75471">
        <ele>1434.1</ele>
        <time>2013-07-13T08:53:04Z</time>
      </trkpt>
      <trkpt lat="44.18766" lon="6.75475">
        <ele>1434.3</ele>
        <time>2013-07-13T08:53:06Z</time>
      </trkpt>
      <trkpt lat="44.18773" lon="6.7548">
        <ele>1435.1</ele>
        <time>2013-07-13T08:53:09Z</time>
      </trkpt>
      <trkpt lat="44.18776" lon="6.75482">
        <ele>1435.8</ele>
        <time>2013-07-13T08:53:11Z</time>
      </trkpt>
      <trkpt lat="44.1878" lon="6.75484">
        <ele>1436.5</ele>
        <time>2013-07-13T08:53:13Z</time>
      </trkpt>
      <trkpt lat="44.18784" lon="6.75486">
        <ele>1437.7</ele>
        <time>2013-07-13T08:53:16Z</time>
      </trkpt>
      <trkpt lat="44.18787" lon="6.75488">
        <ele>1438</ele>
        <time>2013-07-13T08:53:18Z</time>
      </trkpt>
      <trkpt lat="44.1879" lon="6.7549">
        <ele>1438.6</ele>
        <time>2013-07-13T08:53:20Z</time>
      </trkpt>
      <trkpt lat="44.18793" lon="6.75494">
        <ele>1438.9</ele>
        <time>2013-07-13T08:53:22Z</time>
      </trkpt>
      <trkpt lat="44.18796" lon="6.75497">
        <ele>1439.4</ele>
        <time>2013-07-13T08:53:25Z</time>
      </trkpt>
      <trkpt lat="44.18799" lon="6.755">
        <ele>1439.6</ele>
        <time>2013-07-13T08:53:28Z</time>
      </trkpt>
      <trkpt lat="44.18802" lon="6.75502">
        <ele>1439.6</ele>
        <time>2013-07-13T08:53:30Z</time>
      </trkpt>
      <trkpt lat="44.18805" lon="6.75505">
        <ele>1439.9</ele>
        <time>2013-07-13T08:53:32Z</time>
      </trkpt>
      <trkpt lat="44.18808" lon="6.75508">
        <ele>1440.5</ele>
        <time>2013-07-13T08:53:34Z</time>
      </trkpt>
      <trkpt lat="44.18811" lon="6.75509">
        <ele>1440.8</ele>
        <time>2013-07-13T08:53:36Z</time>
      </trkpt>
      <trkpt lat="44.18814" lon="6.75511">
        <ele>1441.1</ele>
        <time>2013-07-13T08:53:39Z</time>
      </trkpt>
      <trkpt lat="44.18817" lon="6.75515">
        <ele>1441.5</ele>
        <time>2013-07-13T08:53:42Z</time>
      </trkpt>
      <trkpt lat="44.18823" lon="6.7552">
        <ele>1441.8</ele>
        <time>2013-07-13T08:53:46Z</time>
      </trkpt>
      <trkpt lat="44.18827" lon="6.75523">
        <ele>1441.9</ele>
        <time>2013-07-13T08:53:48Z</time>
      </trkpt>
      <trkpt lat="44.18832" lon="6.75528">
        <ele>1442.1</ele>
        <time>2013-07-13T08:53:51Z</time>
      </trkpt>
      <trkpt lat="44.18835" lon="6.75531">
        <ele>1442.4</ele>
        <time>2013-07-13T08:53:53Z</time>
      </trkpt>
      <trkpt lat="44.18837" lon="6.75534">
        <ele>1442.9</ele>
        <time>2013-07-13T08:53:55Z</time>
      </trkpt>
      <trkpt lat="44.18841" lon="6.75537">
        <ele>1443.2</ele>
        <time>2013-07-13T08:53:57Z</time>
      </trkpt>
      <trkpt lat="44.18847" lon="6.75539">
        <ele>1443.9</ele>
        <time>2013-07-13T08:53:59Z</time>
      </trkpt>
      <trkpt lat="44.1885" lon="6.75539">
        <ele>1444.6</ele>
        <time>2013-07-13T08:54:01Z</time>
      </trkpt>
      <trkpt lat="44.18855" lon="6.75541">
        <ele>1445</ele>
        <time>2013-07-13T08:54:03Z</time>
      </trkpt>
      <trkpt lat="44.18859" lon="6.75544">
        <ele>1445</ele>
        <time>2013-07-13T08:54:05Z</time>
      </trkpt>
      <trkpt lat="44.18864" lon="6.75546">
        <ele>1445</ele>
        <time>2013-07-13T08:54:07Z</time>
      </trkpt>
      <trkpt lat="44.18867" lon="6.75546">
        <ele>1445.5</ele>
        <time>2013-07-13T08:54:10Z</time>
      </trkpt>
      <trkpt lat="44.18871" lon="6.75549">
        <ele>1445.8</ele>
        <time>2013-07-13T08:54:12Z</time>
      </trkpt>
      <trkpt lat="44.18876" lon="6.75552">
        <ele>1446.2</ele>
        <time>2013-07-13T08:54:14Z</time>
      </trkpt>
      <trkpt lat="44.18879" lon="6.75552">
        <ele>1446.7</ele>
        <time>2013-07-13T08:54:16Z</time>
      </trkpt>
      <trkpt lat="44.18889" lon="6.75557">
        <ele>1447.6</ele>
        <time>2013-07-13T08:54:20Z</time>
      </trkpt>
      <trkpt lat="44.18892" lon="6.75559">
        <ele>1448.3</ele>
        <time>2013-07-13T08:54:22Z</time>
      </trkpt>
      <trkpt lat="44.18898" lon="6.75562">
        <ele>1448.7</ele>
        <time>2013-07-13T08:54:24Z</time>
      </trkpt>
      <trkpt lat="44.18904" lon="6.75565">
        <ele>1449.1</ele>
        <time>2013-07-13T08:54:27Z</time>
      </trkpt>
      <trkpt lat="44.18907" lon="6.75567">
        <ele>1449.4</ele>
        <time>2013-07-13T08:54:29Z</time>
      </trkpt>
      <trkpt lat="44.18911" lon="6.7557">
        <ele>1449.8</ele>
        <time>2013-07-13T08:54:32Z</time>
      </trkpt>
      <trkpt lat="44.18913" lon="6.75572">
        <ele>1450.5</ele>
        <time>2013-07-13T08:54:34Z</time>
      </trkpt>
      <trkpt lat="44.18916" lon="6.75573">
        <ele>1451.2</ele>
        <time>2013-07-13T08:54:36Z</time>
      </trkpt>
      <trkpt lat="44.1892" lon="6.75577">
        <ele>1451.9</ele>
        <time>2013-07-13T08:54:38Z</time>
      </trkpt>
      <trkpt lat="44.18925" lon="6.7558">
        <ele>1452.5</ele>
        <time>2013-07-13T08:54:40Z</time>
      </trkpt>
      <trkpt lat="44.18927" lon="6.75583">
        <ele>1453.3</ele>
        <time>2013-07-13T08:54:43Z</time>
      </trkpt>
      <trkpt lat="44.18923" lon="6.75584">
        <ele>1452.8</ele>
        <time>2013-07-13T08:54:46Z</time>
      </trkpt>
      <trkpt lat="44.1892" lon="6.75585">
        <ele>1453.8</ele>
        <time>2013-07-13T08:54:49Z</time>
      </trkpt>
      <trkpt lat="44.18917" lon="6.75585">
        <ele>1455.6</ele>
        <time>2013-07-13T08:54:52Z</time>
      </trkpt>
      <trkpt lat="44.18915" lon="6.75584">
        <ele>1456.6</ele>
        <time>2013-07-13T08:54:54Z</time>
      </trkpt>
      <trkpt lat="44.18912" lon="6.75584">
        <ele>1457.2</ele>
        <time>2013-07-13T08:54:56Z</time>
      </trkpt>
      <trkpt lat="44.18909" lon="6.75586">
        <ele>1460.4</ele>
        <time>2013-07-13T08:55:03Z</time>
      </trkpt>
      <trkpt lat="44.18906" lon="6.75586">
        <ele>1464.2</ele>
        <time>2013-07-13T08:55:13Z</time>
      </trkpt>
      <trkpt lat="44.18904" lon="6.75582">
        <ele>1465.6</ele>
        <time>2013-07-13T08:55:18Z</time>
      </trkpt>
      <trkpt lat="44.18904" lon="6.75578">
        <ele>1467.2</ele>
        <time>2013-07-13T08:55:24Z</time>
      </trkpt>
      <trkpt lat="44.18901" lon="6.75577">
        <ele>1467.4</ele>
        <time>2013-07-13T08:55:27Z</time>
      </trkpt>
      <trkpt lat="44.18898" lon="6.75579">
        <ele>1467.5</ele>
        <time>2013-07-13T08:55:29Z</time>
      </trkpt>
      <trkpt lat="44.18895" lon="6.7558">
        <ele>1468</ele>
        <time>2013-07-13T08:55:31Z</time>
      </trkpt>
      <trkpt lat="44.18887" lon="6.7558">
        <ele>1467.6</ele>
        <time>2013-07-13T08:55:34Z</time>
      </trkpt>
      <trkpt lat="44.18883" lon="6.75579">
        <ele>1467.9</ele>
        <time>2013-07-13T08:55:36Z</time>
      </trkpt>
      <trkpt lat="44.18875" lon="6.75578">
        <ele>1468.1</ele>
        <time>2013-07-13T08:55:39Z</time>
      </trkpt>
      <trkpt lat="44.18864" lon="6.75577">
        <ele>1469.4</ele>
        <time>2013-07-13T08:55:43Z</time>
      </trkpt>
      <trkpt lat="44.18857" lon="6.75576">
        <ele>1469.5</ele>
        <time>2013-07-13T08:55:46Z</time>
      </trkpt>
      <trkpt lat="44.1885" lon="6.75576">
        <ele>1469.6</ele>
        <time>2013-07-13T08:55:48Z</time>
      </trkpt>
      <trkpt lat="44.18843" lon="6.75577">
        <ele>1470.2</ele>
        <time>2013-07-13T08:55:51Z</time>
      </trkpt>
      <trkpt lat="44.18839" lon="6.75576">
        <ele>1471.1</ele>
        <time>2013-07-13T08:55:53Z</time>
      </trkpt>
      <trkpt lat="44.18834" lon="6.75574">
        <ele>1471.5</ele>
        <time>2013-07-13T08:55:55Z</time>
      </trkpt>
      <trkpt lat="44.18831" lon="6.75573">
        <ele>1472</ele>
        <time>2013-07-13T08:55:57Z</time>
      </trkpt>
      <trkpt lat="44.18828" lon="6.75576">
        <ele>1472.9</ele>
        <time>2013-07-13T08:56:01Z</time>
      </trkpt>
      <trkpt lat="44.18825" lon="6.75578">
        <ele>1473.9</ele>
        <time>2013-07-13T08:56:03Z</time>
      </trkpt>
      <trkpt lat="44.18823" lon="6.7558">
        <ele>1475.3</ele>
        <time>2013-07-13T08:56:06Z</time>
      </trkpt>
      <trkpt lat="44.1882" lon="6.75581">
        <ele>1476.8</ele>
        <time>2013-07-13T08:56:10Z</time>
      </trkpt>
      <trkpt lat="44.18817" lon="6.75582">
        <ele>1477.9</ele>
        <time>2013-07-13T08:56:14Z</time>
      </trkpt>
      <trkpt lat="44.18813" lon="6.7558">
        <ele>1478.4</ele>
        <time>2013-07-13T08:56:17Z</time>
      </trkpt>
      <trkpt lat="44.1881" lon="6.75578">
        <ele>1479.2</ele>
        <time>2013-07-13T08:56:19Z</time>
      </trkpt>
      <trkpt lat="44.18807" lon="6.75577">
        <ele>1479.3</ele>
        <time>2013-07-13T08:56:21Z</time>
      </trkpt>
      <trkpt lat="44.18803" lon="6.75576">
        <ele>1479.2</ele>
        <time>2013-07-13T08:56:23Z</time>
      </trkpt>
      <trkpt lat="44.188" lon="6.75575">
        <ele>1479.2</ele>
        <time>2013-07-13T08:56:25Z</time>
      </trkpt>
      <trkpt lat="44.18798" lon="6.75572">
        <ele>1479.8</ele>
        <time>2013-07-13T08:56:28Z</time>
      </trkpt>
      <trkpt lat="44.18795" lon="6.75571">
        <ele>1480.6</ele>
        <time>2013-07-13T08:56:32Z</time>
      </trkpt>
      <trkpt lat="44.18792" lon="6.75569">
        <ele>1481.3</ele>
        <time>2013-07-13T08:56:35Z</time>
      </trkpt>
      <trkpt lat="44.1879" lon="6.75566">
        <ele>1482.2</ele>
        <time>2013-07-13T08:56:39Z</time>
      </trkpt>
      <trkpt lat="44.18788" lon="6.75563">
        <ele>1482.6</ele>
        <time>2013-07-13T08:56:42Z</time>
      </trkpt>
      <trkpt lat="44.18784" lon="6.75561">
        <ele>1483.1</ele>
        <time>2013-07-13T08:56:45Z</time>
      </trkpt>
      <trkpt lat="44.18782" lon="6.75558">
        <ele>1483.1</ele>
        <time>2013-07-13T08:56:47Z</time>
      </trkpt>
      <trkpt lat="44.18779" lon="6.75557">
        <ele>1483.6</ele>
        <time>2013-07-13T08:56:49Z</time>
      </trkpt>
      <trkpt lat="44.18777" lon="6.75554">
        <ele>1483.9</ele>
        <time>2013-07-13T08:56:51Z</time>
      </trkpt>
      <trkpt lat="44.18775" lon="6.7555">
        <ele>1484</ele>
        <time>2013-07-13T08:56:53Z</time>
      </trkpt>
      <trkpt lat="44.18771" lon="6.75542">
        <ele>1484.3</ele>
        <time>2013-07-13T08:56:56Z</time>
      </trkpt>
      <trkpt lat="44.18768" lon="6.75538">
        <ele>1484.9</ele>
        <time>2013-07-13T08:56:58Z</time>
      </trkpt>
      <trkpt lat="44.18765" lon="6.75535">
        <ele>1485.1</ele>
        <time>2013-07-13T08:57:00Z</time>
      </trkpt>
      <trkpt lat="44.18761" lon="6.75531">
        <ele>1485.2</ele>
        <time>2013-07-13T08:57:02Z</time>
      </trkpt>
      <trkpt lat="44.18755" lon="6.75526">
        <ele>1485.9</ele>
        <time>2013-07-13T08:57:04Z</time>
      </trkpt>
      <trkpt lat="44.18752" lon="6.75522">
        <ele>1486.2</ele>
        <time>2013-07-13T08:57:06Z</time>
      </trkpt>
      <trkpt lat="44.1875" lon="6.7552">
        <ele>1486.3</ele>
        <time>2013-07-13T08:57:08Z</time>
      </trkpt>
      <trkpt lat="44.18747" lon="6.75518">
        <ele>1486.3</ele>
        <time>2013-07-13T08:57:10Z</time>
      </trkpt>
      <trkpt lat="44.18743" lon="6.75518">
        <ele>1486.2</ele>
        <time>2013-07-13T08:57:12Z</time>
      </trkpt>
      <trkpt lat="44.18736" lon="6.75518">
        <ele>1485.7</ele>
        <time>2013-07-13T08:57:14Z</time>
      </trkpt>
      <trkpt lat="44.18731" lon="6.75518">
        <ele>1484.9</ele>
        <time>2013-07-13T08:57:15Z</time>
      </trkpt>
      <trkpt lat="44.18724" lon="6.75518">
        <ele>1484.3</ele>
        <time>2013-07-13T08:57:17Z</time>
      </trkpt>
      <trkpt lat="44.18716" lon="6.75518">
        <ele>1484.3</ele>
        <time>2013-07-13T08:57:20Z</time>
      </trkpt>
      <trkpt lat="44.18711" lon="6.75519">
        <ele>1484.4</ele>
        <time>2013-07-13T08:57:22Z</time>
      </trkpt>
      <trkpt lat="44.18702" lon="6.75518">
        <ele>1484.1</ele>
        <time>2013-07-13T08:57:25Z</time>
      </trkpt>
      <trkpt lat="44.18698" lon="6.75517">
        <ele>1484.2</ele>
        <time>2013-07-13T08:57:27Z</time>
      </trkpt>
      <trkpt lat="44.18693" lon="6.75518">
        <ele>1484.4</ele>
        <time>2013-07-13T08:57:29Z</time>
      </trkpt>
      <trkpt lat="44.18686" lon="6.75517">
        <ele>1484.2</ele>
        <time>2013-07-13T08:57:31Z</time>
      </trkpt>
      <trkpt lat="44.1868" lon="6.75518">
        <ele>1484.6</ele>
        <time>2013-07-13T08:57:34Z</time>
      </trkpt>
      <trkpt lat="44.18677" lon="6.75521">
        <ele>1485.4</ele>
        <time>2013-07-13T08:57:36Z</time>
      </trkpt>
      <trkpt lat="44.18674" lon="6.75524">
        <ele>1485.9</ele>
        <time>2013-07-13T08:57:39Z</time>
      </trkpt>
      <trkpt lat="44.1867" lon="6.75526">
        <ele>1485.6</ele>
        <time>2013-07-13T08:57:41Z</time>
      </trkpt>
      <trkpt lat="44.18667" lon="6.75527">
        <ele>1485.5</ele>
        <time>2013-07-13T08:57:43Z</time>
      </trkpt>
      <trkpt lat="44.18664" lon="6.75528">
        <ele>1485.4</ele>
        <time>2013-07-13T08:57:45Z</time>
      </trkpt>
      <trkpt lat="44.18661" lon="6.75531">
        <ele>1485.7</ele>
        <time>2013-07-13T08:57:47Z</time>
      </trkpt>
      <trkpt lat="44.18658" lon="6.75534">
        <ele>1485.4</ele>
        <time>2013-07-13T08:57:49Z</time>
      </trkpt>
      <trkpt lat="44.18657" lon="6.75545">
        <ele>1484.7</ele>
        <time>2013-07-13T08:57:52Z</time>
      </trkpt>
      <trkpt lat="44.18656" lon="6.75551">
        <ele>1485.2</ele>
        <time>2013-07-13T08:57:54Z</time>
      </trkpt>
      <trkpt lat="44.18652" lon="6.75555">
        <ele>1485.1</ele>
        <time>2013-07-13T08:57:56Z</time>
      </trkpt>
      <trkpt lat="44.1865" lon="6.75561">
        <ele>1485.2</ele>
        <time>2013-07-13T08:57:58Z</time>
      </trkpt>
      <trkpt lat="44.18648" lon="6.75565">
        <ele>1485.2</ele>
        <time>2013-07-13T08:58:00Z</time>
      </trkpt>
      <trkpt lat="44.18645" lon="6.75569">
        <ele>1485.4</ele>
        <time>2013-07-13T08:58:03Z</time>
      </trkpt>
      <trkpt lat="44.18642" lon="6.7557">
        <ele>1485.7</ele>
        <time>2013-07-13T08:58:05Z</time>
      </trkpt>
      <trkpt lat="44.18639" lon="6.75572">
        <ele>1486.3</ele>
        <time>2013-07-13T08:58:07Z</time>
      </trkpt>
      <trkpt lat="44.18634" lon="6.75572">
        <ele>1486.7</ele>
        <time>2013-07-13T08:58:09Z</time>
      </trkpt>
      <trkpt lat="44.1863" lon="6.75571">
        <ele>1487.2</ele>
        <time>2013-07-13T08:58:11Z</time>
      </trkpt>
      <trkpt lat="44.18626" lon="6.75571">
        <ele>1487.6</ele>
        <time>2013-07-13T08:58:13Z</time>
      </trkpt>
      <trkpt lat="44.18623" lon="6.75571">
        <ele>1488</ele>
        <time>2013-07-13T08:58:15Z</time>
      </trkpt>
      <trkpt lat="44.18614" lon="6.7557">
        <ele>1488.9</ele>
        <time>2013-07-13T08:58:19Z</time>
      </trkpt>
      <trkpt lat="44.18611" lon="6.7557">
        <ele>1489.7</ele>
        <time>2013-07-13T08:58:21Z</time>
      </trkpt>
      <trkpt lat="44.18607" lon="6.7557">
        <ele>1490.2</ele>
        <time>2013-07-13T08:58:23Z</time>
      </trkpt>
      <trkpt lat="44.18604" lon="6.7557">
        <ele>1490.9</ele>
        <time>2013-07-13T08:58:25Z</time>
      </trkpt>
      <trkpt lat="44.18599" lon="6.7557">
        <ele>1491.1</ele>
        <time>2013-07-13T08:58:27Z</time>
      </trkpt>
      <trkpt lat="44.18592" lon="6.75568">
        <ele>1491.3</ele>
        <time>2013-07-13T08:58:30Z</time>
      </trkpt>
      <trkpt lat="44.18588" lon="6.75568">
        <ele>1491.5</ele>
        <time>2013-07-13T08:58:32Z</time>
      </trkpt>
      <trkpt lat="44.18584" lon="6.75568">
        <ele>1492</ele>
        <time>2013-07-13T08:58:34Z</time>
      </trkpt>
      <trkpt lat="44.18582" lon="6.75573">
        <ele>1492.2</ele>
        <time>2013-07-13T08:58:37Z</time>
      </trkpt>
      <trkpt lat="44.18581" lon="6.75581">
        <ele>1492.2</ele>
        <time>2013-07-13T08:58:40Z</time>
      </trkpt>
      <trkpt lat="44.18582" lon="6.75585">
        <ele>1492.2</ele>
        <time>2013-07-13T08:58:42Z</time>
      </trkpt>
      <trkpt lat="44.18587" lon="6.7559">
        <ele>1492.3</ele>
        <time>2013-07-13T08:58:44Z</time>
      </trkpt>
      <trkpt lat="44.1859" lon="6.75592">
        <ele>1492.6</ele>
        <time>2013-07-13T08:58:46Z</time>
      </trkpt>
      <trkpt lat="44.18594" lon="6.75594">
        <ele>1492.8</ele>
        <time>2013-07-13T08:58:48Z</time>
      </trkpt>
      <trkpt lat="44.18599" lon="6.75597">
        <ele>1492.9</ele>
        <time>2013-07-13T08:58:50Z</time>
      </trkpt>
      <trkpt lat="44.18604" lon="6.75599">
        <ele>1492.9</ele>
        <time>2013-07-13T08:58:52Z</time>
      </trkpt>
      <trkpt lat="44.18607" lon="6.75602">
        <ele>1493.1</ele>
        <time>2013-07-13T08:58:54Z</time>
      </trkpt>
      <trkpt lat="44.18611" lon="6.75605">
        <ele>1493.1</ele>
        <time>2013-07-13T08:58:56Z</time>
      </trkpt>
      <trkpt lat="44.18616" lon="6.75609">
        <ele>1493.3</ele>
        <time>2013-07-13T08:58:58Z</time>
      </trkpt>
      <trkpt lat="44.18619" lon="6.75612">
        <ele>1493.4</ele>
        <time>2013-07-13T08:59:00Z</time>
      </trkpt>
      <trkpt lat="44.18623" lon="6.75616">
        <ele>1493.6</ele>
        <time>2013-07-13T08:59:02Z</time>
      </trkpt>
      <trkpt lat="44.18629" lon="6.75622">
        <ele>1493.9</ele>
        <time>2013-07-13T08:59:06Z</time>
      </trkpt>
      <trkpt lat="44.18632" lon="6.75624">
        <ele>1494.2</ele>
        <time>2013-07-13T08:59:08Z</time>
      </trkpt>
      <trkpt lat="44.18634" lon="6.75625">
        <ele>1494.6</ele>
        <time>2013-07-13T08:59:10Z</time>
      </trkpt>
      <trkpt lat="44.18637" lon="6.75626">
        <ele>1494.7</ele>
        <time>2013-07-13T08:59:12Z</time>
      </trkpt>
      <trkpt lat="44.18641" lon="6.75627">
        <ele>1495</ele>
        <time>2013-07-13T08:59:14Z</time>
      </trkpt>
      <trkpt lat="44.18645" lon="6.75629">
        <ele>1495.3</ele>
        <time>2013-07-13T08:59:16Z</time>
      </trkpt>
      <trkpt lat="44.18649" lon="6.7563">
        <ele>1495.8</ele>
        <time>2013-07-13T08:59:18Z</time>
      </trkpt>
      <trkpt lat="44.18653" lon="6.75632">
        <ele>1496.1</ele>
        <time>2013-07-13T08:59:20Z</time>
      </trkpt>
      <trkpt lat="44.18656" lon="6.75633">
        <ele>1496.3</ele>
        <time>2013-07-13T08:59:22Z</time>
      </trkpt>
      <trkpt lat="44.18659" lon="6.75635">
        <ele>1496.7</ele>
        <time>2013-07-13T08:59:25Z</time>
      </trkpt>
      <trkpt lat="44.18662" lon="6.75637">
        <ele>1496.9</ele>
        <time>2013-07-13T08:59:27Z</time>
      </trkpt>
      <trkpt lat="44.18666" lon="6.75638">
        <ele>1497.2</ele>
        <time>2013-07-13T08:59:30Z</time>
      </trkpt>
      <trkpt lat="44.1867" lon="6.75637">
        <ele>1497.7</ele>
        <time>2013-07-13T08:59:32Z</time>
      </trkpt>
      <trkpt lat="44.18674" lon="6.75636">
        <ele>1498.1</ele>
        <time>2013-07-13T08:59:34Z</time>
      </trkpt>
      <trkpt lat="44.18678" lon="6.75637">
        <ele>1498.4</ele>
        <time>2013-07-13T08:59:36Z</time>
      </trkpt>
      <trkpt lat="44.18681" lon="6.75639">
        <ele>1499</ele>
        <time>2013-07-13T08:59:38Z</time>
      </trkpt>
      <trkpt lat="44.18684" lon="6.75641">
        <ele>1499.4</ele>
        <time>2013-07-13T08:59:41Z</time>
      </trkpt>
      <trkpt lat="44.18687" lon="6.75643">
        <ele>1499.4</ele>
        <time>2013-07-13T08:59:43Z</time>
      </trkpt>
      <trkpt lat="44.1869" lon="6.75642">
        <ele>1499.7</ele>
        <time>2013-07-13T08:59:48Z</time>
      </trkpt>
      <trkpt lat="44.18694" lon="6.75641">
        <ele>1500</ele>
        <time>2013-07-13T08:59:50Z</time>
      </trkpt>
      <trkpt lat="44.18699" lon="6.75641">
        <ele>1500.6</ele>
        <time>2013-07-13T08:59:52Z</time>
      </trkpt>
      <trkpt lat="44.18703" lon="6.75638">
        <ele>1501.2</ele>
        <time>2013-07-13T08:59:54Z</time>
      </trkpt>
      <trkpt lat="44.1871" lon="6.75637">
        <ele>1501.8</ele>
        <time>2013-07-13T08:59:57Z</time>
      </trkpt>
      <trkpt lat="44.18713" lon="6.75639">
        <ele>1502</ele>
        <time>2013-07-13T08:59:59Z</time>
      </trkpt>
      <trkpt lat="44.18717" lon="6.75639">
        <ele>1502.5</ele>
        <time>2013-07-13T09:00:01Z</time>
      </trkpt>
      <trkpt lat="44.18721" lon="6.7564">
        <ele>1502.8</ele>
        <time>2013-07-13T09:00:03Z</time>
      </trkpt>
      <trkpt lat="44.18725" lon="6.75642">
        <ele>1503.2</ele>
        <time>2013-07-13T09:00:05Z</time>
      </trkpt>
      <trkpt lat="44.18728" lon="6.75644">
        <ele>1503.6</ele>
        <time>2013-07-13T09:00:07Z</time>
      </trkpt>
      <trkpt lat="44.18732" lon="6.75645">
        <ele>1503.9</ele>
        <time>2013-07-13T09:00:09Z</time>
      </trkpt>
      <trkpt lat="44.18735" lon="6.75647">
        <ele>1504.2</ele>
        <time>2013-07-13T09:00:11Z</time>
      </trkpt>
      <trkpt lat="44.18737" lon="6.7565">
        <ele>1504.6</ele>
        <time>2013-07-13T09:00:13Z</time>
      </trkpt>
      <trkpt lat="44.18739" lon="6.75652">
        <ele>1504.7</ele>
        <time>2013-07-13T09:00:15Z</time>
      </trkpt>
      <trkpt lat="44.18741" lon="6.75656">
        <ele>1504.3</ele>
        <time>2013-07-13T09:00:18Z</time>
      </trkpt>
      <trkpt lat="44.18738" lon="6.75661">
        <ele>1504.3</ele>
        <time>2013-07-13T09:00:21Z</time>
      </trkpt>
      <trkpt lat="44.18735" lon="6.75662">
        <ele>1504.6</ele>
        <time>2013-07-13T09:00:23Z</time>
      </trkpt>
      <trkpt lat="44.18731" lon="6.75662">
        <ele>1505.7</ele>
        <time>2013-07-13T09:00:25Z</time>
      </trkpt>
      <trkpt lat="44.18727" lon="6.75662">
        <ele>1506.7</ele>
        <time>2013-07-13T09:00:27Z</time>
      </trkpt>
      <trkpt lat="44.18719" lon="6.75663">
        <ele>1508.4</ele>
        <time>2013-07-13T09:00:31Z</time>
      </trkpt>
      <trkpt lat="44.18715" lon="6.75664">
        <ele>1509.2</ele>
        <time>2013-07-13T09:00:33Z</time>
      </trkpt>
      <trkpt lat="44.18711" lon="6.75665">
        <ele>1509.3</ele>
        <time>2013-07-13T09:00:35Z</time>
      </trkpt>
      <trkpt lat="44.18705" lon="6.75666">
        <ele>1509.8</ele>
        <time>2013-07-13T09:00:37Z</time>
      </trkpt>
      <trkpt lat="44.187" lon="6.75666">
        <ele>1510.3</ele>
        <time>2013-07-13T09:00:39Z</time>
      </trkpt>
      <trkpt lat="44.18694" lon="6.75667">
        <ele>1510.8</ele>
        <time>2013-07-13T09:00:41Z</time>
      </trkpt>
      <trkpt lat="44.1869" lon="6.75668">
        <ele>1511.3</ele>
        <time>2013-07-13T09:00:43Z</time>
      </trkpt>
      <trkpt lat="44.18686" lon="6.7567">
        <ele>1512.1</ele>
        <time>2013-07-13T09:00:45Z</time>
      </trkpt>
      <trkpt lat="44.18681" lon="6.75673">
        <ele>1513</ele>
        <time>2013-07-13T09:00:47Z</time>
      </trkpt>
      <trkpt lat="44.18677" lon="6.75673">
        <ele>1513.3</ele>
        <time>2013-07-13T09:00:49Z</time>
      </trkpt>
      <trkpt lat="44.18673" lon="6.75674">
        <ele>1513.7</ele>
        <time>2013-07-13T09:00:51Z</time>
      </trkpt>
      <trkpt lat="44.1867" lon="6.75677">
        <ele>1514</ele>
        <time>2013-07-13T09:00:53Z</time>
      </trkpt>
      <trkpt lat="44.18667" lon="6.75679">
        <ele>1514.5</ele>
        <time>2013-07-13T09:00:55Z</time>
      </trkpt>
      <trkpt lat="44.18665" lon="6.75682">
        <ele>1514.7</ele>
        <time>2013-07-13T09:00:57Z</time>
      </trkpt>
      <trkpt lat="44.18662" lon="6.75684">
        <ele>1515.1</ele>
        <time>2013-07-13T09:00:59Z</time>
      </trkpt>
      <trkpt lat="44.1866" lon="6.75686">
        <ele>1515.4</ele>
        <time>2013-07-13T09:01:01Z</time>
      </trkpt>
      <trkpt lat="44.18657" lon="6.75689">
        <ele>1515.7</ele>
        <time>2013-07-13T09:01:03Z</time>
      </trkpt>
      <trkpt lat="44.18653" lon="6.75691">
        <ele>1515.8</ele>
        <time>2013-07-13T09:01:05Z</time>
      </trkpt>
      <trkpt lat="44.18649" lon="6.75693">
        <ele>1516.2</ele>
        <time>2013-07-13T09:01:07Z</time>
      </trkpt>
      <trkpt lat="44.18645" lon="6.75694">
        <ele>1516.2</ele>
        <time>2013-07-13T09:01:09Z</time>
      </trkpt>
      <trkpt lat="44.18638" lon="6.75695">
        <ele>1516.5</ele>
        <time>2013-07-13T09:01:11Z</time>
      </trkpt>
      <trkpt lat="44.18631" lon="6.75694">
        <ele>1516.6</ele>
        <time>2013-07-13T09:01:13Z</time>
      </trkpt>
      <trkpt lat="44.18626" lon="6.75694">
        <ele>1516.9</ele>
        <time>2013-07-13T09:01:15Z</time>
      </trkpt>
      <trkpt lat="44.18621" lon="6.75696">
        <ele>1517.3</ele>
        <time>2013-07-13T09:01:17Z</time>
      </trkpt>
      <trkpt lat="44.1862" lon="6.75701">
        <ele>1517.8</ele>
        <time>2013-07-13T09:01:19Z</time>
      </trkpt>
      <trkpt lat="44.18617" lon="6.75705">
        <ele>1517.8</ele>
        <time>2013-07-13T09:01:21Z</time>
      </trkpt>
      <trkpt lat="44.18612" lon="6.75709">
        <ele>1517.9</ele>
        <time>2013-07-13T09:01:23Z</time>
      </trkpt>
      <trkpt lat="44.18608" lon="6.75713">
        <ele>1517.9</ele>
        <time>2013-07-13T09:01:25Z</time>
      </trkpt>
      <trkpt lat="44.18603" lon="6.75715">
        <ele>1518.2</ele>
        <time>2013-07-13T09:01:27Z</time>
      </trkpt>
      <trkpt lat="44.18596" lon="6.75716">
        <ele>1518.5</ele>
        <time>2013-07-13T09:01:29Z</time>
      </trkpt>
      <trkpt lat="44.1859" lon="6.75719">
        <ele>1518.8</ele>
        <time>2013-07-13T09:01:31Z</time>
      </trkpt>
      <trkpt lat="44.18588" lon="6.7572">
        <ele>1518.8</ele>
        <time>2013-07-13T09:01:32Z</time>
      </trkpt>
      <trkpt lat="44.18581" lon="6.75727">
        <ele>1519.8</ele>
        <time>2013-07-13T09:01:35Z</time>
      </trkpt>
      <trkpt lat="44.18578" lon="6.75731">
        <ele>1520.8</ele>
        <time>2013-07-13T09:01:37Z</time>
      </trkpt>
      <trkpt lat="44.18574" lon="6.75733">
        <ele>1522</ele>
        <time>2013-07-13T09:01:39Z</time>
      </trkpt>
      <trkpt lat="44.1857" lon="6.75736">
        <ele>1522.7</ele>
        <time>2013-07-13T09:01:41Z</time>
      </trkpt>
      <trkpt lat="44.18572" lon="6.75747">
        <ele>1522</ele>
        <time>2013-07-13T09:01:43Z</time>
      </trkpt>
      <trkpt lat="44.18573" lon="6.75758">
        <ele>1521.7</ele>
        <time>2013-07-13T09:01:45Z</time>
      </trkpt>
      <trkpt lat="44.18576" lon="6.75766">
        <ele>1521.4</ele>
        <time>2013-07-13T09:01:47Z</time>
      </trkpt>
      <trkpt lat="44.18581" lon="6.75774">
        <ele>1521.3</ele>
        <time>2013-07-13T09:01:49Z</time>
      </trkpt>
      <trkpt lat="44.18589" lon="6.7578">
        <ele>1521</ele>
        <time>2013-07-13T09:01:52Z</time>
      </trkpt>
      <trkpt lat="44.18596" lon="6.75777">
        <ele>1521.1</ele>
        <time>2013-07-13T09:01:56Z</time>
      </trkpt>
      <trkpt lat="44.18599" lon="6.75775">
        <ele>1521.5</ele>
        <time>2013-07-13T09:01:58Z</time>
      </trkpt>
      <trkpt lat="44.18604" lon="6.75774">
        <ele>1521.7</ele>
        <time>2013-07-13T09:02:00Z</time>
      </trkpt>
      <trkpt lat="44.1861" lon="6.75775">
        <ele>1521.9</ele>
        <time>2013-07-13T09:02:02Z</time>
      </trkpt>
      <trkpt lat="44.18618" lon="6.75776">
        <ele>1522.4</ele>
        <time>2013-07-13T09:02:04Z</time>
      </trkpt>
      <trkpt lat="44.18625" lon="6.75776">
        <ele>1522.4</ele>
        <time>2013-07-13T09:02:06Z</time>
      </trkpt>
      <trkpt lat="44.18632" lon="6.75773">
        <ele>1522.9</ele>
        <time>2013-07-13T09:02:09Z</time>
      </trkpt>
      <trkpt lat="44.18637" lon="6.75773">
        <ele>1523.4</ele>
        <time>2013-07-13T09:02:11Z</time>
      </trkpt>
      <trkpt lat="44.18643" lon="6.75774">
        <ele>1524</ele>
        <time>2013-07-13T09:02:14Z</time>
      </trkpt>
      <trkpt lat="44.1865" lon="6.75775">
        <ele>1524.3</ele>
        <time>2013-07-13T09:02:16Z</time>
      </trkpt>
      <trkpt lat="44.18654" lon="6.75776">
        <ele>1524.8</ele>
        <time>2013-07-13T09:02:18Z</time>
      </trkpt>
      <trkpt lat="44.18659" lon="6.75775">
        <ele>1525.3</ele>
        <time>2013-07-13T09:02:20Z</time>
      </trkpt>
      <trkpt lat="44.18663" lon="6.75774">
        <ele>1525.7</ele>
        <time>2013-07-13T09:02:22Z</time>
      </trkpt>
      <trkpt lat="44.18667" lon="6.75773">
        <ele>1526.2</ele>
        <time>2013-07-13T09:02:24Z</time>
      </trkpt>
      <trkpt lat="44.1867" lon="6.7577">
        <ele>1526.1</ele>
        <time>2013-07-13T09:02:26Z</time>
      </trkpt>
      <trkpt lat="44.18673" lon="6.75766">
        <ele>1525.5</ele>
        <time>2013-07-13T09:02:28Z</time>
      </trkpt>
      <trkpt lat="44.18678" lon="6.75763">
        <ele>1525.3</ele>
        <time>2013-07-13T09:02:30Z</time>
      </trkpt>
      <trkpt lat="44.18687" lon="6.75761">
        <ele>1525.9</ele>
        <time>2013-07-13T09:02:32Z</time>
      </trkpt>
      <trkpt lat="44.18694" lon="6.75761">
        <ele>1526</ele>
        <time>2013-07-13T09:02:34Z</time>
      </trkpt>
      <trkpt lat="44.18699" lon="6.75756">
        <ele>1526.4</ele>
        <time>2013-07-13T09:02:37Z</time>
      </trkpt>
      <trkpt lat="44.18704" lon="6.75754">
        <ele>1526.6</ele>
        <time>2013-07-13T09:02:39Z</time>
      </trkpt>
      <trkpt lat="44.18709" lon="6.75752">
        <ele>1526.9</ele>
        <time>2013-07-13T09:02:41Z</time>
      </trkpt>
      <trkpt lat="44.18716" lon="6.75747">
        <ele>1527.3</ele>
        <time>2013-07-13T09:02:44Z</time>
      </trkpt>
      <trkpt lat="44.18721" lon="6.75745">
        <ele>1527.5</ele>
        <time>2013-07-13T09:02:46Z</time>
      </trkpt>
      <trkpt lat="44.18729" lon="6.75742">
        <ele>1527.8</ele>
        <time>2013-07-13T09:02:48Z</time>
      </trkpt>
      <trkpt lat="44.18736" lon="6.7574">
        <ele>1528.3</ele>
        <time>2013-07-13T09:02:50Z</time>
      </trkpt>
      <trkpt lat="44.18745" lon="6.75742">
        <ele>1529.1</ele>
        <time>2013-07-13T09:02:52Z</time>
      </trkpt>
      <trkpt lat="44.18747" lon="6.75745">
        <ele>1529.4</ele>
        <time>2013-07-13T09:02:53Z</time>
      </trkpt>
      <trkpt lat="44.1875" lon="6.75748">
        <ele>1530</ele>
        <time>2013-07-13T09:02:55Z</time>
      </trkpt>
      <trkpt lat="44.18749" lon="6.75752">
        <ele>1529.1</ele>
        <time>2013-07-13T09:02:57Z</time>
      </trkpt>
      <trkpt lat="44.18746" lon="6.75754">
        <ele>1529</ele>
        <time>2013-07-13T09:02:59Z</time>
      </trkpt>
      <trkpt lat="44.18743" lon="6.75755">
        <ele>1528.8</ele>
        <time>2013-07-13T09:03:01Z</time>
      </trkpt>
      <trkpt lat="44.18739" lon="6.75758">
        <ele>1529</ele>
        <time>2013-07-13T09:03:03Z</time>
      </trkpt>
      <trkpt lat="44.18732" lon="6.75762">
        <ele>1529.8</ele>
        <time>2013-07-13T09:03:07Z</time>
      </trkpt>
      <trkpt lat="44.18728" lon="6.75762">
        <ele>1530.2</ele>
        <time>2013-07-13T09:03:09Z</time>
      </trkpt>
      <trkpt lat="44.18725" lon="6.75763">
        <ele>1530.5</ele>
        <time>2013-07-13T09:03:11Z</time>
      </trkpt>
      <trkpt lat="44.18722" lon="6.75766">
        <ele>1531</ele>
        <time>2013-07-13T09:03:13Z</time>
      </trkpt>
      <trkpt lat="44.18717" lon="6.75767">
        <ele>1531.6</ele>
        <time>2013-07-13T09:03:15Z</time>
      </trkpt>
      <trkpt lat="44.18713" lon="6.75768">
        <ele>1532.2</ele>
        <time>2013-07-13T09:03:17Z</time>
      </trkpt>
      <trkpt lat="44.18708" lon="6.75768">
        <ele>1532.7</ele>
        <time>2013-07-13T09:03:19Z</time>
      </trkpt>
      <trkpt lat="44.18705" lon="6.75768">
        <ele>1533.4</ele>
        <time>2013-07-13T09:03:21Z</time>
      </trkpt>
      <trkpt lat="44.187" lon="6.75769">
        <ele>1534.3</ele>
        <time>2013-07-13T09:03:23Z</time>
      </trkpt>
      <trkpt lat="44.18695" lon="6.7577">
        <ele>1534.9</ele>
        <time>2013-07-13T09:03:25Z</time>
      </trkpt>
      <trkpt lat="44.1869" lon="6.7577">
        <ele>1535.4</ele>
        <time>2013-07-13T09:03:27Z</time>
      </trkpt>
      <trkpt lat="44.18686" lon="6.75771">
        <ele>1536.2</ele>
        <time>2013-07-13T09:03:29Z</time>
      </trkpt>
      <trkpt lat="44.18682" lon="6.75773">
        <ele>1536.9</ele>
        <time>2013-07-13T09:03:31Z</time>
      </trkpt>
      <trkpt lat="44.18678" lon="6.75774">
        <ele>1537.3</ele>
        <time>2013-07-13T09:03:33Z</time>
      </trkpt>
      <trkpt lat="44.18673" lon="6.75774">
        <ele>1537.7</ele>
        <time>2013-07-13T09:03:35Z</time>
      </trkpt>
      <trkpt lat="44.18664" lon="6.75777">
        <ele>1539.1</ele>
        <time>2013-07-13T09:03:38Z</time>
      </trkpt>
      <trkpt lat="44.18658" lon="6.75776">
        <ele>1539.6</ele>
        <time>2013-07-13T09:03:40Z</time>
      </trkpt>
      <trkpt lat="44.18651" lon="6.75776">
        <ele>1540.1</ele>
        <time>2013-07-13T09:03:43Z</time>
      </trkpt>
      <trkpt lat="44.18646" lon="6.75777">
        <ele>1540.7</ele>
        <time>2013-07-13T09:03:45Z</time>
      </trkpt>
      <trkpt lat="44.18642" lon="6.75779">
        <ele>1541.2</ele>
        <time>2013-07-13T09:03:47Z</time>
      </trkpt>
      <trkpt lat="44.18639" lon="6.75781">
        <ele>1541.5</ele>
        <time>2013-07-13T09:03:49Z</time>
      </trkpt>
      <trkpt lat="44.18635" lon="6.75782">
        <ele>1541.6</ele>
        <time>2013-07-13T09:03:51Z</time>
      </trkpt>
      <trkpt lat="44.18631" lon="6.75784">
        <ele>1542.2</ele>
        <time>2013-07-13T09:03:53Z</time>
      </trkpt>
      <trkpt lat="44.18626" lon="6.75786">
        <ele>1542.5</ele>
        <time>2013-07-13T09:03:55Z</time>
      </trkpt>
      <trkpt lat="44.18623" lon="6.75791">
        <ele>1543</ele>
        <time>2013-07-13T09:03:57Z</time>
      </trkpt>
      <trkpt lat="44.1862" lon="6.75794">
        <ele>1543.3</ele>
        <time>2013-07-13T09:03:59Z</time>
      </trkpt>
      <trkpt lat="44.18615" lon="6.75797">
        <ele>1543.9</ele>
        <time>2013-07-13T09:04:01Z</time>
      </trkpt>
      <trkpt lat="44.18611" lon="6.758">
        <ele>1544.3</ele>
        <time>2013-07-13T09:04:03Z</time>
      </trkpt>
      <trkpt lat="44.18606" lon="6.75805">
        <ele>1544.8</ele>
        <time>2013-07-13T09:04:05Z</time>
      </trkpt>
      <trkpt lat="44.18602" lon="6.7581">
        <ele>1545.7</ele>
        <time>2013-07-13T09:04:07Z</time>
      </trkpt>
      <trkpt lat="44.18595" lon="6.75815">
        <ele>1546.8</ele>
        <time>2013-07-13T09:04:10Z</time>
      </trkpt>
      <trkpt lat="44.18591" lon="6.75817">
        <ele>1547</ele>
        <time>2013-07-13T09:04:12Z</time>
      </trkpt>
      <trkpt lat="44.18587" lon="6.7582">
        <ele>1547.4</ele>
        <time>2013-07-13T09:04:14Z</time>
      </trkpt>
      <trkpt lat="44.18582" lon="6.75827">
        <ele>1549.9</ele>
        <time>2013-07-13T09:04:17Z</time>
      </trkpt>
      <trkpt lat="44.1858" lon="6.7583">
        <ele>1551.2</ele>
        <time>2013-07-13T09:04:19Z</time>
      </trkpt>
      <trkpt lat="44.18578" lon="6.75834">
        <ele>1552.6</ele>
        <time>2013-07-13T09:04:21Z</time>
      </trkpt>
      <trkpt lat="44.18574" lon="6.75836">
        <ele>1553.8</ele>
        <time>2013-07-13T09:04:23Z</time>
      </trkpt>
      <trkpt lat="44.18568" lon="6.75838">
        <ele>1553.9</ele>
        <time>2013-07-13T09:04:25Z</time>
      </trkpt>
      <trkpt lat="44.18562" lon="6.75842">
        <ele>1554.1</ele>
        <time>2013-07-13T09:04:28Z</time>
      </trkpt>
      <trkpt lat="44.18558" lon="6.75844">
        <ele>1554.4</ele>
        <time>2013-07-13T09:04:30Z</time>
      </trkpt>
      <trkpt lat="44.18555" lon="6.75845">
        <ele>1555</ele>
        <time>2013-07-13T09:04:32Z</time>
      </trkpt>
      <trkpt lat="44.18554" lon="6.7585">
        <ele>1554.8</ele>
        <time>2013-07-13T09:04:34Z</time>
      </trkpt>
      <trkpt lat="44.18553" lon="6.75857">
        <ele>1554.5</ele>
        <time>2013-07-13T09:04:36Z</time>
      </trkpt>
      <trkpt lat="44.18555" lon="6.75868">
        <ele>1553.6</ele>
        <time>2013-07-13T09:04:38Z</time>
      </trkpt>
      <trkpt lat="44.18559" lon="6.75879">
        <ele>1552.9</ele>
        <time>2013-07-13T09:04:41Z</time>
      </trkpt>
      <trkpt lat="44.18563" lon="6.75882">
        <ele>1552.7</ele>
        <time>2013-07-13T09:04:43Z</time>
      </trkpt>
      <trkpt lat="44.18567" lon="6.75882">
        <ele>1552.8</ele>
        <time>2013-07-13T09:04:46Z</time>
      </trkpt>
      <trkpt lat="44.18575" lon="6.75881">
        <ele>1552.9</ele>
        <time>2013-07-13T09:04:50Z</time>
      </trkpt>
      <trkpt lat="44.18578" lon="6.75881">
        <ele>1553.1</ele>
        <time>2013-07-13T09:04:52Z</time>
      </trkpt>
      <trkpt lat="44.18582" lon="6.75881">
        <ele>1553.3</ele>
        <time>2013-07-13T09:04:54Z</time>
      </trkpt>
      <trkpt lat="44.18586" lon="6.75881">
        <ele>1553.5</ele>
        <time>2013-07-13T09:04:56Z</time>
      </trkpt>
      <trkpt lat="44.1859" lon="6.75881">
        <ele>1553.6</ele>
        <time>2013-07-13T09:04:59Z</time>
      </trkpt>
      <trkpt lat="44.18593" lon="6.75882">
        <ele>1553.9</ele>
        <time>2013-07-13T09:05:01Z</time>
      </trkpt>
      <trkpt lat="44.18599" lon="6.75884">
        <ele>1553.9</ele>
        <time>2013-07-13T09:05:03Z</time>
      </trkpt>
      <trkpt lat="44.18607" lon="6.75886">
        <ele>1554.3</ele>
        <time>2013-07-13T09:05:06Z</time>
      </trkpt>
      <trkpt lat="44.18611" lon="6.75887">
        <ele>1554.5</ele>
        <time>2013-07-13T09:05:08Z</time>
      </trkpt>
      <trkpt lat="44.18614" lon="6.75887">
        <ele>1554.7</ele>
        <time>2013-07-13T09:05:10Z</time>
      </trkpt>
      <trkpt lat="44.18617" lon="6.75887">
        <ele>1554.9</ele>
        <time>2013-07-13T09:05:12Z</time>
      </trkpt>
      <trkpt lat="44.18621" lon="6.75887">
        <ele>1555.2</ele>
        <time>2013-07-13T09:05:14Z</time>
      </trkpt>
      <trkpt lat="44.18625" lon="6.75885">
        <ele>1555.5</ele>
        <time>2013-07-13T09:05:16Z</time>
      </trkpt>
      <trkpt lat="44.18628" lon="6.75883">
        <ele>1555.6</ele>
        <time>2013-07-13T09:05:18Z</time>
      </trkpt>
      <trkpt lat="44.18632" lon="6.75881">
        <ele>1555.8</ele>
        <time>2013-07-13T09:05:20Z</time>
      </trkpt>
      <trkpt lat="44.18636" lon="6.75882">
        <ele>1556</ele>
        <time>2013-07-13T09:05:22Z</time>
      </trkpt>
      <trkpt lat="44.18641" lon="6.75885">
        <ele>1556.7</ele>
        <time>2013-07-13T09:05:26Z</time>
      </trkpt>
      <trkpt lat="44.1864" lon="6.75889">
        <ele>1557.6</ele>
        <time>2013-07-13T09:05:29Z</time>
      </trkpt>
      <trkpt lat="44.18637" lon="6.7589">
        <ele>1558.1</ele>
        <time>2013-07-13T09:05:31Z</time>
      </trkpt>
      <trkpt lat="44.1863" lon="6.75892">
        <ele>1559.1</ele>
        <time>2013-07-13T09:05:35Z</time>
      </trkpt>
      <trkpt lat="44.18625" lon="6.75894">
        <ele>1559.5</ele>
        <time>2013-07-13T09:05:37Z</time>
      </trkpt>
      <trkpt lat="44.18621" lon="6.75897">
        <ele>1560.4</ele>
        <time>2013-07-13T09:05:39Z</time>
      </trkpt>
      <trkpt lat="44.18617" lon="6.75903">
        <ele>1561.6</ele>
        <time>2013-07-13T09:05:41Z</time>
      </trkpt>
      <trkpt lat="44.18613" lon="6.75909">
        <ele>1561.9</ele>
        <time>2013-07-13T09:05:43Z</time>
      </trkpt>
      <trkpt lat="44.18609" lon="6.75917">
        <ele>1562.3</ele>
        <time>2013-07-13T09:05:45Z</time>
      </trkpt>
      <trkpt lat="44.18604" lon="6.75923">
        <ele>1562.7</ele>
        <time>2013-07-13T09:05:47Z</time>
      </trkpt>
      <trkpt lat="44.186" lon="6.7593">
        <ele>1563</ele>
        <time>2013-07-13T09:05:49Z</time>
      </trkpt>
      <trkpt lat="44.18595" lon="6.75936">
        <ele>1563.7</ele>
        <time>2013-07-13T09:05:51Z</time>
      </trkpt>
      <trkpt lat="44.1859" lon="6.75941">
        <ele>1565.2</ele>
        <time>2013-07-13T09:05:53Z</time>
      </trkpt>
      <trkpt lat="44.18584" lon="6.75948">
        <ele>1565.6</ele>
        <time>2013-07-13T09:05:56Z</time>
      </trkpt>
      <trkpt lat="44.18581" lon="6.75951">
        <ele>1566.3</ele>
        <time>2013-07-13T09:05:58Z</time>
      </trkpt>
      <trkpt lat="44.18577" lon="6.75953">
        <ele>1566.7</ele>
        <time>2013-07-13T09:06:00Z</time>
      </trkpt>
      <trkpt lat="44.18574" lon="6.75955">
        <ele>1567.2</ele>
        <time>2013-07-13T09:06:02Z</time>
      </trkpt>
      <trkpt lat="44.1857" lon="6.75957">
        <ele>1567.6</ele>
        <time>2013-07-13T09:06:04Z</time>
      </trkpt>
      <trkpt lat="44.18566" lon="6.7596">
        <ele>1568</ele>
        <time>2013-07-13T09:06:06Z</time>
      </trkpt>
      <trkpt lat="44.18561" lon="6.75964">
        <ele>1568.7</ele>
        <time>2013-07-13T09:06:10Z</time>
      </trkpt>
      <trkpt lat="44.18557" lon="6.75966">
        <ele>1569.7</ele>
        <time>2013-07-13T09:06:12Z</time>
      </trkpt>
      <trkpt lat="44.18553" lon="6.75969">
        <ele>1570.3</ele>
        <time>2013-07-13T09:06:14Z</time>
      </trkpt>
      <trkpt lat="44.18549" lon="6.75972">
        <ele>1571</ele>
        <time>2013-07-13T09:06:16Z</time>
      </trkpt>
      <trkpt lat="44.18543" lon="6.75981">
        <ele>1571.4</ele>
        <time>2013-07-13T09:06:20Z</time>
      </trkpt>
      <trkpt lat="44.1854" lon="6.75986">
        <ele>1571.5</ele>
        <time>2013-07-13T09:06:22Z</time>
      </trkpt>
      <trkpt lat="44.18538" lon="6.75991">
        <ele>1572</ele>
        <time>2013-07-13T09:06:24Z</time>
      </trkpt>
      <trkpt lat="44.18534" lon="6.75996">
        <ele>1572.3</ele>
        <time>2013-07-13T09:06:26Z</time>
      </trkpt>
      <trkpt lat="44.18531" lon="6.76001">
        <ele>1572.6</ele>
        <time>2013-07-13T09:06:28Z</time>
      </trkpt>
      <trkpt lat="44.18528" lon="6.76009">
        <ele>1572.5</ele>
        <time>2013-07-13T09:06:30Z</time>
      </trkpt>
      <trkpt lat="44.18527" lon="6.76017">
        <ele>1572.6</ele>
        <time>2013-07-13T09:06:32Z</time>
      </trkpt>
      <trkpt lat="44.1853" lon="6.76024">
        <ele>1572.8</ele>
        <time>2013-07-13T09:06:34Z</time>
      </trkpt>
      <trkpt lat="44.18532" lon="6.76032">
        <ele>1572.9</ele>
        <time>2013-07-13T09:06:36Z</time>
      </trkpt>
      <trkpt lat="44.18535" lon="6.76038">
        <ele>1573.1</ele>
        <time>2013-07-13T09:06:38Z</time>
      </trkpt>
      <trkpt lat="44.18541" lon="6.76045">
        <ele>1573.1</ele>
        <time>2013-07-13T09:06:40Z</time>
      </trkpt>
      <trkpt lat="44.18545" lon="6.76051">
        <ele>1573</ele>
        <time>2013-07-13T09:06:42Z</time>
      </trkpt>
      <trkpt lat="44.1855" lon="6.76055">
        <ele>1573.1</ele>
        <time>2013-07-13T09:06:44Z</time>
      </trkpt>
      <trkpt lat="44.18554" lon="6.76059">
        <ele>1573.1</ele>
        <time>2013-07-13T09:06:46Z</time>
      </trkpt>
      <trkpt lat="44.18561" lon="6.76068">
        <ele>1572.7</ele>
        <time>2013-07-13T09:06:50Z</time>
      </trkpt>
      <trkpt lat="44.18565" lon="6.76071">
        <ele>1572.8</ele>
        <time>2013-07-13T09:06:52Z</time>
      </trkpt>
      <trkpt lat="44.18568" lon="6.76074">
        <ele>1573</ele>
        <time>2013-07-13T09:06:54Z</time>
      </trkpt>
      <trkpt lat="44.18572" lon="6.76077">
        <ele>1573.2</ele>
        <time>2013-07-13T09:06:56Z</time>
      </trkpt>
      <trkpt lat="44.18576" lon="6.76079">
        <ele>1573.4</ele>
        <time>2013-07-13T09:06:58Z</time>
      </trkpt>
      <trkpt lat="44.1858" lon="6.76081">
        <ele>1573.8</ele>
        <time>2013-07-13T09:07:00Z</time>
      </trkpt>
      <trkpt lat="44.18584" lon="6.76084">
        <ele>1574.1</ele>
        <time>2013-07-13T09:07:02Z</time>
      </trkpt>
      <trkpt lat="44.18591" lon="6.76089">
        <ele>1574.7</ele>
        <time>2013-07-13T09:07:05Z</time>
      </trkpt>
      <trkpt lat="44.18595" lon="6.76091">
        <ele>1575</ele>
        <time>2013-07-13T09:07:07Z</time>
      </trkpt>
      <trkpt lat="44.18599" lon="6.76096">
        <ele>1575.2</ele>
        <time>2013-07-13T09:07:09Z</time>
      </trkpt>
      <trkpt lat="44.18605" lon="6.76103">
        <ele>1575.5</ele>
        <time>2013-07-13T09:07:11Z</time>
      </trkpt>
      <trkpt lat="44.18612" lon="6.7611">
        <ele>1575.5</ele>
        <time>2013-07-13T09:07:13Z</time>
      </trkpt>
      <trkpt lat="44.1862" lon="6.76115">
        <ele>1575</ele>
        <time>2013-07-13T09:07:15Z</time>
      </trkpt>
      <trkpt lat="44.18627" lon="6.7612">
        <ele>1574.2</ele>
        <time>2013-07-13T09:07:17Z</time>
      </trkpt>
      <trkpt lat="44.18633" lon="6.76124">
        <ele>1574.4</ele>
        <time>2013-07-13T09:07:19Z</time>
      </trkpt>
      <trkpt lat="44.18638" lon="6.7613">
        <ele>1574.5</ele>
        <time>2013-07-13T09:07:21Z</time>
      </trkpt>
      <trkpt lat="44.18645" lon="6.76134">
        <ele>1575.2</ele>
        <time>2013-07-13T09:07:23Z</time>
      </trkpt>
      <trkpt lat="44.18648" lon="6.7614">
        <ele>1575.8</ele>
        <time>2013-07-13T09:07:25Z</time>
      </trkpt>
      <trkpt lat="44.1865" lon="6.76146">
        <ele>1576</ele>
        <time>2013-07-13T09:07:27Z</time>
      </trkpt>
      <trkpt lat="44.18652" lon="6.76153">
        <ele>1576.3</ele>
        <time>2013-07-13T09:07:29Z</time>
      </trkpt>
      <trkpt lat="44.18656" lon="6.7616">
        <ele>1576.7</ele>
        <time>2013-07-13T09:07:31Z</time>
      </trkpt>
      <trkpt lat="44.1866" lon="6.76165">
        <ele>1576.7</ele>
        <time>2013-07-13T09:07:33Z</time>
      </trkpt>
      <trkpt lat="44.18666" lon="6.76173">
        <ele>1576.8</ele>
        <time>2013-07-13T09:07:36Z</time>
      </trkpt>
      <trkpt lat="44.18668" lon="6.76177">
        <ele>1577.3</ele>
        <time>2013-07-13T09:07:38Z</time>
      </trkpt>
      <trkpt lat="44.18672" lon="6.76183">
        <ele>1577.8</ele>
        <time>2013-07-13T09:07:40Z</time>
      </trkpt>
      <trkpt lat="44.18674" lon="6.76188">
        <ele>1578</ele>
        <time>2013-07-13T09:07:42Z</time>
      </trkpt>
      <trkpt lat="44.18674" lon="6.76193">
        <ele>1578.2</ele>
        <time>2013-07-13T09:07:45Z</time>
      </trkpt>
      <trkpt lat="44.18675" lon="6.76198">
        <ele>1579.8</ele>
        <time>2013-07-13T09:07:50Z</time>
      </trkpt>
      <trkpt lat="44.18676" lon="6.76201">
        <ele>1580.6</ele>
        <time>2013-07-13T09:07:53Z</time>
      </trkpt>
      <trkpt lat="44.18678" lon="6.76205">
        <ele>1580.9</ele>
        <time>2013-07-13T09:07:56Z</time>
      </trkpt>
      <trkpt lat="44.1868" lon="6.76207">
        <ele>1581.3</ele>
        <time>2013-07-13T09:07:58Z</time>
      </trkpt>
      <trkpt lat="44.18682" lon="6.76211">
        <ele>1581.6</ele>
        <time>2013-07-13T09:08:00Z</time>
      </trkpt>
      <trkpt lat="44.18684" lon="6.76215">
        <ele>1582.2</ele>
        <time>2013-07-13T09:08:02Z</time>
      </trkpt>
      <trkpt lat="44.18686" lon="6.76218">
        <ele>1582.6</ele>
        <time>2013-07-13T09:08:04Z</time>
      </trkpt>
      <trkpt lat="44.18686" lon="6.76223">
        <ele>1583.3</ele>
        <time>2013-07-13T09:08:07Z</time>
      </trkpt>
      <trkpt lat="44.18687" lon="6.76228">
        <ele>1583.8</ele>
        <time>2013-07-13T09:08:09Z</time>
      </trkpt>
      <trkpt lat="44.18688" lon="6.76232">
        <ele>1584.4</ele>
        <time>2013-07-13T09:08:13Z</time>
      </trkpt>
      <trkpt lat="44.18689" lon="6.76228">
        <ele>1585.3</ele>
        <time>2013-07-13T09:08:24Z</time>
      </trkpt>
      <trkpt lat="44.18687" lon="6.76225">
        <ele>1587</ele>
        <time>2013-07-13T09:08:27Z</time>
      </trkpt>
      <trkpt lat="44.18684" lon="6.76225">
        <ele>1590.5</ele>
        <time>2013-07-13T09:08:42Z</time>
      </trkpt>
      <trkpt lat="44.18683" lon="6.7623">
        <ele>1590.2</ele>
        <time>2013-07-13T09:09:43Z</time>
      </trkpt>
      <trkpt lat="44.18686" lon="6.76229">
        <ele>1591.6</ele>
        <time>2013-07-13T09:10:10Z</time>
      </trkpt>
      <trkpt lat="44.18686" lon="6.76224">
        <ele>1591.1</ele>
        <time>2013-07-13T09:10:54Z</time>
      </trkpt>
      <trkpt lat="44.18686" lon="6.76218">
        <ele>1590.7</ele>
        <time>2013-07-13T09:10:56Z</time>
      </trkpt>
      <trkpt lat="44.18683" lon="6.7621">
        <ele>1590.4</ele>
        <time>2013-07-13T09:10:58Z</time>
      </trkpt>
      <trkpt lat="44.18678" lon="6.76208">
        <ele>1590.5</ele>
        <time>2013-07-13T09:11:01Z</time>
      </trkpt>
      <trkpt lat="44.18678" lon="6.76217">
        <ele>1589.7</ele>
        <time>2013-07-13T09:11:03Z</time>
      </trkpt>
      <trkpt lat="44.18678" lon="6.76223">
        <ele>1589.5</ele>
        <time>2013-07-13T09:11:05Z</time>
      </trkpt>
      <trkpt lat="44.18679" lon="6.76227">
        <ele>1589.5</ele>
        <time>2013-07-13T09:11:07Z</time>
      </trkpt>
      <trkpt lat="44.18678" lon="6.76231">
        <ele>1589.9</ele>
        <time>2013-07-13T09:11:10Z</time>
      </trkpt>
      <trkpt lat="44.18678" lon="6.76236">
        <ele>1590.1</ele>
        <time>2013-07-13T09:11:13Z</time>
      </trkpt>
      <trkpt lat="44.18675" lon="6.76239">
        <ele>1590.4</ele>
        <time>2013-07-13T09:11:16Z</time>
      </trkpt>
      <trkpt lat="44.18674" lon="6.76242">
        <ele>1590.4</ele>
        <time>2013-07-13T09:11:18Z</time>
      </trkpt>
      <trkpt lat="44.18672" lon="6.76247">
        <ele>1590.4</ele>
        <time>2013-07-13T09:11:20Z</time>
      </trkpt>
      <trkpt lat="44.1867" lon="6.76253">
        <ele>1590.2</ele>
        <time>2013-07-13T09:11:22Z</time>
      </trkpt>
      <trkpt lat="44.18669" lon="6.76259">
        <ele>1589.8</ele>
        <time>2013-07-13T09:11:24Z</time>
      </trkpt>
      <trkpt lat="44.18667" lon="6.76265">
        <ele>1589.7</ele>
        <time>2013-07-13T09:11:26Z</time>
      </trkpt>
      <trkpt lat="44.18665" lon="6.7627">
        <ele>1589.6</ele>
        <time>2013-07-13T09:11:28Z</time>
      </trkpt>
      <trkpt lat="44.18662" lon="6.76274">
        <ele>1589.6</ele>
        <time>2013-07-13T09:11:30Z</time>
      </trkpt>
      <trkpt lat="44.1866" lon="6.76278">
        <ele>1589.8</ele>
        <time>2013-07-13T09:11:32Z</time>
      </trkpt>
      <trkpt lat="44.18659" lon="6.76284">
        <ele>1589.9</ele>
        <time>2013-07-13T09:11:34Z</time>
      </trkpt>
      <trkpt lat="44.18658" lon="6.76289">
        <ele>1590</ele>
        <time>2013-07-13T09:11:36Z</time>
      </trkpt>
      <trkpt lat="44.18656" lon="6.76292">
        <ele>1590</ele>
        <time>2013-07-13T09:11:38Z</time>
      </trkpt>
      <trkpt lat="44.18655" lon="6.76298">
        <ele>1589.6</ele>
        <time>2013-07-13T09:11:40Z</time>
      </trkpt>
      <trkpt lat="44.18653" lon="6.76303">
        <ele>1589.4</ele>
        <time>2013-07-13T09:11:42Z</time>
      </trkpt>
      <trkpt lat="44.1865" lon="6.76307">
        <ele>1589.5</ele>
        <time>2013-07-13T09:11:44Z</time>
      </trkpt>
      <trkpt lat="44.18649" lon="6.76312">
        <ele>1589.6</ele>
        <time>2013-07-13T09:11:46Z</time>
      </trkpt>
      <trkpt lat="44.18648" lon="6.76316">
        <ele>1589.9</ele>
        <time>2013-07-13T09:11:48Z</time>
      </trkpt>
      <trkpt lat="44.18648" lon="6.76321">
        <ele>1590.3</ele>
        <time>2013-07-13T09:11:50Z</time>
      </trkpt>
      <trkpt lat="44.18646" lon="6.76327">
        <ele>1590.3</ele>
        <time>2013-07-13T09:11:52Z</time>
      </trkpt>
      <trkpt lat="44.18645" lon="6.76333">
        <ele>1590.3</ele>
        <time>2013-07-13T09:11:54Z</time>
      </trkpt>
      <trkpt lat="44.18645" lon="6.76338">
        <ele>1590.4</ele>
        <time>2013-07-13T09:11:56Z</time>
      </trkpt>
      <trkpt lat="44.18644" lon="6.76343">
        <ele>1590.7</ele>
        <time>2013-07-13T09:11:58Z</time>
      </trkpt>
      <trkpt lat="44.18643" lon="6.76348">
        <ele>1591.1</ele>
        <time>2013-07-13T09:12:00Z</time>
      </trkpt>
      <trkpt lat="44.18642" lon="6.76353">
        <ele>1591.1</ele>
        <time>2013-07-13T09:12:02Z</time>
      </trkpt>
      <trkpt lat="44.18641" lon="6.76358">
        <ele>1591.2</ele>
        <time>2013-07-13T09:12:05Z</time>
      </trkpt>
      <trkpt lat="44.18642" lon="6.76362">
        <ele>1591.6</ele>
        <time>2013-07-13T09:12:07Z</time>
      </trkpt>
      <trkpt lat="44.18644" lon="6.76368">
        <ele>1591.7</ele>
        <time>2013-07-13T09:12:09Z</time>
      </trkpt>
      <trkpt lat="44.18646" lon="6.76372">
        <ele>1592</ele>
        <time>2013-07-13T09:12:11Z</time>
      </trkpt>
      <trkpt lat="44.18649" lon="6.76376">
        <ele>1592.4</ele>
        <time>2013-07-13T09:12:13Z</time>
      </trkpt>
      <trkpt lat="44.18651" lon="6.76379">
        <ele>1592.4</ele>
        <time>2013-07-13T09:12:15Z</time>
      </trkpt>
      <trkpt lat="44.18653" lon="6.76383">
        <ele>1592.8</ele>
        <time>2013-07-13T09:12:17Z</time>
      </trkpt>
      <trkpt lat="44.18654" lon="6.76387">
        <ele>1593</ele>
        <time>2013-07-13T09:12:19Z</time>
      </trkpt>
      <trkpt lat="44.18657" lon="6.76391">
        <ele>1593.6</ele>
        <time>2013-07-13T09:12:21Z</time>
      </trkpt>
      <trkpt lat="44.1866" lon="6.76394">
        <ele>1594.3</ele>
        <time>2013-07-13T09:12:23Z</time>
      </trkpt>
      <trkpt lat="44.18662" lon="6.76399">
        <ele>1594.9</ele>
        <time>2013-07-13T09:12:25Z</time>
      </trkpt>
      <trkpt lat="44.18664" lon="6.76402">
        <ele>1595.4</ele>
        <time>2013-07-13T09:12:27Z</time>
      </trkpt>
      <trkpt lat="44.18665" lon="6.76407">
        <ele>1595.8</ele>
        <time>2013-07-13T09:12:29Z</time>
      </trkpt>
      <trkpt lat="44.18667" lon="6.7641">
        <ele>1596.2</ele>
        <time>2013-07-13T09:12:31Z</time>
      </trkpt>
      <trkpt lat="44.1867" lon="6.76418">
        <ele>1596.7</ele>
        <time>2013-07-13T09:12:35Z</time>
      </trkpt>
      <trkpt lat="44.18673" lon="6.76425">
        <ele>1597.1</ele>
        <time>2013-07-13T09:12:39Z</time>
      </trkpt>
      <trkpt lat="44.18675" lon="6.76429">
        <ele>1597.6</ele>
        <time>2013-07-13T09:12:41Z</time>
      </trkpt>
      <trkpt lat="44.18677" lon="6.76432">
        <ele>1598.1</ele>
        <time>2013-07-13T09:12:43Z</time>
      </trkpt>
      <trkpt lat="44.18679" lon="6.76437">
        <ele>1598.8</ele>
        <time>2013-07-13T09:12:45Z</time>
      </trkpt>
      <trkpt lat="44.18682" lon="6.76447">
        <ele>1599.1</ele>
        <time>2013-07-13T09:12:49Z</time>
      </trkpt>
      <trkpt lat="44.18683" lon="6.76452">
        <ele>1599.7</ele>
        <time>2013-07-13T09:12:51Z</time>
      </trkpt>
      <trkpt lat="44.18685" lon="6.76457">
        <ele>1600</ele>
        <time>2013-07-13T09:12:53Z</time>
      </trkpt>
      <trkpt lat="44.18687" lon="6.76461">
        <ele>1600.5</ele>
        <time>2013-07-13T09:12:55Z</time>
      </trkpt>
      <trkpt lat="44.18688" lon="6.76465">
        <ele>1600.8</ele>
        <time>2013-07-13T09:12:57Z</time>
      </trkpt>
      <trkpt lat="44.18688" lon="6.7647">
        <ele>1600.8</ele>
        <time>2013-07-13T09:12:59Z</time>
      </trkpt>
      <trkpt lat="44.18688" lon="6.76475">
        <ele>1600.9</ele>
        <time>2013-07-13T09:13:01Z</time>
      </trkpt>
      <trkpt lat="44.18688" lon="6.76479">
        <ele>1601.1</ele>
        <time>2013-07-13T09:13:03Z</time>
      </trkpt>
      <trkpt lat="44.18688" lon="6.76483">
        <ele>1601.4</ele>
        <time>2013-07-13T09:13:05Z</time>
      </trkpt>
      <trkpt lat="44.18687" lon="6.76488">
        <ele>1601.9</ele>
        <time>2013-07-13T09:13:07Z</time>
      </trkpt>
      <trkpt lat="44.18686" lon="6.76492">
        <ele>1602.5</ele>
        <time>2013-07-13T09:13:09Z</time>
      </trkpt>
      <trkpt lat="44.18686" lon="6.76497">
        <ele>1603.1</ele>
        <time>2013-07-13T09:13:11Z</time>
      </trkpt>
      <trkpt lat="44.18686" lon="6.76501">
        <ele>1603.7</ele>
        <time>2013-07-13T09:13:13Z</time>
      </trkpt>
      <trkpt lat="44.18686" lon="6.76505">
        <ele>1604</ele>
        <time>2013-07-13T09:13:15Z</time>
      </trkpt>
      <trkpt lat="44.18688" lon="6.76514">
        <ele>1604.5</ele>
        <time>2013-07-13T09:13:19Z</time>
      </trkpt>
      <trkpt lat="44.18689" lon="6.7652">
        <ele>1604.6</ele>
        <time>2013-07-13T09:13:22Z</time>
      </trkpt>
      <trkpt lat="44.18691" lon="6.76524">
        <ele>1605</ele>
        <time>2013-07-13T09:13:25Z</time>
      </trkpt>
      <trkpt lat="44.18693" lon="6.76528">
        <ele>1605.4</ele>
        <time>2013-07-13T09:13:28Z</time>
      </trkpt>
      <trkpt lat="44.18695" lon="6.76531">
        <ele>1605.4</ele>
        <time>2013-07-13T09:13:30Z</time>
      </trkpt>
      <trkpt lat="44.18697" lon="6.76534">
        <ele>1605.9</ele>
        <time>2013-07-13T09:13:32Z</time>
      </trkpt>
      <trkpt lat="44.18698" lon="6.76539">
        <ele>1606.4</ele>
        <time>2013-07-13T09:13:35Z</time>
      </trkpt>
      <trkpt lat="44.187" lon="6.76542">
        <ele>1606.8</ele>
        <time>2013-07-13T09:13:37Z</time>
      </trkpt>
      <trkpt lat="44.18701" lon="6.76546">
        <ele>1607.5</ele>
        <time>2013-07-13T09:13:39Z</time>
      </trkpt>
      <trkpt lat="44.18703" lon="6.7655">
        <ele>1607.9</ele>
        <time>2013-07-13T09:13:41Z</time>
      </trkpt>
      <trkpt lat="44.18705" lon="6.76554">
        <ele>1608.2</ele>
        <time>2013-07-13T09:13:43Z</time>
      </trkpt>
      <trkpt lat="44.18708" lon="6.76558">
        <ele>1608.7</ele>
        <time>2013-07-13T09:13:45Z</time>
      </trkpt>
      <trkpt lat="44.1871" lon="6.76562">
        <ele>1609.1</ele>
        <time>2013-07-13T09:13:47Z</time>
      </trkpt>
      <trkpt lat="44.18712" lon="6.76565">
        <ele>1609.2</ele>
        <time>2013-07-13T09:13:49Z</time>
      </trkpt>
      <trkpt lat="44.18714" lon="6.76571">
        <ele>1609.8</ele>
        <time>2013-07-13T09:13:52Z</time>
      </trkpt>
      <trkpt lat="44.18715" lon="6.76575">
        <ele>1610.6</ele>
        <time>2013-07-13T09:13:55Z</time>
      </trkpt>
      <trkpt lat="44.18716" lon="6.76579">
        <ele>1611.4</ele>
        <time>2013-07-13T09:13:57Z</time>
      </trkpt>
      <trkpt lat="44.18716" lon="6.76584">
        <ele>1611.8</ele>
        <time>2013-07-13T09:14:00Z</time>
      </trkpt>
      <trkpt lat="44.18715" lon="6.76588">
        <ele>1611.9</ele>
        <time>2013-07-13T09:14:02Z</time>
      </trkpt>
      <trkpt lat="44.18713" lon="6.76591">
        <ele>1612.3</ele>
        <time>2013-07-13T09:14:04Z</time>
      </trkpt>
      <trkpt lat="44.18712" lon="6.76595">
        <ele>1613</ele>
        <time>2013-07-13T09:14:06Z</time>
      </trkpt>
      <trkpt lat="44.1871" lon="6.76598">
        <ele>1613.5</ele>
        <time>2013-07-13T09:14:08Z</time>
      </trkpt>
      <trkpt lat="44.18708" lon="6.76602">
        <ele>1614</ele>
        <time>2013-07-13T09:14:11Z</time>
      </trkpt>
      <trkpt lat="44.18707" lon="6.76606">
        <ele>1614</ele>
        <time>2013-07-13T09:14:13Z</time>
      </trkpt>
      <trkpt lat="44.18706" lon="6.76611">
        <ele>1614.1</ele>
        <time>2013-07-13T09:14:15Z</time>
      </trkpt>
      <trkpt lat="44.18706" lon="6.76616">
        <ele>1614.7</ele>
        <time>2013-07-13T09:14:18Z</time>
      </trkpt>
      <trkpt lat="44.18706" lon="6.76621">
        <ele>1614.9</ele>
        <time>2013-07-13T09:14:20Z</time>
      </trkpt>
      <trkpt lat="44.18707" lon="6.76624">
        <ele>1615</ele>
        <time>2013-07-13T09:14:22Z</time>
      </trkpt>
      <trkpt lat="44.18707" lon="6.76629">
        <ele>1615.3</ele>
        <time>2013-07-13T09:14:25Z</time>
      </trkpt>
      <trkpt lat="44.18708" lon="6.76633">
        <ele>1615.9</ele>
        <time>2013-07-13T09:14:27Z</time>
      </trkpt>
      <trkpt lat="44.18708" lon="6.76638">
        <ele>1616.1</ele>
        <time>2013-07-13T09:14:30Z</time>
      </trkpt>
      <trkpt lat="44.1871" lon="6.76642">
        <ele>1616.7</ele>
        <time>2013-07-13T09:14:33Z</time>
      </trkpt>
      <trkpt lat="44.18711" lon="6.76646">
        <ele>1616.9</ele>
        <time>2013-07-13T09:14:35Z</time>
      </trkpt>
      <trkpt lat="44.18713" lon="6.76649">
        <ele>1617.2</ele>
        <time>2013-07-13T09:14:37Z</time>
      </trkpt>
      <trkpt lat="44.18714" lon="6.76653">
        <ele>1617.9</ele>
        <time>2013-07-13T09:14:39Z</time>
      </trkpt>
      <trkpt lat="44.18715" lon="6.76657">
        <ele>1618.2</ele>
        <time>2013-07-13T09:14:42Z</time>
      </trkpt>
      <trkpt lat="44.18715" lon="6.76662">
        <ele>1619.1</ele>
        <time>2013-07-13T09:14:46Z</time>
      </trkpt>
      <trkpt lat="44.18715" lon="6.76666">
        <ele>1619.5</ele>
        <time>2013-07-13T09:14:48Z</time>
      </trkpt>
      <trkpt lat="44.18715" lon="6.76671">
        <ele>1619.8</ele>
        <time>2013-07-13T09:14:50Z</time>
      </trkpt>
      <trkpt lat="44.18713" lon="6.76675">
        <ele>1619.9</ele>
        <time>2013-07-13T09:14:52Z</time>
      </trkpt>
      <trkpt lat="44.18713" lon="6.76679">
        <ele>1619.9</ele>
        <time>2013-07-13T09:14:54Z</time>
      </trkpt>
      <trkpt lat="44.18713" lon="6.76683">
        <ele>1619.8</ele>
        <time>2013-07-13T09:14:56Z</time>
      </trkpt>
      <trkpt lat="44.18712" lon="6.76687">
        <ele>1620.3</ele>
        <time>2013-07-13T09:14:58Z</time>
      </trkpt>
      <trkpt lat="44.1871" lon="6.76691">
        <ele>1620.9</ele>
        <time>2013-07-13T09:15:00Z</time>
      </trkpt>
      <trkpt lat="44.1871" lon="6.76696">
        <ele>1621.4</ele>
        <time>2013-07-13T09:15:02Z</time>
      </trkpt>
      <trkpt lat="44.18709" lon="6.76701">
        <ele>1622.3</ele>
        <time>2013-07-13T09:15:04Z</time>
      </trkpt>
      <trkpt lat="44.18708" lon="6.76709">
        <ele>1623.1</ele>
        <time>2013-07-13T09:15:08Z</time>
      </trkpt>
      <trkpt lat="44.18708" lon="6.76713">
        <ele>1623</ele>
        <time>2013-07-13T09:15:10Z</time>
      </trkpt>
      <trkpt lat="44.18709" lon="6.76719">
        <ele>1623.2</ele>
        <time>2013-07-13T09:15:13Z</time>
      </trkpt>
      <trkpt lat="44.1871" lon="6.76723">
        <ele>1623.2</ele>
        <time>2013-07-13T09:15:15Z</time>
      </trkpt>
      <trkpt lat="44.18712" lon="6.76727">
        <ele>1623.5</ele>
        <time>2013-07-13T09:15:18Z</time>
      </trkpt>
      <trkpt lat="44.18714" lon="6.7673">
        <ele>1623.6</ele>
        <time>2013-07-13T09:15:20Z</time>
      </trkpt>
      <trkpt lat="44.18716" lon="6.76734">
        <ele>1623.7</ele>
        <time>2013-07-13T09:15:22Z</time>
      </trkpt>
      <trkpt lat="44.18717" lon="6.76738">
        <ele>1623.8</ele>
        <time>2013-07-13T09:15:24Z</time>
      </trkpt>
      <trkpt lat="44.18718" lon="6.76741">
        <ele>1624</ele>
        <time>2013-07-13T09:15:26Z</time>
      </trkpt>
      <trkpt lat="44.18719" lon="6.76745">
        <ele>1624.4</ele>
        <time>2013-07-13T09:15:28Z</time>
      </trkpt>
      <trkpt lat="44.1872" lon="6.7675">
        <ele>1624.7</ele>
        <time>2013-07-13T09:15:31Z</time>
      </trkpt>
      <trkpt lat="44.18721" lon="6.76755">
        <ele>1624.9</ele>
        <time>2013-07-13T09:15:34Z</time>
      </trkpt>
      <trkpt lat="44.18723" lon="6.76758">
        <ele>1625.2</ele>
        <time>2013-07-13T09:15:36Z</time>
      </trkpt>
      <trkpt lat="44.18725" lon="6.76763">
        <ele>1625.5</ele>
        <time>2013-07-13T09:15:39Z</time>
      </trkpt>
      <trkpt lat="44.18727" lon="6.76766">
        <ele>1626</ele>
        <time>2013-07-13T09:15:41Z</time>
      </trkpt>
      <trkpt lat="44.18729" lon="6.76769">
        <ele>1626.4</ele>
        <time>2013-07-13T09:15:44Z</time>
      </trkpt>
      <trkpt lat="44.18731" lon="6.76774">
        <ele>1627.1</ele>
        <time>2013-07-13T09:15:47Z</time>
      </trkpt>
      <trkpt lat="44.18733" lon="6.76779">
        <ele>1627.5</ele>
        <time>2013-07-13T09:15:50Z</time>
      </trkpt>
      <trkpt lat="44.18735" lon="6.76782">
        <ele>1627.8</ele>
        <time>2013-07-13T09:15:52Z</time>
      </trkpt>
      <trkpt lat="44.18736" lon="6.76786">
        <ele>1628.3</ele>
        <time>2013-07-13T09:15:54Z</time>
      </trkpt>
      <trkpt lat="44.18738" lon="6.7679">
        <ele>1628.8</ele>
        <time>2013-07-13T09:15:57Z</time>
      </trkpt>
      <trkpt lat="44.1874" lon="6.76795">
        <ele>1629.7</ele>
        <time>2013-07-13T09:16:00Z</time>
      </trkpt>
      <trkpt lat="44.18742" lon="6.76798">
        <ele>1630.2</ele>
        <time>2013-07-13T09:16:02Z</time>
      </trkpt>
      <trkpt lat="44.18744" lon="6.76801">
        <ele>1630.3</ele>
        <time>2013-07-13T09:16:04Z</time>
      </trkpt>
      <trkpt lat="44.18749" lon="6.76807">
        <ele>1631.1</ele>
        <time>2013-07-13T09:16:08Z</time>
      </trkpt>
      <trkpt lat="44.18751" lon="6.76809">
        <ele>1631.5</ele>
        <time>2013-07-13T09:16:10Z</time>
      </trkpt>
      <trkpt lat="44.18753" lon="6.76813">
        <ele>1631.7</ele>
        <time>2013-07-13T09:16:12Z</time>
      </trkpt>
      <trkpt lat="44.18755" lon="6.76816">
        <ele>1631.8</ele>
        <time>2013-07-13T09:16:14Z</time>
      </trkpt>
      <trkpt lat="44.18757" lon="6.76819">
        <ele>1631.9</ele>
        <time>2013-07-13T09:16:16Z</time>
      </trkpt>
      <trkpt lat="44.1876" lon="6.76821">
        <ele>1631.9</ele>
        <time>2013-07-13T09:16:18Z</time>
      </trkpt>
      <trkpt lat="44.18762" lon="6.76824">
        <ele>1632</ele>
        <time>2013-07-13T09:16:20Z</time>
      </trkpt>
      <trkpt lat="44.18764" lon="6.76827">
        <ele>1632</ele>
        <time>2013-07-13T09:16:22Z</time>
      </trkpt>
      <trkpt lat="44.18765" lon="6.7683">
        <ele>1632.3</ele>
        <time>2013-07-13T09:16:24Z</time>
      </trkpt>
      <trkpt lat="44.18767" lon="6.76833">
        <ele>1632.6</ele>
        <time>2013-07-13T09:16:26Z</time>
      </trkpt>
      <trkpt lat="44.18769" lon="6.76836">
        <ele>1633.1</ele>
        <time>2013-07-13T09:16:28Z</time>
      </trkpt>
      <trkpt lat="44.1877" lon="6.76839">
        <ele>1633.2</ele>
        <time>2013-07-13T09:16:30Z</time>
      </trkpt>
      <trkpt lat="44.18772" lon="6.76842">
        <ele>1633.4</ele>
        <time>2013-07-13T09:16:32Z</time>
      </trkpt>
      <trkpt lat="44.18773" lon="6.76845">
        <ele>1633.7</ele>
        <time>2013-07-13T09:16:34Z</time>
      </trkpt>
      <trkpt lat="44.18775" lon="6.76849">
        <ele>1633.8</ele>
        <time>2013-07-13T09:16:37Z</time>
      </trkpt>
      <trkpt lat="44.18776" lon="6.76854">
        <ele>1634.3</ele>
        <time>2013-07-13T09:16:41Z</time>
      </trkpt>
      <trkpt lat="44.18777" lon="6.76859">
        <ele>1634.6</ele>
        <time>2013-07-13T09:16:44Z</time>
      </trkpt>
      <trkpt lat="44.18777" lon="6.76865">
        <ele>1635.1</ele>
        <time>2013-07-13T09:16:47Z</time>
      </trkpt>
      <trkpt lat="44.18776" lon="6.76869">
        <ele>1635.5</ele>
        <time>2013-07-13T09:16:49Z</time>
      </trkpt>
      <trkpt lat="44.18776" lon="6.76873">
        <ele>1635.9</ele>
        <time>2013-07-13T09:16:51Z</time>
      </trkpt>
      <trkpt lat="44.18774" lon="6.76878">
        <ele>1636.2</ele>
        <time>2013-07-13T09:16:54Z</time>
      </trkpt>
      <trkpt lat="44.18772" lon="6.76882">
        <ele>1637.3</ele>
        <time>2013-07-13T09:16:57Z</time>
      </trkpt>
      <trkpt lat="44.18772" lon="6.76887">
        <ele>1638.2</ele>
        <time>2013-07-13T09:16:59Z</time>
      </trkpt>
      <trkpt lat="44.18772" lon="6.76891">
        <ele>1638.8</ele>
        <time>2013-07-13T09:17:01Z</time>
      </trkpt>
      <trkpt lat="44.18771" lon="6.76896">
        <ele>1639.6</ele>
        <time>2013-07-13T09:17:04Z</time>
      </trkpt>
      <trkpt lat="44.1877" lon="6.76901">
        <ele>1640</ele>
        <time>2013-07-13T09:17:07Z</time>
      </trkpt>
      <trkpt lat="44.18769" lon="6.76905">
        <ele>1640.2</ele>
        <time>2013-07-13T09:17:09Z</time>
      </trkpt>
      <trkpt lat="44.18769" lon="6.76909">
        <ele>1640.6</ele>
        <time>2013-07-13T09:17:11Z</time>
      </trkpt>
      <trkpt lat="44.1877" lon="6.76915">
        <ele>1641.7</ele>
        <time>2013-07-13T09:17:14Z</time>
      </trkpt>
      <trkpt lat="44.1877" lon="6.76919">
        <ele>1641.8</ele>
        <time>2013-07-13T09:17:16Z</time>
      </trkpt>
      <trkpt lat="44.1877" lon="6.76923">
        <ele>1642.4</ele>
        <time>2013-07-13T09:17:18Z</time>
      </trkpt>
      <trkpt lat="44.1877" lon="6.76927">
        <ele>1642.8</ele>
        <time>2013-07-13T09:17:20Z</time>
      </trkpt>
      <trkpt lat="44.1877" lon="6.76932">
        <ele>1643.2</ele>
        <time>2013-07-13T09:17:22Z</time>
      </trkpt>
      <trkpt lat="44.18769" lon="6.76936">
        <ele>1643.5</ele>
        <time>2013-07-13T09:17:24Z</time>
      </trkpt>
      <trkpt lat="44.18772" lon="6.7694">
        <ele>1644</ele>
        <time>2013-07-13T09:17:27Z</time>
      </trkpt>
      <trkpt lat="44.18774" lon="6.76943">
        <ele>1644.1</ele>
        <time>2013-07-13T09:17:29Z</time>
      </trkpt>
      <trkpt lat="44.18777" lon="6.76947">
        <ele>1644.3</ele>
        <time>2013-07-13T09:17:31Z</time>
      </trkpt>
      <trkpt lat="44.18778" lon="6.76951">
        <ele>1644.6</ele>
        <time>2013-07-13T09:17:33Z</time>
      </trkpt>
      <trkpt lat="44.1878" lon="6.76955">
        <ele>1645</ele>
        <time>2013-07-13T09:17:35Z</time>
      </trkpt>
      <trkpt lat="44.18781" lon="6.76958">
        <ele>1645.2</ele>
        <time>2013-07-13T09:17:37Z</time>
      </trkpt>
      <trkpt lat="44.18782" lon="6.76962">
        <ele>1645.4</ele>
        <time>2013-07-13T09:17:39Z</time>
      </trkpt>
      <trkpt lat="44.18784" lon="6.76966">
        <ele>1646</ele>
        <time>2013-07-13T09:17:41Z</time>
      </trkpt>
      <trkpt lat="44.18785" lon="6.76971">
        <ele>1646.4</ele>
        <time>2013-07-13T09:17:43Z</time>
      </trkpt>
      <trkpt lat="44.18785" lon="6.76975">
        <ele>1646.9</ele>
        <time>2013-07-13T09:17:45Z</time>
      </trkpt>
      <trkpt lat="44.18786" lon="6.7698">
        <ele>1647.3</ele>
        <time>2013-07-13T09:17:47Z</time>
      </trkpt>
      <trkpt lat="44.18788" lon="6.76984">
        <ele>1647.7</ele>
        <time>2013-07-13T09:17:49Z</time>
      </trkpt>
      <trkpt lat="44.18789" lon="6.76988">
        <ele>1647.8</ele>
        <time>2013-07-13T09:17:51Z</time>
      </trkpt>
      <trkpt lat="44.1879" lon="6.76992">
        <ele>1648.1</ele>
        <time>2013-07-13T09:17:53Z</time>
      </trkpt>
      <trkpt lat="44.18793" lon="6.76995">
        <ele>1648.2</ele>
        <time>2013-07-13T09:17:55Z</time>
      </trkpt>
      <trkpt lat="44.18795" lon="6.76999">
        <ele>1648.6</ele>
        <time>2013-07-13T09:17:57Z</time>
      </trkpt>
      <trkpt lat="44.18797" lon="6.77004">
        <ele>1648.8</ele>
        <time>2013-07-13T09:17:59Z</time>
      </trkpt>
      <trkpt lat="44.188" lon="6.7701">
        <ele>1648.8</ele>
        <time>2013-07-13T09:18:01Z</time>
      </trkpt>
      <trkpt lat="44.18802" lon="6.77014">
        <ele>1648.6</ele>
        <time>2013-07-13T09:18:03Z</time>
      </trkpt>
      <trkpt lat="44.18803" lon="6.77018">
        <ele>1648.7</ele>
        <time>2013-07-13T09:18:05Z</time>
      </trkpt>
      <trkpt lat="44.18805" lon="6.77022">
        <ele>1648.6</ele>
        <time>2013-07-13T09:18:07Z</time>
      </trkpt>
      <trkpt lat="44.18807" lon="6.77027">
        <ele>1648.8</ele>
        <time>2013-07-13T09:18:09Z</time>
      </trkpt>
      <trkpt lat="44.18808" lon="6.77031">
        <ele>1649</ele>
        <time>2013-07-13T09:18:11Z</time>
      </trkpt>
      <trkpt lat="44.18809" lon="6.77036">
        <ele>1649.4</ele>
        <time>2013-07-13T09:18:13Z</time>
      </trkpt>
      <trkpt lat="44.1881" lon="6.77041">
        <ele>1649.4</ele>
        <time>2013-07-13T09:18:15Z</time>
      </trkpt>
      <trkpt lat="44.18811" lon="6.7705">
        <ele>1649.6</ele>
        <time>2013-07-13T09:18:19Z</time>
      </trkpt>
      <trkpt lat="44.18811" lon="6.77055">
        <ele>1649.5</ele>
        <time>2013-07-13T09:18:21Z</time>
      </trkpt>
      <trkpt lat="44.18811" lon="6.77061">
        <ele>1650</ele>
        <time>2013-07-13T09:18:24Z</time>
      </trkpt>
      <trkpt lat="44.18812" lon="6.77066">
        <ele>1650.3</ele>
        <time>2013-07-13T09:18:26Z</time>
      </trkpt>
      <trkpt lat="44.18812" lon="6.77071">
        <ele>1650.5</ele>
        <time>2013-07-13T09:18:28Z</time>
      </trkpt>
      <trkpt lat="44.18814" lon="6.7708">
        <ele>1650.6</ele>
        <time>2013-07-13T09:18:32Z</time>
      </trkpt>
      <trkpt lat="44.18815" lon="6.77084">
        <ele>1651</ele>
        <time>2013-07-13T09:18:34Z</time>
      </trkpt>
      <trkpt lat="44.18816" lon="6.77087">
        <ele>1651.6</ele>
        <time>2013-07-13T09:18:36Z</time>
      </trkpt>
      <trkpt lat="44.18817" lon="6.77092">
        <ele>1652.3</ele>
        <time>2013-07-13T09:18:39Z</time>
      </trkpt>
      <trkpt lat="44.18817" lon="6.77097">
        <ele>1652.8</ele>
        <time>2013-07-13T09:18:41Z</time>
      </trkpt>
      <trkpt lat="44.18818" lon="6.771">
        <ele>1653.2</ele>
        <time>2013-07-13T09:18:43Z</time>
      </trkpt>
      <trkpt lat="44.18818" lon="6.77105">
        <ele>1653.5</ele>
        <time>2013-07-13T09:18:46Z</time>
      </trkpt>
      <trkpt lat="44.18818" lon="6.77111">
        <ele>1653.5</ele>
        <time>2013-07-13T09:18:49Z</time>
      </trkpt>
      <trkpt lat="44.18816" lon="6.77114">
        <ele>1654.1</ele>
        <time>2013-07-13T09:18:51Z</time>
      </trkpt>
      <trkpt lat="44.18814" lon="6.77119">
        <ele>1654.7</ele>
        <time>2013-07-13T09:18:53Z</time>
      </trkpt>
      <trkpt lat="44.18813" lon="6.77123">
        <ele>1654.9</ele>
        <time>2013-07-13T09:18:55Z</time>
      </trkpt>
      <trkpt lat="44.18812" lon="6.77128">
        <ele>1655.3</ele>
        <time>2013-07-13T09:18:57Z</time>
      </trkpt>
      <trkpt lat="44.18809" lon="6.77137">
        <ele>1656.1</ele>
        <time>2013-07-13T09:19:00Z</time>
      </trkpt>
      <trkpt lat="44.18809" lon="6.77142">
        <ele>1656.9</ele>
        <time>2013-07-13T09:19:02Z</time>
      </trkpt>
      <trkpt lat="44.18807" lon="6.77148">
        <ele>1656.8</ele>
        <time>2013-07-13T09:19:04Z</time>
      </trkpt>
      <trkpt lat="44.18806" lon="6.77156">
        <ele>1656.9</ele>
        <time>2013-07-13T09:19:06Z</time>
      </trkpt>
      <trkpt lat="44.18806" lon="6.77165">
        <ele>1657.4</ele>
        <time>2013-07-13T09:19:08Z</time>
      </trkpt>
      <trkpt lat="44.18806" lon="6.77175">
        <ele>1657.3</ele>
        <time>2013-07-13T09:19:10Z</time>
      </trkpt>
      <trkpt lat="44.18805" lon="6.77183">
        <ele>1657.5</ele>
        <time>2013-07-13T09:19:12Z</time>
      </trkpt>
      <trkpt lat="44.18806" lon="6.77192">
        <ele>1657.4</ele>
        <time>2013-07-13T09:19:14Z</time>
      </trkpt>
      <trkpt lat="44.18807" lon="6.772">
        <ele>1657.5</ele>
        <time>2013-07-13T09:19:16Z</time>
      </trkpt>
      <trkpt lat="44.18807" lon="6.77209">
        <ele>1657.5</ele>
        <time>2013-07-13T09:19:18Z</time>
      </trkpt>
      <trkpt lat="44.18808" lon="6.77222">
        <ele>1658.4</ele>
        <time>2013-07-13T09:19:22Z</time>
      </trkpt>
      <trkpt lat="44.18808" lon="6.77229">
        <ele>1658.7</ele>
        <time>2013-07-13T09:19:24Z</time>
      </trkpt>
      <trkpt lat="44.18809" lon="6.77236">
        <ele>1658.6</ele>
        <time>2013-07-13T09:19:26Z</time>
      </trkpt>
      <trkpt lat="44.18809" lon="6.77245">
        <ele>1658.2</ele>
        <time>2013-07-13T09:19:28Z</time>
      </trkpt>
      <trkpt lat="44.18808" lon="6.77258">
        <ele>1658</ele>
        <time>2013-07-13T09:19:31Z</time>
      </trkpt>
      <trkpt lat="44.18808" lon="6.77267">
        <ele>1658.2</ele>
        <time>2013-07-13T09:19:33Z</time>
      </trkpt>
      <trkpt lat="44.18806" lon="6.77274">
        <ele>1658.1</ele>
        <time>2013-07-13T09:19:35Z</time>
      </trkpt>
      <trkpt lat="44.18806" lon="6.7728">
        <ele>1658.2</ele>
        <time>2013-07-13T09:19:37Z</time>
      </trkpt>
      <trkpt lat="44.18805" lon="6.77286">
        <ele>1658.5</ele>
        <time>2013-07-13T09:19:39Z</time>
      </trkpt>
      <trkpt lat="44.18804" lon="6.77293">
        <ele>1658.7</ele>
        <time>2013-07-13T09:19:41Z</time>
      </trkpt>
      <trkpt lat="44.18805" lon="6.773">
        <ele>1659.1</ele>
        <time>2013-07-13T09:19:43Z</time>
      </trkpt>
      <trkpt lat="44.18805" lon="6.77309">
        <ele>1659.2</ele>
        <time>2013-07-13T09:19:45Z</time>
      </trkpt>
      <trkpt lat="44.18806" lon="6.77317">
        <ele>1659.3</ele>
        <time>2013-07-13T09:19:47Z</time>
      </trkpt>
      <trkpt lat="44.18807" lon="6.77323">
        <ele>1659.6</ele>
        <time>2013-07-13T09:19:49Z</time>
      </trkpt>
      <trkpt lat="44.18807" lon="6.77329">
        <ele>1659.7</ele>
        <time>2013-07-13T09:19:51Z</time>
      </trkpt>
      <trkpt lat="44.18807" lon="6.77337">
        <ele>1659.5</ele>
        <time>2013-07-13T09:19:53Z</time>
      </trkpt>
      <trkpt lat="44.18807" lon="6.77347">
        <ele>1659.7</ele>
        <time>2013-07-13T09:19:55Z</time>
      </trkpt>
      <trkpt lat="44.18808" lon="6.77357">
        <ele>1659.5</ele>
        <time>2013-07-13T09:19:57Z</time>
      </trkpt>
      <trkpt lat="44.18808" lon="6.77366">
        <ele>1659.6</ele>
        <time>2013-07-13T09:19:59Z</time>
      </trkpt>
      <trkpt lat="44.18809" lon="6.77377">
        <ele>1659.8</ele>
        <time>2013-07-13T09:20:02Z</time>
      </trkpt>
      <trkpt lat="44.18809" lon="6.77385">
        <ele>1659.7</ele>
        <time>2013-07-13T09:20:04Z</time>
      </trkpt>
      <trkpt lat="44.18808" lon="6.77393">
        <ele>1659.6</ele>
        <time>2013-07-13T09:20:06Z</time>
      </trkpt>
      <trkpt lat="44.18809" lon="6.77403">
        <ele>1659.5</ele>
        <time>2013-07-13T09:20:08Z</time>
      </trkpt>
      <trkpt lat="44.18811" lon="6.77413">
        <ele>1659.5</ele>
        <time>2013-07-13T09:20:10Z</time>
      </trkpt>
      <trkpt lat="44.18813" lon="6.77424">
        <ele>1658.9</ele>
        <time>2013-07-13T09:20:12Z</time>
      </trkpt>
      <trkpt lat="44.18815" lon="6.77434">
        <ele>1658.8</ele>
        <time>2013-07-13T09:20:14Z</time>
      </trkpt>
      <trkpt lat="44.18814" lon="6.77445">
        <ele>1658.8</ele>
        <time>2013-07-13T09:20:17Z</time>
      </trkpt>
      <trkpt lat="44.18814" lon="6.77455">
        <ele>1659.1</ele>
        <time>2013-07-13T09:20:19Z</time>
      </trkpt>
      <trkpt lat="44.18815" lon="6.77463">
        <ele>1659.2</ele>
        <time>2013-07-13T09:20:21Z</time>
      </trkpt>
      <trkpt lat="44.18815" lon="6.77473">
        <ele>1659.5</ele>
        <time>2013-07-13T09:20:23Z</time>
      </trkpt>
      <trkpt lat="44.18818" lon="6.77483">
        <ele>1659.6</ele>
        <time>2013-07-13T09:20:25Z</time>
      </trkpt>
      <trkpt lat="44.1882" lon="6.77493">
        <ele>1659.8</ele>
        <time>2013-07-13T09:20:27Z</time>
      </trkpt>
      <trkpt lat="44.18824" lon="6.77509">
        <ele>1659.3</ele>
        <time>2013-07-13T09:20:29Z</time>
      </trkpt>
      <trkpt lat="44.18825" lon="6.77521">
        <ele>1658.8</ele>
        <time>2013-07-13T09:20:31Z</time>
      </trkpt>
      <trkpt lat="44.18825" lon="6.77533">
        <ele>1658.5</ele>
        <time>2013-07-13T09:20:33Z</time>
      </trkpt>
      <trkpt lat="44.18823" lon="6.77544">
        <ele>1658.3</ele>
        <time>2013-07-13T09:20:35Z</time>
      </trkpt>
      <trkpt lat="44.18822" lon="6.77556">
        <ele>1658</ele>
        <time>2013-07-13T09:20:37Z</time>
      </trkpt>
      <trkpt lat="44.18819" lon="6.77571">
        <ele>1659.6</ele>
        <time>2013-07-13T09:20:39Z</time>
      </trkpt>
      <trkpt lat="44.18816" lon="6.77582">
        <ele>1660.6</ele>
        <time>2013-07-13T09:20:41Z</time>
      </trkpt>
      <trkpt lat="44.18813" lon="6.77592">
        <ele>1661.3</ele>
        <time>2013-07-13T09:20:43Z</time>
      </trkpt>
      <trkpt lat="44.18808" lon="6.77599">
        <ele>1661.9</ele>
        <time>2013-07-13T09:20:45Z</time>
      </trkpt>
      <trkpt lat="44.18804" lon="6.77603">
        <ele>1662</ele>
        <time>2013-07-13T09:20:47Z</time>
      </trkpt>
      <trkpt lat="44.18801" lon="6.77605">
        <ele>1661.6</ele>
        <time>2013-07-13T09:20:49Z</time>
      </trkpt>
      <trkpt lat="44.18797" lon="6.77607">
        <ele>1661.9</ele>
        <time>2013-07-13T09:20:51Z</time>
      </trkpt>
      <trkpt lat="44.18792" lon="6.77609">
        <ele>1661.7</ele>
        <time>2013-07-13T09:20:53Z</time>
      </trkpt>
      <trkpt lat="44.18788" lon="6.77612">
        <ele>1662</ele>
        <time>2013-07-13T09:20:55Z</time>
      </trkpt>
      <trkpt lat="44.18785" lon="6.77614">
        <ele>1662.4</ele>
        <time>2013-07-13T09:20:57Z</time>
      </trkpt>
      <trkpt lat="44.18782" lon="6.77617">
        <ele>1662.7</ele>
        <time>2013-07-13T09:20:59Z</time>
      </trkpt>
      <trkpt lat="44.18779" lon="6.77621">
        <ele>1663.1</ele>
        <time>2013-07-13T09:21:01Z</time>
      </trkpt>
      <trkpt lat="44.18775" lon="6.77623">
        <ele>1663.2</ele>
        <time>2013-07-13T09:21:03Z</time>
      </trkpt>
      <trkpt lat="44.18771" lon="6.77625">
        <ele>1663.6</ele>
        <time>2013-07-13T09:21:05Z</time>
      </trkpt>
      <trkpt lat="44.18769" lon="6.77627">
        <ele>1664.2</ele>
        <time>2013-07-13T09:21:07Z</time>
      </trkpt>
      <trkpt lat="44.18762" lon="6.7763">
        <ele>1665.7</ele>
        <time>2013-07-13T09:21:12Z</time>
      </trkpt>
      <trkpt lat="44.1876" lon="6.77634">
        <ele>1666</ele>
        <time>2013-07-13T09:21:14Z</time>
      </trkpt>
      <trkpt lat="44.18758" lon="6.77636">
        <ele>1665.8</ele>
        <time>2013-07-13T09:21:16Z</time>
      </trkpt>
      <trkpt lat="44.18755" lon="6.77641">
        <ele>1665.9</ele>
        <time>2013-07-13T09:21:19Z</time>
      </trkpt>
      <trkpt lat="44.18753" lon="6.77645">
        <ele>1666.3</ele>
        <time>2013-07-13T09:21:21Z</time>
      </trkpt>
      <trkpt lat="44.18753" lon="6.7765">
        <ele>1666.4</ele>
        <time>2013-07-13T09:21:23Z</time>
      </trkpt>
      <trkpt lat="44.18752" lon="6.77654">
        <ele>1667</ele>
        <time>2013-07-13T09:21:25Z</time>
      </trkpt>
      <trkpt lat="44.18751" lon="6.77658">
        <ele>1667.1</ele>
        <time>2013-07-13T09:21:27Z</time>
      </trkpt>
      <trkpt lat="44.1875" lon="6.77661">
        <ele>1667.3</ele>
        <time>2013-07-13T09:21:29Z</time>
      </trkpt>
      <trkpt lat="44.18747" lon="6.77666">
        <ele>1667.9</ele>
        <time>2013-07-13T09:21:32Z</time>
      </trkpt>
      <trkpt lat="44.18745" lon="6.77669">
        <ele>1668.4</ele>
        <time>2013-07-13T09:21:35Z</time>
      </trkpt>
      <trkpt lat="44.18742" lon="6.77672">
        <ele>1669</ele>
        <time>2013-07-13T09:21:38Z</time>
      </trkpt>
      <trkpt lat="44.18739" lon="6.77675">
        <ele>1670</ele>
        <time>2013-07-13T09:21:41Z</time>
      </trkpt>
      <trkpt lat="44.18735" lon="6.77679">
        <ele>1671.9</ele>
        <time>2013-07-13T09:21:44Z</time>
      </trkpt>
      <trkpt lat="44.18733" lon="6.77682">
        <ele>1673.3</ele>
        <time>2013-07-13T09:21:46Z</time>
      </trkpt>
      <trkpt lat="44.18729" lon="6.77683">
        <ele>1674.4</ele>
        <time>2013-07-13T09:21:48Z</time>
      </trkpt>
      <trkpt lat="44.18726" lon="6.77684">
        <ele>1675.6</ele>
        <time>2013-07-13T09:21:50Z</time>
      </trkpt>
      <trkpt lat="44.18723" lon="6.77685">
        <ele>1676.1</ele>
        <time>2013-07-13T09:21:53Z</time>
      </trkpt>
      <trkpt lat="44.1872" lon="6.77686">
        <ele>1676.3</ele>
        <time>2013-07-13T09:21:55Z</time>
      </trkpt>
      <trkpt lat="44.18717" lon="6.77687">
        <ele>1676.7</ele>
        <time>2013-07-13T09:21:57Z</time>
      </trkpt>
      <trkpt lat="44.18714" lon="6.77689">
        <ele>1677.1</ele>
        <time>2013-07-13T09:21:59Z</time>
      </trkpt>
      <trkpt lat="44.1871" lon="6.7769">
        <ele>1677.5</ele>
        <time>2013-07-13T09:22:02Z</time>
      </trkpt>
      <trkpt lat="44.18703" lon="6.77692">
        <ele>1677.7</ele>
        <time>2013-07-13T09:22:06Z</time>
      </trkpt>
      <trkpt lat="44.18699" lon="6.77692">
        <ele>1677.9</ele>
        <time>2013-07-13T09:22:09Z</time>
      </trkpt>
      <trkpt lat="44.18695" lon="6.77693">
        <ele>1678.3</ele>
        <time>2013-07-13T09:22:11Z</time>
      </trkpt>
      <trkpt lat="44.18692" lon="6.77693">
        <ele>1678.6</ele>
        <time>2013-07-13T09:22:13Z</time>
      </trkpt>
      <trkpt lat="44.18688" lon="6.77692">
        <ele>1678.4</ele>
        <time>2013-07-13T09:22:15Z</time>
      </trkpt>
      <trkpt lat="44.18685" lon="6.77692">
        <ele>1678.8</ele>
        <time>2013-07-13T09:22:17Z</time>
      </trkpt>
      <trkpt lat="44.18682" lon="6.77693">
        <ele>1679</ele>
        <time>2013-07-13T09:22:19Z</time>
      </trkpt>
      <trkpt lat="44.18679" lon="6.77691">
        <ele>1679.6</ele>
        <time>2013-07-13T09:22:22Z</time>
      </trkpt>
      <trkpt lat="44.18677" lon="6.77696">
        <ele>1679.1</ele>
        <time>2013-07-13T09:22:24Z</time>
      </trkpt>
      <trkpt lat="44.18676" lon="6.77707">
        <ele>1678.8</ele>
        <time>2013-07-13T09:22:27Z</time>
      </trkpt>
      <trkpt lat="44.18673" lon="6.77717">
        <ele>1678.5</ele>
        <time>2013-07-13T09:22:31Z</time>
      </trkpt>
      <trkpt lat="44.18671" lon="6.77723">
        <ele>1678.6</ele>
        <time>2013-07-13T09:22:33Z</time>
      </trkpt>
      <trkpt lat="44.18669" lon="6.77727">
        <ele>1678.7</ele>
        <time>2013-07-13T09:22:35Z</time>
      </trkpt>
      <trkpt lat="44.18666" lon="6.77732">
        <ele>1678.6</ele>
        <time>2013-07-13T09:22:37Z</time>
      </trkpt>
      <trkpt lat="44.18664" lon="6.77739">
        <ele>1678.4</ele>
        <time>2013-07-13T09:22:39Z</time>
      </trkpt>
      <trkpt lat="44.18659" lon="6.77749">
        <ele>1678.5</ele>
        <time>2013-07-13T09:22:42Z</time>
      </trkpt>
      <trkpt lat="44.18655" lon="6.77756">
        <ele>1678.5</ele>
        <time>2013-07-13T09:22:44Z</time>
      </trkpt>
      <trkpt lat="44.18652" lon="6.77767">
        <ele>1678.4</ele>
        <time>2013-07-13T09:22:46Z</time>
      </trkpt>
      <trkpt lat="44.1865" lon="6.77776">
        <ele>1678.1</ele>
        <time>2013-07-13T09:22:48Z</time>
      </trkpt>
      <trkpt lat="44.18646" lon="6.77785">
        <ele>1678.4</ele>
        <time>2013-07-13T09:22:51Z</time>
      </trkpt>
      <trkpt lat="44.18644" lon="6.7779">
        <ele>1678.6</ele>
        <time>2013-07-13T09:22:53Z</time>
      </trkpt>
      <trkpt lat="44.18642" lon="6.77793">
        <ele>1678.5</ele>
        <time>2013-07-13T09:22:55Z</time>
      </trkpt>
      <trkpt lat="44.1864" lon="6.77797">
        <ele>1678.5</ele>
        <time>2013-07-13T09:22:59Z</time>
      </trkpt>
      <trkpt lat="44.18639" lon="6.77801">
        <ele>1678.6</ele>
        <time>2013-07-13T09:23:01Z</time>
      </trkpt>
      <trkpt lat="44.18638" lon="6.77805">
        <ele>1678.4</ele>
        <time>2013-07-13T09:23:03Z</time>
      </trkpt>
      <trkpt lat="44.18636" lon="6.77809">
        <ele>1678.2</ele>
        <time>2013-07-13T09:23:06Z</time>
      </trkpt>
      <trkpt lat="44.18634" lon="6.77814">
        <ele>1677.9</ele>
        <time>2013-07-13T09:23:10Z</time>
      </trkpt>
      <trkpt lat="44.1863" lon="6.77824">
        <ele>1678.1</ele>
        <time>2013-07-13T09:23:13Z</time>
      </trkpt>
      <trkpt lat="44.18627" lon="6.77828">
        <ele>1678.5</ele>
        <time>2013-07-13T09:23:15Z</time>
      </trkpt>
      <trkpt lat="44.18626" lon="6.77832">
        <ele>1678.6</ele>
        <time>2013-07-13T09:23:17Z</time>
      </trkpt>
      <trkpt lat="44.18624" lon="6.77835">
        <ele>1678.8</ele>
        <time>2013-07-13T09:23:22Z</time>
      </trkpt>
      <trkpt lat="44.18622" lon="6.77838">
        <ele>1679.2</ele>
        <time>2013-07-13T09:23:25Z</time>
      </trkpt>
      <trkpt lat="44.18626" lon="6.77837">
        <ele>1680.8</ele>
        <time>2013-07-13T09:23:34Z</time>
      </trkpt>
      <trkpt lat="44.18629" lon="6.77839">
        <ele>1680.4</ele>
        <time>2013-07-13T09:23:37Z</time>
      </trkpt>
      <trkpt lat="44.18632" lon="6.77841">
        <ele>1680.5</ele>
        <time>2013-07-13T09:23:40Z</time>
      </trkpt>
      <trkpt lat="44.18635" lon="6.77843">
        <ele>1681.1</ele>
        <time>2013-07-13T09:23:44Z</time>
      </trkpt>
      <trkpt lat="44.18638" lon="6.77846">
        <ele>1682</ele>
        <time>2013-07-13T09:24:05Z</time>
      </trkpt>
      <trkpt lat="44.18641" lon="6.77849">
        <ele>1682.3</ele>
        <time>2013-07-13T09:24:08Z</time>
      </trkpt>
      <trkpt lat="44.18643" lon="6.77851">
        <ele>1682.3</ele>
        <time>2013-07-13T09:24:11Z</time>
      </trkpt>
      <trkpt lat="44.18645" lon="6.77854">
        <ele>1682.4</ele>
        <time>2013-07-13T09:24:13Z</time>
      </trkpt>
      <trkpt lat="44.18648" lon="6.77857">
        <ele>1682.5</ele>
        <time>2013-07-13T09:24:15Z</time>
      </trkpt>
      <trkpt lat="44.1865" lon="6.7786">
        <ele>1682.3</ele>
        <time>2013-07-13T09:24:17Z</time>
      </trkpt>
      <trkpt lat="44.18652" lon="6.77863">
        <ele>1682.3</ele>
        <time>2013-07-13T09:24:19Z</time>
      </trkpt>
      <trkpt lat="44.18655" lon="6.77869">
        <ele>1681.6</ele>
        <time>2013-07-13T09:24:21Z</time>
      </trkpt>
      <trkpt lat="44.18658" lon="6.77872">
        <ele>1681.3</ele>
        <time>2013-07-13T09:24:23Z</time>
      </trkpt>
      <trkpt lat="44.18661" lon="6.77875">
        <ele>1681.2</ele>
        <time>2013-07-13T09:24:25Z</time>
      </trkpt>
      <trkpt lat="44.18664" lon="6.77878">
        <ele>1680.9</ele>
        <time>2013-07-13T09:24:27Z</time>
      </trkpt>
      <trkpt lat="44.18667" lon="6.77883">
        <ele>1680.3</ele>
        <time>2013-07-13T09:24:29Z</time>
      </trkpt>
      <trkpt lat="44.1867" lon="6.77889">
        <ele>1680</ele>
        <time>2013-07-13T09:24:31Z</time>
      </trkpt>
      <trkpt lat="44.18672" lon="6.77894">
        <ele>1679.7</ele>
        <time>2013-07-13T09:24:33Z</time>
      </trkpt>
      <trkpt lat="44.18673" lon="6.77898">
        <ele>1679.8</ele>
        <time>2013-07-13T09:24:35Z</time>
      </trkpt>
      <trkpt lat="44.18674" lon="6.77903">
        <ele>1679.6</ele>
        <time>2013-07-13T09:24:37Z</time>
      </trkpt>
      <trkpt lat="44.18674" lon="6.77907">
        <ele>1679.5</ele>
        <time>2013-07-13T09:24:39Z</time>
      </trkpt>
      <trkpt lat="44.18675" lon="6.77912">
        <ele>1679.5</ele>
        <time>2013-07-13T09:24:41Z</time>
      </trkpt>
      <trkpt lat="44.18676" lon="6.77918">
        <ele>1679.3</ele>
        <time>2013-07-13T09:24:43Z</time>
      </trkpt>
      <trkpt lat="44.18677" lon="6.7793">
        <ele>1679.2</ele>
        <time>2013-07-13T09:24:47Z</time>
      </trkpt>
      <trkpt lat="44.18677" lon="6.77935">
        <ele>1679.3</ele>
        <time>2013-07-13T09:24:49Z</time>
      </trkpt>
      <trkpt lat="44.18676" lon="6.7794">
        <ele>1679.4</ele>
        <time>2013-07-13T09:24:51Z</time>
      </trkpt>
      <trkpt lat="44.18674" lon="6.77946">
        <ele>1679.6</ele>
        <time>2013-07-13T09:24:53Z</time>
      </trkpt>
      <trkpt lat="44.18673" lon="6.77953">
        <ele>1679.7</ele>
        <time>2013-07-13T09:24:55Z</time>
      </trkpt>
      <trkpt lat="44.18674" lon="6.77958">
        <ele>1679.8</ele>
        <time>2013-07-13T09:24:57Z</time>
      </trkpt>
      <trkpt lat="44.18674" lon="6.77963">
        <ele>1679.7</ele>
        <time>2013-07-13T09:24:59Z</time>
      </trkpt>
      <trkpt lat="44.18676" lon="6.77969">
        <ele>1679.8</ele>
        <time>2013-07-13T09:25:01Z</time>
      </trkpt>
      <trkpt lat="44.18678" lon="6.77973">
        <ele>1680</ele>
        <time>2013-07-13T09:25:03Z</time>
      </trkpt>
      <trkpt lat="44.18679" lon="6.77976">
        <ele>1680.2</ele>
        <time>2013-07-13T09:25:05Z</time>
      </trkpt>
      <trkpt lat="44.18681" lon="6.77982">
        <ele>1680.5</ele>
        <time>2013-07-13T09:25:08Z</time>
      </trkpt>
      <trkpt lat="44.18684" lon="6.77986">
        <ele>1680.8</ele>
        <time>2013-07-13T09:25:10Z</time>
      </trkpt>
      <trkpt lat="44.18688" lon="6.77989">
        <ele>1681.3</ele>
        <time>2013-07-13T09:25:12Z</time>
      </trkpt>
      <trkpt lat="44.18691" lon="6.77993">
        <ele>1681.7</ele>
        <time>2013-07-13T09:25:14Z</time>
      </trkpt>
      <trkpt lat="44.18693" lon="6.77997">
        <ele>1682</ele>
        <time>2013-07-13T09:25:16Z</time>
      </trkpt>
      <trkpt lat="44.18695" lon="6.78">
        <ele>1682.1</ele>
        <time>2013-07-13T09:25:18Z</time>
      </trkpt>
      <trkpt lat="44.18698" lon="6.78004">
        <ele>1682.3</ele>
        <time>2013-07-13T09:25:20Z</time>
      </trkpt>
      <trkpt lat="44.187" lon="6.7801">
        <ele>1682.5</ele>
        <time>2013-07-13T09:25:22Z</time>
      </trkpt>
      <trkpt lat="44.18702" lon="6.78015">
        <ele>1682.3</ele>
        <time>2013-07-13T09:25:24Z</time>
      </trkpt>
      <trkpt lat="44.18704" lon="6.7802">
        <ele>1681.7</ele>
        <time>2013-07-13T09:25:26Z</time>
      </trkpt>
      <trkpt lat="44.18706" lon="6.78026">
        <ele>1681.5</ele>
        <time>2013-07-13T09:25:28Z</time>
      </trkpt>
      <trkpt lat="44.18708" lon="6.78032">
        <ele>1681</ele>
        <time>2013-07-13T09:25:30Z</time>
      </trkpt>
      <trkpt lat="44.18709" lon="6.78036">
        <ele>1681</ele>
        <time>2013-07-13T09:25:32Z</time>
      </trkpt>
      <trkpt lat="44.18711" lon="6.78041">
        <ele>1680.8</ele>
        <time>2013-07-13T09:25:34Z</time>
      </trkpt>
      <trkpt lat="44.18714" lon="6.78045">
        <ele>1681.1</ele>
        <time>2013-07-13T09:25:36Z</time>
      </trkpt>
      <trkpt lat="44.18717" lon="6.78049">
        <ele>1681.7</ele>
        <time>2013-07-13T09:25:38Z</time>
      </trkpt>
      <trkpt lat="44.18721" lon="6.78053">
        <ele>1681.9</ele>
        <time>2013-07-13T09:25:40Z</time>
      </trkpt>
      <trkpt lat="44.18723" lon="6.78057">
        <ele>1681.8</ele>
        <time>2013-07-13T09:25:42Z</time>
      </trkpt>
      <trkpt lat="44.18726" lon="6.7806">
        <ele>1682.1</ele>
        <time>2013-07-13T09:25:44Z</time>
      </trkpt>
      <trkpt lat="44.18729" lon="6.78062">
        <ele>1682.6</ele>
        <time>2013-07-13T09:25:46Z</time>
      </trkpt>
      <trkpt lat="44.18734" lon="6.78063">
        <ele>1683.3</ele>
        <time>2013-07-13T09:25:49Z</time>
      </trkpt>
      <trkpt lat="44.18737" lon="6.78062">
        <ele>1683.8</ele>
        <time>2013-07-13T09:25:51Z</time>
      </trkpt>
      <trkpt lat="44.18741" lon="6.7806">
        <ele>1684.4</ele>
        <time>2013-07-13T09:25:53Z</time>
      </trkpt>
      <trkpt lat="44.18744" lon="6.78059">
        <ele>1685</ele>
        <time>2013-07-13T09:25:55Z</time>
      </trkpt>
      <trkpt lat="44.18747" lon="6.78058">
        <ele>1685.2</ele>
        <time>2013-07-13T09:25:57Z</time>
      </trkpt>
      <trkpt lat="44.18749" lon="6.78057">
        <ele>1685.6</ele>
        <time>2013-07-13T09:25:59Z</time>
      </trkpt>
      <trkpt lat="44.18753" lon="6.78057">
        <ele>1686</ele>
        <time>2013-07-13T09:26:01Z</time>
      </trkpt>
      <trkpt lat="44.18757" lon="6.78057">
        <ele>1686.3</ele>
        <time>2013-07-13T09:26:03Z</time>
      </trkpt>
      <trkpt lat="44.18762" lon="6.78059">
        <ele>1686.9</ele>
        <time>2013-07-13T09:26:05Z</time>
      </trkpt>
      <trkpt lat="44.18768" lon="6.78062">
        <ele>1687.3</ele>
        <time>2013-07-13T09:26:07Z</time>
      </trkpt>
      <trkpt lat="44.18773" lon="6.78064">
        <ele>1687.6</ele>
        <time>2013-07-13T09:26:09Z</time>
      </trkpt>
      <trkpt lat="44.18778" lon="6.78065">
        <ele>1688</ele>
        <time>2013-07-13T09:26:11Z</time>
      </trkpt>
      <trkpt lat="44.18784" lon="6.78066">
        <ele>1688.4</ele>
        <time>2013-07-13T09:26:13Z</time>
      </trkpt>
      <trkpt lat="44.1879" lon="6.78064">
        <ele>1688.2</ele>
        <time>2013-07-13T09:26:15Z</time>
      </trkpt>
      <trkpt lat="44.188" lon="6.78061">
        <ele>1688.6</ele>
        <time>2013-07-13T09:26:18Z</time>
      </trkpt>
      <trkpt lat="44.18804" lon="6.78058">
        <ele>1689</ele>
        <time>2013-07-13T09:26:20Z</time>
      </trkpt>
      <trkpt lat="44.18807" lon="6.78057">
        <ele>1689.4</ele>
        <time>2013-07-13T09:26:22Z</time>
      </trkpt>
      <trkpt lat="44.18811" lon="6.78056">
        <ele>1689.8</ele>
        <time>2013-07-13T09:26:24Z</time>
      </trkpt>
      <trkpt lat="44.18815" lon="6.78058">
        <ele>1689.7</ele>
        <time>2013-07-13T09:26:26Z</time>
      </trkpt>
      <trkpt lat="44.18823" lon="6.78062">
        <ele>1689.7</ele>
        <time>2013-07-13T09:26:29Z</time>
      </trkpt>
      <trkpt lat="44.18828" lon="6.78063">
        <ele>1689.1</ele>
        <time>2013-07-13T09:26:31Z</time>
      </trkpt>
      <trkpt lat="44.18832" lon="6.78066">
        <ele>1689.1</ele>
        <time>2013-07-13T09:26:33Z</time>
      </trkpt>
      <trkpt lat="44.18835" lon="6.78068">
        <ele>1689.2</ele>
        <time>2013-07-13T09:26:35Z</time>
      </trkpt>
      <trkpt lat="44.18838" lon="6.7807">
        <ele>1689.2</ele>
        <time>2013-07-13T09:26:37Z</time>
      </trkpt>
      <trkpt lat="44.18842" lon="6.78073">
        <ele>1689.5</ele>
        <time>2013-07-13T09:26:39Z</time>
      </trkpt>
      <trkpt lat="44.18844" lon="6.78076">
        <ele>1689.7</ele>
        <time>2013-07-13T09:26:41Z</time>
      </trkpt>
      <trkpt lat="44.18847" lon="6.78078">
        <ele>1690</ele>
        <time>2013-07-13T09:26:43Z</time>
      </trkpt>
      <trkpt lat="44.18851" lon="6.78083">
        <ele>1689.8</ele>
        <time>2013-07-13T09:26:45Z</time>
      </trkpt>
      <trkpt lat="44.18855" lon="6.78089">
        <ele>1689.9</ele>
        <time>2013-07-13T09:26:47Z</time>
      </trkpt>
      <trkpt lat="44.18859" lon="6.78095">
        <ele>1689.8</ele>
        <time>2013-07-13T09:26:49Z</time>
      </trkpt>
      <trkpt lat="44.18861" lon="6.78101">
        <ele>1689.6</ele>
        <time>2013-07-13T09:26:51Z</time>
      </trkpt>
      <trkpt lat="44.18863" lon="6.78106">
        <ele>1689.6</ele>
        <time>2013-07-13T09:26:53Z</time>
      </trkpt>
      <trkpt lat="44.18863" lon="6.78113">
        <ele>1689.4</ele>
        <time>2013-07-13T09:26:55Z</time>
      </trkpt>
      <trkpt lat="44.18865" lon="6.78119">
        <ele>1689.7</ele>
        <time>2013-07-13T09:26:57Z</time>
      </trkpt>
      <trkpt lat="44.18866" lon="6.78126">
        <ele>1689.9</ele>
        <time>2013-07-13T09:26:59Z</time>
      </trkpt>
      <trkpt lat="44.18868" lon="6.78132">
        <ele>1690</ele>
        <time>2013-07-13T09:27:01Z</time>
      </trkpt>
      <trkpt lat="44.1887" lon="6.7814">
        <ele>1690.1</ele>
        <time>2013-07-13T09:27:03Z</time>
      </trkpt>
      <trkpt lat="44.18872" lon="6.78149">
        <ele>1690.2</ele>
        <time>2013-07-13T09:27:05Z</time>
      </trkpt>
      <trkpt lat="44.18875" lon="6.7816">
        <ele>1690.2</ele>
        <time>2013-07-13T09:27:07Z</time>
      </trkpt>
      <trkpt lat="44.18878" lon="6.78169">
        <ele>1690.2</ele>
        <time>2013-07-13T09:27:09Z</time>
      </trkpt>
      <trkpt lat="44.1888" lon="6.78175">
        <ele>1690.4</ele>
        <time>2013-07-13T09:27:11Z</time>
      </trkpt>
      <trkpt lat="44.18883" lon="6.78181">
        <ele>1690.7</ele>
        <time>2013-07-13T09:27:13Z</time>
      </trkpt>
      <trkpt lat="44.18886" lon="6.78188">
        <ele>1690.8</ele>
        <time>2013-07-13T09:27:15Z</time>
      </trkpt>
      <trkpt lat="44.18889" lon="6.78198">
        <ele>1690.9</ele>
        <time>2013-07-13T09:27:18Z</time>
      </trkpt>
      <trkpt lat="44.18891" lon="6.78204">
        <ele>1691.1</ele>
        <time>2013-07-13T09:27:20Z</time>
      </trkpt>
      <trkpt lat="44.18893" lon="6.78211">
        <ele>1691.3</ele>
        <time>2013-07-13T09:27:22Z</time>
      </trkpt>
      <trkpt lat="44.18896" lon="6.78217">
        <ele>1691.6</ele>
        <time>2013-07-13T09:27:24Z</time>
      </trkpt>
      <trkpt lat="44.18898" lon="6.78222">
        <ele>1691.8</ele>
        <time>2013-07-13T09:27:26Z</time>
      </trkpt>
      <trkpt lat="44.189" lon="6.78226">
        <ele>1691.8</ele>
        <time>2013-07-13T09:27:28Z</time>
      </trkpt>
      <trkpt lat="44.18901" lon="6.78231">
        <ele>1691.8</ele>
        <time>2013-07-13T09:27:30Z</time>
      </trkpt>
      <trkpt lat="44.18904" lon="6.78236">
        <ele>1692.1</ele>
        <time>2013-07-13T09:27:32Z</time>
      </trkpt>
      <trkpt lat="44.18907" lon="6.78241">
        <ele>1692.1</ele>
        <time>2013-07-13T09:27:34Z</time>
      </trkpt>
      <trkpt lat="44.18911" lon="6.78245">
        <ele>1692.1</ele>
        <time>2013-07-13T09:27:36Z</time>
      </trkpt>
      <trkpt lat="44.18914" lon="6.7825">
        <ele>1692.6</ele>
        <time>2013-07-13T09:27:38Z</time>
      </trkpt>
      <trkpt lat="44.18916" lon="6.78255">
        <ele>1692.6</ele>
        <time>2013-07-13T09:27:40Z</time>
      </trkpt>
      <trkpt lat="44.18918" lon="6.7826">
        <ele>1692.9</ele>
        <time>2013-07-13T09:27:42Z</time>
      </trkpt>
      <trkpt lat="44.18919" lon="6.78265">
        <ele>1692.9</ele>
        <time>2013-07-13T09:27:44Z</time>
      </trkpt>
      <trkpt lat="44.18921" lon="6.7827">
        <ele>1692.9</ele>
        <time>2013-07-13T09:27:46Z</time>
      </trkpt>
      <trkpt lat="44.18922" lon="6.78275">
        <ele>1692.9</ele>
        <time>2013-07-13T09:27:48Z</time>
      </trkpt>
      <trkpt lat="44.18925" lon="6.78281">
        <ele>1693.2</ele>
        <time>2013-07-13T09:27:50Z</time>
      </trkpt>
      <trkpt lat="44.18927" lon="6.78287">
        <ele>1693.4</ele>
        <time>2013-07-13T09:27:52Z</time>
      </trkpt>
      <trkpt lat="44.1893" lon="6.7829">
        <ele>1693.8</ele>
        <time>2013-07-13T09:27:54Z</time>
      </trkpt>
      <trkpt lat="44.18931" lon="6.78294">
        <ele>1694</ele>
        <time>2013-07-13T09:27:56Z</time>
      </trkpt>
      <trkpt lat="44.18934" lon="6.78298">
        <ele>1694.7</ele>
        <time>2013-07-13T09:27:58Z</time>
      </trkpt>
      <trkpt lat="44.18936" lon="6.78303">
        <ele>1694.9</ele>
        <time>2013-07-13T09:28:00Z</time>
      </trkpt>
      <trkpt lat="44.18941" lon="6.78311">
        <ele>1695</ele>
        <time>2013-07-13T09:28:03Z</time>
      </trkpt>
      <trkpt lat="44.18947" lon="6.7832">
        <ele>1694.6</ele>
        <time>2013-07-13T09:28:06Z</time>
      </trkpt>
      <trkpt lat="44.1895" lon="6.78326">
        <ele>1694.7</ele>
        <time>2013-07-13T09:28:08Z</time>
      </trkpt>
      <trkpt lat="44.18952" lon="6.78334">
        <ele>1694.8</ele>
        <time>2013-07-13T09:28:10Z</time>
      </trkpt>
      <trkpt lat="44.18955" lon="6.78342">
        <ele>1694.9</ele>
        <time>2013-07-13T09:28:12Z</time>
      </trkpt>
      <trkpt lat="44.18956" lon="6.78353">
        <ele>1694.8</ele>
        <time>2013-07-13T09:28:14Z</time>
      </trkpt>
      <trkpt lat="44.18958" lon="6.78363">
        <ele>1694.8</ele>
        <time>2013-07-13T09:28:16Z</time>
      </trkpt>
      <trkpt lat="44.18962" lon="6.78372">
        <ele>1694.7</ele>
        <time>2013-07-13T09:28:18Z</time>
      </trkpt>
      <trkpt lat="44.18965" lon="6.78382">
        <ele>1694.7</ele>
        <time>2013-07-13T09:28:20Z</time>
      </trkpt>
      <trkpt lat="44.18967" lon="6.78391">
        <ele>1694.7</ele>
        <time>2013-07-13T09:28:22Z</time>
      </trkpt>
      <trkpt lat="44.1897" lon="6.78401">
        <ele>1694.7</ele>
        <time>2013-07-13T09:28:24Z</time>
      </trkpt>
      <trkpt lat="44.18971" lon="6.78412">
        <ele>1695.1</ele>
        <time>2013-07-13T09:28:26Z</time>
      </trkpt>
      <trkpt lat="44.18972" lon="6.78424">
        <ele>1695.2</ele>
        <time>2013-07-13T09:28:28Z</time>
      </trkpt>
      <trkpt lat="44.18972" lon="6.7844">
        <ele>1695.2</ele>
        <time>2013-07-13T09:28:30Z</time>
      </trkpt>
      <trkpt lat="44.18972" lon="6.78456">
        <ele>1695.3</ele>
        <time>2013-07-13T09:28:32Z</time>
      </trkpt>
      <trkpt lat="44.18968" lon="6.7847">
        <ele>1694.7</ele>
        <time>2013-07-13T09:28:34Z</time>
      </trkpt>
      <trkpt lat="44.18964" lon="6.78486">
        <ele>1694</ele>
        <time>2013-07-13T09:28:36Z</time>
      </trkpt>
      <trkpt lat="44.18961" lon="6.78499">
        <ele>1693.8</ele>
        <time>2013-07-13T09:28:38Z</time>
      </trkpt>
      <trkpt lat="44.18957" lon="6.7851">
        <ele>1693.7</ele>
        <time>2013-07-13T09:28:40Z</time>
      </trkpt>
      <trkpt lat="44.18951" lon="6.78524">
        <ele>1693.4</ele>
        <time>2013-07-13T09:28:42Z</time>
      </trkpt>
      <trkpt lat="44.18946" lon="6.78539">
        <ele>1693.3</ele>
        <time>2013-07-13T09:28:44Z</time>
      </trkpt>
      <trkpt lat="44.18944" lon="6.78559">
        <ele>1693.1</ele>
        <time>2013-07-13T09:28:46Z</time>
      </trkpt>
      <trkpt lat="44.18943" lon="6.78577">
        <ele>1693.1</ele>
        <time>2013-07-13T09:28:48Z</time>
      </trkpt>
      <trkpt lat="44.18948" lon="6.78592">
        <ele>1693</ele>
        <time>2013-07-13T09:28:50Z</time>
      </trkpt>
      <trkpt lat="44.18954" lon="6.78611">
        <ele>1693</ele>
        <time>2013-07-13T09:28:52Z</time>
      </trkpt>
      <trkpt lat="44.18957" lon="6.7863">
        <ele>1693.3</ele>
        <time>2013-07-13T09:28:54Z</time>
      </trkpt>
      <trkpt lat="44.18957" lon="6.78646">
        <ele>1693.5</ele>
        <time>2013-07-13T09:28:56Z</time>
      </trkpt>
      <trkpt lat="44.18956" lon="6.78656">
        <ele>1693.3</ele>
        <time>2013-07-13T09:28:58Z</time>
      </trkpt>
      <trkpt lat="44.18957" lon="6.7866">
        <ele>1692.8</ele>
        <time>2013-07-13T09:29:05Z</time>
      </trkpt>
      <trkpt lat="44.18957" lon="6.78665">
        <ele>1692.8</ele>
        <time>2013-07-13T09:29:09Z</time>
      </trkpt>
      <trkpt lat="44.18958" lon="6.78674">
        <ele>1692.2</ele>
        <time>2013-07-13T09:29:14Z</time>
      </trkpt>
      <trkpt lat="44.18958" lon="6.78678">
        <ele>1692.1</ele>
        <time>2013-07-13T09:29:16Z</time>
      </trkpt>
      <trkpt lat="44.18957" lon="6.78683">
        <ele>1691.8</ele>
        <time>2013-07-13T09:29:18Z</time>
      </trkpt>
      <trkpt lat="44.18957" lon="6.78687">
        <ele>1691.7</ele>
        <time>2013-07-13T09:29:20Z</time>
      </trkpt>
      <trkpt lat="44.18957" lon="6.78692">
        <ele>1691.7</ele>
        <time>2013-07-13T09:29:22Z</time>
      </trkpt>
      <trkpt lat="44.18958" lon="6.78696">
        <ele>1691.7</ele>
        <time>2013-07-13T09:29:24Z</time>
      </trkpt>
      <trkpt lat="44.18959" lon="6.78701">
        <ele>1691.1</ele>
        <time>2013-07-13T09:29:26Z</time>
      </trkpt>
      <trkpt lat="44.18959" lon="6.78705">
        <ele>1690.8</ele>
        <time>2013-07-13T09:29:28Z</time>
      </trkpt>
      <trkpt lat="44.18959" lon="6.78714">
        <ele>1691</ele>
        <time>2013-07-13T09:29:32Z</time>
      </trkpt>
      <trkpt lat="44.18959" lon="6.78719">
        <ele>1691.2</ele>
        <time>2013-07-13T09:29:35Z</time>
      </trkpt>
      <trkpt lat="44.18959" lon="6.78724">
        <ele>1691.2</ele>
        <time>2013-07-13T09:29:38Z</time>
      </trkpt>
      <trkpt lat="44.18959" lon="6.78728">
        <ele>1690.9</ele>
        <time>2013-07-13T09:29:40Z</time>
      </trkpt>
      <trkpt lat="44.18958" lon="6.78732">
        <ele>1690.7</ele>
        <time>2013-07-13T09:29:42Z</time>
      </trkpt>
      <trkpt lat="44.18957" lon="6.78737">
        <ele>1690.6</ele>
        <time>2013-07-13T09:29:45Z</time>
      </trkpt>
      <trkpt lat="44.18955" lon="6.7874">
        <ele>1691.6</ele>
        <time>2013-07-13T09:29:49Z</time>
      </trkpt>
      <trkpt lat="44.18954" lon="6.78744">
        <ele>1691.1</ele>
        <time>2013-07-13T09:29:53Z</time>
      </trkpt>
      <trkpt lat="44.18953" lon="6.78748">
        <ele>1691.1</ele>
        <time>2013-07-13T09:29:56Z</time>
      </trkpt>
      <trkpt lat="44.18954" lon="6.78752">
        <ele>1691.1</ele>
        <time>2013-07-13T09:29:58Z</time>
      </trkpt>
      <trkpt lat="44.18955" lon="6.78756">
        <ele>1691.2</ele>
        <time>2013-07-13T09:30:00Z</time>
      </trkpt>
      <trkpt lat="44.18957" lon="6.7876">
        <ele>1691.1</ele>
        <time>2013-07-13T09:30:02Z</time>
      </trkpt>
      <trkpt lat="44.18958" lon="6.78765">
        <ele>1691.3</ele>
        <time>2013-07-13T09:30:04Z</time>
      </trkpt>
      <trkpt lat="44.1896" lon="6.78769">
        <ele>1691.3</ele>
        <time>2013-07-13T09:30:06Z</time>
      </trkpt>
      <trkpt lat="44.18962" lon="6.78774">
        <ele>1691.3</ele>
        <time>2013-07-13T09:30:08Z</time>
      </trkpt>
      <trkpt lat="44.18962" lon="6.78778">
        <ele>1691.2</ele>
        <time>2013-07-13T09:30:10Z</time>
      </trkpt>
      <trkpt lat="44.18962" lon="6.78782">
        <ele>1691.1</ele>
        <time>2013-07-13T09:30:12Z</time>
      </trkpt>
      <trkpt lat="44.1896" lon="6.78787">
        <ele>1691.8</ele>
        <time>2013-07-13T09:30:14Z</time>
      </trkpt>
      <trkpt lat="44.1896" lon="6.78793">
        <ele>1691.8</ele>
        <time>2013-07-13T09:30:16Z</time>
      </trkpt>
      <trkpt lat="44.18959" lon="6.78801">
        <ele>1691.5</ele>
        <time>2013-07-13T09:30:18Z</time>
      </trkpt>
      <trkpt lat="44.18958" lon="6.7881">
        <ele>1691.1</ele>
        <time>2013-07-13T09:30:20Z</time>
      </trkpt>
      <trkpt lat="44.18957" lon="6.78821">
        <ele>1691</ele>
        <time>2013-07-13T09:30:22Z</time>
      </trkpt>
      <trkpt lat="44.18954" lon="6.78836">
        <ele>1690.9</ele>
        <time>2013-07-13T09:30:26Z</time>
      </trkpt>
      <trkpt lat="44.18954" lon="6.78841">
        <ele>1690.9</ele>
        <time>2013-07-13T09:30:28Z</time>
      </trkpt>
      <trkpt lat="44.18954" lon="6.78846">
        <ele>1690.7</ele>
        <time>2013-07-13T09:30:30Z</time>
      </trkpt>
      <trkpt lat="44.18958" lon="6.78853">
        <ele>1691</ele>
        <time>2013-07-13T09:30:32Z</time>
      </trkpt>
      <trkpt lat="44.18962" lon="6.78862">
        <ele>1691</ele>
        <time>2013-07-13T09:30:34Z</time>
      </trkpt>
      <trkpt lat="44.18967" lon="6.7887">
        <ele>1691</ele>
        <time>2013-07-13T09:30:36Z</time>
      </trkpt>
      <trkpt lat="44.18969" lon="6.78879">
        <ele>1691.1</ele>
        <time>2013-07-13T09:30:38Z</time>
      </trkpt>
      <trkpt lat="44.18968" lon="6.78885">
        <ele>1691.5</ele>
        <time>2013-07-13T09:30:40Z</time>
      </trkpt>
      <trkpt lat="44.18971" lon="6.78887">
        <ele>1691.2</ele>
        <time>2013-07-13T09:30:42Z</time>
      </trkpt>
      <trkpt lat="44.18968" lon="6.78891">
        <ele>1691.3</ele>
        <time>2013-07-13T09:30:51Z</time>
      </trkpt>
      <trkpt lat="44.18965" lon="6.78892">
        <ele>1691.6</ele>
        <time>2013-07-13T09:30:56Z</time>
      </trkpt>
      <trkpt lat="44.18964" lon="6.78896">
        <ele>1691.5</ele>
        <time>2013-07-13T09:31:00Z</time>
      </trkpt>
      <trkpt lat="44.18962" lon="6.78899">
        <ele>1691.6</ele>
        <time>2013-07-13T09:31:04Z</time>
      </trkpt>
      <trkpt lat="44.18961" lon="6.78903">
        <ele>1692.1</ele>
        <time>2013-07-13T09:31:07Z</time>
      </trkpt>
      <trkpt lat="44.1896" lon="6.78907">
        <ele>1692.1</ele>
        <time>2013-07-13T09:31:10Z</time>
      </trkpt>
      <trkpt lat="44.1896" lon="6.78911">
        <ele>1692.4</ele>
        <time>2013-07-13T09:31:13Z</time>
      </trkpt>
      <trkpt lat="44.1896" lon="6.78915">
        <ele>1692.4</ele>
        <time>2013-07-13T09:31:17Z</time>
      </trkpt>
      <trkpt lat="44.18959" lon="6.78919">
        <ele>1693.3</ele>
        <time>2013-07-13T09:31:24Z</time>
      </trkpt>
      <trkpt lat="44.18958" lon="6.78924">
        <ele>1692.8</ele>
        <time>2013-07-13T09:31:28Z</time>
      </trkpt>
      <trkpt lat="44.18956" lon="6.78927">
        <ele>1692.9</ele>
        <time>2013-07-13T09:31:32Z</time>
      </trkpt>
      <trkpt lat="44.18957" lon="6.78932">
        <ele>1693.1</ele>
        <time>2013-07-13T09:31:37Z</time>
      </trkpt>
      <trkpt lat="44.18958" lon="6.78936">
        <ele>1693.4</ele>
        <time>2013-07-13T09:31:40Z</time>
      </trkpt>
      <trkpt lat="44.18957" lon="6.7894">
        <ele>1694.2</ele>
        <time>2013-07-13T09:31:44Z</time>
      </trkpt>
      <trkpt lat="44.18957" lon="6.78945">
        <ele>1694.3</ele>
        <time>2013-07-13T09:31:48Z</time>
      </trkpt>
      <trkpt lat="44.18958" lon="6.78949">
        <ele>1694.7</ele>
        <time>2013-07-13T09:31:51Z</time>
      </trkpt>
      <trkpt lat="44.18958" lon="6.78953">
        <ele>1695.5</ele>
        <time>2013-07-13T09:31:56Z</time>
      </trkpt>
      <trkpt lat="44.18958" lon="6.78957">
        <ele>1696</ele>
        <time>2013-07-13T09:32:01Z</time>
      </trkpt>
      <trkpt lat="44.18958" lon="6.78961">
        <ele>1696.6</ele>
        <time>2013-07-13T09:32:08Z</time>
      </trkpt>
      <trkpt lat="44.18959" lon="6.78965">
        <ele>1697.1</ele>
        <time>2013-07-13T09:32:13Z</time>
      </trkpt>
      <trkpt lat="44.18959" lon="6.7897">
        <ele>1697.7</ele>
        <time>2013-07-13T09:32:16Z</time>
      </trkpt>
      <trkpt lat="44.18962" lon="6.78972">
        <ele>1698.9</ele>
        <time>2013-07-13T09:32:23Z</time>
      </trkpt>
      <trkpt lat="44.18963" lon="6.78977">
        <ele>1699.5</ele>
        <time>2013-07-13T09:32:26Z</time>
      </trkpt>
      <trkpt lat="44.18965" lon="6.78982">
        <ele>1700.8</ele>
        <time>2013-07-13T09:32:29Z</time>
      </trkpt>
      <trkpt lat="44.18963" lon="6.78985">
        <ele>1701.1</ele>
        <time>2013-07-13T09:32:34Z</time>
      </trkpt>
      <trkpt lat="44.18961" lon="6.78987">
        <ele>1701.5</ele>
        <time>2013-07-13T09:32:51Z</time>
      </trkpt>
      <trkpt lat="44.18961" lon="6.78991">
        <ele>1701.6</ele>
        <time>2013-07-13T09:32:56Z</time>
      </trkpt>
      <trkpt lat="44.1896" lon="6.78995">
        <ele>1701.7</ele>
        <time>2013-07-13T09:32:59Z</time>
      </trkpt>
      <trkpt lat="44.18961" lon="6.78999">
        <ele>1702.1</ele>
        <time>2013-07-13T09:33:04Z</time>
      </trkpt>
      <trkpt lat="44.18961" lon="6.79004">
        <ele>1702.3</ele>
        <time>2013-07-13T09:33:08Z</time>
      </trkpt>
      <trkpt lat="44.18962" lon="6.79009">
        <ele>1702.9</ele>
        <time>2013-07-13T09:33:11Z</time>
      </trkpt>
      <trkpt lat="44.18962" lon="6.79014">
        <ele>1703.6</ele>
        <time>2013-07-13T09:33:14Z</time>
      </trkpt>
      <trkpt lat="44.18962" lon="6.79018">
        <ele>1704.2</ele>
        <time>2013-07-13T09:33:17Z</time>
      </trkpt>
      <trkpt lat="44.18962" lon="6.79024">
        <ele>1704.5</ele>
        <time>2013-07-13T09:33:21Z</time>
      </trkpt>
      <trkpt lat="44.18961" lon="6.79031">
        <ele>1704.9</ele>
        <time>2013-07-13T09:33:23Z</time>
      </trkpt>
      <trkpt lat="44.18962" lon="6.79038">
        <ele>1704.6</ele>
        <time>2013-07-13T09:33:25Z</time>
      </trkpt>
      <trkpt lat="44.18961" lon="6.79047">
        <ele>1704.6</ele>
        <time>2013-07-13T09:33:27Z</time>
      </trkpt>
      <trkpt lat="44.1896" lon="6.79053">
        <ele>1704.6</ele>
        <time>2013-07-13T09:33:29Z</time>
      </trkpt>
      <trkpt lat="44.18959" lon="6.79058">
        <ele>1704.6</ele>
        <time>2013-07-13T09:33:31Z</time>
      </trkpt>
      <trkpt lat="44.18958" lon="6.79063">
        <ele>1704.5</ele>
        <time>2013-07-13T09:33:33Z</time>
      </trkpt>
      <trkpt lat="44.18958" lon="6.79068">
        <ele>1704.7</ele>
        <time>2013-07-13T09:33:35Z</time>
      </trkpt>
      <trkpt lat="44.18958" lon="6.79072">
        <ele>1704.8</ele>
        <time>2013-07-13T09:33:38Z</time>
      </trkpt>
      <trkpt lat="44.18956" lon="6.79076">
        <ele>1705.1</ele>
        <time>2013-07-13T09:33:41Z</time>
      </trkpt>
      <trkpt lat="44.18956" lon="6.79082">
        <ele>1705.5</ele>
        <time>2013-07-13T09:33:44Z</time>
      </trkpt>
      <trkpt lat="44.18955" lon="6.79086">
        <ele>1705.8</ele>
        <time>2013-07-13T09:33:46Z</time>
      </trkpt>
      <trkpt lat="44.18953" lon="6.79089">
        <ele>1706.3</ele>
        <time>2013-07-13T09:33:49Z</time>
      </trkpt>
      <trkpt lat="44.18952" lon="6.79092">
        <ele>1707</ele>
        <time>2013-07-13T09:33:52Z</time>
      </trkpt>
      <trkpt lat="44.18951" lon="6.79096">
        <ele>1707.3</ele>
        <time>2013-07-13T09:33:54Z</time>
      </trkpt>
      <trkpt lat="44.1895" lon="6.79103">
        <ele>1707.2</ele>
        <time>2013-07-13T09:33:56Z</time>
      </trkpt>
      <trkpt lat="44.18947" lon="6.79109">
        <ele>1707.5</ele>
        <time>2013-07-13T09:33:58Z</time>
      </trkpt>
      <trkpt lat="44.18946" lon="6.79114">
        <ele>1707.2</ele>
        <time>2013-07-13T09:34:00Z</time>
      </trkpt>
      <trkpt lat="44.18944" lon="6.79119">
        <ele>1707.3</ele>
        <time>2013-07-13T09:34:02Z</time>
      </trkpt>
      <trkpt lat="44.18943" lon="6.79125">
        <ele>1707.3</ele>
        <time>2013-07-13T09:34:04Z</time>
      </trkpt>
      <trkpt lat="44.18941" lon="6.79135">
        <ele>1706.6</ele>
        <time>2013-07-13T09:34:07Z</time>
      </trkpt>
      <trkpt lat="44.18942" lon="6.7914">
        <ele>1706.6</ele>
        <time>2013-07-13T09:34:09Z</time>
      </trkpt>
      <trkpt lat="44.18942" lon="6.79146">
        <ele>1706.3</ele>
        <time>2013-07-13T09:34:11Z</time>
      </trkpt>
      <trkpt lat="44.18942" lon="6.79152">
        <ele>1706.3</ele>
        <time>2013-07-13T09:34:13Z</time>
      </trkpt>
      <trkpt lat="44.18942" lon="6.79157">
        <ele>1707.1</ele>
        <time>2013-07-13T09:34:15Z</time>
      </trkpt>
      <trkpt lat="44.18941" lon="6.79162">
        <ele>1707.9</ele>
        <time>2013-07-13T09:34:17Z</time>
      </trkpt>
      <trkpt lat="44.18941" lon="6.79166">
        <ele>1708.2</ele>
        <time>2013-07-13T09:34:19Z</time>
      </trkpt>
      <trkpt lat="44.18939" lon="6.7917">
        <ele>1709.2</ele>
        <time>2013-07-13T09:34:22Z</time>
      </trkpt>
      <trkpt lat="44.18937" lon="6.79173">
        <ele>1710.1</ele>
        <time>2013-07-13T09:34:24Z</time>
      </trkpt>
      <trkpt lat="44.18934" lon="6.79178">
        <ele>1710.4</ele>
        <time>2013-07-13T09:34:27Z</time>
      </trkpt>
      <trkpt lat="44.18932" lon="6.79181">
        <ele>1710.5</ele>
        <time>2013-07-13T09:34:30Z</time>
      </trkpt>
      <trkpt lat="44.1893" lon="6.79183">
        <ele>1710.2</ele>
        <time>2013-07-13T09:34:33Z</time>
      </trkpt>
      <trkpt lat="44.18929" lon="6.79188">
        <ele>1709.7</ele>
        <time>2013-07-13T09:34:36Z</time>
      </trkpt>
      <trkpt lat="44.18929" lon="6.79191">
        <ele>1709.1</ele>
        <time>2013-07-13T09:34:38Z</time>
      </trkpt>
      <trkpt lat="44.18925" lon="6.79199">
        <ele>1707.2</ele>
        <time>2013-07-13T09:34:45Z</time>
      </trkpt>
      <trkpt lat="44.18926" lon="6.79203">
        <ele>1707.5</ele>
        <time>2013-07-13T09:34:49Z</time>
      </trkpt>
      <trkpt lat="44.18927" lon="6.79207">
        <ele>1707.8</ele>
        <time>2013-07-13T09:34:52Z</time>
      </trkpt>
      <trkpt lat="44.18925" lon="6.79212">
        <ele>1708.3</ele>
        <time>2013-07-13T09:34:55Z</time>
      </trkpt>
      <trkpt lat="44.18924" lon="6.79216">
        <ele>1708.5</ele>
        <time>2013-07-13T09:34:58Z</time>
      </trkpt>
      <trkpt lat="44.18922" lon="6.7922">
        <ele>1709.4</ele>
        <time>2013-07-13T09:35:01Z</time>
      </trkpt>
      <trkpt lat="44.18922" lon="6.79225">
        <ele>1709.8</ele>
        <time>2013-07-13T09:35:05Z</time>
      </trkpt>
      <trkpt lat="44.18921" lon="6.79229">
        <ele>1710.1</ele>
        <time>2013-07-13T09:35:08Z</time>
      </trkpt>
      <trkpt lat="44.18923" lon="6.79233">
        <ele>1710.9</ele>
        <time>2013-07-13T09:35:12Z</time>
      </trkpt>
      <trkpt lat="44.18924" lon="6.79237">
        <ele>1711.1</ele>
        <time>2013-07-13T09:35:16Z</time>
      </trkpt>
      <trkpt lat="44.18927" lon="6.79241">
        <ele>1710.7</ele>
        <time>2013-07-13T09:35:20Z</time>
      </trkpt>
      <trkpt lat="44.18927" lon="6.79245">
        <ele>1711.5</ele>
        <time>2013-07-13T09:35:24Z</time>
      </trkpt>
      <trkpt lat="44.18927" lon="6.79249">
        <ele>1712.5</ele>
        <time>2013-07-13T09:35:30Z</time>
      </trkpt>
      <trkpt lat="44.18926" lon="6.79254">
        <ele>1713.2</ele>
        <time>2013-07-13T09:35:35Z</time>
      </trkpt>
      <trkpt lat="44.18928" lon="6.79257">
        <ele>1714.6</ele>
        <time>2013-07-13T09:35:40Z</time>
      </trkpt>
      <trkpt lat="44.1893" lon="6.7926">
        <ele>1714.6</ele>
        <time>2013-07-13T09:35:44Z</time>
      </trkpt>
      <trkpt lat="44.18932" lon="6.79264">
        <ele>1714.8</ele>
        <time>2013-07-13T09:35:52Z</time>
      </trkpt>
      <trkpt lat="44.18931" lon="6.79267">
        <ele>1715</ele>
        <time>2013-07-13T09:35:55Z</time>
      </trkpt>
      <trkpt lat="44.18929" lon="6.79271">
        <ele>1715.4</ele>
        <time>2013-07-13T09:35:59Z</time>
      </trkpt>
      <trkpt lat="44.1893" lon="6.79274">
        <ele>1717</ele>
        <time>2013-07-13T09:36:04Z</time>
      </trkpt>
      <trkpt lat="44.18932" lon="6.79278">
        <ele>1718</ele>
        <time>2013-07-13T09:36:09Z</time>
      </trkpt>
      <trkpt lat="44.18935" lon="6.7928">
        <ele>1723.2</ele>
        <time>2013-07-13T09:36:22Z</time>
      </trkpt>
      <trkpt lat="44.18937" lon="6.7928">
        <ele>1724.2</ele>
        <time>2013-07-13T09:36:26Z</time>
      </trkpt>
      <trkpt lat="44.18941" lon="6.79282">
        <ele>1724.7</ele>
        <time>2013-07-13T09:36:29Z</time>
      </trkpt>
      <trkpt lat="44.18944" lon="6.79282">
        <ele>1725.1</ele>
        <time>2013-07-13T09:36:32Z</time>
      </trkpt>
      <trkpt lat="44.18947" lon="6.79283">
        <ele>1725.4</ele>
        <time>2013-07-13T09:36:41Z</time>
      </trkpt>
      <trkpt lat="44.18948" lon="6.79288">
        <ele>1725.4</ele>
        <time>2013-07-13T09:36:45Z</time>
      </trkpt>
      <trkpt lat="44.1895" lon="6.79291">
        <ele>1725.5</ele>
        <time>2013-07-13T09:36:49Z</time>
      </trkpt>
      <trkpt lat="44.18951" lon="6.79294">
        <ele>1725.7</ele>
        <time>2013-07-13T09:36:53Z</time>
      </trkpt>
      <trkpt lat="44.18954" lon="6.79297">
        <ele>1726</ele>
        <time>2013-07-13T09:36:57Z</time>
      </trkpt>
      <trkpt lat="44.18957" lon="6.79299">
        <ele>1726.4</ele>
        <time>2013-07-13T09:37:02Z</time>
      </trkpt>
      <trkpt lat="44.18959" lon="6.793">
        <ele>1726.6</ele>
        <time>2013-07-13T09:37:06Z</time>
      </trkpt>
      <trkpt lat="44.18962" lon="6.79303">
        <ele>1726.8</ele>
        <time>2013-07-13T09:37:08Z</time>
      </trkpt>
      <trkpt lat="44.18965" lon="6.79303">
        <ele>1727.9</ele>
        <time>2013-07-13T09:37:11Z</time>
      </trkpt>
      <trkpt lat="44.18969" lon="6.79304">
        <ele>1728.6</ele>
        <time>2013-07-13T09:37:14Z</time>
      </trkpt>
      <trkpt lat="44.18972" lon="6.79306">
        <ele>1728.6</ele>
        <time>2013-07-13T09:37:17Z</time>
      </trkpt>
      <trkpt lat="44.18974" lon="6.79309">
        <ele>1728.9</ele>
        <time>2013-07-13T09:37:21Z</time>
      </trkpt>
      <trkpt lat="44.18977" lon="6.79311">
        <ele>1729.2</ele>
        <time>2013-07-13T09:37:24Z</time>
      </trkpt>
      <trkpt lat="44.1898" lon="6.79312">
        <ele>1730.4</ele>
        <time>2013-07-13T09:37:27Z</time>
      </trkpt>
      <trkpt lat="44.18983" lon="6.79313">
        <ele>1731.4</ele>
        <time>2013-07-13T09:37:32Z</time>
      </trkpt>
      <trkpt lat="44.18986" lon="6.79313">
        <ele>1731.9</ele>
        <time>2013-07-13T09:37:37Z</time>
      </trkpt>
      <trkpt lat="44.18989" lon="6.79314">
        <ele>1732.2</ele>
        <time>2013-07-13T09:37:40Z</time>
      </trkpt>
      <trkpt lat="44.18992" lon="6.79315">
        <ele>1732.9</ele>
        <time>2013-07-13T09:37:43Z</time>
      </trkpt>
      <trkpt lat="44.18995" lon="6.79316">
        <ele>1733.5</ele>
        <time>2013-07-13T09:37:45Z</time>
      </trkpt>
      <trkpt lat="44.18998" lon="6.79318">
        <ele>1733.9</ele>
        <time>2013-07-13T09:37:50Z</time>
      </trkpt>
      <trkpt lat="44.19001" lon="6.79318">
        <ele>1734.7</ele>
        <time>2013-07-13T09:37:54Z</time>
      </trkpt>
      <trkpt lat="44.19004" lon="6.79318">
        <ele>1735.3</ele>
        <time>2013-07-13T09:37:59Z</time>
      </trkpt>
      <trkpt lat="44.19007" lon="6.79317">
        <ele>1735.9</ele>
        <time>2013-07-13T09:38:02Z</time>
      </trkpt>
      <trkpt lat="44.1901" lon="6.79317">
        <ele>1736.5</ele>
        <time>2013-07-13T09:38:06Z</time>
      </trkpt>
      <trkpt lat="44.19013" lon="6.79316">
        <ele>1737</ele>
        <time>2013-07-13T09:38:10Z</time>
      </trkpt>
      <trkpt lat="44.19017" lon="6.79316">
        <ele>1737.1</ele>
        <time>2013-07-13T09:38:13Z</time>
      </trkpt>
      <trkpt lat="44.1902" lon="6.7932">
        <ele>1736</ele>
        <time>2013-07-13T09:38:16Z</time>
      </trkpt>
      <trkpt lat="44.19022" lon="6.79319">
        <ele>1736.2</ele>
        <time>2013-07-13T09:38:24Z</time>
      </trkpt>
      <trkpt lat="44.19018" lon="6.79319">
        <ele>1737.4</ele>
        <time>2013-07-13T09:38:31Z</time>
      </trkpt>
      <trkpt lat="44.19022" lon="6.79319">
        <ele>1738.4</ele>
        <time>2013-07-13T09:38:47Z</time>
      </trkpt>
      <trkpt lat="44.19018" lon="6.79318">
        <ele>1739.5</ele>
        <time>2013-07-13T09:39:12Z</time>
      </trkpt>
      <trkpt lat="44.19021" lon="6.79322">
        <ele>1740.2</ele>
        <time>2013-07-13T09:39:28Z</time>
      </trkpt>
      <trkpt lat="44.19023" lon="6.79325">
        <ele>1740.1</ele>
        <time>2013-07-13T09:39:31Z</time>
      </trkpt>
      <trkpt lat="44.19024" lon="6.79331">
        <ele>1739.9</ele>
        <time>2013-07-13T09:39:42Z</time>
      </trkpt>
      <trkpt lat="44.19026" lon="6.79334">
        <ele>1739.8</ele>
        <time>2013-07-13T09:39:49Z</time>
      </trkpt>
      <trkpt lat="44.19029" lon="6.79336">
        <ele>1739.7</ele>
        <time>2013-07-13T09:39:53Z</time>
      </trkpt>
      <trkpt lat="44.1903" lon="6.7934">
        <ele>1739.9</ele>
        <time>2013-07-13T09:39:57Z</time>
      </trkpt>
      <trkpt lat="44.19031" lon="6.79343">
        <ele>1740.3</ele>
        <time>2013-07-13T09:40:01Z</time>
      </trkpt>
      <trkpt lat="44.19033" lon="6.79348">
        <ele>1740.9</ele>
        <time>2013-07-13T09:40:05Z</time>
      </trkpt>
      <trkpt lat="44.19034" lon="6.79352">
        <ele>1740.9</ele>
        <time>2013-07-13T09:40:14Z</time>
      </trkpt>
      <trkpt lat="44.19035" lon="6.79355">
        <ele>1741.1</ele>
        <time>2013-07-13T09:40:17Z</time>
      </trkpt>
      <trkpt lat="44.19036" lon="6.79359">
        <ele>1740.9</ele>
        <time>2013-07-13T09:40:22Z</time>
      </trkpt>
      <trkpt lat="44.19043" lon="6.79359">
        <ele>1743.9</ele>
        <time>2013-07-13T09:41:04Z</time>
      </trkpt>
      <trkpt lat="44.19045" lon="6.79362">
        <ele>1744.7</ele>
        <time>2013-07-13T09:41:08Z</time>
      </trkpt>
      <trkpt lat="44.19048" lon="6.79362">
        <ele>1744.6</ele>
        <time>2013-07-13T09:41:11Z</time>
      </trkpt>
      <trkpt lat="44.19051" lon="6.7936">
        <ele>1744.6</ele>
        <time>2013-07-13T09:41:13Z</time>
      </trkpt>
      <trkpt lat="44.19056" lon="6.7936">
        <ele>1744.4</ele>
        <time>2013-07-13T09:41:15Z</time>
      </trkpt>
      <trkpt lat="44.1906" lon="6.79362">
        <ele>1744.4</ele>
        <time>2013-07-13T09:41:17Z</time>
      </trkpt>
      <trkpt lat="44.19065" lon="6.79365">
        <ele>1744.2</ele>
        <time>2013-07-13T09:41:19Z</time>
      </trkpt>
      <trkpt lat="44.19069" lon="6.79366">
        <ele>1744.1</ele>
        <time>2013-07-13T09:41:21Z</time>
      </trkpt>
      <trkpt lat="44.19072" lon="6.79368">
        <ele>1744</ele>
        <time>2013-07-13T09:41:23Z</time>
      </trkpt>
      <trkpt lat="44.19074" lon="6.79371">
        <ele>1742.1</ele>
        <time>2013-07-13T09:41:26Z</time>
      </trkpt>
      <trkpt lat="44.19074" lon="6.79376">
        <ele>1739.2</ele>
        <time>2013-07-13T09:41:30Z</time>
      </trkpt>
      <trkpt lat="44.19075" lon="6.79379">
        <ele>1737.9</ele>
        <time>2013-07-13T09:41:35Z</time>
      </trkpt>
      <trkpt lat="44.19077" lon="6.79383">
        <ele>1737.4</ele>
        <time>2013-07-13T09:41:40Z</time>
      </trkpt>
      <trkpt lat="44.19077" lon="6.79387">
        <ele>1737.1</ele>
        <time>2013-07-13T09:41:47Z</time>
      </trkpt>
      <trkpt lat="44.19079" lon="6.7939">
        <ele>1737.1</ele>
        <time>2013-07-13T09:41:52Z</time>
      </trkpt>
      <trkpt lat="44.19079" lon="6.79395">
        <ele>1737.4</ele>
        <time>2013-07-13T09:41:56Z</time>
      </trkpt>
      <trkpt lat="44.19082" lon="6.79397">
        <ele>1738</ele>
        <time>2013-07-13T09:41:59Z</time>
      </trkpt>
      <trkpt lat="44.19082" lon="6.79401">
        <ele>1737.7</ele>
        <time>2013-07-13T09:42:03Z</time>
      </trkpt>
      <trkpt lat="44.19079" lon="6.79405">
        <ele>1736.1</ele>
        <time>2013-07-13T09:42:08Z</time>
      </trkpt>
      <trkpt lat="44.19079" lon="6.79409">
        <ele>1735.9</ele>
        <time>2013-07-13T09:42:12Z</time>
      </trkpt>
      <trkpt lat="44.19077" lon="6.79414">
        <ele>1736</ele>
        <time>2013-07-13T09:42:17Z</time>
      </trkpt>
      <trkpt lat="44.1908" lon="6.79418">
        <ele>1736.8</ele>
        <time>2013-07-13T09:42:21Z</time>
      </trkpt>
      <trkpt lat="44.19082" lon="6.7942">
        <ele>1736.7</ele>
        <time>2013-07-13T09:42:23Z</time>
      </trkpt>
      <trkpt lat="44.19086" lon="6.79423">
        <ele>1737.1</ele>
        <time>2013-07-13T09:42:25Z</time>
      </trkpt>
      <trkpt lat="44.1909" lon="6.79424">
        <ele>1737.3</ele>
        <time>2013-07-13T09:42:28Z</time>
      </trkpt>
      <trkpt lat="44.19092" lon="6.79427">
        <ele>1737.7</ele>
        <time>2013-07-13T09:42:31Z</time>
      </trkpt>
      <trkpt lat="44.19095" lon="6.79429">
        <ele>1738.8</ele>
        <time>2013-07-13T09:42:35Z</time>
      </trkpt>
      <trkpt lat="44.19097" lon="6.79432">
        <ele>1739.4</ele>
        <time>2013-07-13T09:42:38Z</time>
      </trkpt>
      <trkpt lat="44.19099" lon="6.79435">
        <ele>1739.9</ele>
        <time>2013-07-13T09:42:41Z</time>
      </trkpt>
      <trkpt lat="44.19101" lon="6.79439">
        <ele>1739.9</ele>
        <time>2013-07-13T09:42:43Z</time>
      </trkpt>
      <trkpt lat="44.19104" lon="6.7944">
        <ele>1740.4</ele>
        <time>2013-07-13T09:42:46Z</time>
      </trkpt>
      <trkpt lat="44.19105" lon="6.79443">
        <ele>1740.8</ele>
        <time>2013-07-13T09:42:48Z</time>
      </trkpt>
      <trkpt lat="44.19108" lon="6.79445">
        <ele>1741.2</ele>
        <time>2013-07-13T09:42:51Z</time>
      </trkpt>
      <trkpt lat="44.1911" lon="6.79449">
        <ele>1741.8</ele>
        <time>2013-07-13T09:42:54Z</time>
      </trkpt>
      <trkpt lat="44.19112" lon="6.79451">
        <ele>1742.5</ele>
        <time>2013-07-13T09:42:56Z</time>
      </trkpt>
      <trkpt lat="44.19114" lon="6.79454">
        <ele>1743.3</ele>
        <time>2013-07-13T09:42:59Z</time>
      </trkpt>
      <trkpt lat="44.19117" lon="6.79456">
        <ele>1744.2</ele>
        <time>2013-07-13T09:43:03Z</time>
      </trkpt>
      <trkpt lat="44.19118" lon="6.79461">
        <ele>1745.1</ele>
        <time>2013-07-13T09:43:06Z</time>
      </trkpt>
      <trkpt lat="44.1912" lon="6.79464">
        <ele>1745.3</ele>
        <time>2013-07-13T09:43:10Z</time>
      </trkpt>
      <trkpt lat="44.19123" lon="6.79467">
        <ele>1745.7</ele>
        <time>2013-07-13T09:43:13Z</time>
      </trkpt>
      <trkpt lat="44.19126" lon="6.79468">
        <ele>1746.2</ele>
        <time>2013-07-13T09:43:15Z</time>
      </trkpt>
      <trkpt lat="44.19132" lon="6.79473">
        <ele>1746.4</ele>
        <time>2013-07-13T09:43:19Z</time>
      </trkpt>
      <trkpt lat="44.19135" lon="6.79475">
        <ele>1746.9</ele>
        <time>2013-07-13T09:43:21Z</time>
      </trkpt>
      <trkpt lat="44.19137" lon="6.79477">
        <ele>1746.6</ele>
        <time>2013-07-13T09:43:23Z</time>
      </trkpt>
      <trkpt lat="44.1914" lon="6.79479">
        <ele>1747.1</ele>
        <time>2013-07-13T09:43:26Z</time>
      </trkpt>
      <trkpt lat="44.19142" lon="6.79483">
        <ele>1747.7</ele>
        <time>2013-07-13T09:43:30Z</time>
      </trkpt>
      <trkpt lat="44.19141" lon="6.79489">
        <ele>1747.7</ele>
        <time>2013-07-13T09:43:42Z</time>
      </trkpt>
      <trkpt lat="44.19139" lon="6.79501">
        <ele>1750</ele>
        <time>2013-07-13T09:43:56Z</time>
      </trkpt>
      <trkpt lat="44.19138" lon="6.79506">
        <ele>1751.2</ele>
        <time>2013-07-13T09:44:01Z</time>
      </trkpt>
      <trkpt lat="44.19137" lon="6.7951">
        <ele>1751.4</ele>
        <time>2013-07-13T09:44:05Z</time>
      </trkpt>
      <trkpt lat="44.19138" lon="6.79515">
        <ele>1751.7</ele>
        <time>2013-07-13T09:44:09Z</time>
      </trkpt>
      <trkpt lat="44.19138" lon="6.79519">
        <ele>1755</ele>
        <time>2013-07-13T09:44:20Z</time>
      </trkpt>
      <trkpt lat="44.19136" lon="6.79519">
        <ele>1759.9</ele>
        <time>2013-07-13T09:44:35Z</time>
      </trkpt>
      <trkpt lat="44.19135" lon="6.79515">
        <ele>1762.6</ele>
        <time>2013-07-13T09:44:54Z</time>
      </trkpt>
      <trkpt lat="44.19142" lon="6.79511">
        <ele>1770.4</ele>
        <time>2013-07-13T09:45:42Z</time>
      </trkpt>
      <trkpt lat="44.19145" lon="6.7951">
        <ele>1772.2</ele>
        <time>2013-07-13T09:46:06Z</time>
      </trkpt>
      <trkpt lat="44.19148" lon="6.79512">
        <ele>1772.3</ele>
        <time>2013-07-13T09:46:10Z</time>
      </trkpt>
      <trkpt lat="44.19149" lon="6.79515">
        <ele>1772.9</ele>
        <time>2013-07-13T09:46:18Z</time>
      </trkpt>
      <trkpt lat="44.19153" lon="6.79516">
        <ele>1772.8</ele>
        <time>2013-07-13T09:46:22Z</time>
      </trkpt>
      <trkpt lat="44.19157" lon="6.79516">
        <ele>1772.9</ele>
        <time>2013-07-13T09:46:26Z</time>
      </trkpt>
      <trkpt lat="44.19161" lon="6.79517">
        <ele>1772.9</ele>
        <time>2013-07-13T09:46:28Z</time>
      </trkpt>
      <trkpt lat="44.19164" lon="6.79514">
        <ele>1772.8</ele>
        <time>2013-07-13T09:46:30Z</time>
      </trkpt>
      <trkpt lat="44.19167" lon="6.79511">
        <ele>1772.8</ele>
        <time>2013-07-13T09:46:32Z</time>
      </trkpt>
      <trkpt lat="44.1917" lon="6.79508">
        <ele>1772.8</ele>
        <time>2013-07-13T09:46:34Z</time>
      </trkpt>
      <trkpt lat="44.19174" lon="6.79507">
        <ele>1772.8</ele>
        <time>2013-07-13T09:46:36Z</time>
      </trkpt>
      <trkpt lat="44.19176" lon="6.79509">
        <ele>1772.8</ele>
        <time>2013-07-13T09:46:38Z</time>
      </trkpt>
      <trkpt lat="44.19179" lon="6.7951">
        <ele>1772.9</ele>
        <time>2013-07-13T09:46:40Z</time>
      </trkpt>
      <trkpt lat="44.19183" lon="6.7951">
        <ele>1772.9</ele>
        <time>2013-07-13T09:46:43Z</time>
      </trkpt>
      <trkpt lat="44.19185" lon="6.79514">
        <ele>1772.9</ele>
        <time>2013-07-13T09:46:45Z</time>
      </trkpt>
      <trkpt lat="44.19188" lon="6.79517">
        <ele>1773</ele>
        <time>2013-07-13T09:46:47Z</time>
      </trkpt>
      <trkpt lat="44.1919" lon="6.79521">
        <ele>1773</ele>
        <time>2013-07-13T09:46:51Z</time>
      </trkpt>
      <trkpt lat="44.19192" lon="6.79524">
        <ele>1773.1</ele>
        <time>2013-07-13T09:46:53Z</time>
      </trkpt>
      <trkpt lat="44.19192" lon="6.7953">
        <ele>1772.8</ele>
        <time>2013-07-13T09:46:57Z</time>
      </trkpt>
      <trkpt lat="44.19195" lon="6.79534">
        <ele>1773.2</ele>
        <time>2013-07-13T09:47:01Z</time>
      </trkpt>
      <trkpt lat="44.19197" lon="6.79537">
        <ele>1773.4</ele>
        <time>2013-07-13T09:47:06Z</time>
      </trkpt>
      <trkpt lat="44.192" lon="6.79537">
        <ele>1773.8</ele>
        <time>2013-07-13T09:47:10Z</time>
      </trkpt>
      <trkpt lat="44.19202" lon="6.7954">
        <ele>1774.2</ele>
        <time>2013-07-13T09:47:16Z</time>
      </trkpt>
      <trkpt lat="44.19204" lon="6.79542">
        <ele>1774.8</ele>
        <time>2013-07-13T09:47:19Z</time>
      </trkpt>
      <trkpt lat="44.19206" lon="6.79545">
        <ele>1775.2</ele>
        <time>2013-07-13T09:47:24Z</time>
      </trkpt>
      <trkpt lat="44.19209" lon="6.79547">
        <ele>1775.1</ele>
        <time>2013-07-13T09:47:28Z</time>
      </trkpt>
      <trkpt lat="44.19212" lon="6.79548">
        <ele>1775.9</ele>
        <time>2013-07-13T09:47:31Z</time>
      </trkpt>
      <trkpt lat="44.19215" lon="6.79549">
        <ele>1776.4</ele>
        <time>2013-07-13T09:47:34Z</time>
      </trkpt>
      <trkpt lat="44.19218" lon="6.79548">
        <ele>1776.9</ele>
        <time>2013-07-13T09:47:38Z</time>
      </trkpt>
      <trkpt lat="44.19221" lon="6.79549">
        <ele>1777.1</ele>
        <time>2013-07-13T09:47:42Z</time>
      </trkpt>
      <trkpt lat="44.19223" lon="6.79548">
        <ele>1777.5</ele>
        <time>2013-07-13T09:47:46Z</time>
      </trkpt>
      <trkpt lat="44.19226" lon="6.79548">
        <ele>1778.2</ele>
        <time>2013-07-13T09:47:52Z</time>
      </trkpt>
      <trkpt lat="44.1923" lon="6.79549">
        <ele>1778.4</ele>
        <time>2013-07-13T09:47:55Z</time>
      </trkpt>
      <trkpt lat="44.19232" lon="6.7955">
        <ele>1778.6</ele>
        <time>2013-07-13T09:48:00Z</time>
      </trkpt>
      <trkpt lat="44.19235" lon="6.79552">
        <ele>1778.8</ele>
        <time>2013-07-13T09:48:02Z</time>
      </trkpt>
      <trkpt lat="44.19238" lon="6.79551">
        <ele>1779.2</ele>
        <time>2013-07-13T09:48:05Z</time>
      </trkpt>
      <trkpt lat="44.19241" lon="6.79551">
        <ele>1779.7</ele>
        <time>2013-07-13T09:48:09Z</time>
      </trkpt>
      <trkpt lat="44.19244" lon="6.79552">
        <ele>1779.8</ele>
        <time>2013-07-13T09:48:12Z</time>
      </trkpt>
      <trkpt lat="44.19247" lon="6.79551">
        <ele>1780</ele>
        <time>2013-07-13T09:48:14Z</time>
      </trkpt>
      <trkpt lat="44.1925" lon="6.7955">
        <ele>1780</ele>
        <time>2013-07-13T09:48:17Z</time>
      </trkpt>
      <trkpt lat="44.19253" lon="6.79548">
        <ele>1780.7</ele>
        <time>2013-07-13T09:48:20Z</time>
      </trkpt>
      <trkpt lat="44.19251" lon="6.79546">
        <ele>1787</ele>
        <time>2013-07-13T09:48:49Z</time>
      </trkpt>
      <trkpt lat="44.19255" lon="6.79543">
        <ele>1787.2</ele>
        <time>2013-07-13T09:48:53Z</time>
      </trkpt>
      <trkpt lat="44.19252" lon="6.79541">
        <ele>1787.1</ele>
        <time>2013-07-13T09:49:07Z</time>
      </trkpt>
      <trkpt lat="44.19249" lon="6.79543">
        <ele>1786.9</ele>
        <time>2013-07-13T09:49:09Z</time>
      </trkpt>
      <trkpt lat="44.19248" lon="6.79539">
        <ele>1787.8</ele>
        <time>2013-07-13T09:49:14Z</time>
      </trkpt>
      <trkpt lat="44.19251" lon="6.79542">
        <ele>1789.2</ele>
        <time>2013-07-13T09:49:29Z</time>
      </trkpt>
      <trkpt lat="44.19254" lon="6.79543">
        <ele>1789.2</ele>
        <time>2013-07-13T09:49:31Z</time>
      </trkpt>
      <trkpt lat="44.19256" lon="6.79546">
        <ele>1788.9</ele>
        <time>2013-07-13T09:49:33Z</time>
      </trkpt>
      <trkpt lat="44.19257" lon="6.79549">
        <ele>1789</ele>
        <time>2013-07-13T09:49:37Z</time>
      </trkpt>
      <trkpt lat="44.1926" lon="6.79551">
        <ele>1789.4</ele>
        <time>2013-07-13T09:49:39Z</time>
      </trkpt>
      <trkpt lat="44.19262" lon="6.79552">
        <ele>1789.7</ele>
        <time>2013-07-13T09:49:42Z</time>
      </trkpt>
      <trkpt lat="44.19266" lon="6.79552">
        <ele>1790.1</ele>
        <time>2013-07-13T09:49:44Z</time>
      </trkpt>
      <trkpt lat="44.19271" lon="6.79551">
        <ele>1790.7</ele>
        <time>2013-07-13T09:49:46Z</time>
      </trkpt>
      <trkpt lat="44.19277" lon="6.79553">
        <ele>1791.3</ele>
        <time>2013-07-13T09:49:53Z</time>
      </trkpt>
      <trkpt lat="44.19277" lon="6.79557">
        <ele>1791.8</ele>
        <time>2013-07-13T09:50:02Z</time>
      </trkpt>
      <trkpt lat="44.1928" lon="6.79559">
        <ele>1792</ele>
        <time>2013-07-13T09:50:04Z</time>
      </trkpt>
      <trkpt lat="44.19282" lon="6.79562">
        <ele>1792.1</ele>
        <time>2013-07-13T09:50:07Z</time>
      </trkpt>
      <trkpt lat="44.19286" lon="6.79563">
        <ele>1792.3</ele>
        <time>2013-07-13T09:50:10Z</time>
      </trkpt>
      <trkpt lat="44.19287" lon="6.79568">
        <ele>1792.5</ele>
        <time>2013-07-13T09:50:13Z</time>
      </trkpt>
      <trkpt lat="44.19289" lon="6.7957">
        <ele>1792.8</ele>
        <time>2013-07-13T09:50:17Z</time>
      </trkpt>
      <trkpt lat="44.19291" lon="6.79573">
        <ele>1793</ele>
        <time>2013-07-13T09:50:19Z</time>
      </trkpt>
      <trkpt lat="44.19294" lon="6.79575">
        <ele>1793.1</ele>
        <time>2013-07-13T09:50:21Z</time>
      </trkpt>
      <trkpt lat="44.19298" lon="6.79579">
        <ele>1793.4</ele>
        <time>2013-07-13T09:50:24Z</time>
      </trkpt>
      <trkpt lat="44.193" lon="6.79582">
        <ele>1794.2</ele>
        <time>2013-07-13T09:50:26Z</time>
      </trkpt>
      <trkpt lat="44.19301" lon="6.79586">
        <ele>1794.7</ele>
        <time>2013-07-13T09:50:29Z</time>
      </trkpt>
      <trkpt lat="44.19303" lon="6.7959">
        <ele>1794.7</ele>
        <time>2013-07-13T09:50:32Z</time>
      </trkpt>
      <trkpt lat="44.19305" lon="6.79593">
        <ele>1795.1</ele>
        <time>2013-07-13T09:50:34Z</time>
      </trkpt>
      <trkpt lat="44.19307" lon="6.79597">
        <ele>1795.4</ele>
        <time>2013-07-13T09:50:37Z</time>
      </trkpt>
      <trkpt lat="44.19308" lon="6.79603">
        <ele>1796.8</ele>
        <time>2013-07-13T09:50:39Z</time>
      </trkpt>
      <trkpt lat="44.19308" lon="6.79607">
        <ele>1797.1</ele>
        <time>2013-07-13T09:50:41Z</time>
      </trkpt>
      <trkpt lat="44.1931" lon="6.79611">
        <ele>1797</ele>
        <time>2013-07-13T09:50:44Z</time>
      </trkpt>
      <trkpt lat="44.19312" lon="6.79615">
        <ele>1797.5</ele>
        <time>2013-07-13T09:50:47Z</time>
      </trkpt>
      <trkpt lat="44.19312" lon="6.79618">
        <ele>1798.4</ele>
        <time>2013-07-13T09:50:53Z</time>
      </trkpt>
      <trkpt lat="44.19315" lon="6.79619">
        <ele>1798.3</ele>
        <time>2013-07-13T09:50:55Z</time>
      </trkpt>
      <trkpt lat="44.19318" lon="6.79622">
        <ele>1798.6</ele>
        <time>2013-07-13T09:50:58Z</time>
      </trkpt>
      <trkpt lat="44.19319" lon="6.79625">
        <ele>1798.9</ele>
        <time>2013-07-13T09:51:03Z</time>
      </trkpt>
      <trkpt lat="44.1932" lon="6.79629">
        <ele>1800.7</ele>
        <time>2013-07-13T09:51:10Z</time>
      </trkpt>
      <trkpt lat="44.19323" lon="6.79632">
        <ele>1802.1</ele>
        <time>2013-07-13T09:51:14Z</time>
      </trkpt>
      <trkpt lat="44.19325" lon="6.79634">
        <ele>1802.6</ele>
        <time>2013-07-13T09:51:17Z</time>
      </trkpt>
      <trkpt lat="44.19327" lon="6.79638">
        <ele>1802.6</ele>
        <time>2013-07-13T09:51:20Z</time>
      </trkpt>
      <trkpt lat="44.19328" lon="6.79641">
        <ele>1803.4</ele>
        <time>2013-07-13T09:51:25Z</time>
      </trkpt>
      <trkpt lat="44.19327" lon="6.79646">
        <ele>1803.8</ele>
        <time>2013-07-13T09:51:29Z</time>
      </trkpt>
      <trkpt lat="44.19329" lon="6.79649">
        <ele>1804.2</ele>
        <time>2013-07-13T09:51:33Z</time>
      </trkpt>
      <trkpt lat="44.19331" lon="6.79652">
        <ele>1805.1</ele>
        <time>2013-07-13T09:51:38Z</time>
      </trkpt>
      <trkpt lat="44.19333" lon="6.79656">
        <ele>1805.8</ele>
        <time>2013-07-13T09:51:42Z</time>
      </trkpt>
      <trkpt lat="44.19335" lon="6.79659">
        <ele>1806.4</ele>
        <time>2013-07-13T09:51:45Z</time>
      </trkpt>
      <trkpt lat="44.19337" lon="6.79663">
        <ele>1808</ele>
        <time>2013-07-13T09:51:49Z</time>
      </trkpt>
      <trkpt lat="44.19336" lon="6.79667">
        <ele>1809</ele>
        <time>2013-07-13T09:51:53Z</time>
      </trkpt>
      <trkpt lat="44.19338" lon="6.79671">
        <ele>1809.4</ele>
        <time>2013-07-13T09:51:58Z</time>
      </trkpt>
      <trkpt lat="44.19339" lon="6.79675">
        <ele>1810.1</ele>
        <time>2013-07-13T09:52:03Z</time>
      </trkpt>
      <trkpt lat="44.19339" lon="6.79679">
        <ele>1810.9</ele>
        <time>2013-07-13T09:52:08Z</time>
      </trkpt>
      <trkpt lat="44.1934" lon="6.79683">
        <ele>1811.5</ele>
        <time>2013-07-13T09:52:11Z</time>
      </trkpt>
      <trkpt lat="44.1934" lon="6.79688">
        <ele>1812.7</ele>
        <time>2013-07-13T09:52:16Z</time>
      </trkpt>
      <trkpt lat="44.1934" lon="6.79692">
        <ele>1813.2</ele>
        <time>2013-07-13T09:52:20Z</time>
      </trkpt>
      <trkpt lat="44.1934" lon="6.79697">
        <ele>1813.8</ele>
        <time>2013-07-13T09:52:24Z</time>
      </trkpt>
      <trkpt lat="44.19339" lon="6.79701">
        <ele>1814.7</ele>
        <time>2013-07-13T09:52:30Z</time>
      </trkpt>
      <trkpt lat="44.19338" lon="6.79706">
        <ele>1815.4</ele>
        <time>2013-07-13T09:52:33Z</time>
      </trkpt>
      <trkpt lat="44.19336" lon="6.79709">
        <ele>1815.8</ele>
        <time>2013-07-13T09:52:36Z</time>
      </trkpt>
      <trkpt lat="44.19334" lon="6.79712">
        <ele>1816.6</ele>
        <time>2013-07-13T09:52:38Z</time>
      </trkpt>
      <trkpt lat="44.19332" lon="6.79716">
        <ele>1817</ele>
        <time>2013-07-13T09:52:41Z</time>
      </trkpt>
      <trkpt lat="44.19331" lon="6.7972">
        <ele>1817.3</ele>
        <time>2013-07-13T09:52:44Z</time>
      </trkpt>
      <trkpt lat="44.19334" lon="6.79723">
        <ele>1817.9</ele>
        <time>2013-07-13T09:52:50Z</time>
      </trkpt>
      <trkpt lat="44.19336" lon="6.79725">
        <ele>1818</ele>
        <time>2013-07-13T09:52:53Z</time>
      </trkpt>
      <trkpt lat="44.19335" lon="6.79729">
        <ele>1818.4</ele>
        <time>2013-07-13T09:52:57Z</time>
      </trkpt>
      <trkpt lat="44.19336" lon="6.79733">
        <ele>1819.1</ele>
        <time>2013-07-13T09:53:01Z</time>
      </trkpt>
      <trkpt lat="44.19336" lon="6.79737">
        <ele>1819.1</ele>
        <time>2013-07-13T09:53:05Z</time>
      </trkpt>
      <trkpt lat="44.19337" lon="6.79741">
        <ele>1819.2</ele>
        <time>2013-07-13T09:53:08Z</time>
      </trkpt>
      <trkpt lat="44.19335" lon="6.79744">
        <ele>1820.3</ele>
        <time>2013-07-13T09:53:18Z</time>
      </trkpt>
      <trkpt lat="44.19334" lon="6.79747">
        <ele>1821.9</ele>
        <time>2013-07-13T09:53:26Z</time>
      </trkpt>
      <trkpt lat="44.19333" lon="6.79753">
        <ele>1823.3</ele>
        <time>2013-07-13T09:53:31Z</time>
      </trkpt>
      <trkpt lat="44.19331" lon="6.79756">
        <ele>1824.1</ele>
        <time>2013-07-13T09:53:34Z</time>
      </trkpt>
      <trkpt lat="44.1933" lon="6.7976">
        <ele>1824.2</ele>
        <time>2013-07-13T09:53:37Z</time>
      </trkpt>
      <trkpt lat="44.19328" lon="6.79764">
        <ele>1825</ele>
        <time>2013-07-13T09:53:40Z</time>
      </trkpt>
      <trkpt lat="44.19326" lon="6.79768">
        <ele>1825.6</ele>
        <time>2013-07-13T09:53:44Z</time>
      </trkpt>
      <trkpt lat="44.19325" lon="6.79772">
        <ele>1825.9</ele>
        <time>2013-07-13T09:53:46Z</time>
      </trkpt>
      <trkpt lat="44.19324" lon="6.79776">
        <ele>1826.6</ele>
        <time>2013-07-13T09:53:48Z</time>
      </trkpt>
      <trkpt lat="44.19323" lon="6.7978">
        <ele>1827</ele>
        <time>2013-07-13T09:53:50Z</time>
      </trkpt>
      <trkpt lat="44.19321" lon="6.79784">
        <ele>1827.9</ele>
        <time>2013-07-13T09:53:53Z</time>
      </trkpt>
      <trkpt lat="44.1932" lon="6.79788">
        <ele>1827.9</ele>
        <time>2013-07-13T09:53:55Z</time>
      </trkpt>
      <trkpt lat="44.1932" lon="6.79793">
        <ele>1828.4</ele>
        <time>2013-07-13T09:53:58Z</time>
      </trkpt>
      <trkpt lat="44.1932" lon="6.79797">
        <ele>1828.6</ele>
        <time>2013-07-13T09:54:01Z</time>
      </trkpt>
      <trkpt lat="44.19322" lon="6.798">
        <ele>1828.5</ele>
        <time>2013-07-13T09:54:03Z</time>
      </trkpt>
      <trkpt lat="44.19324" lon="6.79804">
        <ele>1828.9</ele>
        <time>2013-07-13T09:54:06Z</time>
      </trkpt>
      <trkpt lat="44.19325" lon="6.79808">
        <ele>1829.7</ele>
        <time>2013-07-13T09:54:10Z</time>
      </trkpt>
      <trkpt lat="44.19326" lon="6.79812">
        <ele>1832.1</ele>
        <time>2013-07-13T09:54:16Z</time>
      </trkpt>
      <trkpt lat="44.19328" lon="6.79815">
        <ele>1833</ele>
        <time>2013-07-13T09:54:20Z</time>
      </trkpt>
      <trkpt lat="44.1933" lon="6.79819">
        <ele>1834</ele>
        <time>2013-07-13T09:54:24Z</time>
      </trkpt>
      <trkpt lat="44.1933" lon="6.79824">
        <ele>1834.2</ele>
        <time>2013-07-13T09:54:27Z</time>
      </trkpt>
      <trkpt lat="44.19328" lon="6.79829">
        <ele>1835</ele>
        <time>2013-07-13T09:54:30Z</time>
      </trkpt>
      <trkpt lat="44.19328" lon="6.79833">
        <ele>1836.3</ele>
        <time>2013-07-13T09:54:33Z</time>
      </trkpt>
      <trkpt lat="44.19326" lon="6.79837">
        <ele>1839.4</ele>
        <time>2013-07-13T09:54:45Z</time>
      </trkpt>
      <trkpt lat="44.19324" lon="6.7985">
        <ele>1842.6</ele>
        <time>2013-07-13T09:54:57Z</time>
      </trkpt>
      <trkpt lat="44.19325" lon="6.79854">
        <ele>1842.7</ele>
        <time>2013-07-13T09:55:00Z</time>
      </trkpt>
      <trkpt lat="44.19324" lon="6.79859">
        <ele>1843</ele>
        <time>2013-07-13T09:55:04Z</time>
      </trkpt>
      <trkpt lat="44.19324" lon="6.79863">
        <ele>1844.3</ele>
        <time>2013-07-13T09:55:12Z</time>
      </trkpt>
      <trkpt lat="44.19326" lon="6.79867">
        <ele>1844</ele>
        <time>2013-07-13T09:55:14Z</time>
      </trkpt>
      <trkpt lat="44.19324" lon="6.79871">
        <ele>1843.9</ele>
        <time>2013-07-13T09:55:17Z</time>
      </trkpt>
      <trkpt lat="44.19323" lon="6.79875">
        <ele>1844</ele>
        <time>2013-07-13T09:55:20Z</time>
      </trkpt>
      <trkpt lat="44.19322" lon="6.79879">
        <ele>1844.1</ele>
        <time>2013-07-13T09:55:23Z</time>
      </trkpt>
      <trkpt lat="44.19322" lon="6.79883">
        <ele>1844.2</ele>
        <time>2013-07-13T09:55:28Z</time>
      </trkpt>
      <trkpt lat="44.19319" lon="6.79885">
        <ele>1845.1</ele>
        <time>2013-07-13T09:55:44Z</time>
      </trkpt>
      <trkpt lat="44.1932" lon="6.7988">
        <ele>1844.7</ele>
        <time>2013-07-13T09:55:48Z</time>
      </trkpt>
      <trkpt lat="44.19321" lon="6.79877">
        <ele>1844.8</ele>
        <time>2013-07-13T09:55:50Z</time>
      </trkpt>
      <trkpt lat="44.1932" lon="6.79873">
        <ele>1844.7</ele>
        <time>2013-07-13T09:55:52Z</time>
      </trkpt>
      <trkpt lat="44.1932" lon="6.79868">
        <ele>1845.7</ele>
        <time>2013-07-13T09:55:56Z</time>
      </trkpt>
      <trkpt lat="44.19319" lon="6.79862">
        <ele>1846.8</ele>
        <time>2013-07-13T09:55:59Z</time>
      </trkpt>
      <trkpt lat="44.19317" lon="6.79857">
        <ele>1848.3</ele>
        <time>2013-07-13T09:56:01Z</time>
      </trkpt>
      <trkpt lat="44.19314" lon="6.79855">
        <ele>1848.9</ele>
        <time>2013-07-13T09:56:04Z</time>
      </trkpt>
      <trkpt lat="44.19314" lon="6.7985">
        <ele>1849.6</ele>
        <time>2013-07-13T09:56:07Z</time>
      </trkpt>
      <trkpt lat="44.19314" lon="6.79846">
        <ele>1850.1</ele>
        <time>2013-07-13T09:56:10Z</time>
      </trkpt>
      <trkpt lat="44.19311" lon="6.79843">
        <ele>1850.7</ele>
        <time>2013-07-13T09:56:13Z</time>
      </trkpt>
      <trkpt lat="44.19305" lon="6.7984">
        <ele>1851.5</ele>
        <time>2013-07-13T09:56:18Z</time>
      </trkpt>
      <trkpt lat="44.19303" lon="6.79838">
        <ele>1852.1</ele>
        <time>2013-07-13T09:56:22Z</time>
      </trkpt>
      <trkpt lat="44.19298" lon="6.79839">
        <ele>1853</ele>
        <time>2013-07-13T09:56:38Z</time>
      </trkpt>
      <trkpt lat="44.19297" lon="6.79843">
        <ele>1853.9</ele>
        <time>2013-07-13T09:56:44Z</time>
      </trkpt>
      <trkpt lat="44.19295" lon="6.79845">
        <ele>1854.2</ele>
        <time>2013-07-13T09:56:51Z</time>
      </trkpt>
      <trkpt lat="44.19295" lon="6.7985">
        <ele>1854.7</ele>
        <time>2013-07-13T09:56:56Z</time>
      </trkpt>
      <trkpt lat="44.19294" lon="6.79855">
        <ele>1856.2</ele>
        <time>2013-07-13T09:57:03Z</time>
      </trkpt>
      <trkpt lat="44.19292" lon="6.79868">
        <ele>1858.4</ele>
        <time>2013-07-13T09:57:19Z</time>
      </trkpt>
      <trkpt lat="44.1929" lon="6.79871">
        <ele>1859.4</ele>
        <time>2013-07-13T09:57:24Z</time>
      </trkpt>
      <trkpt lat="44.19289" lon="6.79875">
        <ele>1859.7</ele>
        <time>2013-07-13T09:57:27Z</time>
      </trkpt>
      <trkpt lat="44.19286" lon="6.79876">
        <ele>1860.2</ele>
        <time>2013-07-13T09:57:31Z</time>
      </trkpt>
      <trkpt lat="44.19282" lon="6.79879">
        <ele>1861.3</ele>
        <time>2013-07-13T09:57:36Z</time>
      </trkpt>
      <trkpt lat="44.1928" lon="6.79882">
        <ele>1861.9</ele>
        <time>2013-07-13T09:57:39Z</time>
      </trkpt>
      <trkpt lat="44.19277" lon="6.79885">
        <ele>1862.7</ele>
        <time>2013-07-13T09:57:44Z</time>
      </trkpt>
      <trkpt lat="44.19276" lon="6.79889">
        <ele>1862.8</ele>
        <time>2013-07-13T09:57:48Z</time>
      </trkpt>
      <trkpt lat="44.19277" lon="6.79893">
        <ele>1862.9</ele>
        <time>2013-07-13T09:57:52Z</time>
      </trkpt>
      <trkpt lat="44.19278" lon="6.79897">
        <ele>1863.6</ele>
        <time>2013-07-13T09:57:56Z</time>
      </trkpt>
      <trkpt lat="44.19279" lon="6.799">
        <ele>1864</ele>
        <time>2013-07-13T09:58:00Z</time>
      </trkpt>
      <trkpt lat="44.19277" lon="6.79901">
        <ele>1864.3</ele>
        <time>2013-07-13T09:58:03Z</time>
      </trkpt>
      <trkpt lat="44.19273" lon="6.79901">
        <ele>1864.8</ele>
        <time>2013-07-13T09:58:06Z</time>
      </trkpt>
      <trkpt lat="44.19273" lon="6.79906">
        <ele>1865.7</ele>
        <time>2013-07-13T09:58:11Z</time>
      </trkpt>
      <trkpt lat="44.1927" lon="6.79907">
        <ele>1866.4</ele>
        <time>2013-07-13T09:58:17Z</time>
      </trkpt>
      <trkpt lat="44.19269" lon="6.79912">
        <ele>1868.6</ele>
        <time>2013-07-13T09:58:28Z</time>
      </trkpt>
      <trkpt lat="44.19266" lon="6.79915">
        <ele>1870</ele>
        <time>2013-07-13T09:58:35Z</time>
      </trkpt>
      <trkpt lat="44.19267" lon="6.79919">
        <ele>1870.2</ele>
        <time>2013-07-13T09:58:38Z</time>
      </trkpt>
      <trkpt lat="44.19265" lon="6.79923">
        <ele>1871.1</ele>
        <time>2013-07-13T09:58:42Z</time>
      </trkpt>
      <trkpt lat="44.19264" lon="6.79927">
        <ele>1871.2</ele>
        <time>2013-07-13T09:58:45Z</time>
      </trkpt>
      <trkpt lat="44.19263" lon="6.79931">
        <ele>1872</ele>
        <time>2013-07-13T09:58:48Z</time>
      </trkpt>
      <trkpt lat="44.1926" lon="6.79934">
        <ele>1873.6</ele>
        <time>2013-07-13T09:58:52Z</time>
      </trkpt>
      <trkpt lat="44.19259" lon="6.79937">
        <ele>1874.4</ele>
        <time>2013-07-13T09:58:55Z</time>
      </trkpt>
      <trkpt lat="44.19257" lon="6.79942">
        <ele>1875.1</ele>
        <time>2013-07-13T09:58:58Z</time>
      </trkpt>
      <trkpt lat="44.19256" lon="6.79946">
        <ele>1875.2</ele>
        <time>2013-07-13T09:59:01Z</time>
      </trkpt>
      <trkpt lat="44.19254" lon="6.7995">
        <ele>1875.8</ele>
        <time>2013-07-13T09:59:05Z</time>
      </trkpt>
      <trkpt lat="44.19252" lon="6.79953">
        <ele>1876.8</ele>
        <time>2013-07-13T09:59:10Z</time>
      </trkpt>
      <trkpt lat="44.1925" lon="6.79957">
        <ele>1877.2</ele>
        <time>2013-07-13T09:59:13Z</time>
      </trkpt>
      <trkpt lat="44.19252" lon="6.79961">
        <ele>1877.8</ele>
        <time>2013-07-13T09:59:15Z</time>
      </trkpt>
      <trkpt lat="44.19252" lon="6.79966">
        <ele>1878.8</ele>
        <time>2013-07-13T09:59:18Z</time>
      </trkpt>
      <trkpt lat="44.19253" lon="6.7997">
        <ele>1879.4</ele>
        <time>2013-07-13T09:59:20Z</time>
      </trkpt>
      <trkpt lat="44.19254" lon="6.79974">
        <ele>1879.5</ele>
        <time>2013-07-13T09:59:23Z</time>
      </trkpt>
      <trkpt lat="44.19255" lon="6.79979">
        <ele>1879.6</ele>
        <time>2013-07-13T09:59:25Z</time>
      </trkpt>
      <trkpt lat="44.19255" lon="6.79983">
        <ele>1880.1</ele>
        <time>2013-07-13T09:59:28Z</time>
      </trkpt>
      <trkpt lat="44.19256" lon="6.79987">
        <ele>1880.6</ele>
        <time>2013-07-13T09:59:31Z</time>
      </trkpt>
      <trkpt lat="44.19258" lon="6.79991">
        <ele>1880.7</ele>
        <time>2013-07-13T09:59:34Z</time>
      </trkpt>
      <trkpt lat="44.19258" lon="6.79995">
        <ele>1880.6</ele>
        <time>2013-07-13T09:59:36Z</time>
      </trkpt>
      <trkpt lat="44.1926" lon="6.79999">
        <ele>1880.8</ele>
        <time>2013-07-13T09:59:39Z</time>
      </trkpt>
      <trkpt lat="44.19261" lon="6.80004">
        <ele>1880.8</ele>
        <time>2013-07-13T09:59:42Z</time>
      </trkpt>
      <trkpt lat="44.1926" lon="6.80008">
        <ele>1881.3</ele>
        <time>2013-07-13T09:59:45Z</time>
      </trkpt>
      <trkpt lat="44.1926" lon="6.80012">
        <ele>1883.1</ele>
        <time>2013-07-13T09:59:52Z</time>
      </trkpt>
      <trkpt lat="44.19257" lon="6.80013">
        <ele>1885.3</ele>
        <time>2013-07-13T09:59:57Z</time>
      </trkpt>
      <trkpt lat="44.19254" lon="6.80013">
        <ele>1886.2</ele>
        <time>2013-07-13T10:00:05Z</time>
      </trkpt>
      <trkpt lat="44.1925" lon="6.80014">
        <ele>1886.4</ele>
        <time>2013-07-13T10:00:10Z</time>
      </trkpt>
      <trkpt lat="44.19247" lon="6.80014">
        <ele>1886.4</ele>
        <time>2013-07-13T10:00:14Z</time>
      </trkpt>
      <trkpt lat="44.19247" lon="6.80018">
        <ele>1886.8</ele>
        <time>2013-07-13T10:00:19Z</time>
      </trkpt>
      <trkpt lat="44.19245" lon="6.80022">
        <ele>1887.1</ele>
        <time>2013-07-13T10:00:24Z</time>
      </trkpt>
      <trkpt lat="44.19248" lon="6.80024">
        <ele>1888.7</ele>
        <time>2013-07-13T10:00:35Z</time>
      </trkpt>
      <trkpt lat="44.19247" lon="6.80029">
        <ele>1889.1</ele>
        <time>2013-07-13T10:00:45Z</time>
      </trkpt>
      <trkpt lat="44.19244" lon="6.80032">
        <ele>1888.9</ele>
        <time>2013-07-13T10:00:47Z</time>
      </trkpt>
      <trkpt lat="44.19241" lon="6.80035">
        <ele>1889.3</ele>
        <time>2013-07-13T10:00:50Z</time>
      </trkpt>
      <trkpt lat="44.19239" lon="6.80037">
        <ele>1889.5</ele>
        <time>2013-07-13T10:00:52Z</time>
      </trkpt>
      <trkpt lat="44.19236" lon="6.8004">
        <ele>1889.2</ele>
        <time>2013-07-13T10:00:55Z</time>
      </trkpt>
      <trkpt lat="44.19234" lon="6.80043">
        <ele>1889.3</ele>
        <time>2013-07-13T10:00:57Z</time>
      </trkpt>
      <trkpt lat="44.19227" lon="6.80049">
        <ele>1890</ele>
        <time>2013-07-13T10:01:02Z</time>
      </trkpt>
      <trkpt lat="44.19224" lon="6.80051">
        <ele>1890.3</ele>
        <time>2013-07-13T10:01:04Z</time>
      </trkpt>
      <trkpt lat="44.19221" lon="6.80052">
        <ele>1891</ele>
        <time>2013-07-13T10:01:07Z</time>
      </trkpt>
      <trkpt lat="44.19219" lon="6.80055">
        <ele>1891.6</ele>
        <time>2013-07-13T10:01:11Z</time>
      </trkpt>
      <trkpt lat="44.19222" lon="6.80054">
        <ele>1891.8</ele>
        <time>2013-07-13T10:01:23Z</time>
      </trkpt>
      <trkpt lat="44.19225" lon="6.80053">
        <ele>1891.5</ele>
        <time>2013-07-13T10:01:27Z</time>
      </trkpt>
      <trkpt lat="44.19228" lon="6.8005">
        <ele>1891.7</ele>
        <time>2013-07-13T10:01:30Z</time>
      </trkpt>
      <trkpt lat="44.19228" lon="6.80045">
        <ele>1892.3</ele>
        <time>2013-07-13T10:01:33Z</time>
      </trkpt>
      <trkpt lat="44.19229" lon="6.8004">
        <ele>1893</ele>
        <time>2013-07-13T10:01:36Z</time>
      </trkpt>
      <trkpt lat="44.19229" lon="6.80036">
        <ele>1893.7</ele>
        <time>2013-07-13T10:01:39Z</time>
      </trkpt>
      <trkpt lat="44.1923" lon="6.80031">
        <ele>1893.5</ele>
        <time>2013-07-13T10:01:42Z</time>
      </trkpt>
      <trkpt lat="44.19231" lon="6.80027">
        <ele>1892.9</ele>
        <time>2013-07-13T10:01:44Z</time>
      </trkpt>
      <trkpt lat="44.19233" lon="6.8002">
        <ele>1893.2</ele>
        <time>2013-07-13T10:01:48Z</time>
      </trkpt>
      <trkpt lat="44.19232" lon="6.80016">
        <ele>1894.2</ele>
        <time>2013-07-13T10:01:50Z</time>
      </trkpt>
      <trkpt lat="44.1923" lon="6.80012">
        <ele>1895.4</ele>
        <time>2013-07-13T10:01:52Z</time>
      </trkpt>
      <trkpt lat="44.19228" lon="6.80008">
        <ele>1896.6</ele>
        <time>2013-07-13T10:01:54Z</time>
      </trkpt>
      <trkpt lat="44.19226" lon="6.80004">
        <ele>1897.5</ele>
        <time>2013-07-13T10:01:56Z</time>
      </trkpt>
      <trkpt lat="44.19222" lon="6.80003">
        <ele>1897.8</ele>
        <time>2013-07-13T10:01:58Z</time>
      </trkpt>
      <trkpt lat="44.19223" lon="6.79998">
        <ele>1899.4</ele>
        <time>2013-07-13T10:02:01Z</time>
      </trkpt>
      <trkpt lat="44.1922" lon="6.79993">
        <ele>1900.5</ele>
        <time>2013-07-13T10:02:04Z</time>
      </trkpt>
      <trkpt lat="44.19216" lon="6.79992">
        <ele>1900.5</ele>
        <time>2013-07-13T10:02:06Z</time>
      </trkpt>
      <trkpt lat="44.19212" lon="6.79992">
        <ele>1900.4</ele>
        <time>2013-07-13T10:02:08Z</time>
      </trkpt>
      <trkpt lat="44.1921" lon="6.79988">
        <ele>1901.2</ele>
        <time>2013-07-13T10:02:11Z</time>
      </trkpt>
      <trkpt lat="44.19208" lon="6.79983">
        <ele>1902.3</ele>
        <time>2013-07-13T10:02:14Z</time>
      </trkpt>
      <trkpt lat="44.19207" lon="6.79979">
        <ele>1903</ele>
        <time>2013-07-13T10:02:16Z</time>
      </trkpt>
      <trkpt lat="44.19207" lon="6.79973">
        <ele>1903.8</ele>
        <time>2013-07-13T10:02:18Z</time>
      </trkpt>
      <trkpt lat="44.19206" lon="6.79969">
        <ele>1904.6</ele>
        <time>2013-07-13T10:02:20Z</time>
      </trkpt>
      <trkpt lat="44.19205" lon="6.79965">
        <ele>1905.4</ele>
        <time>2013-07-13T10:02:23Z</time>
      </trkpt>
      <trkpt lat="44.19203" lon="6.79961">
        <ele>1905.8</ele>
        <time>2013-07-13T10:02:26Z</time>
      </trkpt>
      <trkpt lat="44.19201" lon="6.79957">
        <ele>1906.4</ele>
        <time>2013-07-13T10:02:28Z</time>
      </trkpt>
      <trkpt lat="44.19201" lon="6.79953">
        <ele>1907.5</ele>
        <time>2013-07-13T10:02:30Z</time>
      </trkpt>
      <trkpt lat="44.19201" lon="6.79948">
        <ele>1908</ele>
        <time>2013-07-13T10:02:33Z</time>
      </trkpt>
      <trkpt lat="44.19203" lon="6.79944">
        <ele>1908.4</ele>
        <time>2013-07-13T10:02:35Z</time>
      </trkpt>
      <trkpt lat="44.19204" lon="6.79939">
        <ele>1908.6</ele>
        <time>2013-07-13T10:02:38Z</time>
      </trkpt>
      <trkpt lat="44.19206" lon="6.79934">
        <ele>1909</ele>
        <time>2013-07-13T10:02:40Z</time>
      </trkpt>
      <trkpt lat="44.19206" lon="6.7993">
        <ele>1909.6</ele>
        <time>2013-07-13T10:02:42Z</time>
      </trkpt>
      <trkpt lat="44.19205" lon="6.79924">
        <ele>1910.4</ele>
        <time>2013-07-13T10:02:45Z</time>
      </trkpt>
      <trkpt lat="44.19202" lon="6.79921">
        <ele>1911.3</ele>
        <time>2013-07-13T10:02:48Z</time>
      </trkpt>
      <trkpt lat="44.19196" lon="6.79918">
        <ele>1910.6</ele>
        <time>2013-07-13T10:02:51Z</time>
      </trkpt>
      <trkpt lat="44.19195" lon="6.79914">
        <ele>1911.6</ele>
        <time>2013-07-13T10:02:54Z</time>
      </trkpt>
      <trkpt lat="44.19194" lon="6.7991">
        <ele>1912.2</ele>
        <time>2013-07-13T10:02:57Z</time>
      </trkpt>
      <trkpt lat="44.19193" lon="6.79905">
        <ele>1912.7</ele>
        <time>2013-07-13T10:03:00Z</time>
      </trkpt>
      <trkpt lat="44.19193" lon="6.79901">
        <ele>1913.8</ele>
        <time>2013-07-13T10:03:03Z</time>
      </trkpt>
      <trkpt lat="44.19191" lon="6.79897">
        <ele>1914.4</ele>
        <time>2013-07-13T10:03:06Z</time>
      </trkpt>
      <trkpt lat="44.1919" lon="6.79893">
        <ele>1915</ele>
        <time>2013-07-13T10:03:09Z</time>
      </trkpt>
      <trkpt lat="44.19189" lon="6.79888">
        <ele>1915.7</ele>
        <time>2013-07-13T10:03:12Z</time>
      </trkpt>
      <trkpt lat="44.19188" lon="6.79884">
        <ele>1916</ele>
        <time>2013-07-13T10:03:15Z</time>
      </trkpt>
      <trkpt lat="44.19188" lon="6.79879">
        <ele>1916.3</ele>
        <time>2013-07-13T10:03:17Z</time>
      </trkpt>
      <trkpt lat="44.19187" lon="6.79875">
        <ele>1916.6</ele>
        <time>2013-07-13T10:03:19Z</time>
      </trkpt>
      <trkpt lat="44.19186" lon="6.7987">
        <ele>1917.1</ele>
        <time>2013-07-13T10:03:22Z</time>
      </trkpt>
      <trkpt lat="44.19186" lon="6.79865">
        <ele>1917.6</ele>
        <time>2013-07-13T10:03:24Z</time>
      </trkpt>
      <trkpt lat="44.19186" lon="6.7986">
        <ele>1918.6</ele>
        <time>2013-07-13T10:03:27Z</time>
      </trkpt>
      <trkpt lat="44.19185" lon="6.79857">
        <ele>1919.3</ele>
        <time>2013-07-13T10:03:30Z</time>
      </trkpt>
      <trkpt lat="44.19184" lon="6.79852">
        <ele>1919.4</ele>
        <time>2013-07-13T10:03:33Z</time>
      </trkpt>
      <trkpt lat="44.19183" lon="6.79848">
        <ele>1919.4</ele>
        <time>2013-07-13T10:03:36Z</time>
      </trkpt>
      <trkpt lat="44.19182" lon="6.79844">
        <ele>1919.9</ele>
        <time>2013-07-13T10:03:39Z</time>
      </trkpt>
      <trkpt lat="44.19182" lon="6.7984">
        <ele>1920.7</ele>
        <time>2013-07-13T10:03:42Z</time>
      </trkpt>
      <trkpt lat="44.19181" lon="6.79836">
        <ele>1920.9</ele>
        <time>2013-07-13T10:03:45Z</time>
      </trkpt>
      <trkpt lat="44.19178" lon="6.79834">
        <ele>1920.5</ele>
        <time>2013-07-13T10:03:49Z</time>
      </trkpt>
      <trkpt lat="44.19175" lon="6.79832">
        <ele>1920.1</ele>
        <time>2013-07-13T10:03:51Z</time>
      </trkpt>
      <trkpt lat="44.19173" lon="6.79829">
        <ele>1920.2</ele>
        <time>2013-07-13T10:03:54Z</time>
      </trkpt>
      <trkpt lat="44.19172" lon="6.79824">
        <ele>1921</ele>
        <time>2013-07-13T10:03:57Z</time>
      </trkpt>
      <trkpt lat="44.19171" lon="6.79819">
        <ele>1921.6</ele>
        <time>2013-07-13T10:04:00Z</time>
      </trkpt>
      <trkpt lat="44.19168" lon="6.79816">
        <ele>1921.7</ele>
        <time>2013-07-13T10:04:02Z</time>
      </trkpt>
      <trkpt lat="44.19166" lon="6.79815">
        <ele>1921.8</ele>
        <time>2013-07-13T10:04:04Z</time>
      </trkpt>
      <trkpt lat="44.19163" lon="6.79813">
        <ele>1921.7</ele>
        <time>2013-07-13T10:04:06Z</time>
      </trkpt>
      <trkpt lat="44.1916" lon="6.7981">
        <ele>1922.7</ele>
        <time>2013-07-13T10:04:08Z</time>
      </trkpt>
      <trkpt lat="44.19157" lon="6.79809">
        <ele>1922.9</ele>
        <time>2013-07-13T10:04:10Z</time>
      </trkpt>
      <trkpt lat="44.19153" lon="6.79809">
        <ele>1922.7</ele>
        <time>2013-07-13T10:04:12Z</time>
      </trkpt>
      <trkpt lat="44.1915" lon="6.79806">
        <ele>1923.6</ele>
        <time>2013-07-13T10:04:15Z</time>
      </trkpt>
      <trkpt lat="44.19148" lon="6.79802">
        <ele>1925.1</ele>
        <time>2013-07-13T10:04:18Z</time>
      </trkpt>
      <trkpt lat="44.19146" lon="6.798">
        <ele>1926</ele>
        <time>2013-07-13T10:04:23Z</time>
      </trkpt>
      <trkpt lat="44.19144" lon="6.79796">
        <ele>1926.9</ele>
        <time>2013-07-13T10:04:28Z</time>
      </trkpt>
      <trkpt lat="44.19144" lon="6.79792">
        <ele>1928.2</ele>
        <time>2013-07-13T10:04:32Z</time>
      </trkpt>
      <trkpt lat="44.19141" lon="6.79788">
        <ele>1928.8</ele>
        <time>2013-07-13T10:04:35Z</time>
      </trkpt>
      <trkpt lat="44.19139" lon="6.79786">
        <ele>1929.8</ele>
        <time>2013-07-13T10:04:37Z</time>
      </trkpt>
      <trkpt lat="44.19136" lon="6.79789">
        <ele>1929.8</ele>
        <time>2013-07-13T10:04:40Z</time>
      </trkpt>
      <trkpt lat="44.19134" lon="6.79793">
        <ele>1929.9</ele>
        <time>2013-07-13T10:04:44Z</time>
      </trkpt>
      <trkpt lat="44.19133" lon="6.79796">
        <ele>1930.3</ele>
        <time>2013-07-13T10:04:49Z</time>
      </trkpt>
      <trkpt lat="44.19132" lon="6.798">
        <ele>1930.6</ele>
        <time>2013-07-13T10:04:55Z</time>
      </trkpt>
      <trkpt lat="44.19132" lon="6.79805">
        <ele>1930.4</ele>
        <time>2013-07-13T10:04:59Z</time>
      </trkpt>
      <trkpt lat="44.19134" lon="6.7981">
        <ele>1930.5</ele>
        <time>2013-07-13T10:05:02Z</time>
      </trkpt>
      <trkpt lat="44.19132" lon="6.79814">
        <ele>1930.6</ele>
        <time>2013-07-13T10:05:05Z</time>
      </trkpt>
      <trkpt lat="44.19129" lon="6.79818">
        <ele>1930.7</ele>
        <time>2013-07-13T10:05:07Z</time>
      </trkpt>
      <trkpt lat="44.19127" lon="6.79821">
        <ele>1931.4</ele>
        <time>2013-07-13T10:05:10Z</time>
      </trkpt>
      <trkpt lat="44.19125" lon="6.79824">
        <ele>1932.1</ele>
        <time>2013-07-13T10:05:13Z</time>
      </trkpt>
      <trkpt lat="44.19125" lon="6.79828">
        <ele>1932.8</ele>
        <time>2013-07-13T10:05:16Z</time>
      </trkpt>
      <trkpt lat="44.19127" lon="6.79833">
        <ele>1932.3</ele>
        <time>2013-07-13T10:05:18Z</time>
      </trkpt>
      <trkpt lat="44.19128" lon="6.79837">
        <ele>1931.9</ele>
        <time>2013-07-13T10:05:20Z</time>
      </trkpt>
      <trkpt lat="44.19128" lon="6.79843">
        <ele>1932</ele>
        <time>2013-07-13T10:05:23Z</time>
      </trkpt>
      <trkpt lat="44.19129" lon="6.79847">
        <ele>1932</ele>
        <time>2013-07-13T10:05:25Z</time>
      </trkpt>
      <trkpt lat="44.19128" lon="6.7985">
        <ele>1931.5</ele>
        <time>2013-07-13T10:05:27Z</time>
      </trkpt>
      <trkpt lat="44.19127" lon="6.79854">
        <ele>1933</ele>
        <time>2013-07-13T10:05:32Z</time>
      </trkpt>
      <trkpt lat="44.19124" lon="6.79856">
        <ele>1934.2</ele>
        <time>2013-07-13T10:05:35Z</time>
      </trkpt>
      <trkpt lat="44.19121" lon="6.79858">
        <ele>1935.8</ele>
        <time>2013-07-13T10:05:37Z</time>
      </trkpt>
      <trkpt lat="44.19118" lon="6.79859">
        <ele>1936.3</ele>
        <time>2013-07-13T10:05:40Z</time>
      </trkpt>
      <trkpt lat="44.19115" lon="6.79862">
        <ele>1936.6</ele>
        <time>2013-07-13T10:05:43Z</time>
      </trkpt>
      <trkpt lat="44.19114" lon="6.79866">
        <ele>1937.3</ele>
        <time>2013-07-13T10:05:46Z</time>
      </trkpt>
      <trkpt lat="44.19112" lon="6.7987">
        <ele>1938.1</ele>
        <time>2013-07-13T10:05:50Z</time>
      </trkpt>
      <trkpt lat="44.19112" lon="6.79874">
        <ele>1939.1</ele>
        <time>2013-07-13T10:05:54Z</time>
      </trkpt>
      <trkpt lat="44.19111" lon="6.79878">
        <ele>1939.4</ele>
        <time>2013-07-13T10:05:58Z</time>
      </trkpt>
      <trkpt lat="44.19109" lon="6.79881">
        <ele>1938.7</ele>
        <time>2013-07-13T10:06:02Z</time>
      </trkpt>
      <trkpt lat="44.19107" lon="6.79883">
        <ele>1938.9</ele>
        <time>2013-07-13T10:06:04Z</time>
      </trkpt>
      <trkpt lat="44.19105" lon="6.79887">
        <ele>1939.1</ele>
        <time>2013-07-13T10:06:08Z</time>
      </trkpt>
      <trkpt lat="44.19106" lon="6.79894">
        <ele>1939.2</ele>
        <time>2013-07-13T10:06:11Z</time>
      </trkpt>
      <trkpt lat="44.19105" lon="6.79899">
        <ele>1939.7</ele>
        <time>2013-07-13T10:06:14Z</time>
      </trkpt>
      <trkpt lat="44.19106" lon="6.79903">
        <ele>1939.7</ele>
        <time>2013-07-13T10:06:16Z</time>
      </trkpt>
      <trkpt lat="44.19104" lon="6.79907">
        <ele>1940.1</ele>
        <time>2013-07-13T10:06:19Z</time>
      </trkpt>
      <trkpt lat="44.19105" lon="6.79912">
        <ele>1940.4</ele>
        <time>2013-07-13T10:06:21Z</time>
      </trkpt>
      <trkpt lat="44.19104" lon="6.79917">
        <ele>1940.9</ele>
        <time>2013-07-13T10:06:24Z</time>
      </trkpt>
      <trkpt lat="44.19103" lon="6.79922">
        <ele>1941.3</ele>
        <time>2013-07-13T10:06:27Z</time>
      </trkpt>
      <trkpt lat="44.19102" lon="6.79926">
        <ele>1941.8</ele>
        <time>2013-07-13T10:06:30Z</time>
      </trkpt>
      <trkpt lat="44.191" lon="6.79929">
        <ele>1942.4</ele>
        <time>2013-07-13T10:06:34Z</time>
      </trkpt>
      <trkpt lat="44.19098" lon="6.79932">
        <ele>1943.2</ele>
        <time>2013-07-13T10:06:37Z</time>
      </trkpt>
      <trkpt lat="44.19095" lon="6.79937">
        <ele>1945</ele>
        <time>2013-07-13T10:06:40Z</time>
      </trkpt>
      <trkpt lat="44.19092" lon="6.79938">
        <ele>1946.5</ele>
        <time>2013-07-13T10:06:45Z</time>
      </trkpt>
      <trkpt lat="44.1909" lon="6.79942">
        <ele>1947.5</ele>
        <time>2013-07-13T10:06:49Z</time>
      </trkpt>
      <trkpt lat="44.19088" lon="6.79947">
        <ele>1948.3</ele>
        <time>2013-07-13T10:06:53Z</time>
      </trkpt>
      <trkpt lat="44.19085" lon="6.7995">
        <ele>1948.4</ele>
        <time>2013-07-13T10:06:55Z</time>
      </trkpt>
      <trkpt lat="44.19083" lon="6.79952">
        <ele>1948.9</ele>
        <time>2013-07-13T10:06:58Z</time>
      </trkpt>
      <trkpt lat="44.19081" lon="6.79955">
        <ele>1949.8</ele>
        <time>2013-07-13T10:07:01Z</time>
      </trkpt>
      <trkpt lat="44.19084" lon="6.79956">
        <ele>1952.7</ele>
        <time>2013-07-13T10:07:11Z</time>
      </trkpt>
      <trkpt lat="44.19087" lon="6.79955">
        <ele>1953.9</ele>
        <time>2013-07-13T10:07:14Z</time>
      </trkpt>
      <trkpt lat="44.19089" lon="6.79951">
        <ele>1956.6</ele>
        <time>2013-07-13T10:07:37Z</time>
      </trkpt>
      <trkpt lat="44.19089" lon="6.79947">
        <ele>1956.5</ele>
        <time>2013-07-13T10:07:43Z</time>
      </trkpt>
      <trkpt lat="44.19089" lon="6.79942">
        <ele>1957.3</ele>
        <time>2013-07-13T10:07:48Z</time>
      </trkpt>
      <trkpt lat="44.19088" lon="6.79938">
        <ele>1957</ele>
        <time>2013-07-13T10:07:53Z</time>
      </trkpt>
      <trkpt lat="44.19088" lon="6.79934">
        <ele>1956.9</ele>
        <time>2013-07-13T10:07:57Z</time>
      </trkpt>
      <trkpt lat="44.19086" lon="6.7993">
        <ele>1957.7</ele>
        <time>2013-07-13T10:08:00Z</time>
      </trkpt>
      <trkpt lat="44.19087" lon="6.79925">
        <ele>1959.2</ele>
        <time>2013-07-13T10:08:04Z</time>
      </trkpt>
      <trkpt lat="44.19086" lon="6.79922">
        <ele>1959.5</ele>
        <time>2013-07-13T10:08:07Z</time>
      </trkpt>
      <trkpt lat="44.19084" lon="6.79918">
        <ele>1959.8</ele>
        <time>2013-07-13T10:08:10Z</time>
      </trkpt>
      <trkpt lat="44.19083" lon="6.79914">
        <ele>1960</ele>
        <time>2013-07-13T10:08:13Z</time>
      </trkpt>
      <trkpt lat="44.19081" lon="6.7991">
        <ele>1960.3</ele>
        <time>2013-07-13T10:08:15Z</time>
      </trkpt>
      <trkpt lat="44.1908" lon="6.79907">
        <ele>1960.9</ele>
        <time>2013-07-13T10:08:18Z</time>
      </trkpt>
      <trkpt lat="44.19078" lon="6.79903">
        <ele>1960.2</ele>
        <time>2013-07-13T10:08:21Z</time>
      </trkpt>
      <trkpt lat="44.19075" lon="6.79899">
        <ele>1961.6</ele>
        <time>2013-07-13T10:08:25Z</time>
      </trkpt>
      <trkpt lat="44.19072" lon="6.79896">
        <ele>1961.8</ele>
        <time>2013-07-13T10:08:28Z</time>
      </trkpt>
      <trkpt lat="44.19068" lon="6.79891">
        <ele>1962.8</ele>
        <time>2013-07-13T10:08:31Z</time>
      </trkpt>
      <trkpt lat="44.19066" lon="6.79886">
        <ele>1963.9</ele>
        <time>2013-07-13T10:08:33Z</time>
      </trkpt>
      <trkpt lat="44.19063" lon="6.79883">
        <ele>1964.2</ele>
        <time>2013-07-13T10:08:35Z</time>
      </trkpt>
      <trkpt lat="44.19061" lon="6.7988">
        <ele>1964.8</ele>
        <time>2013-07-13T10:08:38Z</time>
      </trkpt>
      <trkpt lat="44.19059" lon="6.79875">
        <ele>1965.9</ele>
        <time>2013-07-13T10:08:41Z</time>
      </trkpt>
      <trkpt lat="44.19058" lon="6.7987">
        <ele>1966.9</ele>
        <time>2013-07-13T10:08:44Z</time>
      </trkpt>
      <trkpt lat="44.19056" lon="6.79867">
        <ele>1967.7</ele>
        <time>2013-07-13T10:08:46Z</time>
      </trkpt>
      <trkpt lat="44.19055" lon="6.79864">
        <ele>1968.7</ele>
        <time>2013-07-13T10:08:48Z</time>
      </trkpt>
      <trkpt lat="44.19053" lon="6.79859">
        <ele>1969.7</ele>
        <time>2013-07-13T10:08:51Z</time>
      </trkpt>
      <trkpt lat="44.19051" lon="6.79855">
        <ele>1970.8</ele>
        <time>2013-07-13T10:08:54Z</time>
      </trkpt>
      <trkpt lat="44.19049" lon="6.79851">
        <ele>1971.1</ele>
        <time>2013-07-13T10:08:57Z</time>
      </trkpt>
      <trkpt lat="44.19047" lon="6.79847">
        <ele>1971.4</ele>
        <time>2013-07-13T10:09:00Z</time>
      </trkpt>
      <trkpt lat="44.19045" lon="6.79843">
        <ele>1971.8</ele>
        <time>2013-07-13T10:09:03Z</time>
      </trkpt>
      <trkpt lat="44.19044" lon="6.7984">
        <ele>1972.2</ele>
        <time>2013-07-13T10:09:06Z</time>
      </trkpt>
      <trkpt lat="44.19042" lon="6.79835">
        <ele>1972.8</ele>
        <time>2013-07-13T10:09:09Z</time>
      </trkpt>
      <trkpt lat="44.19042" lon="6.7983">
        <ele>1973.3</ele>
        <time>2013-07-13T10:09:12Z</time>
      </trkpt>
      <trkpt lat="44.19042" lon="6.79826">
        <ele>1973.8</ele>
        <time>2013-07-13T10:09:15Z</time>
      </trkpt>
      <trkpt lat="44.1904" lon="6.79822">
        <ele>1973.8</ele>
        <time>2013-07-13T10:09:18Z</time>
      </trkpt>
      <trkpt lat="44.19036" lon="6.79818">
        <ele>1974.2</ele>
        <time>2013-07-13T10:09:21Z</time>
      </trkpt>
      <trkpt lat="44.19033" lon="6.79814">
        <ele>1974.3</ele>
        <time>2013-07-13T10:09:24Z</time>
      </trkpt>
      <trkpt lat="44.1903" lon="6.79811">
        <ele>1974.7</ele>
        <time>2013-07-13T10:09:26Z</time>
      </trkpt>
      <trkpt lat="44.19028" lon="6.79808">
        <ele>1975.1</ele>
        <time>2013-07-13T10:09:28Z</time>
      </trkpt>
      <trkpt lat="44.19026" lon="6.79806">
        <ele>1975.3</ele>
        <time>2013-07-13T10:09:30Z</time>
      </trkpt>
      <trkpt lat="44.19024" lon="6.79802">
        <ele>1976</ele>
        <time>2013-07-13T10:09:33Z</time>
      </trkpt>
      <trkpt lat="44.19021" lon="6.79798">
        <ele>1976.4</ele>
        <time>2013-07-13T10:09:36Z</time>
      </trkpt>
      <trkpt lat="44.19019" lon="6.79796">
        <ele>1976.7</ele>
        <time>2013-07-13T10:09:38Z</time>
      </trkpt>
      <trkpt lat="44.19017" lon="6.79792">
        <ele>1977.5</ele>
        <time>2013-07-13T10:09:41Z</time>
      </trkpt>
      <trkpt lat="44.19016" lon="6.79789">
        <ele>1978.6</ele>
        <time>2013-07-13T10:09:44Z</time>
      </trkpt>
      <trkpt lat="44.19014" lon="6.79785">
        <ele>1980</ele>
        <time>2013-07-13T10:09:49Z</time>
      </trkpt>
      <trkpt lat="44.19012" lon="6.79782">
        <ele>1980.2</ele>
        <time>2013-07-13T10:09:51Z</time>
      </trkpt>
      <trkpt lat="44.19009" lon="6.7978">
        <ele>1979.9</ele>
        <time>2013-07-13T10:09:53Z</time>
      </trkpt>
      <trkpt lat="44.19008" lon="6.79777">
        <ele>1980.9</ele>
        <time>2013-07-13T10:09:57Z</time>
      </trkpt>
      <trkpt lat="44.19006" lon="6.79774">
        <ele>1981.3</ele>
        <time>2013-07-13T10:09:59Z</time>
      </trkpt>
      <trkpt lat="44.19005" lon="6.79768">
        <ele>1982.4</ele>
        <time>2013-07-13T10:10:09Z</time>
      </trkpt>
      <trkpt lat="44.19003" lon="6.79765">
        <ele>1982.9</ele>
        <time>2013-07-13T10:10:13Z</time>
      </trkpt>
      <trkpt lat="44.19" lon="6.79763">
        <ele>1983.1</ele>
        <time>2013-07-13T10:10:17Z</time>
      </trkpt>
      <trkpt lat="44.18997" lon="6.79763">
        <ele>1983.3</ele>
        <time>2013-07-13T10:10:20Z</time>
      </trkpt>
      <trkpt lat="44.18993" lon="6.79762">
        <ele>1984.2</ele>
        <time>2013-07-13T10:10:24Z</time>
      </trkpt>
      <trkpt lat="44.18991" lon="6.7976">
        <ele>1984.9</ele>
        <time>2013-07-13T10:10:27Z</time>
      </trkpt>
      <trkpt lat="44.18987" lon="6.79759">
        <ele>1985.6</ele>
        <time>2013-07-13T10:10:30Z</time>
      </trkpt>
      <trkpt lat="44.18986" lon="6.79756">
        <ele>1986.2</ele>
        <time>2013-07-13T10:10:33Z</time>
      </trkpt>
      <trkpt lat="44.18983" lon="6.79752">
        <ele>1986.2</ele>
        <time>2013-07-13T10:10:36Z</time>
      </trkpt>
      <trkpt lat="44.18981" lon="6.7975">
        <ele>1986.4</ele>
        <time>2013-07-13T10:10:39Z</time>
      </trkpt>
      <trkpt lat="44.18978" lon="6.79747">
        <ele>1986.7</ele>
        <time>2013-07-13T10:10:43Z</time>
      </trkpt>
      <trkpt lat="44.18975" lon="6.79747">
        <ele>1986.3</ele>
        <time>2013-07-13T10:10:46Z</time>
      </trkpt>
      <trkpt lat="44.18973" lon="6.79744">
        <ele>1986.4</ele>
        <time>2013-07-13T10:10:50Z</time>
      </trkpt>
      <trkpt lat="44.18971" lon="6.79742">
        <ele>1986.4</ele>
        <time>2013-07-13T10:10:54Z</time>
      </trkpt>
      <trkpt lat="44.18968" lon="6.79739">
        <ele>1987.2</ele>
        <time>2013-07-13T10:10:58Z</time>
      </trkpt>
      <trkpt lat="44.18968" lon="6.79735">
        <ele>1987.5</ele>
        <time>2013-07-13T10:11:02Z</time>
      </trkpt>
      <trkpt lat="44.18966" lon="6.79731">
        <ele>1987.7</ele>
        <time>2013-07-13T10:11:06Z</time>
      </trkpt>
      <trkpt lat="44.18963" lon="6.79729">
        <ele>1988.6</ele>
        <time>2013-07-13T10:11:09Z</time>
      </trkpt>
      <trkpt lat="44.18962" lon="6.79725">
        <ele>1990.1</ele>
        <time>2013-07-13T10:11:13Z</time>
      </trkpt>
      <trkpt lat="44.18959" lon="6.79723">
        <ele>1991.1</ele>
        <time>2013-07-13T10:11:16Z</time>
      </trkpt>
      <trkpt lat="44.18958" lon="6.79719">
        <ele>1992.4</ele>
        <time>2013-07-13T10:11:22Z</time>
      </trkpt>
      <trkpt lat="44.18955" lon="6.79717">
        <ele>1993.6</ele>
        <time>2013-07-13T10:11:25Z</time>
      </trkpt>
      <trkpt lat="44.18953" lon="6.79715">
        <ele>1994.9</ele>
        <time>2013-07-13T10:11:29Z</time>
      </trkpt>
      <trkpt lat="44.1895" lon="6.79713">
        <ele>1995.8</ele>
        <time>2013-07-13T10:11:32Z</time>
      </trkpt>
      <trkpt lat="44.18949" lon="6.79709">
        <ele>1996.9</ele>
        <time>2013-07-13T10:11:36Z</time>
      </trkpt>
      <trkpt lat="44.18947" lon="6.79706">
        <ele>1997.8</ele>
        <time>2013-07-13T10:11:40Z</time>
      </trkpt>
      <trkpt lat="44.18945" lon="6.79709">
        <ele>1998.2</ele>
        <time>2013-07-13T10:11:48Z</time>
      </trkpt>
      <trkpt lat="44.18944" lon="6.79712">
        <ele>1998.4</ele>
        <time>2013-07-13T10:11:52Z</time>
      </trkpt>
      <trkpt lat="44.18944" lon="6.79717">
        <ele>1998.2</ele>
        <time>2013-07-13T10:11:56Z</time>
      </trkpt>
      <trkpt lat="44.18944" lon="6.79721">
        <ele>1997.7</ele>
        <time>2013-07-13T10:12:02Z</time>
      </trkpt>
      <trkpt lat="44.18944" lon="6.79725">
        <ele>2001.1</ele>
        <time>2013-07-13T10:13:22Z</time>
      </trkpt>
      <trkpt lat="44.18945" lon="6.79729">
        <ele>2001.6</ele>
        <time>2013-07-13T10:13:27Z</time>
      </trkpt>
      <trkpt lat="44.18945" lon="6.79733">
        <ele>2001.3</ele>
        <time>2013-07-13T10:13:30Z</time>
      </trkpt>
      <trkpt lat="44.18945" lon="6.79737">
        <ele>2001.3</ele>
        <time>2013-07-13T10:13:32Z</time>
      </trkpt>
      <trkpt lat="44.18947" lon="6.79741">
        <ele>2001.7</ele>
        <time>2013-07-13T10:13:35Z</time>
      </trkpt>
      <trkpt lat="44.18949" lon="6.79745">
        <ele>2002.2</ele>
        <time>2013-07-13T10:13:38Z</time>
      </trkpt>
      <trkpt lat="44.1895" lon="6.7975">
        <ele>2002.5</ele>
        <time>2013-07-13T10:13:42Z</time>
      </trkpt>
      <trkpt lat="44.1895" lon="6.79754">
        <ele>2002.5</ele>
        <time>2013-07-13T10:13:44Z</time>
      </trkpt>
      <trkpt lat="44.1895" lon="6.79758">
        <ele>2002.7</ele>
        <time>2013-07-13T10:13:47Z</time>
      </trkpt>
      <trkpt lat="44.18948" lon="6.79761">
        <ele>2002.8</ele>
        <time>2013-07-13T10:13:50Z</time>
      </trkpt>
      <trkpt lat="44.18947" lon="6.79765">
        <ele>2003.3</ele>
        <time>2013-07-13T10:13:54Z</time>
      </trkpt>
      <trkpt lat="44.18946" lon="6.79769">
        <ele>2003.4</ele>
        <time>2013-07-13T10:13:58Z</time>
      </trkpt>
      <trkpt lat="44.18947" lon="6.79775">
        <ele>2003.1</ele>
        <time>2013-07-13T10:14:01Z</time>
      </trkpt>
      <trkpt lat="44.18948" lon="6.79778">
        <ele>2003.1</ele>
        <time>2013-07-13T10:14:03Z</time>
      </trkpt>
      <trkpt lat="44.18949" lon="6.79782">
        <ele>2003</ele>
        <time>2013-07-13T10:14:05Z</time>
      </trkpt>
      <trkpt lat="44.18951" lon="6.79786">
        <ele>2003</ele>
        <time>2013-07-13T10:14:08Z</time>
      </trkpt>
      <trkpt lat="44.18952" lon="6.79791">
        <ele>2003</ele>
        <time>2013-07-13T10:14:11Z</time>
      </trkpt>
      <trkpt lat="44.18954" lon="6.79794">
        <ele>2003.3</ele>
        <time>2013-07-13T10:14:14Z</time>
      </trkpt>
      <trkpt lat="44.18955" lon="6.79799">
        <ele>2003.4</ele>
        <time>2013-07-13T10:14:17Z</time>
      </trkpt>
      <trkpt lat="44.18954" lon="6.79804">
        <ele>2003.9</ele>
        <time>2013-07-13T10:14:21Z</time>
      </trkpt>
      <trkpt lat="44.18952" lon="6.79808">
        <ele>2004.3</ele>
        <time>2013-07-13T10:14:24Z</time>
      </trkpt>
      <trkpt lat="44.18951" lon="6.79812">
        <ele>2004.8</ele>
        <time>2013-07-13T10:14:27Z</time>
      </trkpt>
      <trkpt lat="44.18951" lon="6.79816">
        <ele>2005.2</ele>
        <time>2013-07-13T10:14:31Z</time>
      </trkpt>
      <trkpt lat="44.18949" lon="6.79822">
        <ele>2005.1</ele>
        <time>2013-07-13T10:14:34Z</time>
      </trkpt>
      <trkpt lat="44.18948" lon="6.79826">
        <ele>2004.9</ele>
        <time>2013-07-13T10:14:36Z</time>
      </trkpt>
      <trkpt lat="44.1895" lon="6.7983">
        <ele>2005.2</ele>
        <time>2013-07-13T10:14:39Z</time>
      </trkpt>
      <trkpt lat="44.18949" lon="6.79834">
        <ele>2005.6</ele>
        <time>2013-07-13T10:14:42Z</time>
      </trkpt>
      <trkpt lat="44.18948" lon="6.79838">
        <ele>2005.9</ele>
        <time>2013-07-13T10:14:45Z</time>
      </trkpt>
      <trkpt lat="44.18948" lon="6.79842">
        <ele>2006.1</ele>
        <time>2013-07-13T10:14:48Z</time>
      </trkpt>
      <trkpt lat="44.18947" lon="6.79846">
        <ele>2006.5</ele>
        <time>2013-07-13T10:14:51Z</time>
      </trkpt>
      <trkpt lat="44.18946" lon="6.7985">
        <ele>2006.4</ele>
        <time>2013-07-13T10:14:54Z</time>
      </trkpt>
      <trkpt lat="44.18946" lon="6.79854">
        <ele>2006.5</ele>
        <time>2013-07-13T10:14:57Z</time>
      </trkpt>
      <trkpt lat="44.18947" lon="6.79858">
        <ele>2006.4</ele>
        <time>2013-07-13T10:15:00Z</time>
      </trkpt>
      <trkpt lat="44.18948" lon="6.79863">
        <ele>2006.8</ele>
        <time>2013-07-13T10:15:03Z</time>
      </trkpt>
      <trkpt lat="44.18949" lon="6.79867">
        <ele>2007.2</ele>
        <time>2013-07-13T10:15:06Z</time>
      </trkpt>
      <trkpt lat="44.18949" lon="6.79872">
        <ele>2006.9</ele>
        <time>2013-07-13T10:15:09Z</time>
      </trkpt>
      <trkpt lat="44.18949" lon="6.79876">
        <ele>2007.2</ele>
        <time>2013-07-13T10:15:11Z</time>
      </trkpt>
      <trkpt lat="44.1895" lon="6.7988">
        <ele>2007.3</ele>
        <time>2013-07-13T10:15:14Z</time>
      </trkpt>
      <trkpt lat="44.1895" lon="6.79885">
        <ele>2007.3</ele>
        <time>2013-07-13T10:15:17Z</time>
      </trkpt>
      <trkpt lat="44.1895" lon="6.79889">
        <ele>2007.6</ele>
        <time>2013-07-13T10:15:20Z</time>
      </trkpt>
      <trkpt lat="44.18948" lon="6.79894">
        <ele>2009.3</ele>
        <time>2013-07-13T10:15:25Z</time>
      </trkpt>
      <trkpt lat="44.18948" lon="6.79899">
        <ele>2008.6</ele>
        <time>2013-07-13T10:15:36Z</time>
      </trkpt>
      <trkpt lat="44.18949" lon="6.79903">
        <ele>2009.1</ele>
        <time>2013-07-13T10:15:39Z</time>
      </trkpt>
      <trkpt lat="44.18948" lon="6.79908">
        <ele>2009.9</ele>
        <time>2013-07-13T10:15:43Z</time>
      </trkpt>
      <trkpt lat="44.18949" lon="6.79911">
        <ele>2010.1</ele>
        <time>2013-07-13T10:15:46Z</time>
      </trkpt>
      <trkpt lat="44.18948" lon="6.79916">
        <ele>2011.1</ele>
        <time>2013-07-13T10:15:49Z</time>
      </trkpt>
      <trkpt lat="44.18946" lon="6.7992">
        <ele>2011.6</ele>
        <time>2013-07-13T10:15:51Z</time>
      </trkpt>
      <trkpt lat="44.18945" lon="6.79923">
        <ele>2012.4</ele>
        <time>2013-07-13T10:15:55Z</time>
      </trkpt>
      <trkpt lat="44.18944" lon="6.79928">
        <ele>2012.9</ele>
        <time>2013-07-13T10:15:59Z</time>
      </trkpt>
      <trkpt lat="44.18944" lon="6.79933">
        <ele>2013.4</ele>
        <time>2013-07-13T10:16:02Z</time>
      </trkpt>
      <trkpt lat="44.18943" lon="6.79936">
        <ele>2013.9</ele>
        <time>2013-07-13T10:16:05Z</time>
      </trkpt>
      <trkpt lat="44.18943" lon="6.79941">
        <ele>2014.6</ele>
        <time>2013-07-13T10:16:09Z</time>
      </trkpt>
      <trkpt lat="44.18943" lon="6.79945">
        <ele>2014.9</ele>
        <time>2013-07-13T10:16:12Z</time>
      </trkpt>
      <trkpt lat="44.18944" lon="6.7995">
        <ele>2014.7</ele>
        <time>2013-07-13T10:16:16Z</time>
      </trkpt>
      <trkpt lat="44.18944" lon="6.79954">
        <ele>2014.6</ele>
        <time>2013-07-13T10:16:19Z</time>
      </trkpt>
      <trkpt lat="44.18944" lon="6.79958">
        <ele>2015.3</ele>
        <time>2013-07-13T10:16:24Z</time>
      </trkpt>
      <trkpt lat="44.18943" lon="6.79963">
        <ele>2015.9</ele>
        <time>2013-07-13T10:16:28Z</time>
      </trkpt>
      <trkpt lat="44.18942" lon="6.79966">
        <ele>2017</ele>
        <time>2013-07-13T10:16:30Z</time>
      </trkpt>
      <trkpt lat="44.18941" lon="6.7997">
        <ele>2017.8</ele>
        <time>2013-07-13T10:16:32Z</time>
      </trkpt>
      <trkpt lat="44.1894" lon="6.79974">
        <ele>2018</ele>
        <time>2013-07-13T10:16:35Z</time>
      </trkpt>
      <trkpt lat="44.1894" lon="6.79978">
        <ele>2017.9</ele>
        <time>2013-07-13T10:16:38Z</time>
      </trkpt>
      <trkpt lat="44.18942" lon="6.79982">
        <ele>2017.7</ele>
        <time>2013-07-13T10:16:41Z</time>
      </trkpt>
      <trkpt lat="44.18943" lon="6.79986">
        <ele>2017.9</ele>
        <time>2013-07-13T10:16:44Z</time>
      </trkpt>
      <trkpt lat="44.18944" lon="6.7999">
        <ele>2017.9</ele>
        <time>2013-07-13T10:16:47Z</time>
      </trkpt>
      <trkpt lat="44.18945" lon="6.79993">
        <ele>2018.1</ele>
        <time>2013-07-13T10:16:51Z</time>
      </trkpt>
      <trkpt lat="44.18945" lon="6.79998">
        <ele>2018.9</ele>
        <time>2013-07-13T10:16:55Z</time>
      </trkpt>
      <trkpt lat="44.18944" lon="6.80003">
        <ele>2019.5</ele>
        <time>2013-07-13T10:16:59Z</time>
      </trkpt>
      <trkpt lat="44.18946" lon="6.80008">
        <ele>2019.8</ele>
        <time>2013-07-13T10:17:02Z</time>
      </trkpt>
      <trkpt lat="44.18946" lon="6.80012">
        <ele>2019.9</ele>
        <time>2013-07-13T10:17:05Z</time>
      </trkpt>
      <trkpt lat="44.18947" lon="6.80017">
        <ele>2019.7</ele>
        <time>2013-07-13T10:17:07Z</time>
      </trkpt>
      <trkpt lat="44.18948" lon="6.8002">
        <ele>2019.9</ele>
        <time>2013-07-13T10:17:09Z</time>
      </trkpt>
      <trkpt lat="44.18949" lon="6.80025">
        <ele>2020</ele>
        <time>2013-07-13T10:17:11Z</time>
      </trkpt>
      <trkpt lat="44.18949" lon="6.80029">
        <ele>2020</ele>
        <time>2013-07-13T10:17:13Z</time>
      </trkpt>
      <trkpt lat="44.18949" lon="6.80034">
        <ele>2019.9</ele>
        <time>2013-07-13T10:17:15Z</time>
      </trkpt>
      <trkpt lat="44.1895" lon="6.80039">
        <ele>2020</ele>
        <time>2013-07-13T10:17:17Z</time>
      </trkpt>
      <trkpt lat="44.18951" lon="6.80043">
        <ele>2020.2</ele>
        <time>2013-07-13T10:17:19Z</time>
      </trkpt>
      <trkpt lat="44.18953" lon="6.80048">
        <ele>2020.3</ele>
        <time>2013-07-13T10:17:22Z</time>
      </trkpt>
      <trkpt lat="44.18953" lon="6.80052">
        <ele>2020.1</ele>
        <time>2013-07-13T10:17:24Z</time>
      </trkpt>
      <trkpt lat="44.18953" lon="6.80056">
        <ele>2020</ele>
        <time>2013-07-13T10:17:27Z</time>
      </trkpt>
      <trkpt lat="44.18952" lon="6.8006">
        <ele>2021.7</ele>
        <time>2013-07-13T10:17:33Z</time>
      </trkpt>
      <trkpt lat="44.1895" lon="6.80063">
        <ele>2022.4</ele>
        <time>2013-07-13T10:17:36Z</time>
      </trkpt>
      <trkpt lat="44.18949" lon="6.80067">
        <ele>2022.8</ele>
        <time>2013-07-13T10:17:39Z</time>
      </trkpt>
      <trkpt lat="44.18947" lon="6.80069">
        <ele>2024.4</ele>
        <time>2013-07-13T10:17:46Z</time>
      </trkpt>
      <trkpt lat="44.18945" lon="6.80073">
        <ele>2025.1</ele>
        <time>2013-07-13T10:17:51Z</time>
      </trkpt>
      <trkpt lat="44.18945" lon="6.80077">
        <ele>2025.7</ele>
        <time>2013-07-13T10:17:54Z</time>
      </trkpt>
      <trkpt lat="44.18946" lon="6.80081">
        <ele>2026.5</ele>
        <time>2013-07-13T10:17:58Z</time>
      </trkpt>
      <trkpt lat="44.18948" lon="6.80086">
        <ele>2026.6</ele>
        <time>2013-07-13T10:18:02Z</time>
      </trkpt>
      <trkpt lat="44.18949" lon="6.80089">
        <ele>2027.8</ele>
        <time>2013-07-13T10:18:06Z</time>
      </trkpt>
      <trkpt lat="44.18951" lon="6.80093">
        <ele>2028.7</ele>
        <time>2013-07-13T10:18:10Z</time>
      </trkpt>
      <trkpt lat="44.18953" lon="6.80097">
        <ele>2029.8</ele>
        <time>2013-07-13T10:18:18Z</time>
      </trkpt>
      <trkpt lat="44.18955" lon="6.80101">
        <ele>2029.5</ele>
        <time>2013-07-13T10:18:21Z</time>
      </trkpt>
      <trkpt lat="44.18957" lon="6.80103">
        <ele>2029.2</ele>
        <time>2013-07-13T10:18:23Z</time>
      </trkpt>
      <trkpt lat="44.1896" lon="6.80106">
        <ele>2029.5</ele>
        <time>2013-07-13T10:18:26Z</time>
      </trkpt>
      <trkpt lat="44.18963" lon="6.80108">
        <ele>2029.7</ele>
        <time>2013-07-13T10:18:28Z</time>
      </trkpt>
      <trkpt lat="44.18964" lon="6.80111">
        <ele>2030.3</ele>
        <time>2013-07-13T10:18:32Z</time>
      </trkpt>
      <trkpt lat="44.18966" lon="6.80115">
        <ele>2031</ele>
        <time>2013-07-13T10:18:36Z</time>
      </trkpt>
      <trkpt lat="44.18967" lon="6.80119">
        <ele>2031.5</ele>
        <time>2013-07-13T10:18:40Z</time>
      </trkpt>
      <trkpt lat="44.18968" lon="6.80122">
        <ele>2032.4</ele>
        <time>2013-07-13T10:18:44Z</time>
      </trkpt>
      <trkpt lat="44.18972" lon="6.80124">
        <ele>2035.7</ele>
        <time>2013-07-13T10:18:59Z</time>
      </trkpt>
      <trkpt lat="44.18974" lon="6.80127">
        <ele>2035.9</ele>
        <time>2013-07-13T10:19:03Z</time>
      </trkpt>
      <trkpt lat="44.18975" lon="6.80131">
        <ele>2035.7</ele>
        <time>2013-07-13T10:19:06Z</time>
      </trkpt>
      <trkpt lat="44.18977" lon="6.80134">
        <ele>2036</ele>
        <time>2013-07-13T10:19:09Z</time>
      </trkpt>
      <trkpt lat="44.18978" lon="6.80138">
        <ele>2035.9</ele>
        <time>2013-07-13T10:19:12Z</time>
      </trkpt>
      <trkpt lat="44.18979" lon="6.80143">
        <ele>2035.8</ele>
        <time>2013-07-13T10:19:15Z</time>
      </trkpt>
      <trkpt lat="44.18981" lon="6.80147">
        <ele>2035.9</ele>
        <time>2013-07-13T10:19:18Z</time>
      </trkpt>
      <trkpt lat="44.18981" lon="6.80151">
        <ele>2035.4</ele>
        <time>2013-07-13T10:19:20Z</time>
      </trkpt>
      <trkpt lat="44.18982" lon="6.80156">
        <ele>2035.2</ele>
        <time>2013-07-13T10:19:22Z</time>
      </trkpt>
      <trkpt lat="44.18983" lon="6.8016">
        <ele>2035</ele>
        <time>2013-07-13T10:19:24Z</time>
      </trkpt>
      <trkpt lat="44.18984" lon="6.80164">
        <ele>2035.1</ele>
        <time>2013-07-13T10:19:27Z</time>
      </trkpt>
      <trkpt lat="44.18985" lon="6.80168">
        <ele>2034.9</ele>
        <time>2013-07-13T10:19:29Z</time>
      </trkpt>
      <trkpt lat="44.18986" lon="6.80172">
        <ele>2034.9</ele>
        <time>2013-07-13T10:19:31Z</time>
      </trkpt>
      <trkpt lat="44.18988" lon="6.80176">
        <ele>2034.8</ele>
        <time>2013-07-13T10:19:33Z</time>
      </trkpt>
      <trkpt lat="44.18989" lon="6.8018">
        <ele>2034.5</ele>
        <time>2013-07-13T10:19:35Z</time>
      </trkpt>
      <trkpt lat="44.1899" lon="6.80185">
        <ele>2034.1</ele>
        <time>2013-07-13T10:19:37Z</time>
      </trkpt>
      <trkpt lat="44.18991" lon="6.80189">
        <ele>2034.1</ele>
        <time>2013-07-13T10:19:39Z</time>
      </trkpt>
      <trkpt lat="44.1899" lon="6.80195">
        <ele>2034.3</ele>
        <time>2013-07-13T10:19:42Z</time>
      </trkpt>
      <trkpt lat="44.18988" lon="6.80199">
        <ele>2034.5</ele>
        <time>2013-07-13T10:19:44Z</time>
      </trkpt>
      <trkpt lat="44.18989" lon="6.80204">
        <ele>2034.8</ele>
        <time>2013-07-13T10:19:46Z</time>
      </trkpt>
      <trkpt lat="44.1899" lon="6.80208">
        <ele>2034.8</ele>
        <time>2013-07-13T10:19:48Z</time>
      </trkpt>
      <trkpt lat="44.18991" lon="6.80213">
        <ele>2035.2</ele>
        <time>2013-07-13T10:19:51Z</time>
      </trkpt>
      <trkpt lat="44.18991" lon="6.80217">
        <ele>2036</ele>
        <time>2013-07-13T10:19:54Z</time>
      </trkpt>
      <trkpt lat="44.18993" lon="6.8022">
        <ele>2036.9</ele>
        <time>2013-07-13T10:19:58Z</time>
      </trkpt>
      <trkpt lat="44.18993" lon="6.80224">
        <ele>2037.4</ele>
        <time>2013-07-13T10:20:00Z</time>
      </trkpt>
      <trkpt lat="44.18993" lon="6.80229">
        <ele>2037.8</ele>
        <time>2013-07-13T10:20:03Z</time>
      </trkpt>
      <trkpt lat="44.18994" lon="6.80233">
        <ele>2037.9</ele>
        <time>2013-07-13T10:20:05Z</time>
      </trkpt>
      <trkpt lat="44.18996" lon="6.80238">
        <ele>2037.8</ele>
        <time>2013-07-13T10:20:07Z</time>
      </trkpt>
      <trkpt lat="44.18998" lon="6.80244">
        <ele>2037.3</ele>
        <time>2013-07-13T10:20:09Z</time>
      </trkpt>
      <trkpt lat="44.19" lon="6.8025">
        <ele>2036.8</ele>
        <time>2013-07-13T10:20:11Z</time>
      </trkpt>
      <trkpt lat="44.19001" lon="6.80253">
        <ele>2036.6</ele>
        <time>2013-07-13T10:20:13Z</time>
      </trkpt>
      <trkpt lat="44.19002" lon="6.80257">
        <ele>2036.1</ele>
        <time>2013-07-13T10:20:15Z</time>
      </trkpt>
      <trkpt lat="44.19002" lon="6.80261">
        <ele>2035.9</ele>
        <time>2013-07-13T10:20:17Z</time>
      </trkpt>
      <trkpt lat="44.19003" lon="6.80265">
        <ele>2036</ele>
        <time>2013-07-13T10:20:19Z</time>
      </trkpt>
      <trkpt lat="44.19004" lon="6.80269">
        <ele>2036.2</ele>
        <time>2013-07-13T10:20:21Z</time>
      </trkpt>
      <trkpt lat="44.19004" lon="6.80273">
        <ele>2036.8</ele>
        <time>2013-07-13T10:20:28Z</time>
      </trkpt>
      <trkpt lat="44.19006" lon="6.80274">
        <ele>2038.2</ele>
        <time>2013-07-13T10:20:34Z</time>
      </trkpt>
      <trkpt lat="44.1901" lon="6.80275">
        <ele>2037.9</ele>
        <time>2013-07-13T10:21:01Z</time>
      </trkpt>
      <trkpt lat="44.1901" lon="6.80279">
        <ele>2037.9</ele>
        <time>2013-07-13T10:21:04Z</time>
      </trkpt>
      <trkpt lat="44.1901" lon="6.80284">
        <ele>2036.9</ele>
        <time>2013-07-13T10:21:06Z</time>
      </trkpt>
      <trkpt lat="44.19012" lon="6.8029">
        <ele>2034.8</ele>
        <time>2013-07-13T10:21:09Z</time>
      </trkpt>
      <trkpt lat="44.19012" lon="6.80294">
        <ele>2034.9</ele>
        <time>2013-07-13T10:21:11Z</time>
      </trkpt>
      <trkpt lat="44.19013" lon="6.80299">
        <ele>2034.5</ele>
        <time>2013-07-13T10:21:13Z</time>
      </trkpt>
      <trkpt lat="44.19014" lon="6.80305">
        <ele>2033.7</ele>
        <time>2013-07-13T10:21:15Z</time>
      </trkpt>
      <trkpt lat="44.19015" lon="6.8031">
        <ele>2031.5</ele>
        <time>2013-07-13T10:21:17Z</time>
      </trkpt>
      <trkpt lat="44.19015" lon="6.80319">
        <ele>2031.3</ele>
        <time>2013-07-13T10:21:19Z</time>
      </trkpt>
      <trkpt lat="44.19015" lon="6.80328">
        <ele>2031.1</ele>
        <time>2013-07-13T10:21:21Z</time>
      </trkpt>
      <trkpt lat="44.19017" lon="6.80338">
        <ele>2030.2</ele>
        <time>2013-07-13T10:21:23Z</time>
      </trkpt>
      <trkpt lat="44.19018" lon="6.80343">
        <ele>2030</ele>
        <time>2013-07-13T10:21:24Z</time>
      </trkpt>
      <trkpt lat="44.19019" lon="6.80351">
        <ele>2029.7</ele>
        <time>2013-07-13T10:21:26Z</time>
      </trkpt>
      <trkpt lat="44.19021" lon="6.80358">
        <ele>2030.2</ele>
        <time>2013-07-13T10:21:28Z</time>
      </trkpt>
      <trkpt lat="44.19022" lon="6.80365">
        <ele>2030.6</ele>
        <time>2013-07-13T10:21:30Z</time>
      </trkpt>
      <trkpt lat="44.19024" lon="6.8037">
        <ele>2030.8</ele>
        <time>2013-07-13T10:21:32Z</time>
      </trkpt>
      <trkpt lat="44.19025" lon="6.80376">
        <ele>2031</ele>
        <time>2013-07-13T10:21:34Z</time>
      </trkpt>
      <trkpt lat="44.19024" lon="6.80382">
        <ele>2031.3</ele>
        <time>2013-07-13T10:21:36Z</time>
      </trkpt>
      <trkpt lat="44.19023" lon="6.80387">
        <ele>2031.8</ele>
        <time>2013-07-13T10:21:38Z</time>
      </trkpt>
      <trkpt lat="44.19019" lon="6.80394">
        <ele>2032.2</ele>
        <time>2013-07-13T10:21:40Z</time>
      </trkpt>
      <trkpt lat="44.19014" lon="6.80403">
        <ele>2032.2</ele>
        <time>2013-07-13T10:21:43Z</time>
      </trkpt>
      <trkpt lat="44.19011" lon="6.80412">
        <ele>2032.2</ele>
        <time>2013-07-13T10:21:45Z</time>
      </trkpt>
      <trkpt lat="44.19006" lon="6.80421">
        <ele>2032.8</ele>
        <time>2013-07-13T10:21:48Z</time>
      </trkpt>
      <trkpt lat="44.19002" lon="6.80428">
        <ele>2033.6</ele>
        <time>2013-07-13T10:21:50Z</time>
      </trkpt>
      <trkpt lat="44.18999" lon="6.80435">
        <ele>2034.1</ele>
        <time>2013-07-13T10:21:52Z</time>
      </trkpt>
      <trkpt lat="44.18993" lon="6.80443">
        <ele>2034.5</ele>
        <time>2013-07-13T10:21:55Z</time>
      </trkpt>
      <trkpt lat="44.1899" lon="6.80448">
        <ele>2035.1</ele>
        <time>2013-07-13T10:21:57Z</time>
      </trkpt>
      <trkpt lat="44.18988" lon="6.80452">
        <ele>2035.2</ele>
        <time>2013-07-13T10:22:00Z</time>
      </trkpt>
      <trkpt lat="44.18986" lon="6.80456">
        <ele>2034.6</ele>
        <time>2013-07-13T10:22:03Z</time>
      </trkpt>
      <trkpt lat="44.18983" lon="6.80459">
        <ele>2034.3</ele>
        <time>2013-07-13T10:22:05Z</time>
      </trkpt>
      <trkpt lat="44.18981" lon="6.80461">
        <ele>2034</ele>
        <time>2013-07-13T10:22:07Z</time>
      </trkpt>
      <trkpt lat="44.18973" lon="6.80471">
        <ele>2032.8</ele>
        <time>2013-07-13T10:22:10Z</time>
      </trkpt>
      <trkpt lat="44.18974" lon="6.80475">
        <ele>2032.6</ele>
        <time>2013-07-13T10:22:12Z</time>
      </trkpt>
      <trkpt lat="44.18974" lon="6.8048">
        <ele>2032.5</ele>
        <time>2013-07-13T10:22:14Z</time>
      </trkpt>
      <trkpt lat="44.18974" lon="6.80484">
        <ele>2032.1</ele>
        <time>2013-07-13T10:22:18Z</time>
      </trkpt>
      <trkpt lat="44.18972" lon="6.80489">
        <ele>2031.2</ele>
        <time>2013-07-13T10:22:20Z</time>
      </trkpt>
      <trkpt lat="44.18964" lon="6.805">
        <ele>2030.7</ele>
        <time>2013-07-13T10:22:23Z</time>
      </trkpt>
      <trkpt lat="44.1896" lon="6.80508">
        <ele>2030.8</ele>
        <time>2013-07-13T10:22:25Z</time>
      </trkpt>
      <trkpt lat="44.18953" lon="6.80516">
        <ele>2031.1</ele>
        <time>2013-07-13T10:22:28Z</time>
      </trkpt>
      <trkpt lat="44.18948" lon="6.80525">
        <ele>2030.9</ele>
        <time>2013-07-13T10:22:30Z</time>
      </trkpt>
      <trkpt lat="44.18944" lon="6.80535">
        <ele>2030.8</ele>
        <time>2013-07-13T10:22:32Z</time>
      </trkpt>
      <trkpt lat="44.18943" lon="6.80544">
        <ele>2030</ele>
        <time>2013-07-13T10:22:34Z</time>
      </trkpt>
      <trkpt lat="44.18943" lon="6.8055">
        <ele>2029.4</ele>
        <time>2013-07-13T10:22:36Z</time>
      </trkpt>
      <trkpt lat="44.18944" lon="6.80554">
        <ele>2029</ele>
        <time>2013-07-13T10:22:39Z</time>
      </trkpt>
      <trkpt lat="44.18943" lon="6.80558">
        <ele>2029</ele>
        <time>2013-07-13T10:22:41Z</time>
      </trkpt>
      <trkpt lat="44.18945" lon="6.80562">
        <ele>2031.3</ele>
        <time>2013-07-13T10:22:46Z</time>
      </trkpt>
      <trkpt lat="44.18946" lon="6.80565">
        <ele>2034.1</ele>
        <time>2013-07-13T10:22:51Z</time>
      </trkpt>
      <trkpt lat="44.18946" lon="6.80569">
        <ele>2036.3</ele>
        <time>2013-07-13T10:22:57Z</time>
      </trkpt>
      <trkpt lat="44.18945" lon="6.80573">
        <ele>2037.3</ele>
        <time>2013-07-13T10:23:00Z</time>
      </trkpt>
      <trkpt lat="44.18947" lon="6.80576">
        <ele>2039.1</ele>
        <time>2013-07-13T10:23:18Z</time>
      </trkpt>
      <trkpt lat="44.18948" lon="6.80582">
        <ele>2039.4</ele>
        <time>2013-07-13T10:23:21Z</time>
      </trkpt>
      <trkpt lat="44.18949" lon="6.80586">
        <ele>2040.2</ele>
        <time>2013-07-13T10:23:25Z</time>
      </trkpt>
      <trkpt lat="44.18953" lon="6.80592">
        <ele>2045.6</ele>
        <time>2013-07-13T10:23:58Z</time>
      </trkpt>
      <trkpt lat="44.18956" lon="6.80593">
        <ele>2045.3</ele>
        <time>2013-07-13T10:24:02Z</time>
      </trkpt>
      <trkpt lat="44.18954" lon="6.80598">
        <ele>2045.1</ele>
        <time>2013-07-13T10:24:06Z</time>
      </trkpt>
      <trkpt lat="44.18952" lon="6.80602">
        <ele>2044.7</ele>
        <time>2013-07-13T10:24:08Z</time>
      </trkpt>
      <trkpt lat="44.18949" lon="6.80607">
        <ele>2044.5</ele>
        <time>2013-07-13T10:24:10Z</time>
      </trkpt>
      <trkpt lat="44.18945" lon="6.80613">
        <ele>2045.1</ele>
        <time>2013-07-13T10:24:16Z</time>
      </trkpt>
      <trkpt lat="44.18945" lon="6.80617">
        <ele>2044.9</ele>
        <time>2013-07-13T10:24:19Z</time>
      </trkpt>
      <trkpt lat="44.18946" lon="6.80621">
        <ele>2045.9</ele>
        <time>2013-07-13T10:24:24Z</time>
      </trkpt>
      <trkpt lat="44.18947" lon="6.80625">
        <ele>2046.8</ele>
        <time>2013-07-13T10:24:27Z</time>
      </trkpt>
      <trkpt lat="44.18947" lon="6.80631">
        <ele>2047.4</ele>
        <time>2013-07-13T10:24:30Z</time>
      </trkpt>
      <trkpt lat="44.18949" lon="6.80635">
        <ele>2048.3</ele>
        <time>2013-07-13T10:24:33Z</time>
      </trkpt>
      <trkpt lat="44.18951" lon="6.80637">
        <ele>2048.5</ele>
        <time>2013-07-13T10:24:35Z</time>
      </trkpt>
      <trkpt lat="44.18954" lon="6.80641">
        <ele>2048.5</ele>
        <time>2013-07-13T10:24:37Z</time>
      </trkpt>
      <trkpt lat="44.18954" lon="6.80646">
        <ele>2048.5</ele>
        <time>2013-07-13T10:24:41Z</time>
      </trkpt>
      <trkpt lat="44.18954" lon="6.8065">
        <ele>2048.1</ele>
        <time>2013-07-13T10:24:46Z</time>
      </trkpt>
      <trkpt lat="44.18955" lon="6.80656">
        <ele>2048.1</ele>
        <time>2013-07-13T10:24:49Z</time>
      </trkpt>
      <trkpt lat="44.18957" lon="6.80661">
        <ele>2047.9</ele>
        <time>2013-07-13T10:24:51Z</time>
      </trkpt>
      <trkpt lat="44.18959" lon="6.80665">
        <ele>2048</ele>
        <time>2013-07-13T10:24:53Z</time>
      </trkpt>
      <trkpt lat="44.18962" lon="6.80669">
        <ele>2048</ele>
        <time>2013-07-13T10:24:55Z</time>
      </trkpt>
      <trkpt lat="44.18964" lon="6.80673">
        <ele>2047.6</ele>
        <time>2013-07-13T10:24:57Z</time>
      </trkpt>
      <trkpt lat="44.18965" lon="6.80678">
        <ele>2048</ele>
        <time>2013-07-13T10:25:00Z</time>
      </trkpt>
      <trkpt lat="44.18966" lon="6.80683">
        <ele>2047.7</ele>
        <time>2013-07-13T10:25:02Z</time>
      </trkpt>
      <trkpt lat="44.18968" lon="6.80687">
        <ele>2047.5</ele>
        <time>2013-07-13T10:25:04Z</time>
      </trkpt>
      <trkpt lat="44.1897" lon="6.80691">
        <ele>2047.6</ele>
        <time>2013-07-13T10:25:06Z</time>
      </trkpt>
      <trkpt lat="44.18972" lon="6.80696">
        <ele>2047.4</ele>
        <time>2013-07-13T10:25:08Z</time>
      </trkpt>
      <trkpt lat="44.18975" lon="6.80702">
        <ele>2047.3</ele>
        <time>2013-07-13T10:25:10Z</time>
      </trkpt>
      <trkpt lat="44.18978" lon="6.80707">
        <ele>2047.9</ele>
        <time>2013-07-13T10:25:12Z</time>
      </trkpt>
      <trkpt lat="44.18979" lon="6.80715">
        <ele>2047.6</ele>
        <time>2013-07-13T10:25:14Z</time>
      </trkpt>
      <trkpt lat="44.1898" lon="6.80724">
        <ele>2047.7</ele>
        <time>2013-07-13T10:25:16Z</time>
      </trkpt>
      <trkpt lat="44.18982" lon="6.80732">
        <ele>2047.6</ele>
        <time>2013-07-13T10:25:18Z</time>
      </trkpt>
      <trkpt lat="44.18985" lon="6.80742">
        <ele>2047.5</ele>
        <time>2013-07-13T10:25:21Z</time>
      </trkpt>
      <trkpt lat="44.18986" lon="6.80749">
        <ele>2047.3</ele>
        <time>2013-07-13T10:25:23Z</time>
      </trkpt>
      <trkpt lat="44.18987" lon="6.80757">
        <ele>2046.8</ele>
        <time>2013-07-13T10:25:25Z</time>
      </trkpt>
      <trkpt lat="44.18988" lon="6.80764">
        <ele>2047</ele>
        <time>2013-07-13T10:25:27Z</time>
      </trkpt>
      <trkpt lat="44.18987" lon="6.80768">
        <ele>2047.3</ele>
        <time>2013-07-13T10:25:29Z</time>
      </trkpt>
      <trkpt lat="44.18985" lon="6.80771">
        <ele>2047.5</ele>
        <time>2013-07-13T10:25:31Z</time>
      </trkpt>
      <trkpt lat="44.18986" lon="6.80776">
        <ele>2047</ele>
        <time>2013-07-13T10:25:33Z</time>
      </trkpt>
      <trkpt lat="44.18988" lon="6.8078">
        <ele>2046.8</ele>
        <time>2013-07-13T10:25:35Z</time>
      </trkpt>
      <trkpt lat="44.1899" lon="6.80783">
        <ele>2046.9</ele>
        <time>2013-07-13T10:25:37Z</time>
      </trkpt>
      <trkpt lat="44.18993" lon="6.80787">
        <ele>2046.7</ele>
        <time>2013-07-13T10:25:39Z</time>
      </trkpt>
      <trkpt lat="44.18996" lon="6.80793">
        <ele>2046.5</ele>
        <time>2013-07-13T10:25:41Z</time>
      </trkpt>
      <trkpt lat="44.18999" lon="6.808">
        <ele>2046.2</ele>
        <time>2013-07-13T10:25:43Z</time>
      </trkpt>
      <trkpt lat="44.19003" lon="6.80807">
        <ele>2046.4</ele>
        <time>2013-07-13T10:25:45Z</time>
      </trkpt>
      <trkpt lat="44.19005" lon="6.80816">
        <ele>2046.5</ele>
        <time>2013-07-13T10:25:47Z</time>
      </trkpt>
      <trkpt lat="44.19007" lon="6.80825">
        <ele>2046.4</ele>
        <time>2013-07-13T10:25:49Z</time>
      </trkpt>
      <trkpt lat="44.19008" lon="6.80833">
        <ele>2046</ele>
        <time>2013-07-13T10:25:51Z</time>
      </trkpt>
      <trkpt lat="44.19011" lon="6.80843">
        <ele>2045.8</ele>
        <time>2013-07-13T10:25:53Z</time>
      </trkpt>
      <trkpt lat="44.19018" lon="6.80853">
        <ele>2045.7</ele>
        <time>2013-07-13T10:25:55Z</time>
      </trkpt>
      <trkpt lat="44.19024" lon="6.80863">
        <ele>2045.4</ele>
        <time>2013-07-13T10:25:57Z</time>
      </trkpt>
      <trkpt lat="44.19029" lon="6.80872">
        <ele>2044.9</ele>
        <time>2013-07-13T10:26:00Z</time>
      </trkpt>
      <trkpt lat="44.19031" lon="6.80878">
        <ele>2044.5</ele>
        <time>2013-07-13T10:26:02Z</time>
      </trkpt>
      <trkpt lat="44.19033" lon="6.80881">
        <ele>2044.2</ele>
        <time>2013-07-13T10:26:04Z</time>
      </trkpt>
      <trkpt lat="44.19032" lon="6.80885">
        <ele>2043.2</ele>
        <time>2013-07-13T10:26:10Z</time>
      </trkpt>
      <trkpt lat="44.19035" lon="6.80887">
        <ele>2043.9</ele>
        <time>2013-07-13T10:26:17Z</time>
      </trkpt>
      <trkpt lat="44.19038" lon="6.80885">
        <ele>2045.4</ele>
        <time>2013-07-13T10:26:34Z</time>
      </trkpt>
      <trkpt lat="44.1904" lon="6.80881">
        <ele>2044.8</ele>
        <time>2013-07-13T10:26:37Z</time>
      </trkpt>
      <trkpt lat="44.19041" lon="6.80877">
        <ele>2044.9</ele>
        <time>2013-07-13T10:26:40Z</time>
      </trkpt>
      <trkpt lat="44.19039" lon="6.80881">
        <ele>2044.8</ele>
        <time>2013-07-13T10:26:47Z</time>
      </trkpt>
      <trkpt lat="44.19037" lon="6.80885">
        <ele>2045.1</ele>
        <time>2013-07-13T10:26:51Z</time>
      </trkpt>
      <trkpt lat="44.19036" lon="6.80888">
        <ele>2045</ele>
        <time>2013-07-13T10:26:54Z</time>
      </trkpt>
      <trkpt lat="44.19036" lon="6.80892">
        <ele>2045.7</ele>
        <time>2013-07-13T10:26:58Z</time>
      </trkpt>
      <trkpt lat="44.19034" lon="6.80895">
        <ele>2045.7</ele>
        <time>2013-07-13T10:27:01Z</time>
      </trkpt>
      <trkpt lat="44.19032" lon="6.80899">
        <ele>2046.3</ele>
        <time>2013-07-13T10:27:04Z</time>
      </trkpt>
      <trkpt lat="44.19031" lon="6.80903">
        <ele>2046.8</ele>
        <time>2013-07-13T10:27:08Z</time>
      </trkpt>
      <trkpt lat="44.19034" lon="6.80909">
        <ele>2045.7</ele>
        <time>2013-07-13T10:27:11Z</time>
      </trkpt>
      <trkpt lat="44.19035" lon="6.80914">
        <ele>2044.4</ele>
        <time>2013-07-13T10:27:13Z</time>
      </trkpt>
      <trkpt lat="44.19035" lon="6.80918">
        <ele>2044.3</ele>
        <time>2013-07-13T10:27:16Z</time>
      </trkpt>
      <trkpt lat="44.19034" lon="6.80922">
        <ele>2043.6</ele>
        <time>2013-07-13T10:27:18Z</time>
      </trkpt>
      <trkpt lat="44.19035" lon="6.80927">
        <ele>2043</ele>
        <time>2013-07-13T10:27:21Z</time>
      </trkpt>
      <trkpt lat="44.19035" lon="6.80932">
        <ele>2042.2</ele>
        <time>2013-07-13T10:27:24Z</time>
      </trkpt>
      <trkpt lat="44.19035" lon="6.80936">
        <ele>2041.7</ele>
        <time>2013-07-13T10:27:26Z</time>
      </trkpt>
      <trkpt lat="44.19035" lon="6.8094">
        <ele>2041</ele>
        <time>2013-07-13T10:27:28Z</time>
      </trkpt>
      <trkpt lat="44.19035" lon="6.80944">
        <ele>2040.8</ele>
        <time>2013-07-13T10:27:30Z</time>
      </trkpt>
      <trkpt lat="44.19033" lon="6.80949">
        <ele>2040.4</ele>
        <time>2013-07-13T10:27:33Z</time>
      </trkpt>
      <trkpt lat="44.19033" lon="6.80954">
        <ele>2039.1</ele>
        <time>2013-07-13T10:27:35Z</time>
      </trkpt>
      <trkpt lat="44.19034" lon="6.80958">
        <ele>2038.2</ele>
        <time>2013-07-13T10:27:37Z</time>
      </trkpt>
      <trkpt lat="44.19034" lon="6.80962">
        <ele>2038.1</ele>
        <time>2013-07-13T10:27:40Z</time>
      </trkpt>
      <trkpt lat="44.19035" lon="6.80968">
        <ele>2037.8</ele>
        <time>2013-07-13T10:27:43Z</time>
      </trkpt>
      <trkpt lat="44.19035" lon="6.80972">
        <ele>2037.7</ele>
        <time>2013-07-13T10:27:45Z</time>
      </trkpt>
      <trkpt lat="44.19036" lon="6.80976">
        <ele>2037.6</ele>
        <time>2013-07-13T10:27:47Z</time>
      </trkpt>
      <trkpt lat="44.19036" lon="6.80981">
        <ele>2038</ele>
        <time>2013-07-13T10:27:49Z</time>
      </trkpt>
      <trkpt lat="44.19038" lon="6.80984">
        <ele>2039.1</ele>
        <time>2013-07-13T10:27:52Z</time>
      </trkpt>
      <trkpt lat="44.1904" lon="6.80988">
        <ele>2040.3</ele>
        <time>2013-07-13T10:27:55Z</time>
      </trkpt>
      <trkpt lat="44.19043" lon="6.80989">
        <ele>2040.7</ele>
        <time>2013-07-13T10:27:57Z</time>
      </trkpt>
      <trkpt lat="44.19045" lon="6.80991">
        <ele>2041</ele>
        <time>2013-07-13T10:28:00Z</time>
      </trkpt>
      <trkpt lat="44.19047" lon="6.80994">
        <ele>2041.6</ele>
        <time>2013-07-13T10:28:03Z</time>
      </trkpt>
      <trkpt lat="44.1905" lon="6.80995">
        <ele>2042.3</ele>
        <time>2013-07-13T10:28:07Z</time>
      </trkpt>
      <trkpt lat="44.19053" lon="6.80996">
        <ele>2042.8</ele>
        <time>2013-07-13T10:28:10Z</time>
      </trkpt>
      <trkpt lat="44.19056" lon="6.80998">
        <ele>2043.6</ele>
        <time>2013-07-13T10:28:13Z</time>
      </trkpt>
      <trkpt lat="44.19058" lon="6.80994">
        <ele>2045</ele>
        <time>2013-07-13T10:28:28Z</time>
      </trkpt>
      <trkpt lat="44.19061" lon="6.80992">
        <ele>2046.9</ele>
        <time>2013-07-13T10:28:34Z</time>
      </trkpt>
      <trkpt lat="44.19063" lon="6.80988">
        <ele>2048.4</ele>
        <time>2013-07-13T10:29:12Z</time>
      </trkpt>
      <trkpt lat="44.19067" lon="6.8099">
        <ele>2048.3</ele>
        <time>2013-07-13T10:29:15Z</time>
      </trkpt>
      <trkpt lat="44.19071" lon="6.8099">
        <ele>2048.2</ele>
        <time>2013-07-13T10:29:17Z</time>
      </trkpt>
      <trkpt lat="44.19074" lon="6.8099">
        <ele>2048</ele>
        <time>2013-07-13T10:29:19Z</time>
      </trkpt>
      <trkpt lat="44.19078" lon="6.8099">
        <ele>2047.9</ele>
        <time>2013-07-13T10:29:21Z</time>
      </trkpt>
      <trkpt lat="44.19082" lon="6.8099">
        <ele>2047.7</ele>
        <time>2013-07-13T10:29:23Z</time>
      </trkpt>
      <trkpt lat="44.19086" lon="6.80992">
        <ele>2047.7</ele>
        <time>2013-07-13T10:29:25Z</time>
      </trkpt>
      <trkpt lat="44.19089" lon="6.80995">
        <ele>2047.7</ele>
        <time>2013-07-13T10:29:27Z</time>
      </trkpt>
      <trkpt lat="44.1909" lon="6.81">
        <ele>2048</ele>
        <time>2013-07-13T10:29:29Z</time>
      </trkpt>
      <trkpt lat="44.19092" lon="6.81005">
        <ele>2048.1</ele>
        <time>2013-07-13T10:29:31Z</time>
      </trkpt>
      <trkpt lat="44.19092" lon="6.81011">
        <ele>2048.4</ele>
        <time>2013-07-13T10:29:33Z</time>
      </trkpt>
      <trkpt lat="44.19093" lon="6.81016">
        <ele>2048.6</ele>
        <time>2013-07-13T10:29:35Z</time>
      </trkpt>
      <trkpt lat="44.19094" lon="6.81021">
        <ele>2048.9</ele>
        <time>2013-07-13T10:29:37Z</time>
      </trkpt>
      <trkpt lat="44.19096" lon="6.81026">
        <ele>2049.3</ele>
        <time>2013-07-13T10:29:40Z</time>
      </trkpt>
      <trkpt lat="44.19097" lon="6.81029">
        <ele>2049.6</ele>
        <time>2013-07-13T10:29:42Z</time>
      </trkpt>
      <trkpt lat="44.19099" lon="6.81033">
        <ele>2050.2</ele>
        <time>2013-07-13T10:29:45Z</time>
      </trkpt>
      <trkpt lat="44.19099" lon="6.81037">
        <ele>2050.4</ele>
        <time>2013-07-13T10:29:47Z</time>
      </trkpt>
      <trkpt lat="44.191" lon="6.81042">
        <ele>2051</ele>
        <time>2013-07-13T10:29:50Z</time>
      </trkpt>
      <trkpt lat="44.191" lon="6.81046">
        <ele>2051.2</ele>
        <time>2013-07-13T10:29:52Z</time>
      </trkpt>
      <trkpt lat="44.19102" lon="6.8105">
        <ele>2051.9</ele>
        <time>2013-07-13T10:29:55Z</time>
      </trkpt>
      <trkpt lat="44.19103" lon="6.81055">
        <ele>2052.6</ele>
        <time>2013-07-13T10:29:58Z</time>
      </trkpt>
      <trkpt lat="44.19103" lon="6.81059">
        <ele>2053.2</ele>
        <time>2013-07-13T10:30:01Z</time>
      </trkpt>
      <trkpt lat="44.19104" lon="6.81064">
        <ele>2053.6</ele>
        <time>2013-07-13T10:30:04Z</time>
      </trkpt>
      <trkpt lat="44.19103" lon="6.81069">
        <ele>2054.1</ele>
        <time>2013-07-13T10:30:07Z</time>
      </trkpt>
      <trkpt lat="44.19102" lon="6.81074">
        <ele>2055.2</ele>
        <time>2013-07-13T10:30:10Z</time>
      </trkpt>
      <trkpt lat="44.191" lon="6.81078">
        <ele>2055.9</ele>
        <time>2013-07-13T10:30:13Z</time>
      </trkpt>
      <trkpt lat="44.19099" lon="6.81082">
        <ele>2056.1</ele>
        <time>2013-07-13T10:30:15Z</time>
      </trkpt>
      <trkpt lat="44.19098" lon="6.81086">
        <ele>2056.4</ele>
        <time>2013-07-13T10:30:18Z</time>
      </trkpt>
      <trkpt lat="44.19096" lon="6.8109">
        <ele>2056.8</ele>
        <time>2013-07-13T10:30:20Z</time>
      </trkpt>
      <trkpt lat="44.19095" lon="6.81094">
        <ele>2057.2</ele>
        <time>2013-07-13T10:30:22Z</time>
      </trkpt>
      <trkpt lat="44.19093" lon="6.81098">
        <ele>2057.5</ele>
        <time>2013-07-13T10:30:24Z</time>
      </trkpt>
      <trkpt lat="44.19091" lon="6.81102">
        <ele>2057.4</ele>
        <time>2013-07-13T10:30:26Z</time>
      </trkpt>
      <trkpt lat="44.19091" lon="6.81106">
        <ele>2057.5</ele>
        <time>2013-07-13T10:30:28Z</time>
      </trkpt>
      <trkpt lat="44.19093" lon="6.81109">
        <ele>2057.6</ele>
        <time>2013-07-13T10:30:30Z</time>
      </trkpt>
      <trkpt lat="44.19094" lon="6.81113">
        <ele>2058.2</ele>
        <time>2013-07-13T10:30:32Z</time>
      </trkpt>
      <trkpt lat="44.19096" lon="6.81116">
        <ele>2058.4</ele>
        <time>2013-07-13T10:30:34Z</time>
      </trkpt>
      <trkpt lat="44.19099" lon="6.8112">
        <ele>2059.1</ele>
        <time>2013-07-13T10:30:37Z</time>
      </trkpt>
      <trkpt lat="44.19102" lon="6.81121">
        <ele>2059.2</ele>
        <time>2013-07-13T10:30:39Z</time>
      </trkpt>
      <trkpt lat="44.19104" lon="6.81125">
        <ele>2059.8</ele>
        <time>2013-07-13T10:30:42Z</time>
      </trkpt>
      <trkpt lat="44.19104" lon="6.8113">
        <ele>2060.3</ele>
        <time>2013-07-13T10:30:45Z</time>
      </trkpt>
      <trkpt lat="44.19104" lon="6.81135">
        <ele>2060.6</ele>
        <time>2013-07-13T10:30:47Z</time>
      </trkpt>
      <trkpt lat="44.19104" lon="6.81139">
        <ele>2061.2</ele>
        <time>2013-07-13T10:30:49Z</time>
      </trkpt>
      <trkpt lat="44.19105" lon="6.81144">
        <ele>2062.1</ele>
        <time>2013-07-13T10:30:52Z</time>
      </trkpt>
      <trkpt lat="44.19106" lon="6.81148">
        <ele>2063</ele>
        <time>2013-07-13T10:30:55Z</time>
      </trkpt>
      <trkpt lat="44.19107" lon="6.81151">
        <ele>2063.8</ele>
        <time>2013-07-13T10:30:58Z</time>
      </trkpt>
      <trkpt lat="44.19109" lon="6.81156">
        <ele>2064.2</ele>
        <time>2013-07-13T10:31:01Z</time>
      </trkpt>
      <trkpt lat="44.19111" lon="6.81159">
        <ele>2064.5</ele>
        <time>2013-07-13T10:31:03Z</time>
      </trkpt>
      <trkpt lat="44.19113" lon="6.81162">
        <ele>2064.8</ele>
        <time>2013-07-13T10:31:05Z</time>
      </trkpt>
      <trkpt lat="44.19113" lon="6.81168">
        <ele>2065.3</ele>
        <time>2013-07-13T10:31:08Z</time>
      </trkpt>
      <trkpt lat="44.19114" lon="6.81172">
        <ele>2065.8</ele>
        <time>2013-07-13T10:31:10Z</time>
      </trkpt>
      <trkpt lat="44.19115" lon="6.81176">
        <ele>2066</ele>
        <time>2013-07-13T10:31:12Z</time>
      </trkpt>
      <trkpt lat="44.19117" lon="6.8118">
        <ele>2066.4</ele>
        <time>2013-07-13T10:31:15Z</time>
      </trkpt>
      <trkpt lat="44.19119" lon="6.81183">
        <ele>2066.9</ele>
        <time>2013-07-13T10:31:17Z</time>
      </trkpt>
      <trkpt lat="44.19121" lon="6.81187">
        <ele>2067.3</ele>
        <time>2013-07-13T10:31:20Z</time>
      </trkpt>
      <trkpt lat="44.19124" lon="6.81191">
        <ele>2067.3</ele>
        <time>2013-07-13T10:31:24Z</time>
      </trkpt>
      <trkpt lat="44.19126" lon="6.81194">
        <ele>2067.3</ele>
        <time>2013-07-13T10:31:27Z</time>
      </trkpt>
      <trkpt lat="44.19127" lon="6.81198">
        <ele>2067.7</ele>
        <time>2013-07-13T10:31:30Z</time>
      </trkpt>
      <trkpt lat="44.19125" lon="6.81202">
        <ele>2068</ele>
        <time>2013-07-13T10:31:33Z</time>
      </trkpt>
      <trkpt lat="44.19123" lon="6.81206">
        <ele>2068.6</ele>
        <time>2013-07-13T10:31:35Z</time>
      </trkpt>
      <trkpt lat="44.1912" lon="6.81209">
        <ele>2069.1</ele>
        <time>2013-07-13T10:31:37Z</time>
      </trkpt>
      <trkpt lat="44.19116" lon="6.81212">
        <ele>2069.4</ele>
        <time>2013-07-13T10:31:39Z</time>
      </trkpt>
      <trkpt lat="44.19113" lon="6.81214">
        <ele>2069.6</ele>
        <time>2013-07-13T10:31:41Z</time>
      </trkpt>
      <trkpt lat="44.1911" lon="6.81217">
        <ele>2069.8</ele>
        <time>2013-07-13T10:31:44Z</time>
      </trkpt>
      <trkpt lat="44.19107" lon="6.8122">
        <ele>2069.6</ele>
        <time>2013-07-13T10:31:47Z</time>
      </trkpt>
      <trkpt lat="44.19105" lon="6.81224">
        <ele>2069.7</ele>
        <time>2013-07-13T10:31:49Z</time>
      </trkpt>
      <trkpt lat="44.19102" lon="6.81227">
        <ele>2069.9</ele>
        <time>2013-07-13T10:31:52Z</time>
      </trkpt>
      <trkpt lat="44.191" lon="6.8123">
        <ele>2069.7</ele>
        <time>2013-07-13T10:31:55Z</time>
      </trkpt>
      <trkpt lat="44.19097" lon="6.81232">
        <ele>2069.7</ele>
        <time>2013-07-13T10:31:58Z</time>
      </trkpt>
      <trkpt lat="44.19093" lon="6.81232">
        <ele>2070.2</ele>
        <time>2013-07-13T10:32:01Z</time>
      </trkpt>
      <trkpt lat="44.1909" lon="6.81233">
        <ele>2070.3</ele>
        <time>2013-07-13T10:32:04Z</time>
      </trkpt>
      <trkpt lat="44.19086" lon="6.81234">
        <ele>2070.4</ele>
        <time>2013-07-13T10:32:07Z</time>
      </trkpt>
      <trkpt lat="44.19082" lon="6.81235">
        <ele>2070.5</ele>
        <time>2013-07-13T10:32:10Z</time>
      </trkpt>
      <trkpt lat="44.1908" lon="6.81236">
        <ele>2070.8</ele>
        <time>2013-07-13T10:32:13Z</time>
      </trkpt>
      <trkpt lat="44.19077" lon="6.81237">
        <ele>2071.2</ele>
        <time>2013-07-13T10:32:15Z</time>
      </trkpt>
      <trkpt lat="44.19073" lon="6.81237">
        <ele>2072.6</ele>
        <time>2013-07-13T10:32:17Z</time>
      </trkpt>
      <trkpt lat="44.19071" lon="6.8124">
        <ele>2072.5</ele>
        <time>2013-07-13T10:32:19Z</time>
      </trkpt>
      <trkpt lat="44.19069" lon="6.81244">
        <ele>2072.3</ele>
        <time>2013-07-13T10:32:22Z</time>
      </trkpt>
      <trkpt lat="44.19068" lon="6.81248">
        <ele>2072.2</ele>
        <time>2013-07-13T10:32:24Z</time>
      </trkpt>
      <trkpt lat="44.19066" lon="6.81251">
        <ele>2072.3</ele>
        <time>2013-07-13T10:32:26Z</time>
      </trkpt>
      <trkpt lat="44.19064" lon="6.81255">
        <ele>2072.2</ele>
        <time>2013-07-13T10:32:28Z</time>
      </trkpt>
      <trkpt lat="44.19062" lon="6.81258">
        <ele>2072.2</ele>
        <time>2013-07-13T10:32:30Z</time>
      </trkpt>
      <trkpt lat="44.1906" lon="6.81262">
        <ele>2072.3</ele>
        <time>2013-07-13T10:32:32Z</time>
      </trkpt>
      <trkpt lat="44.19058" lon="6.81265">
        <ele>2072.3</ele>
        <time>2013-07-13T10:32:34Z</time>
      </trkpt>
      <trkpt lat="44.19056" lon="6.81269">
        <ele>2072.2</ele>
        <time>2013-07-13T10:32:36Z</time>
      </trkpt>
      <trkpt lat="44.19054" lon="6.81273">
        <ele>2072.2</ele>
        <time>2013-07-13T10:32:38Z</time>
      </trkpt>
      <trkpt lat="44.19052" lon="6.81277">
        <ele>2072.1</ele>
        <time>2013-07-13T10:32:40Z</time>
      </trkpt>
      <trkpt lat="44.1905" lon="6.8128">
        <ele>2072.4</ele>
        <time>2013-07-13T10:32:42Z</time>
      </trkpt>
      <trkpt lat="44.19048" lon="6.81284">
        <ele>2072.4</ele>
        <time>2013-07-13T10:32:44Z</time>
      </trkpt>
      <trkpt lat="44.19047" lon="6.81287">
        <ele>2072.4</ele>
        <time>2013-07-13T10:32:46Z</time>
      </trkpt>
      <trkpt lat="44.19045" lon="6.81291">
        <ele>2072.6</ele>
        <time>2013-07-13T10:32:48Z</time>
      </trkpt>
      <trkpt lat="44.19042" lon="6.81294">
        <ele>2072.9</ele>
        <time>2013-07-13T10:32:50Z</time>
      </trkpt>
      <trkpt lat="44.19041" lon="6.81297">
        <ele>2072.8</ele>
        <time>2013-07-13T10:32:52Z</time>
      </trkpt>
      <trkpt lat="44.19038" lon="6.813">
        <ele>2072.8</ele>
        <time>2013-07-13T10:32:54Z</time>
      </trkpt>
      <trkpt lat="44.19036" lon="6.81303">
        <ele>2072.6</ele>
        <time>2013-07-13T10:32:56Z</time>
      </trkpt>
      <trkpt lat="44.19033" lon="6.81305">
        <ele>2072.3</ele>
        <time>2013-07-13T10:32:58Z</time>
      </trkpt>
      <trkpt lat="44.19029" lon="6.81307">
        <ele>2072.4</ele>
        <time>2013-07-13T10:33:01Z</time>
      </trkpt>
      <trkpt lat="44.19027" lon="6.81308">
        <ele>2072.4</ele>
        <time>2013-07-13T10:33:03Z</time>
      </trkpt>
      <trkpt lat="44.19024" lon="6.81308">
        <ele>2072.5</ele>
        <time>2013-07-13T10:33:05Z</time>
      </trkpt>
      <trkpt lat="44.19021" lon="6.81308">
        <ele>2072.3</ele>
        <time>2013-07-13T10:33:07Z</time>
      </trkpt>
      <trkpt lat="44.19018" lon="6.81309">
        <ele>2072.1</ele>
        <time>2013-07-13T10:33:09Z</time>
      </trkpt>
      <trkpt lat="44.19015" lon="6.81308">
        <ele>2071.8</ele>
        <time>2013-07-13T10:33:11Z</time>
      </trkpt>
      <trkpt lat="44.19012" lon="6.81309">
        <ele>2071.5</ele>
        <time>2013-07-13T10:33:13Z</time>
      </trkpt>
      <trkpt lat="44.19009" lon="6.8131">
        <ele>2071.3</ele>
        <time>2013-07-13T10:33:15Z</time>
      </trkpt>
      <trkpt lat="44.19006" lon="6.81311">
        <ele>2071.3</ele>
        <time>2013-07-13T10:33:17Z</time>
      </trkpt>
      <trkpt lat="44.19003" lon="6.81312">
        <ele>2070.8</ele>
        <time>2013-07-13T10:33:19Z</time>
      </trkpt>
      <trkpt lat="44.19" lon="6.81313">
        <ele>2070.8</ele>
        <time>2013-07-13T10:33:21Z</time>
      </trkpt>
      <trkpt lat="44.18996" lon="6.81314">
        <ele>2070.6</ele>
        <time>2013-07-13T10:33:24Z</time>
      </trkpt>
      <trkpt lat="44.18993" lon="6.81314">
        <ele>2070.4</ele>
        <time>2013-07-13T10:33:26Z</time>
      </trkpt>
      <trkpt lat="44.18996" lon="6.81315">
        <ele>2068.3</ele>
        <time>2013-07-13T10:33:51Z</time>
      </trkpt>
      <trkpt lat="44.18999" lon="6.81314">
        <ele>2068.8</ele>
        <time>2013-07-13T10:34:15Z</time>
      </trkpt>
      <trkpt lat="44.18996" lon="6.81315">
        <ele>2068.2</ele>
        <time>2013-07-13T10:35:27Z</time>
      </trkpt>
      <trkpt lat="44.18993" lon="6.81313">
        <ele>2067.9</ele>
        <time>2013-07-13T10:37:03Z</time>
      </trkpt>
      <trkpt lat="44.18996" lon="6.81315">
        <ele>2066.5</ele>
        <time>2013-07-13T10:38:09Z</time>
      </trkpt>
      <trkpt lat="44.18999" lon="6.81312">
        <ele>2067.3</ele>
        <time>2013-07-13T10:43:03Z</time>
      </trkpt>
      <trkpt lat="44.18995" lon="6.81312">
        <ele>2067.1</ele>
        <time>2013-07-13T10:54:38Z</time>
      </trkpt>
      <trkpt lat="44.18994" lon="6.81316">
        <ele>2068.4</ele>
        <time>2013-07-13T10:56:28Z</time>
      </trkpt>
      <trkpt lat="44.18991" lon="6.81317">
        <ele>2068.3</ele>
        <time>2013-07-13T10:56:31Z</time>
      </trkpt>
      <trkpt lat="44.18988" lon="6.81317">
        <ele>2069</ele>
        <time>2013-07-13T10:56:36Z</time>
      </trkpt>
      <trkpt lat="44.18985" lon="6.8132">
        <ele>2069.6</ele>
        <time>2013-07-13T10:57:18Z</time>
      </trkpt>
      <trkpt lat="44.18988" lon="6.81319">
        <ele>2069.9</ele>
        <time>2013-07-13T10:57:22Z</time>
      </trkpt>
      <trkpt lat="44.18986" lon="6.81315">
        <ele>2068.9</ele>
        <time>2013-07-13T10:57:34Z</time>
      </trkpt>
      <trkpt lat="44.18983" lon="6.81315">
        <ele>2069.3</ele>
        <time>2013-07-13T10:57:37Z</time>
      </trkpt>
      <trkpt lat="44.18981" lon="6.81318">
        <ele>2069.7</ele>
        <time>2013-07-13T10:57:40Z</time>
      </trkpt>
      <trkpt lat="44.18979" lon="6.81321">
        <ele>2069.8</ele>
        <time>2013-07-13T10:57:42Z</time>
      </trkpt>
      <trkpt lat="44.18976" lon="6.81323">
        <ele>2070</ele>
        <time>2013-07-13T10:57:44Z</time>
      </trkpt>
      <trkpt lat="44.18974" lon="6.81325">
        <ele>2069.9</ele>
        <time>2013-07-13T10:57:46Z</time>
      </trkpt>
      <trkpt lat="44.1897" lon="6.81325">
        <ele>2070</ele>
        <time>2013-07-13T10:57:48Z</time>
      </trkpt>
      <trkpt lat="44.18967" lon="6.81326">
        <ele>2070</ele>
        <time>2013-07-13T10:57:50Z</time>
      </trkpt>
      <trkpt lat="44.18965" lon="6.81327">
        <ele>2069.9</ele>
        <time>2013-07-13T10:57:52Z</time>
      </trkpt>
      <trkpt lat="44.18962" lon="6.81328">
        <ele>2070.2</ele>
        <time>2013-07-13T10:57:54Z</time>
      </trkpt>
      <trkpt lat="44.18959" lon="6.8133">
        <ele>2070.5</ele>
        <time>2013-07-13T10:57:56Z</time>
      </trkpt>
      <trkpt lat="44.18956" lon="6.8133">
        <ele>2070.6</ele>
        <time>2013-07-13T10:57:58Z</time>
      </trkpt>
      <trkpt lat="44.18953" lon="6.81331">
        <ele>2071.1</ele>
        <time>2013-07-13T10:58:00Z</time>
      </trkpt>
      <trkpt lat="44.1895" lon="6.81333">
        <ele>2071.3</ele>
        <time>2013-07-13T10:58:02Z</time>
      </trkpt>
      <trkpt lat="44.18947" lon="6.81334">
        <ele>2071.2</ele>
        <time>2013-07-13T10:58:04Z</time>
      </trkpt>
      <trkpt lat="44.18944" lon="6.81335">
        <ele>2071.2</ele>
        <time>2013-07-13T10:58:06Z</time>
      </trkpt>
      <trkpt lat="44.18941" lon="6.81336">
        <ele>2071.3</ele>
        <time>2013-07-13T10:58:08Z</time>
      </trkpt>
      <trkpt lat="44.18937" lon="6.81338">
        <ele>2071</ele>
        <time>2013-07-13T10:58:10Z</time>
      </trkpt>
      <trkpt lat="44.18933" lon="6.81339">
        <ele>2071.7</ele>
        <time>2013-07-13T10:58:12Z</time>
      </trkpt>
      <trkpt lat="44.1893" lon="6.81339">
        <ele>2071.8</ele>
        <time>2013-07-13T10:58:14Z</time>
      </trkpt>
      <trkpt lat="44.18927" lon="6.81339">
        <ele>2072.1</ele>
        <time>2013-07-13T10:58:16Z</time>
      </trkpt>
      <trkpt lat="44.18923" lon="6.81338">
        <ele>2072.2</ele>
        <time>2013-07-13T10:58:18Z</time>
      </trkpt>
      <trkpt lat="44.18917" lon="6.81337">
        <ele>2072.5</ele>
        <time>2013-07-13T10:58:22Z</time>
      </trkpt>
      <trkpt lat="44.18913" lon="6.81338">
        <ele>2072.6</ele>
        <time>2013-07-13T10:58:24Z</time>
      </trkpt>
      <trkpt lat="44.18911" lon="6.8134">
        <ele>2072.8</ele>
        <time>2013-07-13T10:58:26Z</time>
      </trkpt>
      <trkpt lat="44.18908" lon="6.8134">
        <ele>2073.1</ele>
        <time>2013-07-13T10:58:28Z</time>
      </trkpt>
      <trkpt lat="44.18905" lon="6.8134">
        <ele>2073.6</ele>
        <time>2013-07-13T10:58:30Z</time>
      </trkpt>
      <trkpt lat="44.18902" lon="6.81341">
        <ele>2073.9</ele>
        <time>2013-07-13T10:58:32Z</time>
      </trkpt>
      <trkpt lat="44.18899" lon="6.81342">
        <ele>2074</ele>
        <time>2013-07-13T10:58:34Z</time>
      </trkpt>
      <trkpt lat="44.18897" lon="6.81344">
        <ele>2074</ele>
        <time>2013-07-13T10:58:36Z</time>
      </trkpt>
      <trkpt lat="44.18893" lon="6.81345">
        <ele>2074.2</ele>
        <time>2013-07-13T10:58:39Z</time>
      </trkpt>
      <trkpt lat="44.18889" lon="6.81345">
        <ele>2075</ele>
        <time>2013-07-13T10:58:42Z</time>
      </trkpt>
      <trkpt lat="44.18886" lon="6.81345">
        <ele>2075.2</ele>
        <time>2013-07-13T10:58:44Z</time>
      </trkpt>
      <trkpt lat="44.18882" lon="6.81346">
        <ele>2075.7</ele>
        <time>2013-07-13T10:58:47Z</time>
      </trkpt>
      <trkpt lat="44.1888" lon="6.81345">
        <ele>2075.9</ele>
        <time>2013-07-13T10:58:49Z</time>
      </trkpt>
      <trkpt lat="44.18877" lon="6.81344">
        <ele>2076.2</ele>
        <time>2013-07-13T10:58:51Z</time>
      </trkpt>
      <trkpt lat="44.18874" lon="6.81343">
        <ele>2076.5</ele>
        <time>2013-07-13T10:58:53Z</time>
      </trkpt>
      <trkpt lat="44.18871" lon="6.81341">
        <ele>2076.7</ele>
        <time>2013-07-13T10:58:55Z</time>
      </trkpt>
      <trkpt lat="44.18867" lon="6.81339">
        <ele>2076.3</ele>
        <time>2013-07-13T10:58:57Z</time>
      </trkpt>
      <trkpt lat="44.18864" lon="6.81339">
        <ele>2076.5</ele>
        <time>2013-07-13T10:58:59Z</time>
      </trkpt>
      <trkpt lat="44.18861" lon="6.81339">
        <ele>2076.6</ele>
        <time>2013-07-13T10:59:01Z</time>
      </trkpt>
      <trkpt lat="44.18858" lon="6.81339">
        <ele>2076.8</ele>
        <time>2013-07-13T10:59:03Z</time>
      </trkpt>
      <trkpt lat="44.18855" lon="6.81338">
        <ele>2077.6</ele>
        <time>2013-07-13T10:59:05Z</time>
      </trkpt>
      <trkpt lat="44.18851" lon="6.81336">
        <ele>2078.4</ele>
        <time>2013-07-13T10:59:08Z</time>
      </trkpt>
      <trkpt lat="44.18845" lon="6.81332">
        <ele>2078.7</ele>
        <time>2013-07-13T10:59:10Z</time>
      </trkpt>
      <trkpt lat="44.18838" lon="6.81328">
        <ele>2078.8</ele>
        <time>2013-07-13T10:59:12Z</time>
      </trkpt>
      <trkpt lat="44.1883" lon="6.81326">
        <ele>2078.5</ele>
        <time>2013-07-13T10:59:15Z</time>
      </trkpt>
      <trkpt lat="44.18826" lon="6.81328">
        <ele>2078.8</ele>
        <time>2013-07-13T10:59:17Z</time>
      </trkpt>
      <trkpt lat="44.18823" lon="6.81329">
        <ele>2078.3</ele>
        <time>2013-07-13T10:59:23Z</time>
      </trkpt>
      <trkpt lat="44.18821" lon="6.81326">
        <ele>2078.4</ele>
        <time>2013-07-13T10:59:27Z</time>
      </trkpt>
      <trkpt lat="44.18818" lon="6.81324">
        <ele>2078.1</ele>
        <time>2013-07-13T10:59:30Z</time>
      </trkpt>
      <trkpt lat="44.18815" lon="6.81325">
        <ele>2078</ele>
        <time>2013-07-13T10:59:33Z</time>
      </trkpt>
      <trkpt lat="44.18813" lon="6.81326">
        <ele>2077.5</ele>
        <time>2013-07-13T10:59:49Z</time>
      </trkpt>
      <trkpt lat="44.18809" lon="6.8133">
        <ele>2077.5</ele>
        <time>2013-07-13T10:59:52Z</time>
      </trkpt>
      <trkpt lat="44.18806" lon="6.81331">
        <ele>2077.5</ele>
        <time>2013-07-13T10:59:54Z</time>
      </trkpt>
      <trkpt lat="44.18803" lon="6.81332">
        <ele>2077.6</ele>
        <time>2013-07-13T10:59:56Z</time>
      </trkpt>
      <trkpt lat="44.18798" lon="6.81333">
        <ele>2077.4</ele>
        <time>2013-07-13T10:59:58Z</time>
      </trkpt>
      <trkpt lat="44.18791" lon="6.81335">
        <ele>2077.3</ele>
        <time>2013-07-13T11:00:00Z</time>
      </trkpt>
      <trkpt lat="44.18785" lon="6.81337">
        <ele>2077</ele>
        <time>2013-07-13T11:00:02Z</time>
      </trkpt>
      <trkpt lat="44.1878" lon="6.81339">
        <ele>2076.8</ele>
        <time>2013-07-13T11:00:04Z</time>
      </trkpt>
      <trkpt lat="44.18774" lon="6.81342">
        <ele>2077.1</ele>
        <time>2013-07-13T11:00:06Z</time>
      </trkpt>
      <trkpt lat="44.18769" lon="6.81345">
        <ele>2077.2</ele>
        <time>2013-07-13T11:00:08Z</time>
      </trkpt>
      <trkpt lat="44.18765" lon="6.81347">
        <ele>2077.2</ele>
        <time>2013-07-13T11:00:10Z</time>
      </trkpt>
      <trkpt lat="44.18761" lon="6.81348">
        <ele>2076.8</ele>
        <time>2013-07-13T11:00:12Z</time>
      </trkpt>
      <trkpt lat="44.18756" lon="6.81349">
        <ele>2076.4</ele>
        <time>2013-07-13T11:00:14Z</time>
      </trkpt>
      <trkpt lat="44.18753" lon="6.81352">
        <ele>2076.3</ele>
        <time>2013-07-13T11:00:16Z</time>
      </trkpt>
      <trkpt lat="44.1875" lon="6.81356">
        <ele>2076.2</ele>
        <time>2013-07-13T11:00:18Z</time>
      </trkpt>
      <trkpt lat="44.18747" lon="6.81359">
        <ele>2076.3</ele>
        <time>2013-07-13T11:00:20Z</time>
      </trkpt>
      <trkpt lat="44.18745" lon="6.81362">
        <ele>2076.5</ele>
        <time>2013-07-13T11:00:22Z</time>
      </trkpt>
      <trkpt lat="44.18741" lon="6.81363">
        <ele>2076.4</ele>
        <time>2013-07-13T11:00:24Z</time>
      </trkpt>
      <trkpt lat="44.18738" lon="6.81363">
        <ele>2076.3</ele>
        <time>2013-07-13T11:00:26Z</time>
      </trkpt>
      <trkpt lat="44.18733" lon="6.81363">
        <ele>2076.5</ele>
        <time>2013-07-13T11:00:28Z</time>
      </trkpt>
      <trkpt lat="44.18729" lon="6.81365">
        <ele>2076.4</ele>
        <time>2013-07-13T11:00:30Z</time>
      </trkpt>
      <trkpt lat="44.18725" lon="6.81365">
        <ele>2076.7</ele>
        <time>2013-07-13T11:00:32Z</time>
      </trkpt>
      <trkpt lat="44.18722" lon="6.81366">
        <ele>2076.8</ele>
        <time>2013-07-13T11:00:34Z</time>
      </trkpt>
      <trkpt lat="44.18719" lon="6.81369">
        <ele>2077.4</ele>
        <time>2013-07-13T11:00:37Z</time>
      </trkpt>
      <trkpt lat="44.18716" lon="6.81372">
        <ele>2077.7</ele>
        <time>2013-07-13T11:00:39Z</time>
      </trkpt>
      <trkpt lat="44.18714" lon="6.81375">
        <ele>2078.2</ele>
        <time>2013-07-13T11:00:41Z</time>
      </trkpt>
      <trkpt lat="44.18711" lon="6.81377">
        <ele>2078.5</ele>
        <time>2013-07-13T11:00:43Z</time>
      </trkpt>
      <trkpt lat="44.18708" lon="6.81379">
        <ele>2079</ele>
        <time>2013-07-13T11:00:45Z</time>
      </trkpt>
      <trkpt lat="44.18704" lon="6.8138">
        <ele>2079.2</ele>
        <time>2013-07-13T11:00:47Z</time>
      </trkpt>
      <trkpt lat="44.18701" lon="6.81382">
        <ele>2079.7</ele>
        <time>2013-07-13T11:00:49Z</time>
      </trkpt>
      <trkpt lat="44.18698" lon="6.81384">
        <ele>2080.1</ele>
        <time>2013-07-13T11:00:51Z</time>
      </trkpt>
      <trkpt lat="44.18694" lon="6.81386">
        <ele>2080.5</ele>
        <time>2013-07-13T11:00:53Z</time>
      </trkpt>
      <trkpt lat="44.18692" lon="6.81387">
        <ele>2080.7</ele>
        <time>2013-07-13T11:00:55Z</time>
      </trkpt>
      <trkpt lat="44.18688" lon="6.81389">
        <ele>2080.7</ele>
        <time>2013-07-13T11:00:58Z</time>
      </trkpt>
      <trkpt lat="44.18684" lon="6.81389">
        <ele>2080.7</ele>
        <time>2013-07-13T11:01:00Z</time>
      </trkpt>
      <trkpt lat="44.18681" lon="6.81389">
        <ele>2080.8</ele>
        <time>2013-07-13T11:01:02Z</time>
      </trkpt>
      <trkpt lat="44.18677" lon="6.81389">
        <ele>2080.9</ele>
        <time>2013-07-13T11:01:04Z</time>
      </trkpt>
      <trkpt lat="44.18673" lon="6.81391">
        <ele>2081</ele>
        <time>2013-07-13T11:01:06Z</time>
      </trkpt>
      <trkpt lat="44.1867" lon="6.81392">
        <ele>2081.1</ele>
        <time>2013-07-13T11:01:08Z</time>
      </trkpt>
      <trkpt lat="44.18667" lon="6.81394">
        <ele>2081.4</ele>
        <time>2013-07-13T11:01:10Z</time>
      </trkpt>
      <trkpt lat="44.18664" lon="6.81395">
        <ele>2081.5</ele>
        <time>2013-07-13T11:01:12Z</time>
      </trkpt>
      <trkpt lat="44.18661" lon="6.81397">
        <ele>2082</ele>
        <time>2013-07-13T11:01:14Z</time>
      </trkpt>
      <trkpt lat="44.18655" lon="6.81401">
        <ele>2082.7</ele>
        <time>2013-07-13T11:01:18Z</time>
      </trkpt>
      <trkpt lat="44.18652" lon="6.81404">
        <ele>2083</ele>
        <time>2013-07-13T11:01:20Z</time>
      </trkpt>
      <trkpt lat="44.18649" lon="6.81406">
        <ele>2083.1</ele>
        <time>2013-07-13T11:01:22Z</time>
      </trkpt>
      <trkpt lat="44.18645" lon="6.81409">
        <ele>2083.3</ele>
        <time>2013-07-13T11:01:24Z</time>
      </trkpt>
      <trkpt lat="44.18641" lon="6.81411">
        <ele>2083.5</ele>
        <time>2013-07-13T11:01:26Z</time>
      </trkpt>
      <trkpt lat="44.18636" lon="6.81412">
        <ele>2083.2</ele>
        <time>2013-07-13T11:01:28Z</time>
      </trkpt>
      <trkpt lat="44.1863" lon="6.81415">
        <ele>2082.9</ele>
        <time>2013-07-13T11:01:30Z</time>
      </trkpt>
      <trkpt lat="44.18626" lon="6.81417">
        <ele>2082.9</ele>
        <time>2013-07-13T11:01:32Z</time>
      </trkpt>
      <trkpt lat="44.18623" lon="6.81419">
        <ele>2082.9</ele>
        <time>2013-07-13T11:01:34Z</time>
      </trkpt>
      <trkpt lat="44.18621" lon="6.81425">
        <ele>2083.1</ele>
        <time>2013-07-13T11:01:36Z</time>
      </trkpt>
      <trkpt lat="44.1862" lon="6.8143">
        <ele>2083.2</ele>
        <time>2013-07-13T11:01:38Z</time>
      </trkpt>
      <trkpt lat="44.18621" lon="6.81435">
        <ele>2083.2</ele>
        <time>2013-07-13T11:01:40Z</time>
      </trkpt>
      <trkpt lat="44.18622" lon="6.8144">
        <ele>2083.4</ele>
        <time>2013-07-13T11:01:42Z</time>
      </trkpt>
      <trkpt lat="44.18623" lon="6.81446">
        <ele>2083.3</ele>
        <time>2013-07-13T11:01:44Z</time>
      </trkpt>
      <trkpt lat="44.18623" lon="6.81453">
        <ele>2083.5</ele>
        <time>2013-07-13T11:01:46Z</time>
      </trkpt>
      <trkpt lat="44.1862" lon="6.81461">
        <ele>2083.8</ele>
        <time>2013-07-13T11:01:48Z</time>
      </trkpt>
      <trkpt lat="44.18616" lon="6.81469">
        <ele>2084</ele>
        <time>2013-07-13T11:01:50Z</time>
      </trkpt>
      <trkpt lat="44.18611" lon="6.81478">
        <ele>2083.9</ele>
        <time>2013-07-13T11:01:52Z</time>
      </trkpt>
      <trkpt lat="44.18605" lon="6.81488">
        <ele>2083.9</ele>
        <time>2013-07-13T11:01:54Z</time>
      </trkpt>
      <trkpt lat="44.18599" lon="6.81499">
        <ele>2083.7</ele>
        <time>2013-07-13T11:01:56Z</time>
      </trkpt>
      <trkpt lat="44.18594" lon="6.81511">
        <ele>2083.4</ele>
        <time>2013-07-13T11:01:58Z</time>
      </trkpt>
      <trkpt lat="44.1859" lon="6.81523">
        <ele>2083.4</ele>
        <time>2013-07-13T11:02:00Z</time>
      </trkpt>
      <trkpt lat="44.18585" lon="6.81534">
        <ele>2083.5</ele>
        <time>2013-07-13T11:02:02Z</time>
      </trkpt>
      <trkpt lat="44.1858" lon="6.81544">
        <ele>2083.5</ele>
        <time>2013-07-13T11:02:04Z</time>
      </trkpt>
      <trkpt lat="44.18573" lon="6.81552">
        <ele>2083.3</ele>
        <time>2013-07-13T11:02:06Z</time>
      </trkpt>
      <trkpt lat="44.18567" lon="6.81561">
        <ele>2083</ele>
        <time>2013-07-13T11:02:08Z</time>
      </trkpt>
      <trkpt lat="44.1856" lon="6.81571">
        <ele>2083</ele>
        <time>2013-07-13T11:02:10Z</time>
      </trkpt>
      <trkpt lat="44.18554" lon="6.81583">
        <ele>2082.7</ele>
        <time>2013-07-13T11:02:12Z</time>
      </trkpt>
      <trkpt lat="44.18549" lon="6.81594">
        <ele>2082.2</ele>
        <time>2013-07-13T11:02:14Z</time>
      </trkpt>
      <trkpt lat="44.18543" lon="6.81605">
        <ele>2081.9</ele>
        <time>2013-07-13T11:02:16Z</time>
      </trkpt>
      <trkpt lat="44.18538" lon="6.81617">
        <ele>2081.7</ele>
        <time>2013-07-13T11:02:18Z</time>
      </trkpt>
      <trkpt lat="44.18532" lon="6.81628">
        <ele>2081.4</ele>
        <time>2013-07-13T11:02:20Z</time>
      </trkpt>
      <trkpt lat="44.18526" lon="6.81639">
        <ele>2081.3</ele>
        <time>2013-07-13T11:02:22Z</time>
      </trkpt>
      <trkpt lat="44.18521" lon="6.81649">
        <ele>2081.4</ele>
        <time>2013-07-13T11:02:24Z</time>
      </trkpt>
      <trkpt lat="44.18516" lon="6.81656">
        <ele>2081.1</ele>
        <time>2013-07-13T11:02:26Z</time>
      </trkpt>
      <trkpt lat="44.18509" lon="6.81662">
        <ele>2081.2</ele>
        <time>2013-07-13T11:02:28Z</time>
      </trkpt>
      <trkpt lat="44.18499" lon="6.81666">
        <ele>2081.1</ele>
        <time>2013-07-13T11:02:30Z</time>
      </trkpt>
      <trkpt lat="44.18489" lon="6.8167">
        <ele>2080.3</ele>
        <time>2013-07-13T11:02:32Z</time>
      </trkpt>
      <trkpt lat="44.18479" lon="6.81671">
        <ele>2079.8</ele>
        <time>2013-07-13T11:02:34Z</time>
      </trkpt>
      <trkpt lat="44.18469" lon="6.81675">
        <ele>2079.3</ele>
        <time>2013-07-13T11:02:36Z</time>
      </trkpt>
      <trkpt lat="44.18464" lon="6.81682">
        <ele>2078.6</ele>
        <time>2013-07-13T11:02:38Z</time>
      </trkpt>
      <trkpt lat="44.1846" lon="6.81683">
        <ele>2077.9</ele>
        <time>2013-07-13T11:02:40Z</time>
      </trkpt>
      <trkpt lat="44.18455" lon="6.81681">
        <ele>2077</ele>
        <time>2013-07-13T11:02:42Z</time>
      </trkpt>
      <trkpt lat="44.18451" lon="6.81676">
        <ele>2076.2</ele>
        <time>2013-07-13T11:02:44Z</time>
      </trkpt>
      <trkpt lat="44.18447" lon="6.81669">
        <ele>2075.7</ele>
        <time>2013-07-13T11:02:46Z</time>
      </trkpt>
      <trkpt lat="44.1844" lon="6.81663">
        <ele>2075.3</ele>
        <time>2013-07-13T11:02:49Z</time>
      </trkpt>
      <trkpt lat="44.18437" lon="6.81661">
        <ele>2074.9</ele>
        <time>2013-07-13T11:02:51Z</time>
      </trkpt>
      <trkpt lat="44.18434" lon="6.81661">
        <ele>2072</ele>
        <time>2013-07-13T11:02:58Z</time>
      </trkpt>
      <trkpt lat="44.18432" lon="6.81664">
        <ele>2071.5</ele>
        <time>2013-07-13T11:03:01Z</time>
      </trkpt>
      <trkpt lat="44.18431" lon="6.81668">
        <ele>2071.1</ele>
        <time>2013-07-13T11:03:04Z</time>
      </trkpt>
      <trkpt lat="44.18429" lon="6.81672">
        <ele>2071.5</ele>
        <time>2013-07-13T11:03:07Z</time>
      </trkpt>
      <trkpt lat="44.18427" lon="6.81675">
        <ele>2071.1</ele>
        <time>2013-07-13T11:03:10Z</time>
      </trkpt>
      <trkpt lat="44.18425" lon="6.81678">
        <ele>2071.4</ele>
        <time>2013-07-13T11:03:13Z</time>
      </trkpt>
      <trkpt lat="44.18423" lon="6.81681">
        <ele>2071</ele>
        <time>2013-07-13T11:03:16Z</time>
      </trkpt>
      <trkpt lat="44.18422" lon="6.81685">
        <ele>2070.9</ele>
        <time>2013-07-13T11:03:19Z</time>
      </trkpt>
      <trkpt lat="44.18423" lon="6.8169">
        <ele>2071.2</ele>
        <time>2013-07-13T11:03:22Z</time>
      </trkpt>
      <trkpt lat="44.18423" lon="6.81695">
        <ele>2071.4</ele>
        <time>2013-07-13T11:03:25Z</time>
      </trkpt>
      <trkpt lat="44.18423" lon="6.81699">
        <ele>2071.4</ele>
        <time>2013-07-13T11:03:28Z</time>
      </trkpt>
      <trkpt lat="44.18423" lon="6.81703">
        <ele>2071.5</ele>
        <time>2013-07-13T11:03:31Z</time>
      </trkpt>
      <trkpt lat="44.18424" lon="6.81707">
        <ele>2071.3</ele>
        <time>2013-07-13T11:03:34Z</time>
      </trkpt>
      <trkpt lat="44.18424" lon="6.81713">
        <ele>2070.8</ele>
        <time>2013-07-13T11:03:37Z</time>
      </trkpt>
      <trkpt lat="44.18423" lon="6.81719">
        <ele>2070.7</ele>
        <time>2013-07-13T11:03:39Z</time>
      </trkpt>
      <trkpt lat="44.18423" lon="6.81725">
        <ele>2070.5</ele>
        <time>2013-07-13T11:03:41Z</time>
      </trkpt>
      <trkpt lat="44.18423" lon="6.81733">
        <ele>2070.2</ele>
        <time>2013-07-13T11:03:43Z</time>
      </trkpt>
      <trkpt lat="44.18422" lon="6.81741">
        <ele>2070.2</ele>
        <time>2013-07-13T11:03:45Z</time>
      </trkpt>
      <trkpt lat="44.18422" lon="6.8175">
        <ele>2070.4</ele>
        <time>2013-07-13T11:03:47Z</time>
      </trkpt>
      <trkpt lat="44.18421" lon="6.81759">
        <ele>2070.5</ele>
        <time>2013-07-13T11:03:49Z</time>
      </trkpt>
      <trkpt lat="44.18419" lon="6.81768">
        <ele>2070.5</ele>
        <time>2013-07-13T11:03:51Z</time>
      </trkpt>
      <trkpt lat="44.18418" lon="6.81777">
        <ele>2070.4</ele>
        <time>2013-07-13T11:03:53Z</time>
      </trkpt>
      <trkpt lat="44.18418" lon="6.81785">
        <ele>2070.5</ele>
        <time>2013-07-13T11:03:55Z</time>
      </trkpt>
      <trkpt lat="44.18417" lon="6.81795">
        <ele>2070.6</ele>
        <time>2013-07-13T11:03:58Z</time>
      </trkpt>
      <trkpt lat="44.18417" lon="6.81801">
        <ele>2070.6</ele>
        <time>2013-07-13T11:04:00Z</time>
      </trkpt>
      <trkpt lat="44.18415" lon="6.81806">
        <ele>2071</ele>
        <time>2013-07-13T11:04:02Z</time>
      </trkpt>
      <trkpt lat="44.18412" lon="6.81811">
        <ele>2071.6</ele>
        <time>2013-07-13T11:04:04Z</time>
      </trkpt>
      <trkpt lat="44.18409" lon="6.81817">
        <ele>2072</ele>
        <time>2013-07-13T11:04:06Z</time>
      </trkpt>
      <trkpt lat="44.18406" lon="6.81822">
        <ele>2071.9</ele>
        <time>2013-07-13T11:04:08Z</time>
      </trkpt>
      <trkpt lat="44.18403" lon="6.81829">
        <ele>2071.9</ele>
        <time>2013-07-13T11:04:10Z</time>
      </trkpt>
      <trkpt lat="44.18402" lon="6.81836">
        <ele>2072.2</ele>
        <time>2013-07-13T11:04:12Z</time>
      </trkpt>
      <trkpt lat="44.18401" lon="6.81844">
        <ele>2072.3</ele>
        <time>2013-07-13T11:04:14Z</time>
      </trkpt>
      <trkpt lat="44.184" lon="6.81851">
        <ele>2072.3</ele>
        <time>2013-07-13T11:04:16Z</time>
      </trkpt>
      <trkpt lat="44.18399" lon="6.81857">
        <ele>2072.3</ele>
        <time>2013-07-13T11:04:18Z</time>
      </trkpt>
      <trkpt lat="44.18398" lon="6.81863">
        <ele>2072.3</ele>
        <time>2013-07-13T11:04:20Z</time>
      </trkpt>
      <trkpt lat="44.18397" lon="6.81869">
        <ele>2072.6</ele>
        <time>2013-07-13T11:04:22Z</time>
      </trkpt>
      <trkpt lat="44.18396" lon="6.81875">
        <ele>2072.8</ele>
        <time>2013-07-13T11:04:24Z</time>
      </trkpt>
      <trkpt lat="44.18393" lon="6.81881">
        <ele>2072.7</ele>
        <time>2013-07-13T11:04:26Z</time>
      </trkpt>
      <trkpt lat="44.18391" lon="6.81886">
        <ele>2072.8</ele>
        <time>2013-07-13T11:04:28Z</time>
      </trkpt>
      <trkpt lat="44.18387" lon="6.81892">
        <ele>2072.8</ele>
        <time>2013-07-13T11:04:30Z</time>
      </trkpt>
      <trkpt lat="44.18383" lon="6.81897">
        <ele>2073.4</ele>
        <time>2013-07-13T11:04:32Z</time>
      </trkpt>
      <trkpt lat="44.18378" lon="6.81906">
        <ele>2073.6</ele>
        <time>2013-07-13T11:04:35Z</time>
      </trkpt>
      <trkpt lat="44.18377" lon="6.8191">
        <ele>2073.6</ele>
        <time>2013-07-13T11:04:37Z</time>
      </trkpt>
      <trkpt lat="44.18376" lon="6.81916">
        <ele>2073.2</ele>
        <time>2013-07-13T11:04:39Z</time>
      </trkpt>
      <trkpt lat="44.18373" lon="6.81921">
        <ele>2073</ele>
        <time>2013-07-13T11:04:41Z</time>
      </trkpt>
      <trkpt lat="44.1837" lon="6.81925">
        <ele>2073</ele>
        <time>2013-07-13T11:04:43Z</time>
      </trkpt>
      <trkpt lat="44.18367" lon="6.8193">
        <ele>2073.1</ele>
        <time>2013-07-13T11:04:45Z</time>
      </trkpt>
      <trkpt lat="44.18363" lon="6.81934">
        <ele>2073.2</ele>
        <time>2013-07-13T11:04:47Z</time>
      </trkpt>
      <trkpt lat="44.1836" lon="6.8194">
        <ele>2073.2</ele>
        <time>2013-07-13T11:04:49Z</time>
      </trkpt>
      <trkpt lat="44.18359" lon="6.81949">
        <ele>2073.2</ele>
        <time>2013-07-13T11:04:51Z</time>
      </trkpt>
      <trkpt lat="44.18357" lon="6.81959">
        <ele>2073.6</ele>
        <time>2013-07-13T11:04:54Z</time>
      </trkpt>
      <trkpt lat="44.18354" lon="6.81965">
        <ele>2073.7</ele>
        <time>2013-07-13T11:04:56Z</time>
      </trkpt>
      <trkpt lat="44.18352" lon="6.81969">
        <ele>2073.7</ele>
        <time>2013-07-13T11:04:58Z</time>
      </trkpt>
      <trkpt lat="44.18349" lon="6.81972">
        <ele>2073.8</ele>
        <time>2013-07-13T11:05:00Z</time>
      </trkpt>
      <trkpt lat="44.18346" lon="6.81974">
        <ele>2074</ele>
        <time>2013-07-13T11:05:02Z</time>
      </trkpt>
      <trkpt lat="44.18343" lon="6.81976">
        <ele>2073.9</ele>
        <time>2013-07-13T11:05:04Z</time>
      </trkpt>
      <trkpt lat="44.1834" lon="6.81978">
        <ele>2073.9</ele>
        <time>2013-07-13T11:05:06Z</time>
      </trkpt>
      <trkpt lat="44.18338" lon="6.81981">
        <ele>2074.4</ele>
        <time>2013-07-13T11:05:08Z</time>
      </trkpt>
      <trkpt lat="44.18335" lon="6.81985">
        <ele>2074.9</ele>
        <time>2013-07-13T11:05:11Z</time>
      </trkpt>
      <trkpt lat="44.18332" lon="6.81988">
        <ele>2075.1</ele>
        <time>2013-07-13T11:05:13Z</time>
      </trkpt>
      <trkpt lat="44.18329" lon="6.81992">
        <ele>2075.3</ele>
        <time>2013-07-13T11:05:15Z</time>
      </trkpt>
      <trkpt lat="44.18326" lon="6.81996">
        <ele>2075.5</ele>
        <time>2013-07-13T11:05:17Z</time>
      </trkpt>
      <trkpt lat="44.18322" lon="6.82001">
        <ele>2075.3</ele>
        <time>2013-07-13T11:05:19Z</time>
      </trkpt>
      <trkpt lat="44.18319" lon="6.82009">
        <ele>2075.2</ele>
        <time>2013-07-13T11:05:22Z</time>
      </trkpt>
      <trkpt lat="44.18317" lon="6.82014">
        <ele>2075.4</ele>
        <time>2013-07-13T11:05:24Z</time>
      </trkpt>
      <trkpt lat="44.18315" lon="6.82018">
        <ele>2075.4</ele>
        <time>2013-07-13T11:05:26Z</time>
      </trkpt>
      <trkpt lat="44.18313" lon="6.82023">
        <ele>2075.5</ele>
        <time>2013-07-13T11:05:28Z</time>
      </trkpt>
      <trkpt lat="44.18312" lon="6.82031">
        <ele>2075.4</ele>
        <time>2013-07-13T11:05:30Z</time>
      </trkpt>
      <trkpt lat="44.18308" lon="6.82042">
        <ele>2075</ele>
        <time>2013-07-13T11:05:32Z</time>
      </trkpt>
      <trkpt lat="44.18305" lon="6.82052">
        <ele>2075</ele>
        <time>2013-07-13T11:05:34Z</time>
      </trkpt>
      <trkpt lat="44.18299" lon="6.8206">
        <ele>2075.2</ele>
        <time>2013-07-13T11:05:37Z</time>
      </trkpt>
      <trkpt lat="44.18297" lon="6.82065">
        <ele>2075.3</ele>
        <time>2013-07-13T11:05:39Z</time>
      </trkpt>
      <trkpt lat="44.18296" lon="6.82069">
        <ele>2075.8</ele>
        <time>2013-07-13T11:05:41Z</time>
      </trkpt>
      <trkpt lat="44.18296" lon="6.82074">
        <ele>2075.9</ele>
        <time>2013-07-13T11:05:43Z</time>
      </trkpt>
      <trkpt lat="44.18295" lon="6.82077">
        <ele>2076.1</ele>
        <time>2013-07-13T11:05:46Z</time>
      </trkpt>
      <trkpt lat="44.18295" lon="6.82082">
        <ele>2075.8</ele>
        <time>2013-07-13T11:05:51Z</time>
      </trkpt>
      <trkpt lat="44.18293" lon="6.82087">
        <ele>2075.7</ele>
        <time>2013-07-13T11:05:54Z</time>
      </trkpt>
      <trkpt lat="44.18292" lon="6.82093">
        <ele>2076.2</ele>
        <time>2013-07-13T11:05:57Z</time>
      </trkpt>
      <trkpt lat="44.18292" lon="6.82098">
        <ele>2076.7</ele>
        <time>2013-07-13T11:06:00Z</time>
      </trkpt>
      <trkpt lat="44.18291" lon="6.82102">
        <ele>2077</ele>
        <time>2013-07-13T11:06:03Z</time>
      </trkpt>
      <trkpt lat="44.1829" lon="6.82106">
        <ele>2077.7</ele>
        <time>2013-07-13T11:06:06Z</time>
      </trkpt>
      <trkpt lat="44.18287" lon="6.82108">
        <ele>2077.5</ele>
        <time>2013-07-13T11:06:12Z</time>
      </trkpt>
      <trkpt lat="44.18284" lon="6.82111">
        <ele>2077.7</ele>
        <time>2013-07-13T11:06:15Z</time>
      </trkpt>
      <trkpt lat="44.18282" lon="6.82116">
        <ele>2077.4</ele>
        <time>2013-07-13T11:06:18Z</time>
      </trkpt>
      <trkpt lat="44.1828" lon="6.82119">
        <ele>2077.5</ele>
        <time>2013-07-13T11:06:20Z</time>
      </trkpt>
      <trkpt lat="44.18278" lon="6.82123">
        <ele>2077.2</ele>
        <time>2013-07-13T11:06:23Z</time>
      </trkpt>
      <trkpt lat="44.18277" lon="6.82127">
        <ele>2077.3</ele>
        <time>2013-07-13T11:06:25Z</time>
      </trkpt>
      <trkpt lat="44.18276" lon="6.82131">
        <ele>2077.4</ele>
        <time>2013-07-13T11:06:27Z</time>
      </trkpt>
      <trkpt lat="44.18275" lon="6.82134">
        <ele>2077.3</ele>
        <time>2013-07-13T11:06:29Z</time>
      </trkpt>
      <trkpt lat="44.18273" lon="6.82138">
        <ele>2077.8</ele>
        <time>2013-07-13T11:06:31Z</time>
      </trkpt>
      <trkpt lat="44.18272" lon="6.82141">
        <ele>2077.9</ele>
        <time>2013-07-13T11:06:33Z</time>
      </trkpt>
      <trkpt lat="44.1827" lon="6.82145">
        <ele>2078.2</ele>
        <time>2013-07-13T11:06:35Z</time>
      </trkpt>
      <trkpt lat="44.18268" lon="6.82149">
        <ele>2078.4</ele>
        <time>2013-07-13T11:06:37Z</time>
      </trkpt>
      <trkpt lat="44.18266" lon="6.82154">
        <ele>2078.3</ele>
        <time>2013-07-13T11:06:39Z</time>
      </trkpt>
      <trkpt lat="44.18264" lon="6.82159">
        <ele>2078.3</ele>
        <time>2013-07-13T11:06:41Z</time>
      </trkpt>
      <trkpt lat="44.18261" lon="6.82162">
        <ele>2078.7</ele>
        <time>2013-07-13T11:06:43Z</time>
      </trkpt>
      <trkpt lat="44.18258" lon="6.82166">
        <ele>2078.7</ele>
        <time>2013-07-13T11:06:45Z</time>
      </trkpt>
      <trkpt lat="44.18255" lon="6.8217">
        <ele>2078.5</ele>
        <time>2013-07-13T11:06:47Z</time>
      </trkpt>
      <trkpt lat="44.18251" lon="6.82174">
        <ele>2078.4</ele>
        <time>2013-07-13T11:06:49Z</time>
      </trkpt>
      <trkpt lat="44.18247" lon="6.82177">
        <ele>2078.4</ele>
        <time>2013-07-13T11:06:51Z</time>
      </trkpt>
      <trkpt lat="44.18242" lon="6.82179">
        <ele>2078.5</ele>
        <time>2013-07-13T11:06:53Z</time>
      </trkpt>
      <trkpt lat="44.18238" lon="6.8218">
        <ele>2078.7</ele>
        <time>2013-07-13T11:06:55Z</time>
      </trkpt>
      <trkpt lat="44.18234" lon="6.82181">
        <ele>2079</ele>
        <time>2013-07-13T11:06:57Z</time>
      </trkpt>
      <trkpt lat="44.18228" lon="6.82182">
        <ele>2078.7</ele>
        <time>2013-07-13T11:06:59Z</time>
      </trkpt>
      <trkpt lat="44.18221" lon="6.82183">
        <ele>2078.6</ele>
        <time>2013-07-13T11:07:01Z</time>
      </trkpt>
      <trkpt lat="44.18215" lon="6.82186">
        <ele>2078.6</ele>
        <time>2013-07-13T11:07:03Z</time>
      </trkpt>
      <trkpt lat="44.18211" lon="6.82191">
        <ele>2078.3</ele>
        <time>2013-07-13T11:07:05Z</time>
      </trkpt>
      <trkpt lat="44.1821" lon="6.82202">
        <ele>2078.1</ele>
        <time>2013-07-13T11:07:08Z</time>
      </trkpt>
      <trkpt lat="44.18208" lon="6.82207">
        <ele>2078.3</ele>
        <time>2013-07-13T11:07:10Z</time>
      </trkpt>
      <trkpt lat="44.18206" lon="6.82213">
        <ele>2078.2</ele>
        <time>2013-07-13T11:07:12Z</time>
      </trkpt>
      <trkpt lat="44.18204" lon="6.82219">
        <ele>2078.4</ele>
        <time>2013-07-13T11:07:14Z</time>
      </trkpt>
      <trkpt lat="44.18202" lon="6.82225">
        <ele>2078.7</ele>
        <time>2013-07-13T11:07:16Z</time>
      </trkpt>
      <trkpt lat="44.18201" lon="6.82231">
        <ele>2078.8</ele>
        <time>2013-07-13T11:07:18Z</time>
      </trkpt>
      <trkpt lat="44.18198" lon="6.82237">
        <ele>2078.8</ele>
        <time>2013-07-13T11:07:20Z</time>
      </trkpt>
      <trkpt lat="44.18195" lon="6.82244">
        <ele>2078.8</ele>
        <time>2013-07-13T11:07:22Z</time>
      </trkpt>
      <trkpt lat="44.18193" lon="6.82249">
        <ele>2078.9</ele>
        <time>2013-07-13T11:07:24Z</time>
      </trkpt>
      <trkpt lat="44.1819" lon="6.82254">
        <ele>2079</ele>
        <time>2013-07-13T11:07:26Z</time>
      </trkpt>
      <trkpt lat="44.18188" lon="6.82259">
        <ele>2079</ele>
        <time>2013-07-13T11:07:28Z</time>
      </trkpt>
      <trkpt lat="44.18187" lon="6.82264">
        <ele>2079.2</ele>
        <time>2013-07-13T11:07:30Z</time>
      </trkpt>
      <trkpt lat="44.18186" lon="6.82269">
        <ele>2079.2</ele>
        <time>2013-07-13T11:07:32Z</time>
      </trkpt>
      <trkpt lat="44.18185" lon="6.82273">
        <ele>2079.5</ele>
        <time>2013-07-13T11:07:34Z</time>
      </trkpt>
      <trkpt lat="44.18184" lon="6.82278">
        <ele>2079.9</ele>
        <time>2013-07-13T11:07:36Z</time>
      </trkpt>
      <trkpt lat="44.18183" lon="6.82282">
        <ele>2080.2</ele>
        <time>2013-07-13T11:07:38Z</time>
      </trkpt>
      <trkpt lat="44.18182" lon="6.82286">
        <ele>2080</ele>
        <time>2013-07-13T11:07:40Z</time>
      </trkpt>
      <trkpt lat="44.1818" lon="6.8229">
        <ele>2080</ele>
        <time>2013-07-13T11:07:42Z</time>
      </trkpt>
      <trkpt lat="44.18178" lon="6.82295">
        <ele>2080.1</ele>
        <time>2013-07-13T11:07:44Z</time>
      </trkpt>
      <trkpt lat="44.18177" lon="6.82299">
        <ele>2080.2</ele>
        <time>2013-07-13T11:07:46Z</time>
      </trkpt>
      <trkpt lat="44.18176" lon="6.82304">
        <ele>2080.3</ele>
        <time>2013-07-13T11:07:48Z</time>
      </trkpt>
      <trkpt lat="44.18175" lon="6.82309">
        <ele>2079.9</ele>
        <time>2013-07-13T11:07:50Z</time>
      </trkpt>
      <trkpt lat="44.18175" lon="6.82312">
        <ele>2080.1</ele>
        <time>2013-07-13T11:07:52Z</time>
      </trkpt>
      <trkpt lat="44.18176" lon="6.82317">
        <ele>2081</ele>
        <time>2013-07-13T11:07:58Z</time>
      </trkpt>
      <trkpt lat="44.18175" lon="6.82322">
        <ele>2081.6</ele>
        <time>2013-07-13T11:08:01Z</time>
      </trkpt>
      <trkpt lat="44.18174" lon="6.82325">
        <ele>2082.2</ele>
        <time>2013-07-13T11:08:04Z</time>
      </trkpt>
      <trkpt lat="44.18172" lon="6.82328">
        <ele>2082.7</ele>
        <time>2013-07-13T11:08:08Z</time>
      </trkpt>
      <trkpt lat="44.18169" lon="6.82332">
        <ele>2083</ele>
        <time>2013-07-13T11:08:12Z</time>
      </trkpt>
      <trkpt lat="44.18167" lon="6.82336">
        <ele>2083.3</ele>
        <time>2013-07-13T11:08:16Z</time>
      </trkpt>
      <trkpt lat="44.18166" lon="6.8234">
        <ele>2084.3</ele>
        <time>2013-07-13T11:08:19Z</time>
      </trkpt>
      <trkpt lat="44.18164" lon="6.82342">
        <ele>2084.9</ele>
        <time>2013-07-13T11:08:22Z</time>
      </trkpt>
      <trkpt lat="44.18162" lon="6.82345">
        <ele>2085.4</ele>
        <time>2013-07-13T11:08:25Z</time>
      </trkpt>
      <trkpt lat="44.1816" lon="6.82349">
        <ele>2085.4</ele>
        <time>2013-07-13T11:08:28Z</time>
      </trkpt>
      <trkpt lat="44.18159" lon="6.82353">
        <ele>2085.9</ele>
        <time>2013-07-13T11:08:32Z</time>
      </trkpt>
      <trkpt lat="44.18158" lon="6.82357">
        <ele>2086.5</ele>
        <time>2013-07-13T11:08:38Z</time>
      </trkpt>
      <trkpt lat="44.18155" lon="6.82359">
        <ele>2086.9</ele>
        <time>2013-07-13T11:08:42Z</time>
      </trkpt>
      <trkpt lat="44.18152" lon="6.82363">
        <ele>2087.2</ele>
        <time>2013-07-13T11:08:47Z</time>
      </trkpt>
      <trkpt lat="44.1815" lon="6.82366">
        <ele>2087.2</ele>
        <time>2013-07-13T11:08:49Z</time>
      </trkpt>
      <trkpt lat="44.18147" lon="6.82367">
        <ele>2087.1</ele>
        <time>2013-07-13T11:08:51Z</time>
      </trkpt>
      <trkpt lat="44.18144" lon="6.82368">
        <ele>2087.2</ele>
        <time>2013-07-13T11:08:53Z</time>
      </trkpt>
      <trkpt lat="44.18141" lon="6.82369">
        <ele>2087.3</ele>
        <time>2013-07-13T11:08:55Z</time>
      </trkpt>
      <trkpt lat="44.18138" lon="6.8237">
        <ele>2087.5</ele>
        <time>2013-07-13T11:08:57Z</time>
      </trkpt>
      <trkpt lat="44.18135" lon="6.82372">
        <ele>2087.6</ele>
        <time>2013-07-13T11:08:59Z</time>
      </trkpt>
      <trkpt lat="44.18132" lon="6.82373">
        <ele>2087.7</ele>
        <time>2013-07-13T11:09:01Z</time>
      </trkpt>
      <trkpt lat="44.18129" lon="6.82375">
        <ele>2087.7</ele>
        <time>2013-07-13T11:09:03Z</time>
      </trkpt>
      <trkpt lat="44.18126" lon="6.82376">
        <ele>2087.6</ele>
        <time>2013-07-13T11:09:05Z</time>
      </trkpt>
      <trkpt lat="44.18123" lon="6.82378">
        <ele>2087.9</ele>
        <time>2013-07-13T11:09:07Z</time>
      </trkpt>
      <trkpt lat="44.1812" lon="6.82378">
        <ele>2088.2</ele>
        <time>2013-07-13T11:09:09Z</time>
      </trkpt>
      <trkpt lat="44.18117" lon="6.82379">
        <ele>2088.3</ele>
        <time>2013-07-13T11:09:11Z</time>
      </trkpt>
      <trkpt lat="44.18114" lon="6.82377">
        <ele>2089.3</ele>
        <time>2013-07-13T11:09:18Z</time>
      </trkpt>
      <trkpt lat="44.18117" lon="6.82377">
        <ele>2092.2</ele>
        <time>2013-07-13T11:10:38Z</time>
      </trkpt>
      <trkpt lat="44.1812" lon="6.8238">
        <ele>2091.9</ele>
        <time>2013-07-13T11:10:42Z</time>
      </trkpt>
      <trkpt lat="44.18118" lon="6.82383">
        <ele>2091.4</ele>
        <time>2013-07-13T11:10:49Z</time>
      </trkpt>
      <trkpt lat="44.18114" lon="6.82382">
        <ele>2090.7</ele>
        <time>2013-07-13T11:10:54Z</time>
      </trkpt>
      <trkpt lat="44.1811" lon="6.82384">
        <ele>2090.5</ele>
        <time>2013-07-13T11:10:56Z</time>
      </trkpt>
      <trkpt lat="44.18106" lon="6.82385">
        <ele>2090.7</ele>
        <time>2013-07-13T11:10:58Z</time>
      </trkpt>
      <trkpt lat="44.18103" lon="6.82388">
        <ele>2091</ele>
        <time>2013-07-13T11:11:00Z</time>
      </trkpt>
      <trkpt lat="44.181" lon="6.8239">
        <ele>2091.2</ele>
        <time>2013-07-13T11:11:02Z</time>
      </trkpt>
      <trkpt lat="44.18097" lon="6.82392">
        <ele>2091.7</ele>
        <time>2013-07-13T11:11:04Z</time>
      </trkpt>
      <trkpt lat="44.18093" lon="6.82394">
        <ele>2091.9</ele>
        <time>2013-07-13T11:11:07Z</time>
      </trkpt>
      <trkpt lat="44.1809" lon="6.82395">
        <ele>2092.3</ele>
        <time>2013-07-13T11:11:09Z</time>
      </trkpt>
      <trkpt lat="44.18087" lon="6.82397">
        <ele>2092.3</ele>
        <time>2013-07-13T11:11:11Z</time>
      </trkpt>
      <trkpt lat="44.18083" lon="6.82399">
        <ele>2092.3</ele>
        <time>2013-07-13T11:11:13Z</time>
      </trkpt>
      <trkpt lat="44.18078" lon="6.82403">
        <ele>2092.2</ele>
        <time>2013-07-13T11:11:15Z</time>
      </trkpt>
      <trkpt lat="44.18072" lon="6.82408">
        <ele>2092.3</ele>
        <time>2013-07-13T11:11:17Z</time>
      </trkpt>
      <trkpt lat="44.18065" lon="6.82412">
        <ele>2092.3</ele>
        <time>2013-07-13T11:11:19Z</time>
      </trkpt>
      <trkpt lat="44.18058" lon="6.82417">
        <ele>2092.2</ele>
        <time>2013-07-13T11:11:21Z</time>
      </trkpt>
      <trkpt lat="44.18052" lon="6.82424">
        <ele>2092.3</ele>
        <time>2013-07-13T11:11:23Z</time>
      </trkpt>
      <trkpt lat="44.18046" lon="6.82431">
        <ele>2092.3</ele>
        <time>2013-07-13T11:11:25Z</time>
      </trkpt>
      <trkpt lat="44.18041" lon="6.82436">
        <ele>2092.2</ele>
        <time>2013-07-13T11:11:27Z</time>
      </trkpt>
      <trkpt lat="44.18035" lon="6.82441">
        <ele>2092.1</ele>
        <time>2013-07-13T11:11:29Z</time>
      </trkpt>
      <trkpt lat="44.1803" lon="6.82446">
        <ele>2092.1</ele>
        <time>2013-07-13T11:11:31Z</time>
      </trkpt>
      <trkpt lat="44.18023" lon="6.82452">
        <ele>2092.3</ele>
        <time>2013-07-13T11:11:33Z</time>
      </trkpt>
      <trkpt lat="44.18018" lon="6.82457">
        <ele>2092.6</ele>
        <time>2013-07-13T11:11:35Z</time>
      </trkpt>
      <trkpt lat="44.18013" lon="6.82462">
        <ele>2092.5</ele>
        <time>2013-07-13T11:11:37Z</time>
      </trkpt>
      <trkpt lat="44.18007" lon="6.82472">
        <ele>2092.5</ele>
        <time>2013-07-13T11:11:39Z</time>
      </trkpt>
      <trkpt lat="44.17998" lon="6.82485">
        <ele>2092.1</ele>
        <time>2013-07-13T11:11:41Z</time>
      </trkpt>
      <trkpt lat="44.17985" lon="6.825">
        <ele>2090.7</ele>
        <time>2013-07-13T11:11:43Z</time>
      </trkpt>
      <trkpt lat="44.17972" lon="6.82516">
        <ele>2089.6</ele>
        <time>2013-07-13T11:11:45Z</time>
      </trkpt>
      <trkpt lat="44.1796" lon="6.82531">
        <ele>2088</ele>
        <time>2013-07-13T11:11:47Z</time>
      </trkpt>
      <trkpt lat="44.17947" lon="6.82541">
        <ele>2086.1</ele>
        <time>2013-07-13T11:11:49Z</time>
      </trkpt>
      <trkpt lat="44.17934" lon="6.82552">
        <ele>2083.8</ele>
        <time>2013-07-13T11:11:51Z</time>
      </trkpt>
      <trkpt lat="44.17922" lon="6.82566">
        <ele>2081.9</ele>
        <time>2013-07-13T11:11:53Z</time>
      </trkpt>
      <trkpt lat="44.17909" lon="6.82577">
        <ele>2079.4</ele>
        <time>2013-07-13T11:11:55Z</time>
      </trkpt>
      <trkpt lat="44.17899" lon="6.8259">
        <ele>2078.3</ele>
        <time>2013-07-13T11:11:57Z</time>
      </trkpt>
      <trkpt lat="44.17897" lon="6.82603">
        <ele>2077.1</ele>
        <time>2013-07-13T11:11:59Z</time>
      </trkpt>
      <trkpt lat="44.17894" lon="6.8261">
        <ele>2074.9</ele>
        <time>2013-07-13T11:12:02Z</time>
      </trkpt>
      <trkpt lat="44.1789" lon="6.82613">
        <ele>2073.7</ele>
        <time>2013-07-13T11:12:05Z</time>
      </trkpt>
      <trkpt lat="44.17887" lon="6.82615">
        <ele>2073.6</ele>
        <time>2013-07-13T11:12:07Z</time>
      </trkpt>
      <trkpt lat="44.17884" lon="6.82616">
        <ele>2072.8</ele>
        <time>2013-07-13T11:12:09Z</time>
      </trkpt>
      <trkpt lat="44.1788" lon="6.82619">
        <ele>2072.5</ele>
        <time>2013-07-13T11:12:11Z</time>
      </trkpt>
      <trkpt lat="44.17877" lon="6.82621">
        <ele>2072.8</ele>
        <time>2013-07-13T11:12:13Z</time>
      </trkpt>
      <trkpt lat="44.17873" lon="6.82624">
        <ele>2073.3</ele>
        <time>2013-07-13T11:12:15Z</time>
      </trkpt>
      <trkpt lat="44.17868" lon="6.82627">
        <ele>2073.4</ele>
        <time>2013-07-13T11:12:17Z</time>
      </trkpt>
      <trkpt lat="44.17862" lon="6.82628">
        <ele>2073.4</ele>
        <time>2013-07-13T11:12:19Z</time>
      </trkpt>
      <trkpt lat="44.17856" lon="6.82629">
        <ele>2073.1</ele>
        <time>2013-07-13T11:12:21Z</time>
      </trkpt>
      <trkpt lat="44.17849" lon="6.82631">
        <ele>2073.2</ele>
        <time>2013-07-13T11:12:23Z</time>
      </trkpt>
      <trkpt lat="44.17842" lon="6.82641">
        <ele>2073.1</ele>
        <time>2013-07-13T11:12:25Z</time>
      </trkpt>
      <trkpt lat="44.17835" lon="6.82658">
        <ele>2072.5</ele>
        <time>2013-07-13T11:12:27Z</time>
      </trkpt>
      <trkpt lat="44.17829" lon="6.82671">
        <ele>2071.6</ele>
        <time>2013-07-13T11:12:29Z</time>
      </trkpt>
      <trkpt lat="44.17822" lon="6.82679">
        <ele>2071.1</ele>
        <time>2013-07-13T11:12:31Z</time>
      </trkpt>
      <trkpt lat="44.17816" lon="6.82687">
        <ele>2071</ele>
        <time>2013-07-13T11:12:33Z</time>
      </trkpt>
      <trkpt lat="44.17813" lon="6.82702">
        <ele>2070.7</ele>
        <time>2013-07-13T11:12:36Z</time>
      </trkpt>
      <trkpt lat="44.17811" lon="6.82711">
        <ele>2070.5</ele>
        <time>2013-07-13T11:12:38Z</time>
      </trkpt>
      <trkpt lat="44.17806" lon="6.82719">
        <ele>2070.3</ele>
        <time>2013-07-13T11:12:40Z</time>
      </trkpt>
      <trkpt lat="44.17801" lon="6.82727">
        <ele>2070.1</ele>
        <time>2013-07-13T11:12:42Z</time>
      </trkpt>
      <trkpt lat="44.17795" lon="6.82734">
        <ele>2069.7</ele>
        <time>2013-07-13T11:12:45Z</time>
      </trkpt>
      <trkpt lat="44.17793" lon="6.82737">
        <ele>2067.2</ele>
        <time>2013-07-13T11:13:00Z</time>
      </trkpt>
      <trkpt lat="44.17788" lon="6.82741">
        <ele>2066.5</ele>
        <time>2013-07-13T11:13:02Z</time>
      </trkpt>
      <trkpt lat="44.17783" lon="6.82749">
        <ele>2064.9</ele>
        <time>2013-07-13T11:13:04Z</time>
      </trkpt>
      <trkpt lat="44.17778" lon="6.82761">
        <ele>2063</ele>
        <time>2013-07-13T11:13:06Z</time>
      </trkpt>
      <trkpt lat="44.17775" lon="6.82773">
        <ele>2062.4</ele>
        <time>2013-07-13T11:13:08Z</time>
      </trkpt>
      <trkpt lat="44.17772" lon="6.82786">
        <ele>2061.9</ele>
        <time>2013-07-13T11:13:10Z</time>
      </trkpt>
      <trkpt lat="44.17771" lon="6.82799">
        <ele>2061.1</ele>
        <time>2013-07-13T11:13:12Z</time>
      </trkpt>
      <trkpt lat="44.1777" lon="6.82812">
        <ele>2060.4</ele>
        <time>2013-07-13T11:13:14Z</time>
      </trkpt>
      <trkpt lat="44.1777" lon="6.82825">
        <ele>2059.5</ele>
        <time>2013-07-13T11:13:16Z</time>
      </trkpt>
      <trkpt lat="44.1777" lon="6.82836">
        <ele>2058.9</ele>
        <time>2013-07-13T11:13:18Z</time>
      </trkpt>
      <trkpt lat="44.17771" lon="6.82847">
        <ele>2058.3</ele>
        <time>2013-07-13T11:13:20Z</time>
      </trkpt>
      <trkpt lat="44.17775" lon="6.82859">
        <ele>2057.6</ele>
        <time>2013-07-13T11:13:22Z</time>
      </trkpt>
      <trkpt lat="44.1778" lon="6.8287">
        <ele>2056.9</ele>
        <time>2013-07-13T11:13:24Z</time>
      </trkpt>
      <trkpt lat="44.17783" lon="6.82878">
        <ele>2056.4</ele>
        <time>2013-07-13T11:13:26Z</time>
      </trkpt>
      <trkpt lat="44.17782" lon="6.82871">
        <ele>2051.4</ele>
        <time>2013-07-13T11:14:05Z</time>
      </trkpt>
      <trkpt lat="44.17775" lon="6.82847">
        <ele>2049.8</ele>
        <time>2013-07-13T11:16:14Z</time>
      </trkpt>
      <trkpt lat="44.17773" lon="6.82843">
        <ele>2049.8</ele>
        <time>2013-07-13T11:16:16Z</time>
      </trkpt>
      <trkpt lat="44.17767" lon="6.82829">
        <ele>2050.3</ele>
        <time>2013-07-13T11:16:26Z</time>
      </trkpt>
      <trkpt lat="44.17765" lon="6.82826">
        <ele>2050.5</ele>
        <time>2013-07-13T11:16:29Z</time>
      </trkpt>
      <trkpt lat="44.17736" lon="6.82794">
        <ele>2056.8</ele>
        <time>2013-07-13T11:17:07Z</time>
      </trkpt>
      <trkpt lat="44.17702" lon="6.82769">
        <ele>2065.6</ele>
        <time>2013-07-13T11:17:55Z</time>
      </trkpt>
      <trkpt lat="44.17667" lon="6.82745">
        <ele>2072.1</ele>
        <time>2013-07-13T11:18:40Z</time>
      </trkpt>
      <trkpt lat="44.17664" lon="6.82744">
        <ele>2072.5</ele>
        <time>2013-07-13T11:18:43Z</time>
      </trkpt>
      <trkpt lat="44.17641" lon="6.82723">
        <ele>2075.5</ele>
        <time>2013-07-13T11:19:07Z</time>
      </trkpt>
      <trkpt lat="44.17638" lon="6.82721">
        <ele>2076.3</ele>
        <time>2013-07-13T11:19:10Z</time>
      </trkpt>
      <trkpt lat="44.17605" lon="6.82701">
        <ele>2084.6</ele>
        <time>2013-07-13T11:19:48Z</time>
      </trkpt>
      <trkpt lat="44.17603" lon="6.82698">
        <ele>2084.9</ele>
        <time>2013-07-13T11:19:51Z</time>
      </trkpt>
      <trkpt lat="44.1757" lon="6.82679">
        <ele>2091.3</ele>
        <time>2013-07-13T11:20:28Z</time>
      </trkpt>
      <trkpt lat="44.17551" lon="6.82664">
        <ele>2092.4</ele>
        <time>2013-07-13T11:20:46Z</time>
      </trkpt>
      <trkpt lat="44.17548" lon="6.82663">
        <ele>2092.7</ele>
        <time>2013-07-13T11:20:48Z</time>
      </trkpt>
      <trkpt lat="44.17545" lon="6.82662">
        <ele>2092.7</ele>
        <time>2013-07-13T11:20:50Z</time>
      </trkpt>
      <trkpt lat="44.17542" lon="6.82659">
        <ele>2093.2</ele>
        <time>2013-07-13T11:20:53Z</time>
      </trkpt>
      <trkpt lat="44.17539" lon="6.82658">
        <ele>2093.1</ele>
        <time>2013-07-13T11:20:55Z</time>
      </trkpt>
      <trkpt lat="44.17535" lon="6.82656">
        <ele>2093.3</ele>
        <time>2013-07-13T11:20:57Z</time>
      </trkpt>
      <trkpt lat="44.17531" lon="6.82654">
        <ele>2093.3</ele>
        <time>2013-07-13T11:20:59Z</time>
      </trkpt>
      <trkpt lat="44.17527" lon="6.82651">
        <ele>2093.2</ele>
        <time>2013-07-13T11:21:01Z</time>
      </trkpt>
      <trkpt lat="44.17522" lon="6.82649">
        <ele>2093.4</ele>
        <time>2013-07-13T11:21:03Z</time>
      </trkpt>
      <trkpt lat="44.17518" lon="6.82646">
        <ele>2093.4</ele>
        <time>2013-07-13T11:21:05Z</time>
      </trkpt>
      <trkpt lat="44.17514" lon="6.82644">
        <ele>2093.3</ele>
        <time>2013-07-13T11:21:07Z</time>
      </trkpt>
      <trkpt lat="44.17509" lon="6.8264">
        <ele>2092.9</ele>
        <time>2013-07-13T11:21:09Z</time>
      </trkpt>
      <trkpt lat="44.17504" lon="6.82637">
        <ele>2092.7</ele>
        <time>2013-07-13T11:21:11Z</time>
      </trkpt>
      <trkpt lat="44.175" lon="6.82634">
        <ele>2092.6</ele>
        <time>2013-07-13T11:21:13Z</time>
      </trkpt>
      <trkpt lat="44.17497" lon="6.82632">
        <ele>2092.6</ele>
        <time>2013-07-13T11:21:15Z</time>
      </trkpt>
      <trkpt lat="44.17493" lon="6.82629">
        <ele>2092.2</ele>
        <time>2013-07-13T11:21:17Z</time>
      </trkpt>
      <trkpt lat="44.1749" lon="6.82626">
        <ele>2092.8</ele>
        <time>2013-07-13T11:21:19Z</time>
      </trkpt>
      <trkpt lat="44.17487" lon="6.82623">
        <ele>2093.5</ele>
        <time>2013-07-13T11:21:21Z</time>
      </trkpt>
      <trkpt lat="44.17481" lon="6.82614">
        <ele>2093.2</ele>
        <time>2013-07-13T11:21:25Z</time>
      </trkpt>
      <trkpt lat="44.17478" lon="6.82611">
        <ele>2093</ele>
        <time>2013-07-13T11:21:27Z</time>
      </trkpt>
      <trkpt lat="44.17475" lon="6.82607">
        <ele>2093.1</ele>
        <time>2013-07-13T11:21:29Z</time>
      </trkpt>
      <trkpt lat="44.17472" lon="6.82604">
        <ele>2092.8</ele>
        <time>2013-07-13T11:21:31Z</time>
      </trkpt>
      <trkpt lat="44.17469" lon="6.826">
        <ele>2092.8</ele>
        <time>2013-07-13T11:21:33Z</time>
      </trkpt>
      <trkpt lat="44.17465" lon="6.82596">
        <ele>2092.9</ele>
        <time>2013-07-13T11:21:35Z</time>
      </trkpt>
      <trkpt lat="44.17463" lon="6.82593">
        <ele>2093.1</ele>
        <time>2013-07-13T11:21:37Z</time>
      </trkpt>
      <trkpt lat="44.1746" lon="6.8259">
        <ele>2093.3</ele>
        <time>2013-07-13T11:21:39Z</time>
      </trkpt>
      <trkpt lat="44.17453" lon="6.82583">
        <ele>2092.7</ele>
        <time>2013-07-13T11:21:43Z</time>
      </trkpt>
      <trkpt lat="44.17448" lon="6.82576">
        <ele>2092.1</ele>
        <time>2013-07-13T11:21:45Z</time>
      </trkpt>
      <trkpt lat="44.17442" lon="6.82568">
        <ele>2091.8</ele>
        <time>2013-07-13T11:21:47Z</time>
      </trkpt>
      <trkpt lat="44.17435" lon="6.8256">
        <ele>2091.2</ele>
        <time>2013-07-13T11:21:49Z</time>
      </trkpt>
      <trkpt lat="44.1743" lon="6.82553">
        <ele>2091</ele>
        <time>2013-07-13T11:21:51Z</time>
      </trkpt>
      <trkpt lat="44.17425" lon="6.82549">
        <ele>2090.9</ele>
        <time>2013-07-13T11:21:53Z</time>
      </trkpt>
      <trkpt lat="44.17421" lon="6.82545">
        <ele>2091</ele>
        <time>2013-07-13T11:21:55Z</time>
      </trkpt>
      <trkpt lat="44.17417" lon="6.82542">
        <ele>2091.1</ele>
        <time>2013-07-13T11:21:57Z</time>
      </trkpt>
      <trkpt lat="44.17414" lon="6.8254">
        <ele>2091</ele>
        <time>2013-07-13T11:21:59Z</time>
      </trkpt>
      <trkpt lat="44.1741" lon="6.82538">
        <ele>2090.9</ele>
        <time>2013-07-13T11:22:01Z</time>
      </trkpt>
      <trkpt lat="44.17407" lon="6.82535">
        <ele>2091</ele>
        <time>2013-07-13T11:22:03Z</time>
      </trkpt>
      <trkpt lat="44.17404" lon="6.82532">
        <ele>2091.3</ele>
        <time>2013-07-13T11:22:05Z</time>
      </trkpt>
      <trkpt lat="44.174" lon="6.8253">
        <ele>2091.3</ele>
        <time>2013-07-13T11:22:07Z</time>
      </trkpt>
      <trkpt lat="44.17397" lon="6.82528">
        <ele>2091.7</ele>
        <time>2013-07-13T11:22:09Z</time>
      </trkpt>
      <trkpt lat="44.17394" lon="6.82525">
        <ele>2091.6</ele>
        <time>2013-07-13T11:22:11Z</time>
      </trkpt>
      <trkpt lat="44.1739" lon="6.82522">
        <ele>2091.6</ele>
        <time>2013-07-13T11:22:13Z</time>
      </trkpt>
      <trkpt lat="44.17387" lon="6.8252">
        <ele>2091.8</ele>
        <time>2013-07-13T11:22:15Z</time>
      </trkpt>
      <trkpt lat="44.17384" lon="6.82517">
        <ele>2092</ele>
        <time>2013-07-13T11:22:17Z</time>
      </trkpt>
      <trkpt lat="44.17381" lon="6.82515">
        <ele>2092.4</ele>
        <time>2013-07-13T11:22:19Z</time>
      </trkpt>
      <trkpt lat="44.17379" lon="6.82512">
        <ele>2092.9</ele>
        <time>2013-07-13T11:22:21Z</time>
      </trkpt>
      <trkpt lat="44.17373" lon="6.82507">
        <ele>2093.3</ele>
        <time>2013-07-13T11:22:25Z</time>
      </trkpt>
      <trkpt lat="44.17371" lon="6.82505">
        <ele>2093.6</ele>
        <time>2013-07-13T11:22:27Z</time>
      </trkpt>
      <trkpt lat="44.17368" lon="6.82503">
        <ele>2093.8</ele>
        <time>2013-07-13T11:22:29Z</time>
      </trkpt>
      <trkpt lat="44.17365" lon="6.825">
        <ele>2093.9</ele>
        <time>2013-07-13T11:22:31Z</time>
      </trkpt>
      <trkpt lat="44.17363" lon="6.82498">
        <ele>2094.1</ele>
        <time>2013-07-13T11:22:33Z</time>
      </trkpt>
      <trkpt lat="44.1736" lon="6.82496">
        <ele>2094</ele>
        <time>2013-07-13T11:22:35Z</time>
      </trkpt>
      <trkpt lat="44.17357" lon="6.82493">
        <ele>2094.4</ele>
        <time>2013-07-13T11:22:37Z</time>
      </trkpt>
      <trkpt lat="44.17354" lon="6.82491">
        <ele>2094.6</ele>
        <time>2013-07-13T11:22:39Z</time>
      </trkpt>
      <trkpt lat="44.17351" lon="6.82488">
        <ele>2094.9</ele>
        <time>2013-07-13T11:22:41Z</time>
      </trkpt>
      <trkpt lat="44.17347" lon="6.82482">
        <ele>2095.7</ele>
        <time>2013-07-13T11:22:45Z</time>
      </trkpt>
      <trkpt lat="44.17344" lon="6.8248">
        <ele>2096.2</ele>
        <time>2013-07-13T11:22:47Z</time>
      </trkpt>
      <trkpt lat="44.17341" lon="6.82478">
        <ele>2096.1</ele>
        <time>2013-07-13T11:22:50Z</time>
      </trkpt>
      <trkpt lat="44.17338" lon="6.82475">
        <ele>2096.1</ele>
        <time>2013-07-13T11:22:53Z</time>
      </trkpt>
      <trkpt lat="44.17308" lon="6.82445">
        <ele>2102.3</ele>
        <time>2013-07-13T11:23:26Z</time>
      </trkpt>
      <trkpt lat="44.17305" lon="6.82443">
        <ele>2102.6</ele>
        <time>2013-07-13T11:23:29Z</time>
      </trkpt>
      <trkpt lat="44.17274" lon="6.82417">
        <ele>2110.2</ele>
        <time>2013-07-13T11:24:08Z</time>
      </trkpt>
      <trkpt lat="44.17272" lon="6.82415">
        <ele>2110.3</ele>
        <time>2013-07-13T11:24:11Z</time>
      </trkpt>
      <trkpt lat="44.17241" lon="6.82392">
        <ele>2122</ele>
        <time>2013-07-13T11:25:02Z</time>
      </trkpt>
      <trkpt lat="44.17206" lon="6.82377">
        <ele>2135.1</ele>
        <time>2013-07-13T11:26:10Z</time>
      </trkpt>
      <trkpt lat="44.17179" lon="6.82368">
        <ele>2137.8</ele>
        <time>2013-07-13T11:26:40Z</time>
      </trkpt>
      <trkpt lat="44.17176" lon="6.82368">
        <ele>2137.9</ele>
        <time>2013-07-13T11:26:42Z</time>
      </trkpt>
      <trkpt lat="44.17173" lon="6.82367">
        <ele>2138.1</ele>
        <time>2013-07-13T11:26:44Z</time>
      </trkpt>
      <trkpt lat="44.1717" lon="6.82366">
        <ele>2138.2</ele>
        <time>2013-07-13T11:26:46Z</time>
      </trkpt>
      <trkpt lat="44.17167" lon="6.82365">
        <ele>2138.1</ele>
        <time>2013-07-13T11:26:48Z</time>
      </trkpt>
      <trkpt lat="44.17164" lon="6.82363">
        <ele>2137.3</ele>
        <time>2013-07-13T11:26:50Z</time>
      </trkpt>
      <trkpt lat="44.17161" lon="6.82361">
        <ele>2136.9</ele>
        <time>2013-07-13T11:26:52Z</time>
      </trkpt>
      <trkpt lat="44.17158" lon="6.8236">
        <ele>2136.9</ele>
        <time>2013-07-13T11:26:54Z</time>
      </trkpt>
      <trkpt lat="44.17155" lon="6.82359">
        <ele>2137.3</ele>
        <time>2013-07-13T11:26:56Z</time>
      </trkpt>
      <trkpt lat="44.17152" lon="6.82358">
        <ele>2137.9</ele>
        <time>2013-07-13T11:26:58Z</time>
      </trkpt>
      <trkpt lat="44.1715" lon="6.82357">
        <ele>2137.9</ele>
        <time>2013-07-13T11:27:00Z</time>
      </trkpt>
      <trkpt lat="44.17147" lon="6.82355">
        <ele>2137.6</ele>
        <time>2013-07-13T11:27:02Z</time>
      </trkpt>
      <trkpt lat="44.17144" lon="6.82354">
        <ele>2137.6</ele>
        <time>2013-07-13T11:27:04Z</time>
      </trkpt>
      <trkpt lat="44.17141" lon="6.82353">
        <ele>2137.7</ele>
        <time>2013-07-13T11:27:06Z</time>
      </trkpt>
      <trkpt lat="44.17138" lon="6.82352">
        <ele>2138.4</ele>
        <time>2013-07-13T11:27:08Z</time>
      </trkpt>
      <trkpt lat="44.17135" lon="6.82351">
        <ele>2138.5</ele>
        <time>2013-07-13T11:27:10Z</time>
      </trkpt>
      <trkpt lat="44.17132" lon="6.82348">
        <ele>2138.6</ele>
        <time>2013-07-13T11:27:12Z</time>
      </trkpt>
      <trkpt lat="44.17129" lon="6.82347">
        <ele>2138.7</ele>
        <time>2013-07-13T11:27:14Z</time>
      </trkpt>
      <trkpt lat="44.17126" lon="6.82345">
        <ele>2138.8</ele>
        <time>2013-07-13T11:27:16Z</time>
      </trkpt>
      <trkpt lat="44.17123" lon="6.82343">
        <ele>2138.9</ele>
        <time>2013-07-13T11:27:18Z</time>
      </trkpt>
      <trkpt lat="44.17119" lon="6.8234">
        <ele>2139.3</ele>
        <time>2013-07-13T11:27:20Z</time>
      </trkpt>
      <trkpt lat="44.17117" lon="6.82337">
        <ele>2139.6</ele>
        <time>2013-07-13T11:27:22Z</time>
      </trkpt>
      <trkpt lat="44.17114" lon="6.82335">
        <ele>2140</ele>
        <time>2013-07-13T11:27:24Z</time>
      </trkpt>
      <trkpt lat="44.17111" lon="6.82333">
        <ele>2140.4</ele>
        <time>2013-07-13T11:27:26Z</time>
      </trkpt>
      <trkpt lat="44.17108" lon="6.8233">
        <ele>2140.7</ele>
        <time>2013-07-13T11:27:28Z</time>
      </trkpt>
      <trkpt lat="44.17105" lon="6.82328">
        <ele>2141</ele>
        <time>2013-07-13T11:27:30Z</time>
      </trkpt>
      <trkpt lat="44.17102" lon="6.82325">
        <ele>2141.2</ele>
        <time>2013-07-13T11:27:32Z</time>
      </trkpt>
      <trkpt lat="44.171" lon="6.82323">
        <ele>2141.3</ele>
        <time>2013-07-13T11:27:34Z</time>
      </trkpt>
      <trkpt lat="44.17097" lon="6.82321">
        <ele>2141.4</ele>
        <time>2013-07-13T11:27:36Z</time>
      </trkpt>
      <trkpt lat="44.17095" lon="6.82318">
        <ele>2141.6</ele>
        <time>2013-07-13T11:27:38Z</time>
      </trkpt>
      <trkpt lat="44.17092" lon="6.82315">
        <ele>2141.9</ele>
        <time>2013-07-13T11:27:40Z</time>
      </trkpt>
      <trkpt lat="44.1709" lon="6.82313">
        <ele>2142.1</ele>
        <time>2013-07-13T11:27:42Z</time>
      </trkpt>
      <trkpt lat="44.17087" lon="6.8231">
        <ele>2142.3</ele>
        <time>2013-07-13T11:27:44Z</time>
      </trkpt>
      <trkpt lat="44.17085" lon="6.82308">
        <ele>2142.9</ele>
        <time>2013-07-13T11:27:46Z</time>
      </trkpt>
      <trkpt lat="44.17083" lon="6.82305">
        <ele>2143.2</ele>
        <time>2013-07-13T11:27:48Z</time>
      </trkpt>
      <trkpt lat="44.1708" lon="6.82302">
        <ele>2143.7</ele>
        <time>2013-07-13T11:27:50Z</time>
      </trkpt>
      <trkpt lat="44.17078" lon="6.82299">
        <ele>2143.8</ele>
        <time>2013-07-13T11:27:52Z</time>
      </trkpt>
      <trkpt lat="44.17074" lon="6.82297">
        <ele>2143.9</ele>
        <time>2013-07-13T11:27:55Z</time>
      </trkpt>
      <trkpt lat="44.17072" lon="6.82294">
        <ele>2144</ele>
        <time>2013-07-13T11:27:57Z</time>
      </trkpt>
      <trkpt lat="44.17069" lon="6.82292">
        <ele>2144</ele>
        <time>2013-07-13T11:27:59Z</time>
      </trkpt>
      <trkpt lat="44.17066" lon="6.82291">
        <ele>2144</ele>
        <time>2013-07-13T11:28:01Z</time>
      </trkpt>
      <trkpt lat="44.17063" lon="6.82288">
        <ele>2144.3</ele>
        <time>2013-07-13T11:28:03Z</time>
      </trkpt>
      <trkpt lat="44.17061" lon="6.82287">
        <ele>2144.8</ele>
        <time>2013-07-13T11:28:05Z</time>
      </trkpt>
      <trkpt lat="44.17058" lon="6.82285">
        <ele>2144.9</ele>
        <time>2013-07-13T11:28:07Z</time>
      </trkpt>
      <trkpt lat="44.17056" lon="6.82283">
        <ele>2145</ele>
        <time>2013-07-13T11:28:09Z</time>
      </trkpt>
      <trkpt lat="44.1703" lon="6.8225">
        <ele>2149.9</ele>
        <time>2013-07-13T11:28:38Z</time>
      </trkpt>
      <trkpt lat="44.17027" lon="6.82246">
        <ele>2150.1</ele>
        <time>2013-07-13T11:28:41Z</time>
      </trkpt>
      <trkpt lat="44.17024" lon="6.8224">
        <ele>2150.6</ele>
        <time>2013-07-13T11:28:44Z</time>
      </trkpt>
      <trkpt lat="44.17021" lon="6.82238">
        <ele>2150.4</ele>
        <time>2013-07-13T11:28:46Z</time>
      </trkpt>
      <trkpt lat="44.17019" lon="6.82235">
        <ele>2150.9</ele>
        <time>2013-07-13T11:28:50Z</time>
      </trkpt>
      <trkpt lat="44.17016" lon="6.82232">
        <ele>2150.8</ele>
        <time>2013-07-13T11:28:52Z</time>
      </trkpt>
      <trkpt lat="44.1701" lon="6.82229">
        <ele>2151</ele>
        <time>2013-07-13T11:28:54Z</time>
      </trkpt>
      <trkpt lat="44.17004" lon="6.82225">
        <ele>2150.9</ele>
        <time>2013-07-13T11:28:56Z</time>
      </trkpt>
      <trkpt lat="44.16998" lon="6.82217">
        <ele>2150.6</ele>
        <time>2013-07-13T11:28:58Z</time>
      </trkpt>
      <trkpt lat="44.16994" lon="6.82209">
        <ele>2150.6</ele>
        <time>2013-07-13T11:29:00Z</time>
      </trkpt>
      <trkpt lat="44.16991" lon="6.82202">
        <ele>2150.7</ele>
        <time>2013-07-13T11:29:02Z</time>
      </trkpt>
      <trkpt lat="44.16987" lon="6.82194">
        <ele>2150.7</ele>
        <time>2013-07-13T11:29:04Z</time>
      </trkpt>
      <trkpt lat="44.16981" lon="6.82186">
        <ele>2150.3</ele>
        <time>2013-07-13T11:29:06Z</time>
      </trkpt>
      <trkpt lat="44.16974" lon="6.82177">
        <ele>2149.8</ele>
        <time>2013-07-13T11:29:08Z</time>
      </trkpt>
      <trkpt lat="44.16968" lon="6.82169">
        <ele>2149.5</ele>
        <time>2013-07-13T11:29:10Z</time>
      </trkpt>
      <trkpt lat="44.16962" lon="6.82163">
        <ele>2149.3</ele>
        <time>2013-07-13T11:29:12Z</time>
      </trkpt>
      <trkpt lat="44.16956" lon="6.82156">
        <ele>2149.3</ele>
        <time>2013-07-13T11:29:14Z</time>
      </trkpt>
      <trkpt lat="44.1695" lon="6.82152">
        <ele>2149.2</ele>
        <time>2013-07-13T11:29:16Z</time>
      </trkpt>
      <trkpt lat="44.16946" lon="6.8215">
        <ele>2149.4</ele>
        <time>2013-07-13T11:29:18Z</time>
      </trkpt>
      <trkpt lat="44.16942" lon="6.82146">
        <ele>2149.3</ele>
        <time>2013-07-13T11:29:20Z</time>
      </trkpt>
      <trkpt lat="44.16937" lon="6.82144">
        <ele>2149.1</ele>
        <time>2013-07-13T11:29:22Z</time>
      </trkpt>
      <trkpt lat="44.16933" lon="6.82141">
        <ele>2148.8</ele>
        <time>2013-07-13T11:29:24Z</time>
      </trkpt>
      <trkpt lat="44.16928" lon="6.82139">
        <ele>2148.7</ele>
        <time>2013-07-13T11:29:26Z</time>
      </trkpt>
      <trkpt lat="44.16923" lon="6.82136">
        <ele>2148</ele>
        <time>2013-07-13T11:29:28Z</time>
      </trkpt>
      <trkpt lat="44.16918" lon="6.82137">
        <ele>2148.5</ele>
        <time>2013-07-13T11:29:30Z</time>
      </trkpt>
      <trkpt lat="44.16911" lon="6.82135">
        <ele>2147.8</ele>
        <time>2013-07-13T11:29:33Z</time>
      </trkpt>
      <trkpt lat="44.16908" lon="6.82132">
        <ele>2148.1</ele>
        <time>2013-07-13T11:29:35Z</time>
      </trkpt>
      <trkpt lat="44.16905" lon="6.82128">
        <ele>2148.1</ele>
        <time>2013-07-13T11:29:37Z</time>
      </trkpt>
      <trkpt lat="44.16903" lon="6.82124">
        <ele>2148.2</ele>
        <time>2013-07-13T11:29:39Z</time>
      </trkpt>
      <trkpt lat="44.169" lon="6.82121">
        <ele>2148.2</ele>
        <time>2013-07-13T11:29:41Z</time>
      </trkpt>
      <trkpt lat="44.16897" lon="6.82117">
        <ele>2148.4</ele>
        <time>2013-07-13T11:29:43Z</time>
      </trkpt>
      <trkpt lat="44.16894" lon="6.82113">
        <ele>2149</ele>
        <time>2013-07-13T11:29:45Z</time>
      </trkpt>
      <trkpt lat="44.16892" lon="6.8211">
        <ele>2149.5</ele>
        <time>2013-07-13T11:29:47Z</time>
      </trkpt>
      <trkpt lat="44.16889" lon="6.82106">
        <ele>2149.7</ele>
        <time>2013-07-13T11:29:49Z</time>
      </trkpt>
      <trkpt lat="44.16886" lon="6.82102">
        <ele>2149.6</ele>
        <time>2013-07-13T11:29:51Z</time>
      </trkpt>
      <trkpt lat="44.16882" lon="6.82095">
        <ele>2150.7</ele>
        <time>2013-07-13T11:29:55Z</time>
      </trkpt>
      <trkpt lat="44.16881" lon="6.82091">
        <ele>2151</ele>
        <time>2013-07-13T11:29:57Z</time>
      </trkpt>
      <trkpt lat="44.16878" lon="6.82087">
        <ele>2151</ele>
        <time>2013-07-13T11:29:59Z</time>
      </trkpt>
      <trkpt lat="44.16875" lon="6.82082">
        <ele>2150.8</ele>
        <time>2013-07-13T11:30:01Z</time>
      </trkpt>
      <trkpt lat="44.16872" lon="6.82077">
        <ele>2150.8</ele>
        <time>2013-07-13T11:30:03Z</time>
      </trkpt>
      <trkpt lat="44.1687" lon="6.82072">
        <ele>2150.8</ele>
        <time>2013-07-13T11:30:05Z</time>
      </trkpt>
      <trkpt lat="44.16866" lon="6.82069">
        <ele>2151.1</ele>
        <time>2013-07-13T11:30:07Z</time>
      </trkpt>
      <trkpt lat="44.16863" lon="6.82068">
        <ele>2151.2</ele>
        <time>2013-07-13T11:30:09Z</time>
      </trkpt>
      <trkpt lat="44.1686" lon="6.82067">
        <ele>2151</ele>
        <time>2013-07-13T11:30:11Z</time>
      </trkpt>
      <trkpt lat="44.16856" lon="6.82066">
        <ele>2150.9</ele>
        <time>2013-07-13T11:30:13Z</time>
      </trkpt>
      <trkpt lat="44.16853" lon="6.82065">
        <ele>2151.1</ele>
        <time>2013-07-13T11:30:15Z</time>
      </trkpt>
      <trkpt lat="44.16849" lon="6.82064">
        <ele>2151.3</ele>
        <time>2013-07-13T11:30:17Z</time>
      </trkpt>
      <trkpt lat="44.16845" lon="6.82063">
        <ele>2151.3</ele>
        <time>2013-07-13T11:30:19Z</time>
      </trkpt>
      <trkpt lat="44.16842" lon="6.82062">
        <ele>2151.3</ele>
        <time>2013-07-13T11:30:21Z</time>
      </trkpt>
      <trkpt lat="44.16838" lon="6.8206">
        <ele>2151.6</ele>
        <time>2013-07-13T11:30:23Z</time>
      </trkpt>
      <trkpt lat="44.16835" lon="6.82058">
        <ele>2151.7</ele>
        <time>2013-07-13T11:30:25Z</time>
      </trkpt>
      <trkpt lat="44.16832" lon="6.82056">
        <ele>2151.6</ele>
        <time>2013-07-13T11:30:27Z</time>
      </trkpt>
      <trkpt lat="44.16828" lon="6.82054">
        <ele>2151.5</ele>
        <time>2013-07-13T11:30:29Z</time>
      </trkpt>
      <trkpt lat="44.16826" lon="6.82053">
        <ele>2151.4</ele>
        <time>2013-07-13T11:30:31Z</time>
      </trkpt>
      <trkpt lat="44.16823" lon="6.82051">
        <ele>2151.5</ele>
        <time>2013-07-13T11:30:33Z</time>
      </trkpt>
      <trkpt lat="44.16819" lon="6.8205">
        <ele>2151.7</ele>
        <time>2013-07-13T11:30:36Z</time>
      </trkpt>
      <trkpt lat="44.16816" lon="6.8205">
        <ele>2151.9</ele>
        <time>2013-07-13T11:30:38Z</time>
      </trkpt>
      <trkpt lat="44.16813" lon="6.8205">
        <ele>2151.9</ele>
        <time>2013-07-13T11:30:40Z</time>
      </trkpt>
      <trkpt lat="44.1681" lon="6.8205">
        <ele>2152.2</ele>
        <time>2013-07-13T11:30:42Z</time>
      </trkpt>
      <trkpt lat="44.16807" lon="6.82051">
        <ele>2152.8</ele>
        <time>2013-07-13T11:30:44Z</time>
      </trkpt>
      <trkpt lat="44.16804" lon="6.8205">
        <ele>2152.9</ele>
        <time>2013-07-13T11:30:46Z</time>
      </trkpt>
      <trkpt lat="44.16802" lon="6.82048">
        <ele>2152.8</ele>
        <time>2013-07-13T11:30:48Z</time>
      </trkpt>
      <trkpt lat="44.16798" lon="6.82047">
        <ele>2153.4</ele>
        <time>2013-07-13T11:30:51Z</time>
      </trkpt>
      <trkpt lat="44.16795" lon="6.82046">
        <ele>2153.7</ele>
        <time>2013-07-13T11:30:53Z</time>
      </trkpt>
      <trkpt lat="44.16792" lon="6.82046">
        <ele>2154</ele>
        <time>2013-07-13T11:30:55Z</time>
      </trkpt>
      <trkpt lat="44.16789" lon="6.82046">
        <ele>2154</ele>
        <time>2013-07-13T11:30:57Z</time>
      </trkpt>
      <trkpt lat="44.16786" lon="6.82044">
        <ele>2154.4</ele>
        <time>2013-07-13T11:30:59Z</time>
      </trkpt>
      <trkpt lat="44.16784" lon="6.8204">
        <ele>2154.6</ele>
        <time>2013-07-13T11:31:01Z</time>
      </trkpt>
      <trkpt lat="44.16782" lon="6.82037">
        <ele>2154.6</ele>
        <time>2013-07-13T11:31:03Z</time>
      </trkpt>
      <trkpt lat="44.1678" lon="6.82034">
        <ele>2154.5</ele>
        <time>2013-07-13T11:31:05Z</time>
      </trkpt>
      <trkpt lat="44.16778" lon="6.82031">
        <ele>2154.8</ele>
        <time>2013-07-13T11:31:07Z</time>
      </trkpt>
      <trkpt lat="44.16776" lon="6.82027">
        <ele>2154.8</ele>
        <time>2013-07-13T11:31:09Z</time>
      </trkpt>
      <trkpt lat="44.16773" lon="6.82022">
        <ele>2154.8</ele>
        <time>2013-07-13T11:31:11Z</time>
      </trkpt>
      <trkpt lat="44.16771" lon="6.82018">
        <ele>2154.8</ele>
        <time>2013-07-13T11:31:13Z</time>
      </trkpt>
      <trkpt lat="44.16769" lon="6.82014">
        <ele>2154.9</ele>
        <time>2013-07-13T11:31:15Z</time>
      </trkpt>
      <trkpt lat="44.16765" lon="6.82005">
        <ele>2155</ele>
        <time>2013-07-13T11:31:19Z</time>
      </trkpt>
      <trkpt lat="44.16762" lon="6.82001">
        <ele>2154.9</ele>
        <time>2013-07-13T11:31:21Z</time>
      </trkpt>
      <trkpt lat="44.16757" lon="6.81994">
        <ele>2154.9</ele>
        <time>2013-07-13T11:31:24Z</time>
      </trkpt>
      <trkpt lat="44.16754" lon="6.81991">
        <ele>2155.2</ele>
        <time>2013-07-13T11:31:26Z</time>
      </trkpt>
      <trkpt lat="44.16751" lon="6.81989">
        <ele>2155</ele>
        <time>2013-07-13T11:31:28Z</time>
      </trkpt>
      <trkpt lat="44.16748" lon="6.81986">
        <ele>2155.1</ele>
        <time>2013-07-13T11:31:30Z</time>
      </trkpt>
      <trkpt lat="44.16746" lon="6.81983">
        <ele>2155</ele>
        <time>2013-07-13T11:31:32Z</time>
      </trkpt>
      <trkpt lat="44.16744" lon="6.8198">
        <ele>2155.2</ele>
        <time>2013-07-13T11:31:34Z</time>
      </trkpt>
      <trkpt lat="44.16742" lon="6.81977">
        <ele>2155.2</ele>
        <time>2013-07-13T11:31:36Z</time>
      </trkpt>
      <trkpt lat="44.16739" lon="6.81974">
        <ele>2155.4</ele>
        <time>2013-07-13T11:31:38Z</time>
      </trkpt>
      <trkpt lat="44.16735" lon="6.81971">
        <ele>2155.6</ele>
        <time>2013-07-13T11:31:40Z</time>
      </trkpt>
      <trkpt lat="44.16733" lon="6.81968">
        <ele>2155.7</ele>
        <time>2013-07-13T11:31:42Z</time>
      </trkpt>
      <trkpt lat="44.1673" lon="6.81965">
        <ele>2156.1</ele>
        <time>2013-07-13T11:31:44Z</time>
      </trkpt>
      <trkpt lat="44.16727" lon="6.81964">
        <ele>2155.8</ele>
        <time>2013-07-13T11:31:46Z</time>
      </trkpt>
      <trkpt lat="44.16721" lon="6.8196">
        <ele>2155.2</ele>
        <time>2013-07-13T11:31:48Z</time>
      </trkpt>
      <trkpt lat="44.16715" lon="6.81955">
        <ele>2155.1</ele>
        <time>2013-07-13T11:31:51Z</time>
      </trkpt>
      <trkpt lat="44.16711" lon="6.81953">
        <ele>2154.8</ele>
        <time>2013-07-13T11:31:53Z</time>
      </trkpt>
      <trkpt lat="44.16707" lon="6.81951">
        <ele>2154.7</ele>
        <time>2013-07-13T11:31:55Z</time>
      </trkpt>
      <trkpt lat="44.16704" lon="6.81949">
        <ele>2154.8</ele>
        <time>2013-07-13T11:31:57Z</time>
      </trkpt>
      <trkpt lat="44.16701" lon="6.81947">
        <ele>2154.7</ele>
        <time>2013-07-13T11:31:59Z</time>
      </trkpt>
      <trkpt lat="44.16698" lon="6.81944">
        <ele>2155.2</ele>
        <time>2013-07-13T11:32:01Z</time>
      </trkpt>
      <trkpt lat="44.16695" lon="6.81942">
        <ele>2155.1</ele>
        <time>2013-07-13T11:32:03Z</time>
      </trkpt>
      <trkpt lat="44.16692" lon="6.81938">
        <ele>2154.7</ele>
        <time>2013-07-13T11:32:05Z</time>
      </trkpt>
      <trkpt lat="44.16689" lon="6.81937">
        <ele>2154.1</ele>
        <time>2013-07-13T11:32:07Z</time>
      </trkpt>
      <trkpt lat="44.16685" lon="6.81935">
        <ele>2154.1</ele>
        <time>2013-07-13T11:32:09Z</time>
      </trkpt>
      <trkpt lat="44.16682" lon="6.81933">
        <ele>2153.9</ele>
        <time>2013-07-13T11:32:11Z</time>
      </trkpt>
      <trkpt lat="44.1668" lon="6.81932">
        <ele>2154.2</ele>
        <time>2013-07-13T11:32:13Z</time>
      </trkpt>
      <trkpt lat="44.16677" lon="6.8193">
        <ele>2154.2</ele>
        <time>2013-07-13T11:32:15Z</time>
      </trkpt>
      <trkpt lat="44.16672" lon="6.81925">
        <ele>2153.9</ele>
        <time>2013-07-13T11:32:19Z</time>
      </trkpt>
      <trkpt lat="44.16669" lon="6.81923">
        <ele>2154</ele>
        <time>2013-07-13T11:32:21Z</time>
      </trkpt>
      <trkpt lat="44.16667" lon="6.81921">
        <ele>2154.3</ele>
        <time>2013-07-13T11:32:23Z</time>
      </trkpt>
      <trkpt lat="44.16665" lon="6.81917">
        <ele>2154.1</ele>
        <time>2013-07-13T11:32:25Z</time>
      </trkpt>
      <trkpt lat="44.16663" lon="6.81913">
        <ele>2154.2</ele>
        <time>2013-07-13T11:32:27Z</time>
      </trkpt>
      <trkpt lat="44.16661" lon="6.8191">
        <ele>2154.3</ele>
        <time>2013-07-13T11:32:29Z</time>
      </trkpt>
      <trkpt lat="44.1666" lon="6.81906">
        <ele>2154.1</ele>
        <time>2013-07-13T11:32:31Z</time>
      </trkpt>
      <trkpt lat="44.16658" lon="6.81902">
        <ele>2153.8</ele>
        <time>2013-07-13T11:32:33Z</time>
      </trkpt>
      <trkpt lat="44.16656" lon="6.81898">
        <ele>2153.6</ele>
        <time>2013-07-13T11:32:35Z</time>
      </trkpt>
      <trkpt lat="44.16655" lon="6.81893">
        <ele>2153.7</ele>
        <time>2013-07-13T11:32:37Z</time>
      </trkpt>
      <trkpt lat="44.16653" lon="6.81888">
        <ele>2153.7</ele>
        <time>2013-07-13T11:32:39Z</time>
      </trkpt>
      <trkpt lat="44.16651" lon="6.81885">
        <ele>2154</ele>
        <time>2013-07-13T11:32:41Z</time>
      </trkpt>
      <trkpt lat="44.16649" lon="6.8188">
        <ele>2153.5</ele>
        <time>2013-07-13T11:32:43Z</time>
      </trkpt>
      <trkpt lat="44.16646" lon="6.81876">
        <ele>2152.7</ele>
        <time>2013-07-13T11:32:45Z</time>
      </trkpt>
      <trkpt lat="44.16643" lon="6.81872">
        <ele>2152.9</ele>
        <time>2013-07-13T11:32:47Z</time>
      </trkpt>
      <trkpt lat="44.16641" lon="6.81867">
        <ele>2152.6</ele>
        <time>2013-07-13T11:32:49Z</time>
      </trkpt>
      <trkpt lat="44.16637" lon="6.81861">
        <ele>2152.5</ele>
        <time>2013-07-13T11:32:51Z</time>
      </trkpt>
      <trkpt lat="44.16632" lon="6.81856">
        <ele>2152.4</ele>
        <time>2013-07-13T11:32:53Z</time>
      </trkpt>
      <trkpt lat="44.16628" lon="6.81852">
        <ele>2152</ele>
        <time>2013-07-13T11:32:55Z</time>
      </trkpt>
      <trkpt lat="44.16626" lon="6.8185">
        <ele>2152</ele>
        <time>2013-07-13T11:32:57Z</time>
      </trkpt>
      <trkpt lat="44.16622" lon="6.81848">
        <ele>2152</ele>
        <time>2013-07-13T11:32:59Z</time>
      </trkpt>
      <trkpt lat="44.16619" lon="6.81846">
        <ele>2152</ele>
        <time>2013-07-13T11:33:01Z</time>
      </trkpt>
      <trkpt lat="44.16616" lon="6.81845">
        <ele>2152.3</ele>
        <time>2013-07-13T11:33:03Z</time>
      </trkpt>
      <trkpt lat="44.16613" lon="6.81844">
        <ele>2152.7</ele>
        <time>2013-07-13T11:33:05Z</time>
      </trkpt>
      <trkpt lat="44.16611" lon="6.81841">
        <ele>2152.6</ele>
        <time>2013-07-13T11:33:07Z</time>
      </trkpt>
      <trkpt lat="44.16608" lon="6.81839">
        <ele>2152.7</ele>
        <time>2013-07-13T11:33:09Z</time>
      </trkpt>
      <trkpt lat="44.16605" lon="6.81835">
        <ele>2154.1</ele>
        <time>2013-07-13T11:34:43Z</time>
      </trkpt>
      <trkpt lat="44.16601" lon="6.8183">
        <ele>2153.9</ele>
        <time>2013-07-13T11:34:45Z</time>
      </trkpt>
      <trkpt lat="44.16595" lon="6.81823">
        <ele>2153.8</ele>
        <time>2013-07-13T11:34:47Z</time>
      </trkpt>
      <trkpt lat="44.16588" lon="6.81815">
        <ele>2153.9</ele>
        <time>2013-07-13T11:34:49Z</time>
      </trkpt>
      <trkpt lat="44.16581" lon="6.81808">
        <ele>2153.7</ele>
        <time>2013-07-13T11:34:51Z</time>
      </trkpt>
      <trkpt lat="44.16576" lon="6.81802">
        <ele>2153.6</ele>
        <time>2013-07-13T11:34:53Z</time>
      </trkpt>
      <trkpt lat="44.1657" lon="6.81796">
        <ele>2153.3</ele>
        <time>2013-07-13T11:34:55Z</time>
      </trkpt>
      <trkpt lat="44.16565" lon="6.8179">
        <ele>2152.6</ele>
        <time>2013-07-13T11:34:57Z</time>
      </trkpt>
      <trkpt lat="44.16556" lon="6.81785">
        <ele>2152.6</ele>
        <time>2013-07-13T11:35:01Z</time>
      </trkpt>
      <trkpt lat="44.16552" lon="6.81784">
        <ele>2152.3</ele>
        <time>2013-07-13T11:35:03Z</time>
      </trkpt>
      <trkpt lat="44.16548" lon="6.81783">
        <ele>2152.2</ele>
        <time>2013-07-13T11:35:05Z</time>
      </trkpt>
      <trkpt lat="44.16545" lon="6.81782">
        <ele>2152.1</ele>
        <time>2013-07-13T11:35:07Z</time>
      </trkpt>
      <trkpt lat="44.16541" lon="6.81781">
        <ele>2152.8</ele>
        <time>2013-07-13T11:35:09Z</time>
      </trkpt>
      <trkpt lat="44.16538" lon="6.8178">
        <ele>2152.9</ele>
        <time>2013-07-13T11:35:11Z</time>
      </trkpt>
      <trkpt lat="44.16534" lon="6.81778">
        <ele>2152.3</ele>
        <time>2013-07-13T11:35:13Z</time>
      </trkpt>
      <trkpt lat="44.16531" lon="6.81775">
        <ele>2152.3</ele>
        <time>2013-07-13T11:35:15Z</time>
      </trkpt>
      <trkpt lat="44.16524" lon="6.81771">
        <ele>2152.5</ele>
        <time>2013-07-13T11:35:19Z</time>
      </trkpt>
      <trkpt lat="44.16521" lon="6.81769">
        <ele>2152.6</ele>
        <time>2013-07-13T11:35:21Z</time>
      </trkpt>
      <trkpt lat="44.16518" lon="6.81767">
        <ele>2152.5</ele>
        <time>2013-07-13T11:35:23Z</time>
      </trkpt>
      <trkpt lat="44.16511" lon="6.81764">
        <ele>2152.5</ele>
        <time>2013-07-13T11:35:28Z</time>
      </trkpt>
      <trkpt lat="44.16508" lon="6.81763">
        <ele>2152.9</ele>
        <time>2013-07-13T11:35:30Z</time>
      </trkpt>
      <trkpt lat="44.16505" lon="6.81762">
        <ele>2153</ele>
        <time>2013-07-13T11:35:32Z</time>
      </trkpt>
      <trkpt lat="44.16502" lon="6.81761">
        <ele>2153.3</ele>
        <time>2013-07-13T11:35:34Z</time>
      </trkpt>
      <trkpt lat="44.16498" lon="6.8176">
        <ele>2153.6</ele>
        <time>2013-07-13T11:35:36Z</time>
      </trkpt>
      <trkpt lat="44.16495" lon="6.81759">
        <ele>2153.7</ele>
        <time>2013-07-13T11:35:38Z</time>
      </trkpt>
      <trkpt lat="44.16492" lon="6.81757">
        <ele>2153.7</ele>
        <time>2013-07-13T11:35:40Z</time>
      </trkpt>
      <trkpt lat="44.16489" lon="6.81755">
        <ele>2154.1</ele>
        <time>2013-07-13T11:35:42Z</time>
      </trkpt>
      <trkpt lat="44.16486" lon="6.81752">
        <ele>2154.6</ele>
        <time>2013-07-13T11:35:44Z</time>
      </trkpt>
      <trkpt lat="44.16485" lon="6.81749">
        <ele>2154.7</ele>
        <time>2013-07-13T11:35:46Z</time>
      </trkpt>
      <trkpt lat="44.16483" lon="6.81746">
        <ele>2155</ele>
        <time>2013-07-13T11:35:48Z</time>
      </trkpt>
      <trkpt lat="44.1648" lon="6.81745">
        <ele>2155.1</ele>
        <time>2013-07-13T11:35:50Z</time>
      </trkpt>
      <trkpt lat="44.16477" lon="6.81743">
        <ele>2155.6</ele>
        <time>2013-07-13T11:35:52Z</time>
      </trkpt>
      <trkpt lat="44.16474" lon="6.81741">
        <ele>2156.1</ele>
        <time>2013-07-13T11:35:54Z</time>
      </trkpt>
      <trkpt lat="44.16471" lon="6.81738">
        <ele>2156.2</ele>
        <time>2013-07-13T11:35:56Z</time>
      </trkpt>
      <trkpt lat="44.16468" lon="6.81735">
        <ele>2156.6</ele>
        <time>2013-07-13T11:35:58Z</time>
      </trkpt>
      <trkpt lat="44.16465" lon="6.81732">
        <ele>2156.5</ele>
        <time>2013-07-13T11:36:00Z</time>
      </trkpt>
      <trkpt lat="44.16461" lon="6.81727">
        <ele>2157.1</ele>
        <time>2013-07-13T11:36:02Z</time>
      </trkpt>
      <trkpt lat="44.16458" lon="6.81724">
        <ele>2157.1</ele>
        <time>2013-07-13T11:36:04Z</time>
      </trkpt>
      <trkpt lat="44.16453" lon="6.8172">
        <ele>2157.4</ele>
        <time>2013-07-13T11:36:06Z</time>
      </trkpt>
      <trkpt lat="44.16449" lon="6.81716">
        <ele>2157.8</ele>
        <time>2013-07-13T11:36:08Z</time>
      </trkpt>
      <trkpt lat="44.16446" lon="6.81713">
        <ele>2158.3</ele>
        <time>2013-07-13T11:36:10Z</time>
      </trkpt>
      <trkpt lat="44.16438" lon="6.81707">
        <ele>2158.5</ele>
        <time>2013-07-13T11:36:14Z</time>
      </trkpt>
      <trkpt lat="44.16434" lon="6.81703">
        <ele>2158.7</ele>
        <time>2013-07-13T11:36:16Z</time>
      </trkpt>
      <trkpt lat="44.1643" lon="6.81701">
        <ele>2158.6</ele>
        <time>2013-07-13T11:36:18Z</time>
      </trkpt>
      <trkpt lat="44.16426" lon="6.81698">
        <ele>2158.5</ele>
        <time>2013-07-13T11:36:20Z</time>
      </trkpt>
      <trkpt lat="44.16422" lon="6.81696">
        <ele>2158.3</ele>
        <time>2013-07-13T11:36:22Z</time>
      </trkpt>
      <trkpt lat="44.16418" lon="6.81693">
        <ele>2157.9</ele>
        <time>2013-07-13T11:36:24Z</time>
      </trkpt>
      <trkpt lat="44.16415" lon="6.81692">
        <ele>2158</ele>
        <time>2013-07-13T11:36:26Z</time>
      </trkpt>
      <trkpt lat="44.16411" lon="6.81691">
        <ele>2158.3</ele>
        <time>2013-07-13T11:36:28Z</time>
      </trkpt>
      <trkpt lat="44.16408" lon="6.81689">
        <ele>2158.1</ele>
        <time>2013-07-13T11:36:30Z</time>
      </trkpt>
      <trkpt lat="44.16404" lon="6.81687">
        <ele>2157.9</ele>
        <time>2013-07-13T11:36:32Z</time>
      </trkpt>
      <trkpt lat="44.164" lon="6.81685">
        <ele>2157.9</ele>
        <time>2013-07-13T11:36:34Z</time>
      </trkpt>
      <trkpt lat="44.16396" lon="6.81685">
        <ele>2157.3</ele>
        <time>2013-07-13T11:36:36Z</time>
      </trkpt>
      <trkpt lat="44.16392" lon="6.81685">
        <ele>2157.5</ele>
        <time>2013-07-13T11:36:38Z</time>
      </trkpt>
      <trkpt lat="44.16389" lon="6.81686">
        <ele>2157.6</ele>
        <time>2013-07-13T11:36:40Z</time>
      </trkpt>
      <trkpt lat="44.16385" lon="6.81687">
        <ele>2157.5</ele>
        <time>2013-07-13T11:36:42Z</time>
      </trkpt>
      <trkpt lat="44.16382" lon="6.81688">
        <ele>2157.5</ele>
        <time>2013-07-13T11:36:44Z</time>
      </trkpt>
      <trkpt lat="44.16378" lon="6.81687">
        <ele>2157.7</ele>
        <time>2013-07-13T11:36:46Z</time>
      </trkpt>
      <trkpt lat="44.16375" lon="6.81687">
        <ele>2157.9</ele>
        <time>2013-07-13T11:36:48Z</time>
      </trkpt>
      <trkpt lat="44.16371" lon="6.81687">
        <ele>2158</ele>
        <time>2013-07-13T11:36:50Z</time>
      </trkpt>
      <trkpt lat="44.16367" lon="6.81688">
        <ele>2157.9</ele>
        <time>2013-07-13T11:36:52Z</time>
      </trkpt>
      <trkpt lat="44.16363" lon="6.81689">
        <ele>2157.8</ele>
        <time>2013-07-13T11:36:54Z</time>
      </trkpt>
      <trkpt lat="44.16357" lon="6.81688">
        <ele>2157.6</ele>
        <time>2013-07-13T11:36:56Z</time>
      </trkpt>
      <trkpt lat="44.16353" lon="6.81689">
        <ele>2157.6</ele>
        <time>2013-07-13T11:36:58Z</time>
      </trkpt>
      <trkpt lat="44.16348" lon="6.8169">
        <ele>2158.3</ele>
        <time>2013-07-13T11:37:00Z</time>
      </trkpt>
      <trkpt lat="44.16344" lon="6.81691">
        <ele>2158.9</ele>
        <time>2013-07-13T11:37:02Z</time>
      </trkpt>
      <trkpt lat="44.1634" lon="6.81691">
        <ele>2158.8</ele>
        <time>2013-07-13T11:37:04Z</time>
      </trkpt>
      <trkpt lat="44.16336" lon="6.81691">
        <ele>2158.6</ele>
        <time>2013-07-13T11:37:06Z</time>
      </trkpt>
      <trkpt lat="44.16331" lon="6.81691">
        <ele>2158.7</ele>
        <time>2013-07-13T11:37:08Z</time>
      </trkpt>
      <trkpt lat="44.16327" lon="6.81691">
        <ele>2158.4</ele>
        <time>2013-07-13T11:37:10Z</time>
      </trkpt>
      <trkpt lat="44.16323" lon="6.81692">
        <ele>2158.3</ele>
        <time>2013-07-13T11:37:12Z</time>
      </trkpt>
      <trkpt lat="44.16319" lon="6.81692">
        <ele>2158</ele>
        <time>2013-07-13T11:37:14Z</time>
      </trkpt>
      <trkpt lat="44.16315" lon="6.81692">
        <ele>2157.8</ele>
        <time>2013-07-13T11:37:16Z</time>
      </trkpt>
      <trkpt lat="44.16311" lon="6.81693">
        <ele>2158</ele>
        <time>2013-07-13T11:37:18Z</time>
      </trkpt>
      <trkpt lat="44.16306" lon="6.81692">
        <ele>2158.3</ele>
        <time>2013-07-13T11:37:20Z</time>
      </trkpt>
      <trkpt lat="44.16302" lon="6.81692">
        <ele>2158.6</ele>
        <time>2013-07-13T11:37:22Z</time>
      </trkpt>
      <trkpt lat="44.16298" lon="6.81692">
        <ele>2158.6</ele>
        <time>2013-07-13T11:37:24Z</time>
      </trkpt>
      <trkpt lat="44.16293" lon="6.81692">
        <ele>2158.8</ele>
        <time>2013-07-13T11:37:26Z</time>
      </trkpt>
      <trkpt lat="44.16288" lon="6.81691">
        <ele>2159.1</ele>
        <time>2013-07-13T11:37:28Z</time>
      </trkpt>
      <trkpt lat="44.16282" lon="6.8169">
        <ele>2159.4</ele>
        <time>2013-07-13T11:37:30Z</time>
      </trkpt>
      <trkpt lat="44.16276" lon="6.8169">
        <ele>2159.6</ele>
        <time>2013-07-13T11:37:32Z</time>
      </trkpt>
      <trkpt lat="44.16271" lon="6.81689">
        <ele>2160</ele>
        <time>2013-07-13T11:37:34Z</time>
      </trkpt>
      <trkpt lat="44.16265" lon="6.81688">
        <ele>2160.2</ele>
        <time>2013-07-13T11:37:36Z</time>
      </trkpt>
      <trkpt lat="44.16258" lon="6.81688">
        <ele>2160.4</ele>
        <time>2013-07-13T11:37:38Z</time>
      </trkpt>
      <trkpt lat="44.16252" lon="6.81688">
        <ele>2160.5</ele>
        <time>2013-07-13T11:37:40Z</time>
      </trkpt>
      <trkpt lat="44.16244" lon="6.81688">
        <ele>2160.7</ele>
        <time>2013-07-13T11:37:43Z</time>
      </trkpt>
      <trkpt lat="44.16239" lon="6.81688">
        <ele>2160.7</ele>
        <time>2013-07-13T11:37:45Z</time>
      </trkpt>
      <trkpt lat="44.16233" lon="6.81688">
        <ele>2161.2</ele>
        <time>2013-07-13T11:37:47Z</time>
      </trkpt>
      <trkpt lat="44.16228" lon="6.81687">
        <ele>2160.7</ele>
        <time>2013-07-13T11:37:49Z</time>
      </trkpt>
      <trkpt lat="44.16223" lon="6.81687">
        <ele>2160.7</ele>
        <time>2013-07-13T11:37:51Z</time>
      </trkpt>
      <trkpt lat="44.16217" lon="6.81688">
        <ele>2161.1</ele>
        <time>2013-07-13T11:37:53Z</time>
      </trkpt>
      <trkpt lat="44.16211" lon="6.81688">
        <ele>2161.6</ele>
        <time>2013-07-13T11:37:55Z</time>
      </trkpt>
      <trkpt lat="44.16206" lon="6.81689">
        <ele>2161.2</ele>
        <time>2013-07-13T11:37:57Z</time>
      </trkpt>
      <trkpt lat="44.16199" lon="6.81689">
        <ele>2160.9</ele>
        <time>2013-07-13T11:37:59Z</time>
      </trkpt>
      <trkpt lat="44.16192" lon="6.8169">
        <ele>2161.2</ele>
        <time>2013-07-13T11:38:01Z</time>
      </trkpt>
      <trkpt lat="44.16185" lon="6.81691">
        <ele>2160.9</ele>
        <time>2013-07-13T11:38:03Z</time>
      </trkpt>
      <trkpt lat="44.16177" lon="6.81691">
        <ele>2160.8</ele>
        <time>2013-07-13T11:38:05Z</time>
      </trkpt>
      <trkpt lat="44.16171" lon="6.81691">
        <ele>2161.2</ele>
        <time>2013-07-13T11:38:07Z</time>
      </trkpt>
      <trkpt lat="44.16164" lon="6.8169">
        <ele>2160.9</ele>
        <time>2013-07-13T11:38:09Z</time>
      </trkpt>
      <trkpt lat="44.16153" lon="6.81689">
        <ele>2160.3</ele>
        <time>2013-07-13T11:38:12Z</time>
      </trkpt>
      <trkpt lat="44.16145" lon="6.81687">
        <ele>2160.2</ele>
        <time>2013-07-13T11:38:14Z</time>
      </trkpt>
      <trkpt lat="44.16136" lon="6.81686">
        <ele>2160.1</ele>
        <time>2013-07-13T11:38:16Z</time>
      </trkpt>
      <trkpt lat="44.16129" lon="6.81686">
        <ele>2160.6</ele>
        <time>2013-07-13T11:38:18Z</time>
      </trkpt>
      <trkpt lat="44.16123" lon="6.81687">
        <ele>2160.7</ele>
        <time>2013-07-13T11:38:20Z</time>
      </trkpt>
      <trkpt lat="44.16117" lon="6.81687">
        <ele>2160.6</ele>
        <time>2013-07-13T11:38:22Z</time>
      </trkpt>
      <trkpt lat="44.16112" lon="6.81686">
        <ele>2160.4</ele>
        <time>2013-07-13T11:38:24Z</time>
      </trkpt>
      <trkpt lat="44.16105" lon="6.81681">
        <ele>2160.1</ele>
        <time>2013-07-13T11:38:27Z</time>
      </trkpt>
      <trkpt lat="44.16102" lon="6.81677">
        <ele>2159.8</ele>
        <time>2013-07-13T11:38:29Z</time>
      </trkpt>
      <trkpt lat="44.161" lon="6.81674">
        <ele>2160.1</ele>
        <time>2013-07-13T11:38:31Z</time>
      </trkpt>
      <trkpt lat="44.16098" lon="6.8167">
        <ele>2160.4</ele>
        <time>2013-07-13T11:38:33Z</time>
      </trkpt>
      <trkpt lat="44.16096" lon="6.81667">
        <ele>2160.7</ele>
        <time>2013-07-13T11:38:35Z</time>
      </trkpt>
      <trkpt lat="44.16093" lon="6.81663">
        <ele>2160.7</ele>
        <time>2013-07-13T11:38:37Z</time>
      </trkpt>
      <trkpt lat="44.16089" lon="6.8166">
        <ele>2160.7</ele>
        <time>2013-07-13T11:38:39Z</time>
      </trkpt>
      <trkpt lat="44.16087" lon="6.81655">
        <ele>2160.8</ele>
        <time>2013-07-13T11:38:41Z</time>
      </trkpt>
      <trkpt lat="44.16084" lon="6.81651">
        <ele>2160.8</ele>
        <time>2013-07-13T11:38:43Z</time>
      </trkpt>
      <trkpt lat="44.16081" lon="6.81647">
        <ele>2160.8</ele>
        <time>2013-07-13T11:38:45Z</time>
      </trkpt>
      <trkpt lat="44.16079" lon="6.81643">
        <ele>2160.8</ele>
        <time>2013-07-13T11:38:47Z</time>
      </trkpt>
      <trkpt lat="44.16077" lon="6.81641">
        <ele>2161.1</ele>
        <time>2013-07-13T11:38:49Z</time>
      </trkpt>
      <trkpt lat="44.16075" lon="6.81637">
        <ele>2161.2</ele>
        <time>2013-07-13T11:38:51Z</time>
      </trkpt>
      <trkpt lat="44.16073" lon="6.81633">
        <ele>2161.3</ele>
        <time>2013-07-13T11:38:53Z</time>
      </trkpt>
      <trkpt lat="44.16075" lon="6.81629">
        <ele>2161.2</ele>
        <time>2013-07-13T11:38:55Z</time>
      </trkpt>
      <trkpt lat="44.16078" lon="6.81627">
        <ele>2161.4</ele>
        <time>2013-07-13T11:38:57Z</time>
      </trkpt>
      <trkpt lat="44.16081" lon="6.81625">
        <ele>2161.1</ele>
        <time>2013-07-13T11:38:59Z</time>
      </trkpt>
      <trkpt lat="44.16084" lon="6.81622">
        <ele>2161.6</ele>
        <time>2013-07-13T11:39:01Z</time>
      </trkpt>
      <trkpt lat="44.16086" lon="6.81618">
        <ele>2161.7</ele>
        <time>2013-07-13T11:39:03Z</time>
      </trkpt>
      <trkpt lat="44.16083" lon="6.81609">
        <ele>2161.5</ele>
        <time>2013-07-13T11:39:07Z</time>
      </trkpt>
      <trkpt lat="44.16081" lon="6.81605">
        <ele>2161.7</ele>
        <time>2013-07-13T11:39:09Z</time>
      </trkpt>
      <trkpt lat="44.16061" lon="6.81585">
        <ele>2163.2</ele>
        <time>2013-07-13T11:39:27Z</time>
      </trkpt>
      <trkpt lat="44.16059" lon="6.81583">
        <ele>2163.5</ele>
        <time>2013-07-13T11:39:29Z</time>
      </trkpt>
      <trkpt lat="44.16057" lon="6.81574">
        <ele>2164.5</ele>
        <time>2013-07-13T11:39:36Z</time>
      </trkpt>
      <trkpt lat="44.1606" lon="6.81573">
        <ele>2164.5</ele>
        <time>2013-07-13T11:39:38Z</time>
      </trkpt>
      <trkpt lat="44.16079" lon="6.81558">
        <ele>2169.4</ele>
        <time>2013-07-13T11:39:56Z</time>
      </trkpt>
      <trkpt lat="44.16076" lon="6.81554">
        <ele>2169.5</ele>
        <time>2013-07-13T11:39:59Z</time>
      </trkpt>
      <trkpt lat="44.16071" lon="6.81551">
        <ele>2170.1</ele>
        <time>2013-07-13T11:40:03Z</time>
      </trkpt>
      <trkpt lat="44.16069" lon="6.81549">
        <ele>2170.2</ele>
        <time>2013-07-13T11:40:05Z</time>
      </trkpt>
      <trkpt lat="44.16036" lon="6.81525">
        <ele>2173.6</ele>
        <time>2013-07-13T11:40:35Z</time>
      </trkpt>
      <trkpt lat="44.16033" lon="6.81525">
        <ele>2173.9</ele>
        <time>2013-07-13T11:40:37Z</time>
      </trkpt>
      <trkpt lat="44.1603" lon="6.81525">
        <ele>2174.1</ele>
        <time>2013-07-13T11:40:39Z</time>
      </trkpt>
      <trkpt lat="44.16027" lon="6.81525">
        <ele>2174.4</ele>
        <time>2013-07-13T11:40:41Z</time>
      </trkpt>
      <trkpt lat="44.16024" lon="6.81524">
        <ele>2174.8</ele>
        <time>2013-07-13T11:40:43Z</time>
      </trkpt>
      <trkpt lat="44.1602" lon="6.81523">
        <ele>2174.2</ele>
        <time>2013-07-13T11:40:45Z</time>
      </trkpt>
      <trkpt lat="44.16017" lon="6.81522">
        <ele>2174.3</ele>
        <time>2013-07-13T11:40:47Z</time>
      </trkpt>
      <trkpt lat="44.16013" lon="6.81521">
        <ele>2174.1</ele>
        <time>2013-07-13T11:40:49Z</time>
      </trkpt>
      <trkpt lat="44.1601" lon="6.8152">
        <ele>2174.5</ele>
        <time>2013-07-13T11:40:51Z</time>
      </trkpt>
      <trkpt lat="44.16007" lon="6.81519">
        <ele>2175.2</ele>
        <time>2013-07-13T11:40:53Z</time>
      </trkpt>
      <trkpt lat="44.16003" lon="6.81518">
        <ele>2175.5</ele>
        <time>2013-07-13T11:40:56Z</time>
      </trkpt>
      <trkpt lat="44.15988" lon="6.81513">
        <ele>2177</ele>
        <time>2013-07-13T11:41:07Z</time>
      </trkpt>
      <trkpt lat="44.15985" lon="6.81512">
        <ele>2177.3</ele>
        <time>2013-07-13T11:41:09Z</time>
      </trkpt>
      <trkpt lat="44.15982" lon="6.81512">
        <ele>2177.7</ele>
        <time>2013-07-13T11:41:11Z</time>
      </trkpt>
      <trkpt lat="44.15978" lon="6.81511">
        <ele>2178</ele>
        <time>2013-07-13T11:41:13Z</time>
      </trkpt>
      <trkpt lat="44.15975" lon="6.81511">
        <ele>2178.3</ele>
        <time>2013-07-13T11:41:15Z</time>
      </trkpt>
      <trkpt lat="44.15972" lon="6.81511">
        <ele>2178.3</ele>
        <time>2013-07-13T11:41:17Z</time>
      </trkpt>
      <trkpt lat="44.15969" lon="6.8151">
        <ele>2178.3</ele>
        <time>2013-07-13T11:41:19Z</time>
      </trkpt>
      <trkpt lat="44.15965" lon="6.8151">
        <ele>2178.8</ele>
        <time>2013-07-13T11:41:22Z</time>
      </trkpt>
      <trkpt lat="44.15962" lon="6.81509">
        <ele>2178.8</ele>
        <time>2013-07-13T11:41:24Z</time>
      </trkpt>
      <trkpt lat="44.15959" lon="6.81509">
        <ele>2178.8</ele>
        <time>2013-07-13T11:41:26Z</time>
      </trkpt>
      <trkpt lat="44.15955" lon="6.8151">
        <ele>2178.3</ele>
        <time>2013-07-13T11:41:29Z</time>
      </trkpt>
      <trkpt lat="44.15952" lon="6.81509">
        <ele>2178.2</ele>
        <time>2013-07-13T11:41:31Z</time>
      </trkpt>
      <trkpt lat="44.15949" lon="6.81508">
        <ele>2178.7</ele>
        <time>2013-07-13T11:41:34Z</time>
      </trkpt>
      <trkpt lat="44.1594" lon="6.81505">
        <ele>2179.7</ele>
        <time>2013-07-13T11:41:40Z</time>
      </trkpt>
      <trkpt lat="44.15937" lon="6.81504">
        <ele>2180.2</ele>
        <time>2013-07-13T11:41:42Z</time>
      </trkpt>
      <trkpt lat="44.15934" lon="6.81503">
        <ele>2180.6</ele>
        <time>2013-07-13T11:41:44Z</time>
      </trkpt>
      <trkpt lat="44.15931" lon="6.81502">
        <ele>2181.4</ele>
        <time>2013-07-13T11:41:46Z</time>
      </trkpt>
      <trkpt lat="44.15928" lon="6.81502">
        <ele>2181.5</ele>
        <time>2013-07-13T11:41:48Z</time>
      </trkpt>
      <trkpt lat="44.15925" lon="6.81502">
        <ele>2181.9</ele>
        <time>2013-07-13T11:41:50Z</time>
      </trkpt>
      <trkpt lat="44.15921" lon="6.81502">
        <ele>2182.2</ele>
        <time>2013-07-13T11:41:53Z</time>
      </trkpt>
      <trkpt lat="44.15918" lon="6.81502">
        <ele>2182.2</ele>
        <time>2013-07-13T11:41:55Z</time>
      </trkpt>
      <trkpt lat="44.15914" lon="6.81502">
        <ele>2182.2</ele>
        <time>2013-07-13T11:41:58Z</time>
      </trkpt>
      <trkpt lat="44.15911" lon="6.81503">
        <ele>2182</ele>
        <time>2013-07-13T11:42:00Z</time>
      </trkpt>
      <trkpt lat="44.15908" lon="6.81502">
        <ele>2181.9</ele>
        <time>2013-07-13T11:42:02Z</time>
      </trkpt>
      <trkpt lat="44.15905" lon="6.81502">
        <ele>2181.7</ele>
        <time>2013-07-13T11:42:04Z</time>
      </trkpt>
      <trkpt lat="44.15901" lon="6.81503">
        <ele>2181.9</ele>
        <time>2013-07-13T11:42:06Z</time>
      </trkpt>
      <trkpt lat="44.15899" lon="6.81503">
        <ele>2181.8</ele>
        <time>2013-07-13T11:42:08Z</time>
      </trkpt>
      <trkpt lat="44.15892" lon="6.81502">
        <ele>2182</ele>
        <time>2013-07-13T11:42:12Z</time>
      </trkpt>
      <trkpt lat="44.15889" lon="6.81502">
        <ele>2182.2</ele>
        <time>2013-07-13T11:42:14Z</time>
      </trkpt>
      <trkpt lat="44.15886" lon="6.81502">
        <ele>2182.4</ele>
        <time>2013-07-13T11:42:16Z</time>
      </trkpt>
      <trkpt lat="44.15883" lon="6.81503">
        <ele>2182.6</ele>
        <time>2013-07-13T11:42:18Z</time>
      </trkpt>
      <trkpt lat="44.1588" lon="6.81504">
        <ele>2182.8</ele>
        <time>2013-07-13T11:42:20Z</time>
      </trkpt>
      <trkpt lat="44.15877" lon="6.81504">
        <ele>2182.7</ele>
        <time>2013-07-13T11:42:22Z</time>
      </trkpt>
      <trkpt lat="44.15874" lon="6.81505">
        <ele>2183.4</ele>
        <time>2013-07-13T11:42:24Z</time>
      </trkpt>
      <trkpt lat="44.15872" lon="6.81506">
        <ele>2183.5</ele>
        <time>2013-07-13T11:42:26Z</time>
      </trkpt>
      <trkpt lat="44.15868" lon="6.81507">
        <ele>2183.4</ele>
        <time>2013-07-13T11:42:28Z</time>
      </trkpt>
      <trkpt lat="44.15865" lon="6.81508">
        <ele>2183.5</ele>
        <time>2013-07-13T11:42:30Z</time>
      </trkpt>
      <trkpt lat="44.15827" lon="6.81514">
        <ele>2186</ele>
        <time>2013-07-13T11:43:40Z</time>
      </trkpt>
      <trkpt lat="44.15824" lon="6.81514">
        <ele>2186.9</ele>
        <time>2013-07-13T11:43:43Z</time>
      </trkpt>
      <trkpt lat="44.15789" lon="6.81514">
        <ele>2196.2</ele>
        <time>2013-07-13T11:44:32Z</time>
      </trkpt>
      <trkpt lat="44.15751" lon="6.81511">
        <ele>2203.9</ele>
        <time>2013-07-13T11:45:44Z</time>
      </trkpt>
      <trkpt lat="44.15747" lon="6.81509">
        <ele>2203.9</ele>
        <time>2013-07-13T11:45:47Z</time>
      </trkpt>
      <trkpt lat="44.15718" lon="6.81479">
        <ele>2210.6</ele>
        <time>2013-07-13T11:51:55Z</time>
      </trkpt>
      <trkpt lat="44.15714" lon="6.81472">
        <ele>2212</ele>
        <time>2013-07-13T11:52:10Z</time>
      </trkpt>
      <trkpt lat="44.15712" lon="6.81467">
        <ele>2211.7</ele>
        <time>2013-07-13T11:52:12Z</time>
      </trkpt>
      <trkpt lat="44.15709" lon="6.81464">
        <ele>2211.5</ele>
        <time>2013-07-13T11:52:15Z</time>
      </trkpt>
      <trkpt lat="44.15706" lon="6.81461">
        <ele>2211</ele>
        <time>2013-07-13T11:52:17Z</time>
      </trkpt>
      <trkpt lat="44.15703" lon="6.81459">
        <ele>2211.4</ele>
        <time>2013-07-13T11:52:19Z</time>
      </trkpt>
      <trkpt lat="44.15699" lon="6.81457">
        <ele>2210.9</ele>
        <time>2013-07-13T11:52:21Z</time>
      </trkpt>
      <trkpt lat="44.15692" lon="6.81451">
        <ele>2209.1</ele>
        <time>2013-07-13T11:52:25Z</time>
      </trkpt>
      <trkpt lat="44.15689" lon="6.81451">
        <ele>2207.4</ele>
        <time>2013-07-13T11:52:29Z</time>
      </trkpt>
      <trkpt lat="44.15684" lon="6.81448">
        <ele>2205</ele>
        <time>2013-07-13T11:52:38Z</time>
      </trkpt>
      <trkpt lat="44.1568" lon="6.81445">
        <ele>2204.6</ele>
        <time>2013-07-13T11:52:40Z</time>
      </trkpt>
      <trkpt lat="44.15676" lon="6.81443">
        <ele>2204</ele>
        <time>2013-07-13T11:52:42Z</time>
      </trkpt>
      <trkpt lat="44.15672" lon="6.8144">
        <ele>2203.1</ele>
        <time>2013-07-13T11:52:44Z</time>
      </trkpt>
      <trkpt lat="44.15668" lon="6.81437">
        <ele>2201.9</ele>
        <time>2013-07-13T11:52:46Z</time>
      </trkpt>
      <trkpt lat="44.15664" lon="6.81434">
        <ele>2201.2</ele>
        <time>2013-07-13T11:52:48Z</time>
      </trkpt>
      <trkpt lat="44.15661" lon="6.8143">
        <ele>2199.5</ele>
        <time>2013-07-13T11:52:50Z</time>
      </trkpt>
      <trkpt lat="44.15657" lon="6.81426">
        <ele>2198</ele>
        <time>2013-07-13T11:52:52Z</time>
      </trkpt>
      <trkpt lat="44.15654" lon="6.81422">
        <ele>2195.7</ele>
        <time>2013-07-13T11:52:54Z</time>
      </trkpt>
      <trkpt lat="44.15649" lon="6.81418">
        <ele>2193.7</ele>
        <time>2013-07-13T11:52:56Z</time>
      </trkpt>
      <trkpt lat="44.15642" lon="6.81413">
        <ele>2191.9</ele>
        <time>2013-07-13T11:52:58Z</time>
      </trkpt>
      <trkpt lat="44.15632" lon="6.81411">
        <ele>2190.4</ele>
        <time>2013-07-13T11:53:00Z</time>
      </trkpt>
      <trkpt lat="44.15622" lon="6.81415">
        <ele>2187.9</ele>
        <time>2013-07-13T11:53:02Z</time>
      </trkpt>
      <trkpt lat="44.15613" lon="6.81421">
        <ele>2185.5</ele>
        <time>2013-07-13T11:53:04Z</time>
      </trkpt>
      <trkpt lat="44.15604" lon="6.81427">
        <ele>2183.6</ele>
        <time>2013-07-13T11:53:06Z</time>
      </trkpt>
      <trkpt lat="44.15596" lon="6.81432">
        <ele>2181.9</ele>
        <time>2013-07-13T11:53:08Z</time>
      </trkpt>
      <trkpt lat="44.15588" lon="6.81437">
        <ele>2180</ele>
        <time>2013-07-13T11:53:10Z</time>
      </trkpt>
      <trkpt lat="44.1558" lon="6.81441">
        <ele>2177.8</ele>
        <time>2013-07-13T11:53:12Z</time>
      </trkpt>
      <trkpt lat="44.15572" lon="6.81444">
        <ele>2175.2</ele>
        <time>2013-07-13T11:53:14Z</time>
      </trkpt>
      <trkpt lat="44.15568" lon="6.81447">
        <ele>2172.9</ele>
        <time>2013-07-13T11:53:16Z</time>
      </trkpt>
      <trkpt lat="44.15565" lon="6.81449">
        <ele>2170</ele>
        <time>2013-07-13T11:53:27Z</time>
      </trkpt>
      <trkpt lat="44.15559" lon="6.81451">
        <ele>2168.9</ele>
        <time>2013-07-13T11:53:29Z</time>
      </trkpt>
      <trkpt lat="44.15554" lon="6.81455">
        <ele>2167.8</ele>
        <time>2013-07-13T11:53:31Z</time>
      </trkpt>
      <trkpt lat="44.15548" lon="6.8146">
        <ele>2166.7</ele>
        <time>2013-07-13T11:53:33Z</time>
      </trkpt>
      <trkpt lat="44.15541" lon="6.81464">
        <ele>2165.9</ele>
        <time>2013-07-13T11:53:35Z</time>
      </trkpt>
      <trkpt lat="44.15535" lon="6.8147">
        <ele>2164.6</ele>
        <time>2013-07-13T11:53:37Z</time>
      </trkpt>
      <trkpt lat="44.15529" lon="6.81476">
        <ele>2163.7</ele>
        <time>2013-07-13T11:53:39Z</time>
      </trkpt>
      <trkpt lat="44.15519" lon="6.81484">
        <ele>2162.3</ele>
        <time>2013-07-13T11:53:41Z</time>
      </trkpt>
      <trkpt lat="44.15509" lon="6.8149">
        <ele>2161.3</ele>
        <time>2013-07-13T11:53:43Z</time>
      </trkpt>
      <trkpt lat="44.15503" lon="6.81495">
        <ele>2160.1</ele>
        <time>2013-07-13T11:53:45Z</time>
      </trkpt>
      <trkpt lat="44.15491" lon="6.81502">
        <ele>2157.6</ele>
        <time>2013-07-13T11:53:48Z</time>
      </trkpt>
      <trkpt lat="44.15481" lon="6.81509">
        <ele>2155.7</ele>
        <time>2013-07-13T11:53:50Z</time>
      </trkpt>
      <trkpt lat="44.15468" lon="6.81514">
        <ele>2153.5</ele>
        <time>2013-07-13T11:53:52Z</time>
      </trkpt>
      <trkpt lat="44.15456" lon="6.8152">
        <ele>2150.9</ele>
        <time>2013-07-13T11:53:54Z</time>
      </trkpt>
      <trkpt lat="44.15444" lon="6.81524">
        <ele>2147.9</ele>
        <time>2013-07-13T11:53:56Z</time>
      </trkpt>
      <trkpt lat="44.15433" lon="6.81528">
        <ele>2145.3</ele>
        <time>2013-07-13T11:53:58Z</time>
      </trkpt>
      <trkpt lat="44.15425" lon="6.8153">
        <ele>2138.9</ele>
        <time>2013-07-13T11:54:01Z</time>
      </trkpt>
      <trkpt lat="44.1542" lon="6.81535">
        <ele>2106</ele>
        <time>2013-07-13T11:56:10Z</time>
      </trkpt>
      <trkpt lat="44.15419" lon="6.81543">
        <ele>2105.8</ele>
        <time>2013-07-13T11:56:12Z</time>
      </trkpt>
      <trkpt lat="44.15419" lon="6.81552">
        <ele>2105.9</ele>
        <time>2013-07-13T11:56:14Z</time>
      </trkpt>
      <trkpt lat="44.15416" lon="6.81558">
        <ele>2106</ele>
        <time>2013-07-13T11:56:16Z</time>
      </trkpt>
      <trkpt lat="44.15411" lon="6.81564">
        <ele>2105.8</ele>
        <time>2013-07-13T11:56:18Z</time>
      </trkpt>
      <trkpt lat="44.15407" lon="6.81574">
        <ele>2105.6</ele>
        <time>2013-07-13T11:56:20Z</time>
      </trkpt>
      <trkpt lat="44.15401" lon="6.81587">
        <ele>2105.4</ele>
        <time>2013-07-13T11:56:22Z</time>
      </trkpt>
      <trkpt lat="44.15393" lon="6.81598">
        <ele>2105</ele>
        <time>2013-07-13T11:56:24Z</time>
      </trkpt>
      <trkpt lat="44.15382" lon="6.81607">
        <ele>2104.6</ele>
        <time>2013-07-13T11:56:26Z</time>
      </trkpt>
      <trkpt lat="44.15371" lon="6.81609">
        <ele>2104.4</ele>
        <time>2013-07-13T11:56:28Z</time>
      </trkpt>
      <trkpt lat="44.15359" lon="6.81611">
        <ele>2103.9</ele>
        <time>2013-07-13T11:56:30Z</time>
      </trkpt>
      <trkpt lat="44.15351" lon="6.81614">
        <ele>2102.8</ele>
        <time>2013-07-13T11:56:32Z</time>
      </trkpt>
      <trkpt lat="44.15341" lon="6.81616">
        <ele>2101</ele>
        <time>2013-07-13T11:56:35Z</time>
      </trkpt>
      <trkpt lat="44.15329" lon="6.81615">
        <ele>2099.5</ele>
        <time>2013-07-13T11:56:37Z</time>
      </trkpt>
      <trkpt lat="44.15319" lon="6.81612">
        <ele>2092.7</ele>
        <time>2013-07-13T11:56:40Z</time>
      </trkpt>
      <trkpt lat="44.15312" lon="6.81612">
        <ele>2087.7</ele>
        <time>2013-07-13T11:56:43Z</time>
      </trkpt>
      <trkpt lat="44.15309" lon="6.81609">
        <ele>2085.7</ele>
        <time>2013-07-13T11:56:45Z</time>
      </trkpt>
      <trkpt lat="44.15306" lon="6.81605">
        <ele>2083.3</ele>
        <time>2013-07-13T11:56:47Z</time>
      </trkpt>
      <trkpt lat="44.15304" lon="6.81601">
        <ele>2081.3</ele>
        <time>2013-07-13T11:56:49Z</time>
      </trkpt>
      <trkpt lat="44.153" lon="6.81598">
        <ele>2079.8</ele>
        <time>2013-07-13T11:56:51Z</time>
      </trkpt>
      <trkpt lat="44.15295" lon="6.81595">
        <ele>2078.2</ele>
        <time>2013-07-13T11:56:53Z</time>
      </trkpt>
      <trkpt lat="44.15292" lon="6.81591">
        <ele>2076.4</ele>
        <time>2013-07-13T11:56:55Z</time>
      </trkpt>
      <trkpt lat="44.15291" lon="6.81585">
        <ele>2074.1</ele>
        <time>2013-07-13T11:56:57Z</time>
      </trkpt>
      <trkpt lat="44.15286" lon="6.81577">
        <ele>2071.2</ele>
        <time>2013-07-13T11:57:00Z</time>
      </trkpt>
      <trkpt lat="44.15282" lon="6.81576">
        <ele>2069.5</ele>
        <time>2013-07-13T11:57:02Z</time>
      </trkpt>
      <trkpt lat="44.15279" lon="6.81574">
        <ele>2067.7</ele>
        <time>2013-07-13T11:57:04Z</time>
      </trkpt>
      <trkpt lat="44.15277" lon="6.8157">
        <ele>2066.4</ele>
        <time>2013-07-13T11:57:06Z</time>
      </trkpt>
      <trkpt lat="44.15273" lon="6.81566">
        <ele>2064.7</ele>
        <time>2013-07-13T11:57:08Z</time>
      </trkpt>
      <trkpt lat="44.15269" lon="6.81565">
        <ele>2063</ele>
        <time>2013-07-13T11:57:11Z</time>
      </trkpt>
      <trkpt lat="44.15256" lon="6.8156">
        <ele>2054.8</ele>
        <time>2013-07-13T11:57:23Z</time>
      </trkpt>
      <trkpt lat="44.15255" lon="6.81556">
        <ele>2052.7</ele>
        <time>2013-07-13T11:57:25Z</time>
      </trkpt>
      <trkpt lat="44.15252" lon="6.81558">
        <ele>2050.3</ele>
        <time>2013-07-13T11:57:30Z</time>
      </trkpt>
      <trkpt lat="44.15248" lon="6.81565">
        <ele>2049</ele>
        <time>2013-07-13T11:57:32Z</time>
      </trkpt>
      <trkpt lat="44.15244" lon="6.81573">
        <ele>2047.7</ele>
        <time>2013-07-13T11:57:34Z</time>
      </trkpt>
      <trkpt lat="44.15241" lon="6.81584">
        <ele>2046.3</ele>
        <time>2013-07-13T11:57:36Z</time>
      </trkpt>
      <trkpt lat="44.15237" lon="6.81595">
        <ele>2044.8</ele>
        <time>2013-07-13T11:57:38Z</time>
      </trkpt>
      <trkpt lat="44.15235" lon="6.81602">
        <ele>2044.3</ele>
        <time>2013-07-13T11:57:40Z</time>
      </trkpt>
      <trkpt lat="44.15233" lon="6.81609">
        <ele>2043.6</ele>
        <time>2013-07-13T11:57:42Z</time>
      </trkpt>
      <trkpt lat="44.15232" lon="6.81615">
        <ele>2042.8</ele>
        <time>2013-07-13T11:57:44Z</time>
      </trkpt>
      <trkpt lat="44.15224" lon="6.8163">
        <ele>2038.6</ele>
        <time>2013-07-13T11:57:58Z</time>
      </trkpt>
      <trkpt lat="44.15221" lon="6.81632">
        <ele>2038</ele>
        <time>2013-07-13T11:58:01Z</time>
      </trkpt>
      <trkpt lat="44.15205" lon="6.81633">
        <ele>2033.6</ele>
        <time>2013-07-13T11:59:01Z</time>
      </trkpt>
      <trkpt lat="44.15199" lon="6.81635">
        <ele>2033.4</ele>
        <time>2013-07-13T11:59:03Z</time>
      </trkpt>
      <trkpt lat="44.15191" lon="6.81638">
        <ele>2033.2</ele>
        <time>2013-07-13T11:59:05Z</time>
      </trkpt>
      <trkpt lat="44.15183" lon="6.81644">
        <ele>2032.6</ele>
        <time>2013-07-13T11:59:07Z</time>
      </trkpt>
      <trkpt lat="44.15175" lon="6.81649">
        <ele>2032.2</ele>
        <time>2013-07-13T11:59:09Z</time>
      </trkpt>
      <trkpt lat="44.15161" lon="6.81648">
        <ele>2031.6</ele>
        <time>2013-07-13T11:59:12Z</time>
      </trkpt>
      <trkpt lat="44.15151" lon="6.81646">
        <ele>2031</ele>
        <time>2013-07-13T11:59:14Z</time>
      </trkpt>
      <trkpt lat="44.15142" lon="6.81647">
        <ele>2030</ele>
        <time>2013-07-13T11:59:16Z</time>
      </trkpt>
      <trkpt lat="44.15136" lon="6.81649">
        <ele>2029.1</ele>
        <time>2013-07-13T11:59:18Z</time>
      </trkpt>
      <trkpt lat="44.1513" lon="6.81653">
        <ele>2029</ele>
        <time>2013-07-13T11:59:21Z</time>
      </trkpt>
      <trkpt lat="44.15128" lon="6.81657">
        <ele>2028.4</ele>
        <time>2013-07-13T11:59:23Z</time>
      </trkpt>
      <trkpt lat="44.15128" lon="6.81662">
        <ele>2028.8</ele>
        <time>2013-07-13T11:59:25Z</time>
      </trkpt>
      <trkpt lat="44.15127" lon="6.81667">
        <ele>2028.8</ele>
        <time>2013-07-13T11:59:27Z</time>
      </trkpt>
      <trkpt lat="44.15126" lon="6.81673">
        <ele>2028.2</ele>
        <time>2013-07-13T11:59:29Z</time>
      </trkpt>
      <trkpt lat="44.15124" lon="6.8168">
        <ele>2027.6</ele>
        <time>2013-07-13T11:59:31Z</time>
      </trkpt>
      <trkpt lat="44.15123" lon="6.81689">
        <ele>2027.6</ele>
        <time>2013-07-13T11:59:33Z</time>
      </trkpt>
      <trkpt lat="44.15122" lon="6.81697">
        <ele>2026.8</ele>
        <time>2013-07-13T11:59:35Z</time>
      </trkpt>
      <trkpt lat="44.15124" lon="6.81704">
        <ele>2026.6</ele>
        <time>2013-07-13T11:59:37Z</time>
      </trkpt>
      <trkpt lat="44.15125" lon="6.81713">
        <ele>2026.1</ele>
        <time>2013-07-13T11:59:39Z</time>
      </trkpt>
      <trkpt lat="44.15128" lon="6.81724">
        <ele>2026.2</ele>
        <time>2013-07-13T11:59:42Z</time>
      </trkpt>
      <trkpt lat="44.15127" lon="6.81734">
        <ele>2026.4</ele>
        <time>2013-07-13T11:59:44Z</time>
      </trkpt>
      <trkpt lat="44.15125" lon="6.81742">
        <ele>2025.9</ele>
        <time>2013-07-13T11:59:46Z</time>
      </trkpt>
      <trkpt lat="44.15123" lon="6.81749">
        <ele>2025.5</ele>
        <time>2013-07-13T11:59:48Z</time>
      </trkpt>
      <trkpt lat="44.15122" lon="6.81755">
        <ele>2025.4</ele>
        <time>2013-07-13T11:59:50Z</time>
      </trkpt>
      <trkpt lat="44.1512" lon="6.81761">
        <ele>2025.2</ele>
        <time>2013-07-13T11:59:52Z</time>
      </trkpt>
      <trkpt lat="44.15119" lon="6.81767">
        <ele>2025.1</ele>
        <time>2013-07-13T11:59:54Z</time>
      </trkpt>
      <trkpt lat="44.15118" lon="6.81774">
        <ele>2024.9</ele>
        <time>2013-07-13T11:59:56Z</time>
      </trkpt>
      <trkpt lat="44.15116" lon="6.81781">
        <ele>2024.4</ele>
        <time>2013-07-13T11:59:58Z</time>
      </trkpt>
      <trkpt lat="44.15114" lon="6.81787">
        <ele>2024.1</ele>
        <time>2013-07-13T12:00:00Z</time>
      </trkpt>
      <trkpt lat="44.1511" lon="6.81793">
        <ele>2023.5</ele>
        <time>2013-07-13T12:00:02Z</time>
      </trkpt>
      <trkpt lat="44.15105" lon="6.81799">
        <ele>2023.5</ele>
        <time>2013-07-13T12:00:04Z</time>
      </trkpt>
      <trkpt lat="44.15098" lon="6.81806">
        <ele>2023</ele>
        <time>2013-07-13T12:00:06Z</time>
      </trkpt>
      <trkpt lat="44.15092" lon="6.81814">
        <ele>2022.6</ele>
        <time>2013-07-13T12:00:08Z</time>
      </trkpt>
      <trkpt lat="44.15089" lon="6.81824">
        <ele>2022.1</ele>
        <time>2013-07-13T12:00:10Z</time>
      </trkpt>
      <trkpt lat="44.15086" lon="6.8183">
        <ele>2021.9</ele>
        <time>2013-07-13T12:00:12Z</time>
      </trkpt>
      <trkpt lat="44.15082" lon="6.81836">
        <ele>2021.6</ele>
        <time>2013-07-13T12:00:14Z</time>
      </trkpt>
      <trkpt lat="44.15077" lon="6.81841">
        <ele>2021.1</ele>
        <time>2013-07-13T12:00:16Z</time>
      </trkpt>
      <trkpt lat="44.15073" lon="6.81846">
        <ele>2020.8</ele>
        <time>2013-07-13T12:00:18Z</time>
      </trkpt>
      <trkpt lat="44.15069" lon="6.81852">
        <ele>2020.7</ele>
        <time>2013-07-13T12:00:20Z</time>
      </trkpt>
      <trkpt lat="44.15064" lon="6.81857">
        <ele>2020.1</ele>
        <time>2013-07-13T12:00:22Z</time>
      </trkpt>
      <trkpt lat="44.15058" lon="6.81861">
        <ele>2020.2</ele>
        <time>2013-07-13T12:00:24Z</time>
      </trkpt>
      <trkpt lat="44.15052" lon="6.81865">
        <ele>2020.1</ele>
        <time>2013-07-13T12:00:26Z</time>
      </trkpt>
      <trkpt lat="44.15047" lon="6.8187">
        <ele>2019.9</ele>
        <time>2013-07-13T12:00:28Z</time>
      </trkpt>
      <trkpt lat="44.15042" lon="6.81874">
        <ele>2019.5</ele>
        <time>2013-07-13T12:00:30Z</time>
      </trkpt>
      <trkpt lat="44.15037" lon="6.81876">
        <ele>2019.4</ele>
        <time>2013-07-13T12:00:32Z</time>
      </trkpt>
      <trkpt lat="44.15033" lon="6.81877">
        <ele>2019.4</ele>
        <time>2013-07-13T12:00:34Z</time>
      </trkpt>
      <trkpt lat="44.15027" lon="6.81875">
        <ele>2019</ele>
        <time>2013-07-13T12:00:36Z</time>
      </trkpt>
      <trkpt lat="44.15021" lon="6.81875">
        <ele>2018.8</ele>
        <time>2013-07-13T12:00:38Z</time>
      </trkpt>
      <trkpt lat="44.15013" lon="6.81876">
        <ele>2018.4</ele>
        <time>2013-07-13T12:00:40Z</time>
      </trkpt>
      <trkpt lat="44.15004" lon="6.81878">
        <ele>2018</ele>
        <time>2013-07-13T12:00:42Z</time>
      </trkpt>
      <trkpt lat="44.14994" lon="6.81882">
        <ele>2017.7</ele>
        <time>2013-07-13T12:00:44Z</time>
      </trkpt>
      <trkpt lat="44.14987" lon="6.8189">
        <ele>2017</ele>
        <time>2013-07-13T12:00:46Z</time>
      </trkpt>
      <trkpt lat="44.14983" lon="6.81896">
        <ele>2016.6</ele>
        <time>2013-07-13T12:00:48Z</time>
      </trkpt>
      <trkpt lat="44.14981" lon="6.81904">
        <ele>2015.4</ele>
        <time>2013-07-13T12:00:50Z</time>
      </trkpt>
      <trkpt lat="44.14979" lon="6.81909">
        <ele>2015.2</ele>
        <time>2013-07-13T12:00:52Z</time>
      </trkpt>
      <trkpt lat="44.14976" lon="6.81913">
        <ele>2014.7</ele>
        <time>2013-07-13T12:00:54Z</time>
      </trkpt>
      <trkpt lat="44.14973" lon="6.81916">
        <ele>2014.2</ele>
        <time>2013-07-13T12:00:56Z</time>
      </trkpt>
      <trkpt lat="44.1497" lon="6.81918">
        <ele>2013.6</ele>
        <time>2013-07-13T12:00:59Z</time>
      </trkpt>
      <trkpt lat="44.14967" lon="6.81918">
        <ele>2012.9</ele>
        <time>2013-07-13T12:01:02Z</time>
      </trkpt>
      <trkpt lat="44.14964" lon="6.81921">
        <ele>2012.9</ele>
        <time>2013-07-13T12:01:04Z</time>
      </trkpt>
      <trkpt lat="44.14961" lon="6.81922">
        <ele>2012.8</ele>
        <time>2013-07-13T12:01:06Z</time>
      </trkpt>
      <trkpt lat="44.14959" lon="6.81923">
        <ele>2012.6</ele>
        <time>2013-07-13T12:01:08Z</time>
      </trkpt>
      <trkpt lat="44.14952" lon="6.81926">
        <ele>2008.3</ele>
        <time>2013-07-13T12:03:47Z</time>
      </trkpt>
      <trkpt lat="44.14947" lon="6.81928">
        <ele>2008.4</ele>
        <time>2013-07-13T12:03:49Z</time>
      </trkpt>
      <trkpt lat="44.14943" lon="6.81928">
        <ele>2008.2</ele>
        <time>2013-07-13T12:03:51Z</time>
      </trkpt>
      <trkpt lat="44.14939" lon="6.81929">
        <ele>2008.2</ele>
        <time>2013-07-13T12:03:53Z</time>
      </trkpt>
      <trkpt lat="44.14934" lon="6.81931">
        <ele>2007.9</ele>
        <time>2013-07-13T12:03:55Z</time>
      </trkpt>
      <trkpt lat="44.1493" lon="6.81932">
        <ele>2007.5</ele>
        <time>2013-07-13T12:03:57Z</time>
      </trkpt>
      <trkpt lat="44.14928" lon="6.81934">
        <ele>2007.2</ele>
        <time>2013-07-13T12:03:59Z</time>
      </trkpt>
      <trkpt lat="44.14926" lon="6.81938">
        <ele>2006.8</ele>
        <time>2013-07-13T12:04:01Z</time>
      </trkpt>
      <trkpt lat="44.14921" lon="6.81941">
        <ele>2006.4</ele>
        <time>2013-07-13T12:04:03Z</time>
      </trkpt>
      <trkpt lat="44.14915" lon="6.81943">
        <ele>2006.2</ele>
        <time>2013-07-13T12:04:05Z</time>
      </trkpt>
      <trkpt lat="44.14908" lon="6.81944">
        <ele>2006.2</ele>
        <time>2013-07-13T12:04:07Z</time>
      </trkpt>
      <trkpt lat="44.14901" lon="6.81946">
        <ele>2005.2</ele>
        <time>2013-07-13T12:04:09Z</time>
      </trkpt>
      <trkpt lat="44.14896" lon="6.8195">
        <ele>2004.7</ele>
        <time>2013-07-13T12:04:11Z</time>
      </trkpt>
      <trkpt lat="44.14891" lon="6.81956">
        <ele>2004</ele>
        <time>2013-07-13T12:04:13Z</time>
      </trkpt>
      <trkpt lat="44.14888" lon="6.81961">
        <ele>2003.4</ele>
        <time>2013-07-13T12:04:15Z</time>
      </trkpt>
      <trkpt lat="44.14869" lon="6.81969">
        <ele>2001</ele>
        <time>2013-07-13T12:04:49Z</time>
      </trkpt>
      <trkpt lat="44.14866" lon="6.8197">
        <ele>2000.8</ele>
        <time>2013-07-13T12:04:51Z</time>
      </trkpt>
      <trkpt lat="44.14862" lon="6.81972">
        <ele>2001</ele>
        <time>2013-07-13T12:04:54Z</time>
      </trkpt>
      <trkpt lat="44.14853" lon="6.81975">
        <ele>2000.7</ele>
        <time>2013-07-13T12:05:02Z</time>
      </trkpt>
      <trkpt lat="44.14856" lon="6.81979">
        <ele>2000.6</ele>
        <time>2013-07-13T12:05:11Z</time>
      </trkpt>
      <trkpt lat="44.14881" lon="6.82">
        <ele>1991.9</ele>
        <time>2013-07-13T12:05:54Z</time>
      </trkpt>
      <trkpt lat="44.14883" lon="6.82003">
        <ele>1991.4</ele>
        <time>2013-07-13T12:05:56Z</time>
      </trkpt>
      <trkpt lat="44.14889" lon="6.8201">
        <ele>1989.2</ele>
        <time>2013-07-13T12:06:03Z</time>
      </trkpt>
      <trkpt lat="44.14884" lon="6.82019">
        <ele>1982.6</ele>
        <time>2013-07-13T12:06:24Z</time>
      </trkpt>
      <trkpt lat="44.14879" lon="6.8202">
        <ele>1982</ele>
        <time>2013-07-13T12:06:26Z</time>
      </trkpt>
      <trkpt lat="44.14875" lon="6.82021">
        <ele>1981.2</ele>
        <time>2013-07-13T12:06:28Z</time>
      </trkpt>
      <trkpt lat="44.14872" lon="6.82022">
        <ele>1980.9</ele>
        <time>2013-07-13T12:06:30Z</time>
      </trkpt>
      <trkpt lat="44.14864" lon="6.82023">
        <ele>1981.1</ele>
        <time>2013-07-13T12:06:42Z</time>
      </trkpt>
      <trkpt lat="44.1486" lon="6.82024">
        <ele>1980.6</ele>
        <time>2013-07-13T12:06:44Z</time>
      </trkpt>
      <trkpt lat="44.14856" lon="6.82024">
        <ele>1980.5</ele>
        <time>2013-07-13T12:06:46Z</time>
      </trkpt>
      <trkpt lat="44.14851" lon="6.82025">
        <ele>1980.3</ele>
        <time>2013-07-13T12:06:48Z</time>
      </trkpt>
      <trkpt lat="44.14846" lon="6.82026">
        <ele>1979.9</ele>
        <time>2013-07-13T12:06:50Z</time>
      </trkpt>
      <trkpt lat="44.14842" lon="6.82027">
        <ele>1979.1</ele>
        <time>2013-07-13T12:06:52Z</time>
      </trkpt>
      <trkpt lat="44.14837" lon="6.82027">
        <ele>1979.5</ele>
        <time>2013-07-13T12:06:54Z</time>
      </trkpt>
      <trkpt lat="44.14831" lon="6.82027">
        <ele>1979.5</ele>
        <time>2013-07-13T12:06:56Z</time>
      </trkpt>
      <trkpt lat="44.14825" lon="6.82029">
        <ele>1979</ele>
        <time>2013-07-13T12:06:58Z</time>
      </trkpt>
      <trkpt lat="44.14819" lon="6.82026">
        <ele>1978.6</ele>
        <time>2013-07-13T12:07:00Z</time>
      </trkpt>
      <trkpt lat="44.1481" lon="6.82024">
        <ele>1978.1</ele>
        <time>2013-07-13T12:07:02Z</time>
      </trkpt>
      <trkpt lat="44.14803" lon="6.82027">
        <ele>1977.3</ele>
        <time>2013-07-13T12:07:04Z</time>
      </trkpt>
      <trkpt lat="44.14797" lon="6.82028">
        <ele>1976.9</ele>
        <time>2013-07-13T12:07:06Z</time>
      </trkpt>
      <trkpt lat="44.1479" lon="6.82031">
        <ele>1975.9</ele>
        <time>2013-07-13T12:07:08Z</time>
      </trkpt>
      <trkpt lat="44.14782" lon="6.82036">
        <ele>1975.8</ele>
        <time>2013-07-13T12:07:10Z</time>
      </trkpt>
      <trkpt lat="44.14775" lon="6.82037">
        <ele>1974.8</ele>
        <time>2013-07-13T12:07:13Z</time>
      </trkpt>
      <trkpt lat="44.14771" lon="6.82037">
        <ele>1973.9</ele>
        <time>2013-07-13T12:07:22Z</time>
      </trkpt>
      <trkpt lat="44.14768" lon="6.8204">
        <ele>1973.7</ele>
        <time>2013-07-13T12:07:25Z</time>
      </trkpt>
      <trkpt lat="44.14757" lon="6.82045">
        <ele>1970.3</ele>
        <time>2013-07-13T12:07:43Z</time>
      </trkpt>
      <trkpt lat="44.14752" lon="6.82047">
        <ele>1970.1</ele>
        <time>2013-07-13T12:07:45Z</time>
      </trkpt>
      <trkpt lat="44.14747" lon="6.8205">
        <ele>1969.9</ele>
        <time>2013-07-13T12:07:47Z</time>
      </trkpt>
      <trkpt lat="44.14739" lon="6.82052">
        <ele>1969</ele>
        <time>2013-07-13T12:07:50Z</time>
      </trkpt>
      <trkpt lat="44.14732" lon="6.82053">
        <ele>1968.5</ele>
        <time>2013-07-13T12:07:52Z</time>
      </trkpt>
      <trkpt lat="44.14723" lon="6.82053">
        <ele>1968.3</ele>
        <time>2013-07-13T12:07:54Z</time>
      </trkpt>
      <trkpt lat="44.14715" lon="6.82054">
        <ele>1968</ele>
        <time>2013-07-13T12:07:56Z</time>
      </trkpt>
      <trkpt lat="44.14707" lon="6.82056">
        <ele>1967.6</ele>
        <time>2013-07-13T12:07:58Z</time>
      </trkpt>
      <trkpt lat="44.14698" lon="6.82058">
        <ele>1966.8</ele>
        <time>2013-07-13T12:08:00Z</time>
      </trkpt>
      <trkpt lat="44.1469" lon="6.8206">
        <ele>1966.8</ele>
        <time>2013-07-13T12:08:02Z</time>
      </trkpt>
      <trkpt lat="44.14681" lon="6.82061">
        <ele>1966.4</ele>
        <time>2013-07-13T12:08:04Z</time>
      </trkpt>
      <trkpt lat="44.14672" lon="6.82062">
        <ele>1966.3</ele>
        <time>2013-07-13T12:08:06Z</time>
      </trkpt>
      <trkpt lat="44.14663" lon="6.82064">
        <ele>1965.8</ele>
        <time>2013-07-13T12:08:08Z</time>
      </trkpt>
      <trkpt lat="44.14653" lon="6.82068">
        <ele>1965.1</ele>
        <time>2013-07-13T12:08:10Z</time>
      </trkpt>
      <trkpt lat="44.14644" lon="6.82075">
        <ele>1964.6</ele>
        <time>2013-07-13T12:08:12Z</time>
      </trkpt>
      <trkpt lat="44.14636" lon="6.82086">
        <ele>1964</ele>
        <time>2013-07-13T12:08:14Z</time>
      </trkpt>
      <trkpt lat="44.14629" lon="6.82098">
        <ele>1963.4</ele>
        <time>2013-07-13T12:08:16Z</time>
      </trkpt>
      <trkpt lat="44.14623" lon="6.82109">
        <ele>1963.7</ele>
        <time>2013-07-13T12:08:18Z</time>
      </trkpt>
      <trkpt lat="44.14618" lon="6.82117">
        <ele>1963</ele>
        <time>2013-07-13T12:08:20Z</time>
      </trkpt>
      <trkpt lat="44.14613" lon="6.82124">
        <ele>1961.8</ele>
        <time>2013-07-13T12:08:22Z</time>
      </trkpt>
      <trkpt lat="44.14606" lon="6.82139">
        <ele>1949.3</ele>
        <time>2013-07-13T12:09:20Z</time>
      </trkpt>
      <trkpt lat="44.14603" lon="6.82142">
        <ele>1949.5</ele>
        <time>2013-07-13T12:09:22Z</time>
      </trkpt>
      <trkpt lat="44.14601" lon="6.82149">
        <ele>1949.4</ele>
        <time>2013-07-13T12:09:24Z</time>
      </trkpt>
      <trkpt lat="44.14598" lon="6.82165">
        <ele>1948.8</ele>
        <time>2013-07-13T12:09:27Z</time>
      </trkpt>
      <trkpt lat="44.14596" lon="6.82179">
        <ele>1948</ele>
        <time>2013-07-13T12:09:29Z</time>
      </trkpt>
      <trkpt lat="44.14593" lon="6.82201">
        <ele>1946.6</ele>
        <time>2013-07-13T12:09:32Z</time>
      </trkpt>
      <trkpt lat="44.14589" lon="6.82215">
        <ele>1945.9</ele>
        <time>2013-07-13T12:09:34Z</time>
      </trkpt>
      <trkpt lat="44.14586" lon="6.82227">
        <ele>1945.7</ele>
        <time>2013-07-13T12:09:36Z</time>
      </trkpt>
      <trkpt lat="44.14583" lon="6.82237">
        <ele>1944.9</ele>
        <time>2013-07-13T12:09:38Z</time>
      </trkpt>
      <trkpt lat="44.14578" lon="6.82246">
        <ele>1944.2</ele>
        <time>2013-07-13T12:09:40Z</time>
      </trkpt>
      <trkpt lat="44.14572" lon="6.82257">
        <ele>1942.8</ele>
        <time>2013-07-13T12:09:42Z</time>
      </trkpt>
      <trkpt lat="44.14565" lon="6.82268">
        <ele>1942.4</ele>
        <time>2013-07-13T12:09:44Z</time>
      </trkpt>
      <trkpt lat="44.14557" lon="6.82278">
        <ele>1941.3</ele>
        <time>2013-07-13T12:09:46Z</time>
      </trkpt>
      <trkpt lat="44.14548" lon="6.82286">
        <ele>1940.4</ele>
        <time>2013-07-13T12:09:48Z</time>
      </trkpt>
      <trkpt lat="44.14539" lon="6.82294">
        <ele>1939.4</ele>
        <time>2013-07-13T12:09:50Z</time>
      </trkpt>
      <trkpt lat="44.14531" lon="6.82303">
        <ele>1938.4</ele>
        <time>2013-07-13T12:09:52Z</time>
      </trkpt>
      <trkpt lat="44.14526" lon="6.82312">
        <ele>1937.5</ele>
        <time>2013-07-13T12:09:54Z</time>
      </trkpt>
      <trkpt lat="44.14519" lon="6.82322">
        <ele>1936</ele>
        <time>2013-07-13T12:09:56Z</time>
      </trkpt>
      <trkpt lat="44.14513" lon="6.82331">
        <ele>1935</ele>
        <time>2013-07-13T12:09:58Z</time>
      </trkpt>
      <trkpt lat="44.14508" lon="6.8234">
        <ele>1933.9</ele>
        <time>2013-07-13T12:10:00Z</time>
      </trkpt>
      <trkpt lat="44.14503" lon="6.8235">
        <ele>1931.9</ele>
        <time>2013-07-13T12:10:02Z</time>
      </trkpt>
      <trkpt lat="44.14495" lon="6.82358">
        <ele>1930.7</ele>
        <time>2013-07-13T12:10:04Z</time>
      </trkpt>
      <trkpt lat="44.14488" lon="6.82362">
        <ele>1928.8</ele>
        <time>2013-07-13T12:10:06Z</time>
      </trkpt>
      <trkpt lat="44.14481" lon="6.82362">
        <ele>1927.5</ele>
        <time>2013-07-13T12:10:08Z</time>
      </trkpt>
      <trkpt lat="44.14474" lon="6.82364">
        <ele>1926</ele>
        <time>2013-07-13T12:10:11Z</time>
      </trkpt>
      <trkpt lat="44.14471" lon="6.82365">
        <ele>1924.4</ele>
        <time>2013-07-13T12:10:13Z</time>
      </trkpt>
      <trkpt lat="44.14464" lon="6.82378">
        <ele>1918.4</ele>
        <time>2013-07-13T12:10:23Z</time>
      </trkpt>
      <trkpt lat="44.14457" lon="6.82386">
        <ele>1917.3</ele>
        <time>2013-07-13T12:10:27Z</time>
      </trkpt>
      <trkpt lat="44.14453" lon="6.82389">
        <ele>1917</ele>
        <time>2013-07-13T12:10:29Z</time>
      </trkpt>
      <trkpt lat="44.14451" lon="6.82392">
        <ele>1916.6</ele>
        <time>2013-07-13T12:10:31Z</time>
      </trkpt>
      <trkpt lat="44.14447" lon="6.82393">
        <ele>1915.7</ele>
        <time>2013-07-13T12:10:33Z</time>
      </trkpt>
      <trkpt lat="44.14438" lon="6.82393">
        <ele>1913.7</ele>
        <time>2013-07-13T12:10:37Z</time>
      </trkpt>
      <trkpt lat="44.14434" lon="6.82394">
        <ele>1912.9</ele>
        <time>2013-07-13T12:10:39Z</time>
      </trkpt>
      <trkpt lat="44.14431" lon="6.82396">
        <ele>1899.3</ele>
        <time>2013-07-13T12:11:34Z</time>
      </trkpt>
      <trkpt lat="44.14427" lon="6.82402">
        <ele>1899.2</ele>
        <time>2013-07-13T12:11:36Z</time>
      </trkpt>
      <trkpt lat="44.14421" lon="6.82411">
        <ele>1898.8</ele>
        <time>2013-07-13T12:11:39Z</time>
      </trkpt>
      <trkpt lat="44.14415" lon="6.82422">
        <ele>1898.9</ele>
        <time>2013-07-13T12:11:41Z</time>
      </trkpt>
      <trkpt lat="44.14409" lon="6.82433">
        <ele>1898.6</ele>
        <time>2013-07-13T12:11:43Z</time>
      </trkpt>
      <trkpt lat="44.14405" lon="6.82446">
        <ele>1898.1</ele>
        <time>2013-07-13T12:11:45Z</time>
      </trkpt>
      <trkpt lat="44.14404" lon="6.82458">
        <ele>1897</ele>
        <time>2013-07-13T12:11:47Z</time>
      </trkpt>
      <trkpt lat="44.144" lon="6.82468">
        <ele>1896.4</ele>
        <time>2013-07-13T12:11:49Z</time>
      </trkpt>
      <trkpt lat="44.14394" lon="6.82478">
        <ele>1895.1</ele>
        <time>2013-07-13T12:11:51Z</time>
      </trkpt>
      <trkpt lat="44.14389" lon="6.82488">
        <ele>1894.3</ele>
        <time>2013-07-13T12:11:53Z</time>
      </trkpt>
      <trkpt lat="44.14388" lon="6.82501">
        <ele>1893.2</ele>
        <time>2013-07-13T12:11:55Z</time>
      </trkpt>
      <trkpt lat="44.14391" lon="6.82513">
        <ele>1889.9</ele>
        <time>2013-07-13T12:11:57Z</time>
      </trkpt>
      <trkpt lat="44.14394" lon="6.82516">
        <ele>1888.1</ele>
        <time>2013-07-13T12:11:59Z</time>
      </trkpt>
      <trkpt lat="44.14395" lon="6.82522">
        <ele>1882</ele>
        <time>2013-07-13T12:12:35Z</time>
      </trkpt>
      <trkpt lat="44.14397" lon="6.82527">
        <ele>1881.1</ele>
        <time>2013-07-13T12:12:37Z</time>
      </trkpt>
      <trkpt lat="44.144" lon="6.82532">
        <ele>1880</ele>
        <time>2013-07-13T12:12:39Z</time>
      </trkpt>
      <trkpt lat="44.14404" lon="6.82533">
        <ele>1878.9</ele>
        <time>2013-07-13T12:12:41Z</time>
      </trkpt>
      <trkpt lat="44.14408" lon="6.82535">
        <ele>1878.3</ele>
        <time>2013-07-13T12:12:43Z</time>
      </trkpt>
      <trkpt lat="44.14412" lon="6.82537">
        <ele>1877.6</ele>
        <time>2013-07-13T12:12:45Z</time>
      </trkpt>
      <trkpt lat="44.14415" lon="6.82539">
        <ele>1876.9</ele>
        <time>2013-07-13T12:12:47Z</time>
      </trkpt>
      <trkpt lat="44.14418" lon="6.8254">
        <ele>1876.3</ele>
        <time>2013-07-13T12:12:49Z</time>
      </trkpt>
      <trkpt lat="44.14422" lon="6.8254">
        <ele>1875.6</ele>
        <time>2013-07-13T12:12:51Z</time>
      </trkpt>
      <trkpt lat="44.14425" lon="6.8254">
        <ele>1875.1</ele>
        <time>2013-07-13T12:12:53Z</time>
      </trkpt>
      <trkpt lat="44.14429" lon="6.82539">
        <ele>1874.6</ele>
        <time>2013-07-13T12:12:55Z</time>
      </trkpt>
      <trkpt lat="44.14435" lon="6.8254">
        <ele>1874.5</ele>
        <time>2013-07-13T12:12:57Z</time>
      </trkpt>
      <trkpt lat="44.14442" lon="6.8254">
        <ele>1874.1</ele>
        <time>2013-07-13T12:12:59Z</time>
      </trkpt>
      <trkpt lat="44.14452" lon="6.82541">
        <ele>1872.9</ele>
        <time>2013-07-13T12:13:02Z</time>
      </trkpt>
      <trkpt lat="44.1446" lon="6.82548">
        <ele>1872.2</ele>
        <time>2013-07-13T12:13:04Z</time>
      </trkpt>
      <trkpt lat="44.14469" lon="6.82557">
        <ele>1871.7</ele>
        <time>2013-07-13T12:13:06Z</time>
      </trkpt>
      <trkpt lat="44.14479" lon="6.82565">
        <ele>1870.8</ele>
        <time>2013-07-13T12:13:08Z</time>
      </trkpt>
      <trkpt lat="44.1449" lon="6.82572">
        <ele>1869.9</ele>
        <time>2013-07-13T12:13:10Z</time>
      </trkpt>
      <trkpt lat="44.14497" lon="6.82583">
        <ele>1868.6</ele>
        <time>2013-07-13T12:13:12Z</time>
      </trkpt>
      <trkpt lat="44.14505" lon="6.82597">
        <ele>1867.6</ele>
        <time>2013-07-13T12:13:14Z</time>
      </trkpt>
      <trkpt lat="44.14507" lon="6.82612">
        <ele>1866.3</ele>
        <time>2013-07-13T12:13:16Z</time>
      </trkpt>
      <trkpt lat="44.14502" lon="6.82626">
        <ele>1865.1</ele>
        <time>2013-07-13T12:13:19Z</time>
      </trkpt>
      <trkpt lat="44.145" lon="6.8263">
        <ele>1863.7</ele>
        <time>2013-07-13T12:13:21Z</time>
      </trkpt>
      <trkpt lat="44.145" lon="6.82634">
        <ele>1862.9</ele>
        <time>2013-07-13T12:13:23Z</time>
      </trkpt>
      <trkpt lat="44.14503" lon="6.82636">
        <ele>1861.7</ele>
        <time>2013-07-13T12:13:25Z</time>
      </trkpt>
      <trkpt lat="44.14507" lon="6.82636">
        <ele>1860.5</ele>
        <time>2013-07-13T12:13:27Z</time>
      </trkpt>
      <trkpt lat="44.14515" lon="6.82639">
        <ele>1859.2</ele>
        <time>2013-07-13T12:13:30Z</time>
      </trkpt>
      <trkpt lat="44.14526" lon="6.82644">
        <ele>1857.5</ele>
        <time>2013-07-13T12:13:33Z</time>
      </trkpt>
      <trkpt lat="44.14535" lon="6.82644">
        <ele>1856.4</ele>
        <time>2013-07-13T12:13:35Z</time>
      </trkpt>
      <trkpt lat="44.14545" lon="6.82645">
        <ele>1855.7</ele>
        <time>2013-07-13T12:13:37Z</time>
      </trkpt>
      <trkpt lat="44.14555" lon="6.8265">
        <ele>1854.7</ele>
        <time>2013-07-13T12:13:39Z</time>
      </trkpt>
      <trkpt lat="44.1457" lon="6.82652">
        <ele>1851.3</ele>
        <time>2013-07-13T12:13:42Z</time>
      </trkpt>
      <trkpt lat="44.14578" lon="6.82651">
        <ele>1849.2</ele>
        <time>2013-07-13T12:13:45Z</time>
      </trkpt>
      <trkpt lat="44.14583" lon="6.82651">
        <ele>1846.6</ele>
        <time>2013-07-13T12:13:55Z</time>
      </trkpt>
      <trkpt lat="44.14586" lon="6.82648">
        <ele>1846.8</ele>
        <time>2013-07-13T12:13:57Z</time>
      </trkpt>
      <trkpt lat="44.14588" lon="6.82642">
        <ele>1846.2</ele>
        <time>2013-07-13T12:13:59Z</time>
      </trkpt>
      <trkpt lat="44.14592" lon="6.82635">
        <ele>1845.7</ele>
        <time>2013-07-13T12:14:01Z</time>
      </trkpt>
      <trkpt lat="44.14595" lon="6.82631">
        <ele>1845.2</ele>
        <time>2013-07-13T12:14:03Z</time>
      </trkpt>
      <trkpt lat="44.146" lon="6.82632">
        <ele>1844.7</ele>
        <time>2013-07-13T12:14:05Z</time>
      </trkpt>
      <trkpt lat="44.14603" lon="6.82634">
        <ele>1843.9</ele>
        <time>2013-07-13T12:14:07Z</time>
      </trkpt>
      <trkpt lat="44.14632" lon="6.82618">
        <ele>1837.7</ele>
        <time>2013-07-13T12:14:38Z</time>
      </trkpt>
      <trkpt lat="44.14636" lon="6.82613">
        <ele>1836.1</ele>
        <time>2013-07-13T12:14:40Z</time>
      </trkpt>
      <trkpt lat="44.14638" lon="6.82609">
        <ele>1835.6</ele>
        <time>2013-07-13T12:14:42Z</time>
      </trkpt>
      <trkpt lat="44.14641" lon="6.82606">
        <ele>1835.1</ele>
        <time>2013-07-13T12:14:44Z</time>
      </trkpt>
      <trkpt lat="44.14644" lon="6.82603">
        <ele>1835.4</ele>
        <time>2013-07-13T12:14:46Z</time>
      </trkpt>
      <trkpt lat="44.14647" lon="6.82597">
        <ele>1835.1</ele>
        <time>2013-07-13T12:14:50Z</time>
      </trkpt>
      <trkpt lat="44.14655" lon="6.82594">
        <ele>1834.9</ele>
        <time>2013-07-13T12:14:52Z</time>
      </trkpt>
      <trkpt lat="44.14664" lon="6.82591">
        <ele>1834.8</ele>
        <time>2013-07-13T12:14:54Z</time>
      </trkpt>
      <trkpt lat="44.14673" lon="6.82589">
        <ele>1834.2</ele>
        <time>2013-07-13T12:14:56Z</time>
      </trkpt>
      <trkpt lat="44.1468" lon="6.82588">
        <ele>1832.9</ele>
        <time>2013-07-13T12:14:59Z</time>
      </trkpt>
      <trkpt lat="44.1469" lon="6.82592">
        <ele>1831.7</ele>
        <time>2013-07-13T12:15:01Z</time>
      </trkpt>
      <trkpt lat="44.14698" lon="6.82593">
        <ele>1830.9</ele>
        <time>2013-07-13T12:15:03Z</time>
      </trkpt>
      <trkpt lat="44.14707" lon="6.82594">
        <ele>1829.8</ele>
        <time>2013-07-13T12:15:05Z</time>
      </trkpt>
      <trkpt lat="44.14714" lon="6.82596">
        <ele>1828.5</ele>
        <time>2013-07-13T12:15:08Z</time>
      </trkpt>
      <trkpt lat="44.14714" lon="6.82599">
        <ele>1826.9</ele>
        <time>2013-07-13T12:15:10Z</time>
      </trkpt>
      <trkpt lat="44.14712" lon="6.82605">
        <ele>1826.6</ele>
        <time>2013-07-13T12:15:12Z</time>
      </trkpt>
      <trkpt lat="44.14709" lon="6.82615">
        <ele>1826.4</ele>
        <time>2013-07-13T12:15:14Z</time>
      </trkpt>
      <trkpt lat="44.14705" lon="6.82628">
        <ele>1825.9</ele>
        <time>2013-07-13T12:15:16Z</time>
      </trkpt>
      <trkpt lat="44.14703" lon="6.82641">
        <ele>1824.8</ele>
        <time>2013-07-13T12:15:18Z</time>
      </trkpt>
      <trkpt lat="44.14699" lon="6.82657">
        <ele>1823.5</ele>
        <time>2013-07-13T12:15:20Z</time>
      </trkpt>
      <trkpt lat="44.14695" lon="6.82673">
        <ele>1822.1</ele>
        <time>2013-07-13T12:15:22Z</time>
      </trkpt>
      <trkpt lat="44.14691" lon="6.82688">
        <ele>1820.9</ele>
        <time>2013-07-13T12:15:24Z</time>
      </trkpt>
      <trkpt lat="44.14686" lon="6.827">
        <ele>1820.2</ele>
        <time>2013-07-13T12:15:26Z</time>
      </trkpt>
      <trkpt lat="44.14678" lon="6.82712">
        <ele>1819.2</ele>
        <time>2013-07-13T12:15:28Z</time>
      </trkpt>
      <trkpt lat="44.14669" lon="6.82728">
        <ele>1817.9</ele>
        <time>2013-07-13T12:15:30Z</time>
      </trkpt>
      <trkpt lat="44.14663" lon="6.82738">
        <ele>1816.3</ele>
        <time>2013-07-13T12:15:32Z</time>
      </trkpt>
      <trkpt lat="44.14657" lon="6.82747">
        <ele>1814</ele>
        <time>2013-07-13T12:15:34Z</time>
      </trkpt>
      <trkpt lat="44.14654" lon="6.82761">
        <ele>1811.9</ele>
        <time>2013-07-13T12:15:36Z</time>
      </trkpt>
      <trkpt lat="44.14654" lon="6.82773">
        <ele>1809.4</ele>
        <time>2013-07-13T12:15:38Z</time>
      </trkpt>
      <trkpt lat="44.14655" lon="6.82787">
        <ele>1808.2</ele>
        <time>2013-07-13T12:15:40Z</time>
      </trkpt>
      <trkpt lat="44.14651" lon="6.82801">
        <ele>1807.1</ele>
        <time>2013-07-13T12:15:42Z</time>
      </trkpt>
      <trkpt lat="44.14638" lon="6.82821">
        <ele>1805.5</ele>
        <time>2013-07-13T12:15:45Z</time>
      </trkpt>
      <trkpt lat="44.14629" lon="6.82835">
        <ele>1804.4</ele>
        <time>2013-07-13T12:15:47Z</time>
      </trkpt>
      <trkpt lat="44.14623" lon="6.82846">
        <ele>1803.4</ele>
        <time>2013-07-13T12:15:49Z</time>
      </trkpt>
      <trkpt lat="44.1462" lon="6.82857">
        <ele>1801.7</ele>
        <time>2013-07-13T12:15:51Z</time>
      </trkpt>
      <trkpt lat="44.14618" lon="6.82872">
        <ele>1800.1</ele>
        <time>2013-07-13T12:15:53Z</time>
      </trkpt>
      <trkpt lat="44.14612" lon="6.82891">
        <ele>1798.6</ele>
        <time>2013-07-13T12:15:55Z</time>
      </trkpt>
      <trkpt lat="44.14612" lon="6.82909">
        <ele>1797.1</ele>
        <time>2013-07-13T12:15:57Z</time>
      </trkpt>
      <trkpt lat="44.14614" lon="6.82926">
        <ele>1795</ele>
        <time>2013-07-13T12:15:59Z</time>
      </trkpt>
      <trkpt lat="44.14625" lon="6.8294">
        <ele>1791.4</ele>
        <time>2013-07-13T12:16:01Z</time>
      </trkpt>
      <trkpt lat="44.14636" lon="6.82954">
        <ele>1788.7</ele>
        <time>2013-07-13T12:16:03Z</time>
      </trkpt>
      <trkpt lat="44.14641" lon="6.82968">
        <ele>1787</ele>
        <time>2013-07-13T12:16:05Z</time>
      </trkpt>
      <trkpt lat="44.14642" lon="6.82983">
        <ele>1784.9</ele>
        <time>2013-07-13T12:16:07Z</time>
      </trkpt>
      <trkpt lat="44.1464" lon="6.83">
        <ele>1783.4</ele>
        <time>2013-07-13T12:16:09Z</time>
      </trkpt>
      <trkpt lat="44.14636" lon="6.83015">
        <ele>1781.4</ele>
        <time>2013-07-13T12:16:11Z</time>
      </trkpt>
      <trkpt lat="44.14626" lon="6.83032">
        <ele>1779.8</ele>
        <time>2013-07-13T12:16:13Z</time>
      </trkpt>
      <trkpt lat="44.14617" lon="6.83042">
        <ele>1778.3</ele>
        <time>2013-07-13T12:16:15Z</time>
      </trkpt>
      <trkpt lat="44.14608" lon="6.83057">
        <ele>1776</ele>
        <time>2013-07-13T12:16:17Z</time>
      </trkpt>
      <trkpt lat="44.14602" lon="6.83074">
        <ele>1773.6</ele>
        <time>2013-07-13T12:16:19Z</time>
      </trkpt>
      <trkpt lat="44.14599" lon="6.83094">
        <ele>1772.3</ele>
        <time>2013-07-13T12:16:21Z</time>
      </trkpt>
      <trkpt lat="44.14596" lon="6.83109">
        <ele>1770.3</ele>
        <time>2013-07-13T12:16:23Z</time>
      </trkpt>
      <trkpt lat="44.14591" lon="6.83118">
        <ele>1768.7</ele>
        <time>2013-07-13T12:16:25Z</time>
      </trkpt>
      <trkpt lat="44.14593" lon="6.83138">
        <ele>1765.8</ele>
        <time>2013-07-13T12:16:27Z</time>
      </trkpt>
      <trkpt lat="44.1459" lon="6.83171">
        <ele>1763.5</ele>
        <time>2013-07-13T12:16:30Z</time>
      </trkpt>
      <trkpt lat="44.14588" lon="6.83191">
        <ele>1761.2</ele>
        <time>2013-07-13T12:16:32Z</time>
      </trkpt>
      <trkpt lat="44.14587" lon="6.83212">
        <ele>1759.5</ele>
        <time>2013-07-13T12:16:34Z</time>
      </trkpt>
      <trkpt lat="44.14589" lon="6.83231">
        <ele>1756.5</ele>
        <time>2013-07-13T12:16:36Z</time>
      </trkpt>
      <trkpt lat="44.14595" lon="6.83242">
        <ele>1753</ele>
        <time>2013-07-13T12:16:38Z</time>
      </trkpt>
      <trkpt lat="44.14594" lon="6.83239">
        <ele>1750.1</ele>
        <time>2013-07-13T12:16:41Z</time>
      </trkpt>
      <trkpt lat="44.1459" lon="6.83237">
        <ele>1748.9</ele>
        <time>2013-07-13T12:16:43Z</time>
      </trkpt>
      <trkpt lat="44.14587" lon="6.83235">
        <ele>1748.3</ele>
        <time>2013-07-13T12:16:45Z</time>
      </trkpt>
      <trkpt lat="44.14598" lon="6.83245">
        <ele>1733.8</ele>
        <time>2013-07-13T12:17:20Z</time>
      </trkpt>
      <trkpt lat="44.14599" lon="6.83251">
        <ele>1732.9</ele>
        <time>2013-07-13T12:17:22Z</time>
      </trkpt>
      <trkpt lat="44.146" lon="6.83257">
        <ele>1732.3</ele>
        <time>2013-07-13T12:17:24Z</time>
      </trkpt>
      <trkpt lat="44.14606" lon="6.83267">
        <ele>1731.4</ele>
        <time>2013-07-13T12:17:26Z</time>
      </trkpt>
      <trkpt lat="44.14615" lon="6.83278">
        <ele>1730</ele>
        <time>2013-07-13T12:17:28Z</time>
      </trkpt>
      <trkpt lat="44.14619" lon="6.83292">
        <ele>1727.7</ele>
        <time>2013-07-13T12:17:30Z</time>
      </trkpt>
      <trkpt lat="44.14621" lon="6.8331">
        <ele>1725.5</ele>
        <time>2013-07-13T12:17:32Z</time>
      </trkpt>
      <trkpt lat="44.14621" lon="6.8332">
        <ele>1724.1</ele>
        <time>2013-07-13T12:17:34Z</time>
      </trkpt>
      <trkpt lat="44.14621" lon="6.83331">
        <ele>1723.8</ele>
        <time>2013-07-13T12:17:36Z</time>
      </trkpt>
      <trkpt lat="44.14617" lon="6.83349">
        <ele>1723.6</ele>
        <time>2013-07-13T12:17:38Z</time>
      </trkpt>
      <trkpt lat="44.14614" lon="6.8337">
        <ele>1722.2</ele>
        <time>2013-07-13T12:17:40Z</time>
      </trkpt>
      <trkpt lat="44.14617" lon="6.83386">
        <ele>1720.6</ele>
        <time>2013-07-13T12:17:42Z</time>
      </trkpt>
      <trkpt lat="44.14617" lon="6.83396">
        <ele>1719.1</ele>
        <time>2013-07-13T12:17:45Z</time>
      </trkpt>
      <trkpt lat="44.14613" lon="6.83408">
        <ele>1702.5</ele>
        <time>2013-07-13T12:18:52Z</time>
      </trkpt>
      <trkpt lat="44.1461" lon="6.83407">
        <ele>1702.4</ele>
        <time>2013-07-13T12:18:55Z</time>
      </trkpt>
      <trkpt lat="44.14607" lon="6.834">
        <ele>1701.9</ele>
        <time>2013-07-13T12:18:57Z</time>
      </trkpt>
      <trkpt lat="44.14602" lon="6.83394">
        <ele>1701.6</ele>
        <time>2013-07-13T12:18:59Z</time>
      </trkpt>
      <trkpt lat="44.14594" lon="6.83384">
        <ele>1701</ele>
        <time>2013-07-13T12:19:01Z</time>
      </trkpt>
      <trkpt lat="44.14584" lon="6.8337">
        <ele>1698.2</ele>
        <time>2013-07-13T12:19:04Z</time>
      </trkpt>
      <trkpt lat="44.14581" lon="6.83361">
        <ele>1697.7</ele>
        <time>2013-07-13T12:19:06Z</time>
      </trkpt>
      <trkpt lat="44.14576" lon="6.83345">
        <ele>1696.4</ele>
        <time>2013-07-13T12:19:08Z</time>
      </trkpt>
      <trkpt lat="44.14568" lon="6.83333">
        <ele>1695.8</ele>
        <time>2013-07-13T12:19:10Z</time>
      </trkpt>
      <trkpt lat="44.14558" lon="6.83325">
        <ele>1695.4</ele>
        <time>2013-07-13T12:19:12Z</time>
      </trkpt>
      <trkpt lat="44.14548" lon="6.83321">
        <ele>1695.4</ele>
        <time>2013-07-13T12:19:14Z</time>
      </trkpt>
      <trkpt lat="44.1454" lon="6.83317">
        <ele>1694.7</ele>
        <time>2013-07-13T12:19:16Z</time>
      </trkpt>
      <trkpt lat="44.14529" lon="6.83312">
        <ele>1694.2</ele>
        <time>2013-07-13T12:19:18Z</time>
      </trkpt>
      <trkpt lat="44.14518" lon="6.8331">
        <ele>1693.7</ele>
        <time>2013-07-13T12:19:20Z</time>
      </trkpt>
      <trkpt lat="44.14506" lon="6.83308">
        <ele>1693.2</ele>
        <time>2013-07-13T12:19:22Z</time>
      </trkpt>
      <trkpt lat="44.14494" lon="6.83305">
        <ele>1692.5</ele>
        <time>2013-07-13T12:19:24Z</time>
      </trkpt>
      <trkpt lat="44.14482" lon="6.83304">
        <ele>1691.8</ele>
        <time>2013-07-13T12:19:26Z</time>
      </trkpt>
      <trkpt lat="44.14471" lon="6.83303">
        <ele>1691.1</ele>
        <time>2013-07-13T12:19:28Z</time>
      </trkpt>
      <trkpt lat="44.14464" lon="6.83301">
        <ele>1690.2</ele>
        <time>2013-07-13T12:19:30Z</time>
      </trkpt>
      <trkpt lat="44.1446" lon="6.83294">
        <ele>1688.7</ele>
        <time>2013-07-13T12:19:33Z</time>
      </trkpt>
      <trkpt lat="44.14461" lon="6.83284">
        <ele>1687.2</ele>
        <time>2013-07-13T12:19:35Z</time>
      </trkpt>
      <trkpt lat="44.14464" lon="6.83271">
        <ele>1685.1</ele>
        <time>2013-07-13T12:19:38Z</time>
      </trkpt>
      <trkpt lat="44.14466" lon="6.83263">
        <ele>1684.1</ele>
        <time>2013-07-13T12:19:40Z</time>
      </trkpt>
      <trkpt lat="44.14464" lon="6.83251">
        <ele>1683.1</ele>
        <time>2013-07-13T12:19:43Z</time>
      </trkpt>
      <trkpt lat="44.14458" lon="6.83246">
        <ele>1683</ele>
        <time>2013-07-13T12:19:45Z</time>
      </trkpt>
      <trkpt lat="44.14448" lon="6.83239">
        <ele>1682.8</ele>
        <time>2013-07-13T12:19:47Z</time>
      </trkpt>
      <trkpt lat="44.14442" lon="6.83227">
        <ele>1681.7</ele>
        <time>2013-07-13T12:19:49Z</time>
      </trkpt>
      <trkpt lat="44.14433" lon="6.83212">
        <ele>1680.7</ele>
        <time>2013-07-13T12:19:51Z</time>
      </trkpt>
      <trkpt lat="44.14423" lon="6.83204">
        <ele>1680.8</ele>
        <time>2013-07-13T12:19:53Z</time>
      </trkpt>
      <trkpt lat="44.14418" lon="6.83193">
        <ele>1679.8</ele>
        <time>2013-07-13T12:19:55Z</time>
      </trkpt>
      <trkpt lat="44.14417" lon="6.83175">
        <ele>1678.5</ele>
        <time>2013-07-13T12:19:57Z</time>
      </trkpt>
      <trkpt lat="44.14412" lon="6.83162">
        <ele>1678.3</ele>
        <time>2013-07-13T12:19:59Z</time>
      </trkpt>
      <trkpt lat="44.14406" lon="6.83156">
        <ele>1677.7</ele>
        <time>2013-07-13T12:20:02Z</time>
      </trkpt>
      <trkpt lat="44.14405" lon="6.83167">
        <ele>1675.8</ele>
        <time>2013-07-13T12:20:04Z</time>
      </trkpt>
      <trkpt lat="44.14407" lon="6.83181">
        <ele>1674.2</ele>
        <time>2013-07-13T12:20:06Z</time>
      </trkpt>
      <trkpt lat="44.14407" lon="6.83194">
        <ele>1672.9</ele>
        <time>2013-07-13T12:20:08Z</time>
      </trkpt>
      <trkpt lat="44.14407" lon="6.832">
        <ele>1672.1</ele>
        <time>2013-07-13T12:20:10Z</time>
      </trkpt>
      <trkpt lat="44.14407" lon="6.83204">
        <ele>1670.5</ele>
        <time>2013-07-13T12:20:12Z</time>
      </trkpt>
      <trkpt lat="44.14407" lon="6.83209">
        <ele>1669.8</ele>
        <time>2013-07-13T12:20:14Z</time>
      </trkpt>
      <trkpt lat="44.14408" lon="6.83217">
        <ele>1669.1</ele>
        <time>2013-07-13T12:20:16Z</time>
      </trkpt>
      <trkpt lat="44.14412" lon="6.83224">
        <ele>1668.8</ele>
        <time>2013-07-13T12:20:18Z</time>
      </trkpt>
      <trkpt lat="44.14414" lon="6.8323">
        <ele>1668.1</ele>
        <time>2013-07-13T12:20:20Z</time>
      </trkpt>
      <trkpt lat="44.14412" lon="6.83225">
        <ele>1657.9</ele>
        <time>2013-07-13T12:20:42Z</time>
      </trkpt>
      <trkpt lat="44.14407" lon="6.83222">
        <ele>1656.9</ele>
        <time>2013-07-13T12:20:44Z</time>
      </trkpt>
      <trkpt lat="44.14399" lon="6.83219">
        <ele>1655</ele>
        <time>2013-07-13T12:20:46Z</time>
      </trkpt>
      <trkpt lat="44.1439" lon="6.83213">
        <ele>1653.7</ele>
        <time>2013-07-13T12:20:48Z</time>
      </trkpt>
      <trkpt lat="44.14385" lon="6.83207">
        <ele>1651.6</ele>
        <time>2013-07-13T12:20:50Z</time>
      </trkpt>
      <trkpt lat="44.14385" lon="6.83198">
        <ele>1649.4</ele>
        <time>2013-07-13T12:20:52Z</time>
      </trkpt>
      <trkpt lat="44.14385" lon="6.83192">
        <ele>1647.8</ele>
        <time>2013-07-13T12:20:54Z</time>
      </trkpt>
      <trkpt lat="44.14386" lon="6.83186">
        <ele>1646.3</ele>
        <time>2013-07-13T12:20:56Z</time>
      </trkpt>
      <trkpt lat="44.14386" lon="6.83179">
        <ele>1644.7</ele>
        <time>2013-07-13T12:20:58Z</time>
      </trkpt>
      <trkpt lat="44.14383" lon="6.83175">
        <ele>1644.1</ele>
        <time>2013-07-13T12:21:00Z</time>
      </trkpt>
      <trkpt lat="44.14382" lon="6.8317">
        <ele>1644.5</ele>
        <time>2013-07-13T12:21:02Z</time>
      </trkpt>
      <trkpt lat="44.14379" lon="6.83166">
        <ele>1644.1</ele>
        <time>2013-07-13T12:21:04Z</time>
      </trkpt>
      <trkpt lat="44.14376" lon="6.83164">
        <ele>1643.8</ele>
        <time>2013-07-13T12:21:06Z</time>
      </trkpt>
      <trkpt lat="44.1437" lon="6.83158">
        <ele>1643.3</ele>
        <time>2013-07-13T12:21:08Z</time>
      </trkpt>
      <trkpt lat="44.14363" lon="6.83151">
        <ele>1643.3</ele>
        <time>2013-07-13T12:21:10Z</time>
      </trkpt>
      <trkpt lat="44.14359" lon="6.83147">
        <ele>1642.9</ele>
        <time>2013-07-13T12:21:12Z</time>
      </trkpt>
      <trkpt lat="44.14355" lon="6.83144">
        <ele>1642.1</ele>
        <time>2013-07-13T12:21:14Z</time>
      </trkpt>
      <trkpt lat="44.14351" lon="6.83142">
        <ele>1641.3</ele>
        <time>2013-07-13T12:21:16Z</time>
      </trkpt>
      <trkpt lat="44.14348" lon="6.8314">
        <ele>1639.7</ele>
        <time>2013-07-13T12:21:18Z</time>
      </trkpt>
      <trkpt lat="44.14345" lon="6.83136">
        <ele>1638.4</ele>
        <time>2013-07-13T12:21:20Z</time>
      </trkpt>
      <trkpt lat="44.14343" lon="6.83131">
        <ele>1637.7</ele>
        <time>2013-07-13T12:21:22Z</time>
      </trkpt>
      <trkpt lat="44.1434" lon="6.83131">
        <ele>1637</ele>
        <time>2013-07-13T12:21:24Z</time>
      </trkpt>
      <trkpt lat="44.14334" lon="6.83125">
        <ele>1635.1</ele>
        <time>2013-07-13T12:21:28Z</time>
      </trkpt>
      <trkpt lat="44.14328" lon="6.83124">
        <ele>1634.4</ele>
        <time>2013-07-13T12:21:30Z</time>
      </trkpt>
      <trkpt lat="44.14322" lon="6.83119">
        <ele>1633.3</ele>
        <time>2013-07-13T12:21:33Z</time>
      </trkpt>
      <trkpt lat="44.14318" lon="6.83116">
        <ele>1632.3</ele>
        <time>2013-07-13T12:21:35Z</time>
      </trkpt>
      <trkpt lat="44.14315" lon="6.83114">
        <ele>1631.5</ele>
        <time>2013-07-13T12:21:37Z</time>
      </trkpt>
      <trkpt lat="44.14312" lon="6.83111">
        <ele>1630.4</ele>
        <time>2013-07-13T12:21:39Z</time>
      </trkpt>
      <trkpt lat="44.14307" lon="6.83105">
        <ele>1629.5</ele>
        <time>2013-07-13T12:21:41Z</time>
      </trkpt>
      <trkpt lat="44.14302" lon="6.83097">
        <ele>1628.7</ele>
        <time>2013-07-13T12:21:43Z</time>
      </trkpt>
      <trkpt lat="44.143" lon="6.8309">
        <ele>1627</ele>
        <time>2013-07-13T12:21:45Z</time>
      </trkpt>
      <trkpt lat="44.14294" lon="6.83076">
        <ele>1622.1</ele>
        <time>2013-07-13T12:21:55Z</time>
      </trkpt>
      <trkpt lat="44.14289" lon="6.83072">
        <ele>1621.3</ele>
        <time>2013-07-13T12:21:57Z</time>
      </trkpt>
      <trkpt lat="44.14285" lon="6.83064">
        <ele>1620.5</ele>
        <time>2013-07-13T12:21:59Z</time>
      </trkpt>
      <trkpt lat="44.14281" lon="6.83057">
        <ele>1620</ele>
        <time>2013-07-13T12:22:01Z</time>
      </trkpt>
      <trkpt lat="44.14276" lon="6.8305">
        <ele>1619.1</ele>
        <time>2013-07-13T12:22:03Z</time>
      </trkpt>
      <trkpt lat="44.1427" lon="6.83038">
        <ele>1618.1</ele>
        <time>2013-07-13T12:22:05Z</time>
      </trkpt>
      <trkpt lat="44.14266" lon="6.8303">
        <ele>1617.2</ele>
        <time>2013-07-13T12:22:07Z</time>
      </trkpt>
      <trkpt lat="44.14265" lon="6.83019">
        <ele>1616</ele>
        <time>2013-07-13T12:22:10Z</time>
      </trkpt>
      <trkpt lat="44.14274" lon="6.83038">
        <ele>1598.5</ele>
        <time>2013-07-13T12:22:56Z</time>
      </trkpt>
      <trkpt lat="44.14271" lon="6.8305">
        <ele>1595.3</ele>
        <time>2013-07-13T12:23:27Z</time>
      </trkpt>
      <trkpt lat="44.1427" lon="6.8306">
        <ele>1594.8</ele>
        <time>2013-07-13T12:23:31Z</time>
      </trkpt>
      <trkpt lat="44.14268" lon="6.83064">
        <ele>1593.6</ele>
        <time>2013-07-13T12:23:34Z</time>
      </trkpt>
      <trkpt lat="44.14265" lon="6.83058">
        <ele>1592.9</ele>
        <time>2013-07-13T12:23:39Z</time>
      </trkpt>
      <trkpt lat="44.14261" lon="6.83055">
        <ele>1592.9</ele>
        <time>2013-07-13T12:23:41Z</time>
      </trkpt>
      <trkpt lat="44.14261" lon="6.8305">
        <ele>1592.5</ele>
        <time>2013-07-13T12:23:43Z</time>
      </trkpt>
      <trkpt lat="44.14257" lon="6.83049">
        <ele>1591.9</ele>
        <time>2013-07-13T12:23:45Z</time>
      </trkpt>
      <trkpt lat="44.14256" lon="6.83055">
        <ele>1591.6</ele>
        <time>2013-07-13T12:23:47Z</time>
      </trkpt>
      <trkpt lat="44.14256" lon="6.83061">
        <ele>1591.9</ele>
        <time>2013-07-13T12:23:49Z</time>
      </trkpt>
      <trkpt lat="44.1425" lon="6.83057">
        <ele>1592</ele>
        <time>2013-07-13T12:23:59Z</time>
      </trkpt>
      <trkpt lat="44.14245" lon="6.83056">
        <ele>1591.8</ele>
        <time>2013-07-13T12:24:01Z</time>
      </trkpt>
      <trkpt lat="44.14241" lon="6.83054">
        <ele>1590.4</ele>
        <time>2013-07-13T12:24:03Z</time>
      </trkpt>
      <trkpt lat="44.14234" lon="6.83051">
        <ele>1588.3</ele>
        <time>2013-07-13T12:24:06Z</time>
      </trkpt>
      <trkpt lat="44.14231" lon="6.8305">
        <ele>1588.4</ele>
        <time>2013-07-13T12:24:08Z</time>
      </trkpt>
      <trkpt lat="44.14227" lon="6.83051">
        <ele>1588.1</ele>
        <time>2013-07-13T12:24:10Z</time>
      </trkpt>
      <trkpt lat="44.14223" lon="6.83051">
        <ele>1587.4</ele>
        <time>2013-07-13T12:24:12Z</time>
      </trkpt>
      <trkpt lat="44.14218" lon="6.83051">
        <ele>1586.5</ele>
        <time>2013-07-13T12:24:14Z</time>
      </trkpt>
      <trkpt lat="44.14212" lon="6.83055">
        <ele>1585.6</ele>
        <time>2013-07-13T12:24:16Z</time>
      </trkpt>
      <trkpt lat="44.14205" lon="6.83081">
        <ele>1581.9</ele>
        <time>2013-07-13T12:24:27Z</time>
      </trkpt>
      <trkpt lat="44.14203" lon="6.83091">
        <ele>1581.5</ele>
        <time>2013-07-13T12:24:29Z</time>
      </trkpt>
      <trkpt lat="44.14199" lon="6.83106">
        <ele>1580</ele>
        <time>2013-07-13T12:24:31Z</time>
      </trkpt>
      <trkpt lat="44.14198" lon="6.83121">
        <ele>1578.5</ele>
        <time>2013-07-13T12:24:33Z</time>
      </trkpt>
      <trkpt lat="44.14197" lon="6.83141">
        <ele>1575.6</ele>
        <time>2013-07-13T12:24:35Z</time>
      </trkpt>
      <trkpt lat="44.142" lon="6.83163">
        <ele>1571.9</ele>
        <time>2013-07-13T12:24:37Z</time>
      </trkpt>
      <trkpt lat="44.14199" lon="6.83182">
        <ele>1570.6</ele>
        <time>2013-07-13T12:24:39Z</time>
      </trkpt>
      <trkpt lat="44.14195" lon="6.83198">
        <ele>1569.8</ele>
        <time>2013-07-13T12:24:41Z</time>
      </trkpt>
      <trkpt lat="44.14193" lon="6.83213">
        <ele>1569.2</ele>
        <time>2013-07-13T12:24:43Z</time>
      </trkpt>
      <trkpt lat="44.14188" lon="6.83227">
        <ele>1568.3</ele>
        <time>2013-07-13T12:24:45Z</time>
      </trkpt>
      <trkpt lat="44.14178" lon="6.83245">
        <ele>1566.8</ele>
        <time>2013-07-13T12:24:48Z</time>
      </trkpt>
      <trkpt lat="44.14171" lon="6.83255">
        <ele>1565.5</ele>
        <time>2013-07-13T12:24:50Z</time>
      </trkpt>
      <trkpt lat="44.14164" lon="6.83265">
        <ele>1565.2</ele>
        <time>2013-07-13T12:24:52Z</time>
      </trkpt>
      <trkpt lat="44.14154" lon="6.83278">
        <ele>1564.4</ele>
        <time>2013-07-13T12:24:54Z</time>
      </trkpt>
      <trkpt lat="44.14148" lon="6.83291">
        <ele>1564</ele>
        <time>2013-07-13T12:24:56Z</time>
      </trkpt>
      <trkpt lat="44.14141" lon="6.83304">
        <ele>1563.1</ele>
        <time>2013-07-13T12:24:58Z</time>
      </trkpt>
      <trkpt lat="44.1413" lon="6.83316">
        <ele>1562.3</ele>
        <time>2013-07-13T12:25:00Z</time>
      </trkpt>
      <trkpt lat="44.1412" lon="6.83324">
        <ele>1561.8</ele>
        <time>2013-07-13T12:25:02Z</time>
      </trkpt>
      <trkpt lat="44.14108" lon="6.83332">
        <ele>1560.9</ele>
        <time>2013-07-13T12:25:04Z</time>
      </trkpt>
      <trkpt lat="44.141" lon="6.8334">
        <ele>1560.2</ele>
        <time>2013-07-13T12:25:06Z</time>
      </trkpt>
      <trkpt lat="44.1409" lon="6.83348">
        <ele>1560</ele>
        <time>2013-07-13T12:25:08Z</time>
      </trkpt>
      <trkpt lat="44.14078" lon="6.83354">
        <ele>1559.4</ele>
        <time>2013-07-13T12:25:10Z</time>
      </trkpt>
      <trkpt lat="44.14065" lon="6.83361">
        <ele>1558.7</ele>
        <time>2013-07-13T12:25:12Z</time>
      </trkpt>
      <trkpt lat="44.14051" lon="6.83369">
        <ele>1558.1</ele>
        <time>2013-07-13T12:25:14Z</time>
      </trkpt>
      <trkpt lat="44.14036" lon="6.83375">
        <ele>1557.3</ele>
        <time>2013-07-13T12:25:16Z</time>
      </trkpt>
      <trkpt lat="44.14023" lon="6.8338">
        <ele>1555.9</ele>
        <time>2013-07-13T12:25:18Z</time>
      </trkpt>
      <trkpt lat="44.14008" lon="6.83382">
        <ele>1554.9</ele>
        <time>2013-07-13T12:25:20Z</time>
      </trkpt>
      <trkpt lat="44.13997" lon="6.83383">
        <ele>1552.6</ele>
        <time>2013-07-13T12:25:22Z</time>
      </trkpt>
      <trkpt lat="44.13992" lon="6.83389">
        <ele>1549.5</ele>
        <time>2013-07-13T12:25:26Z</time>
      </trkpt>
      <trkpt lat="44.13995" lon="6.83385">
        <ele>1536</ele>
        <time>2013-07-13T12:26:11Z</time>
      </trkpt>
      <trkpt lat="44.13989" lon="6.83394">
        <ele>1535.1</ele>
        <time>2013-07-13T12:26:22Z</time>
      </trkpt>
      <trkpt lat="44.13981" lon="6.83397">
        <ele>1534.6</ele>
        <time>2013-07-13T12:26:24Z</time>
      </trkpt>
      <trkpt lat="44.13972" lon="6.83402">
        <ele>1534.2</ele>
        <time>2013-07-13T12:26:26Z</time>
      </trkpt>
      <trkpt lat="44.13964" lon="6.8341">
        <ele>1533.6</ele>
        <time>2013-07-13T12:26:28Z</time>
      </trkpt>
      <trkpt lat="44.13963" lon="6.83421">
        <ele>1532.3</ele>
        <time>2013-07-13T12:26:30Z</time>
      </trkpt>
      <trkpt lat="44.13972" lon="6.83424">
        <ele>1527.1</ele>
        <time>2013-07-13T12:26:32Z</time>
      </trkpt>
      <trkpt lat="44.13981" lon="6.83426">
        <ele>1522.9</ele>
        <time>2013-07-13T12:26:34Z</time>
      </trkpt>
      <trkpt lat="44.13982" lon="6.83434">
        <ele>1520.3</ele>
        <time>2013-07-13T12:26:38Z</time>
      </trkpt>
      <trkpt lat="44.13975" lon="6.8344">
        <ele>1519.5</ele>
        <time>2013-07-13T12:26:40Z</time>
      </trkpt>
      <trkpt lat="44.13968" lon="6.83443">
        <ele>1519</ele>
        <time>2013-07-13T12:26:42Z</time>
      </trkpt>
      <trkpt lat="44.1396" lon="6.8345">
        <ele>1518.4</ele>
        <time>2013-07-13T12:26:44Z</time>
      </trkpt>
      <trkpt lat="44.13949" lon="6.83462">
        <ele>1517.8</ele>
        <time>2013-07-13T12:26:46Z</time>
      </trkpt>
      <trkpt lat="44.13936" lon="6.83475">
        <ele>1517.1</ele>
        <time>2013-07-13T12:26:48Z</time>
      </trkpt>
      <trkpt lat="44.13926" lon="6.83484">
        <ele>1516.7</ele>
        <time>2013-07-13T12:26:50Z</time>
      </trkpt>
      <trkpt lat="44.13914" lon="6.83487">
        <ele>1515.7</ele>
        <time>2013-07-13T12:26:52Z</time>
      </trkpt>
      <trkpt lat="44.13904" lon="6.83493">
        <ele>1515</ele>
        <time>2013-07-13T12:26:54Z</time>
      </trkpt>
      <trkpt lat="44.13906" lon="6.83502">
        <ele>1509.9</ele>
        <time>2013-07-13T12:26:56Z</time>
      </trkpt>
      <trkpt lat="44.13911" lon="6.83512">
        <ele>1505</ele>
        <time>2013-07-13T12:26:58Z</time>
      </trkpt>
      <trkpt lat="44.13918" lon="6.83518">
        <ele>1501</ele>
        <time>2013-07-13T12:27:00Z</time>
      </trkpt>
      <trkpt lat="44.13916" lon="6.83523">
        <ele>1498.5</ele>
        <time>2013-07-13T12:27:02Z</time>
      </trkpt>
      <trkpt lat="44.13901" lon="6.83516">
        <ele>1460.7</ele>
        <time>2013-07-13T12:29:54Z</time>
      </trkpt>
      <trkpt lat="44.139" lon="6.83522">
        <ele>1460.6</ele>
        <time>2013-07-13T12:29:57Z</time>
      </trkpt>
      <trkpt lat="44.13901" lon="6.83531">
        <ele>1460</ele>
        <time>2013-07-13T12:29:59Z</time>
      </trkpt>
      <trkpt lat="44.13903" lon="6.83542">
        <ele>1459.2</ele>
        <time>2013-07-13T12:30:01Z</time>
      </trkpt>
      <trkpt lat="44.13909" lon="6.8355">
        <ele>1457.5</ele>
        <time>2013-07-13T12:30:03Z</time>
      </trkpt>
      <trkpt lat="44.13914" lon="6.83556">
        <ele>1457</ele>
        <time>2013-07-13T12:30:06Z</time>
      </trkpt>
      <trkpt lat="44.13911" lon="6.83561">
        <ele>1456.4</ele>
        <time>2013-07-13T12:30:11Z</time>
      </trkpt>
      <trkpt lat="44.13913" lon="6.83567">
        <ele>1456</ele>
        <time>2013-07-13T12:30:13Z</time>
      </trkpt>
      <trkpt lat="44.13912" lon="6.83574">
        <ele>1455.3</ele>
        <time>2013-07-13T12:30:16Z</time>
      </trkpt>
      <trkpt lat="44.13908" lon="6.83575">
        <ele>1453.3</ele>
        <time>2013-07-13T12:30:19Z</time>
      </trkpt>
      <trkpt lat="44.13904" lon="6.83572">
        <ele>1452.2</ele>
        <time>2013-07-13T12:30:21Z</time>
      </trkpt>
      <trkpt lat="44.13902" lon="6.83576">
        <ele>1451.6</ele>
        <time>2013-07-13T12:30:23Z</time>
      </trkpt>
      <trkpt lat="44.13905" lon="6.83583">
        <ele>1451</ele>
        <time>2013-07-13T12:30:25Z</time>
      </trkpt>
      <trkpt lat="44.13909" lon="6.83588">
        <ele>1443.5</ele>
        <time>2013-07-13T12:30:32Z</time>
      </trkpt>
      <trkpt lat="44.13913" lon="6.83592">
        <ele>1441.9</ele>
        <time>2013-07-13T12:30:34Z</time>
      </trkpt>
      <trkpt lat="44.1392" lon="6.83598">
        <ele>1440.3</ele>
        <time>2013-07-13T12:30:36Z</time>
      </trkpt>
      <trkpt lat="44.1393" lon="6.83609">
        <ele>1437.6</ele>
        <time>2013-07-13T12:30:39Z</time>
      </trkpt>
      <trkpt lat="44.13934" lon="6.83618">
        <ele>1436</ele>
        <time>2013-07-13T12:30:41Z</time>
      </trkpt>
      <trkpt lat="44.13938" lon="6.83623">
        <ele>1434.6</ele>
        <time>2013-07-13T12:30:43Z</time>
      </trkpt>
      <trkpt lat="44.13947" lon="6.83627">
        <ele>1433.7</ele>
        <time>2013-07-13T12:30:45Z</time>
      </trkpt>
      <trkpt lat="44.13956" lon="6.83629">
        <ele>1432.8</ele>
        <time>2013-07-13T12:30:47Z</time>
      </trkpt>
      <trkpt lat="44.13964" lon="6.83631">
        <ele>1432.1</ele>
        <time>2013-07-13T12:30:49Z</time>
      </trkpt>
      <trkpt lat="44.13972" lon="6.83636">
        <ele>1431.2</ele>
        <time>2013-07-13T12:30:52Z</time>
      </trkpt>
      <trkpt lat="44.13981" lon="6.83635">
        <ele>1430.2</ele>
        <time>2013-07-13T12:30:54Z</time>
      </trkpt>
      <trkpt lat="44.13991" lon="6.83634">
        <ele>1428.7</ele>
        <time>2013-07-13T12:30:56Z</time>
      </trkpt>
      <trkpt lat="44.14001" lon="6.83633">
        <ele>1427.2</ele>
        <time>2013-07-13T12:30:58Z</time>
      </trkpt>
      <trkpt lat="44.1401" lon="6.83631">
        <ele>1425.8</ele>
        <time>2013-07-13T12:31:00Z</time>
      </trkpt>
      <trkpt lat="44.14019" lon="6.83631">
        <ele>1424.6</ele>
        <time>2013-07-13T12:31:02Z</time>
      </trkpt>
      <trkpt lat="44.14028" lon="6.83637">
        <ele>1414.8</ele>
        <time>2013-07-13T12:32:16Z</time>
      </trkpt>
      <trkpt lat="44.14031" lon="6.83638">
        <ele>1414.7</ele>
        <time>2013-07-13T12:32:18Z</time>
      </trkpt>
      <trkpt lat="44.14038" lon="6.83642">
        <ele>1414.5</ele>
        <time>2013-07-13T12:32:20Z</time>
      </trkpt>
      <trkpt lat="44.14045" lon="6.83651">
        <ele>1414.2</ele>
        <time>2013-07-13T12:32:22Z</time>
      </trkpt>
      <trkpt lat="44.14055" lon="6.8366">
        <ele>1414.3</ele>
        <time>2013-07-13T12:32:24Z</time>
      </trkpt>
      <trkpt lat="44.14065" lon="6.83667">
        <ele>1414.5</ele>
        <time>2013-07-13T12:32:26Z</time>
      </trkpt>
      <trkpt lat="44.14078" lon="6.83671">
        <ele>1414.6</ele>
        <time>2013-07-13T12:32:28Z</time>
      </trkpt>
      <trkpt lat="44.14093" lon="6.83681">
        <ele>1414.8</ele>
        <time>2013-07-13T12:32:30Z</time>
      </trkpt>
      <trkpt lat="44.14105" lon="6.83689">
        <ele>1414.8</ele>
        <time>2013-07-13T12:32:32Z</time>
      </trkpt>
      <trkpt lat="44.14109" lon="6.83699">
        <ele>1414.3</ele>
        <time>2013-07-13T12:32:34Z</time>
      </trkpt>
      <trkpt lat="44.14112" lon="6.8371">
        <ele>1413.8</ele>
        <time>2013-07-13T12:32:36Z</time>
      </trkpt>
      <trkpt lat="44.14115" lon="6.83717">
        <ele>1413.5</ele>
        <time>2013-07-13T12:32:38Z</time>
      </trkpt>
      <trkpt lat="44.14113" lon="6.8372">
        <ele>1413.3</ele>
        <time>2013-07-13T12:32:40Z</time>
      </trkpt>
      <trkpt lat="44.14106" lon="6.83721">
        <ele>1412.8</ele>
        <time>2013-07-13T12:32:42Z</time>
      </trkpt>
      <trkpt lat="44.14097" lon="6.83722">
        <ele>1412.5</ele>
        <time>2013-07-13T12:32:44Z</time>
      </trkpt>
      <trkpt lat="44.14088" lon="6.83727">
        <ele>1412.3</ele>
        <time>2013-07-13T12:32:46Z</time>
      </trkpt>
      <trkpt lat="44.14085" lon="6.83738">
        <ele>1411.9</ele>
        <time>2013-07-13T12:32:48Z</time>
      </trkpt>
      <trkpt lat="44.14081" lon="6.83748">
        <ele>1411.5</ele>
        <time>2013-07-13T12:32:50Z</time>
      </trkpt>
      <trkpt lat="44.14079" lon="6.83758">
        <ele>1410.8</ele>
        <time>2013-07-13T12:32:52Z</time>
      </trkpt>
      <trkpt lat="44.14081" lon="6.83768">
        <ele>1409.8</ele>
        <time>2013-07-13T12:32:55Z</time>
      </trkpt>
      <trkpt lat="44.14083" lon="6.83772">
        <ele>1409.3</ele>
        <time>2013-07-13T12:32:57Z</time>
      </trkpt>
      <trkpt lat="44.14086" lon="6.83773">
        <ele>1408.2</ele>
        <time>2013-07-13T12:33:00Z</time>
      </trkpt>
      <trkpt lat="44.14099" lon="6.83792">
        <ele>1396.7</ele>
        <time>2013-07-13T12:33:35Z</time>
      </trkpt>
      <trkpt lat="44.14096" lon="6.83796">
        <ele>1396.3</ele>
        <time>2013-07-13T12:33:37Z</time>
      </trkpt>
      <trkpt lat="44.141" lon="6.83801">
        <ele>1395.6</ele>
        <time>2013-07-13T12:33:39Z</time>
      </trkpt>
      <trkpt lat="44.14106" lon="6.83802">
        <ele>1395.5</ele>
        <time>2013-07-13T12:33:41Z</time>
      </trkpt>
      <trkpt lat="44.14114" lon="6.83803">
        <ele>1395</ele>
        <time>2013-07-13T12:33:43Z</time>
      </trkpt>
      <trkpt lat="44.14121" lon="6.83804">
        <ele>1394.5</ele>
        <time>2013-07-13T12:33:45Z</time>
      </trkpt>
      <trkpt lat="44.14125" lon="6.83811">
        <ele>1393</ele>
        <time>2013-07-13T12:33:50Z</time>
      </trkpt>
      <trkpt lat="44.14122" lon="6.8382">
        <ele>1391.5</ele>
        <time>2013-07-13T12:33:53Z</time>
      </trkpt>
      <trkpt lat="44.14128" lon="6.83821">
        <ele>1390.3</ele>
        <time>2013-07-13T12:33:55Z</time>
      </trkpt>
      <trkpt lat="44.14132" lon="6.83823">
        <ele>1389.6</ele>
        <time>2013-07-13T12:33:57Z</time>
      </trkpt>
      <trkpt lat="44.14127" lon="6.83834">
        <ele>1388.5</ele>
        <time>2013-07-13T12:34:01Z</time>
      </trkpt>
      <trkpt lat="44.1412" lon="6.83842">
        <ele>1387.6</ele>
        <time>2013-07-13T12:34:03Z</time>
      </trkpt>
      <trkpt lat="44.14117" lon="6.83845">
        <ele>1386.5</ele>
        <time>2013-07-13T12:34:05Z</time>
      </trkpt>
      <trkpt lat="44.14133" lon="6.83867">
        <ele>1362.2</ele>
        <time>2013-07-13T12:35:56Z</time>
      </trkpt>
      <trkpt lat="44.14131" lon="6.8387">
        <ele>1361.9</ele>
        <time>2013-07-13T12:35:58Z</time>
      </trkpt>
      <trkpt lat="44.14134" lon="6.83873">
        <ele>1361</ele>
        <time>2013-07-13T12:36:00Z</time>
      </trkpt>
      <trkpt lat="44.14138" lon="6.83872">
        <ele>1360.5</ele>
        <time>2013-07-13T12:36:02Z</time>
      </trkpt>
      <trkpt lat="44.14137" lon="6.83877">
        <ele>1359</ele>
        <time>2013-07-13T12:36:05Z</time>
      </trkpt>
      <trkpt lat="44.1414" lon="6.83883">
        <ele>1357.4</ele>
        <time>2013-07-13T12:36:11Z</time>
      </trkpt>
      <trkpt lat="44.14145" lon="6.83886">
        <ele>1357.1</ele>
        <time>2013-07-13T12:36:13Z</time>
      </trkpt>
      <trkpt lat="44.14152" lon="6.83887">
        <ele>1356.8</ele>
        <time>2013-07-13T12:36:15Z</time>
      </trkpt>
      <trkpt lat="44.14158" lon="6.83888">
        <ele>1356.3</ele>
        <time>2013-07-13T12:36:18Z</time>
      </trkpt>
      <trkpt lat="44.14166" lon="6.83893">
        <ele>1356.1</ele>
        <time>2013-07-13T12:36:23Z</time>
      </trkpt>
      <trkpt lat="44.14173" lon="6.83892">
        <ele>1354.9</ele>
        <time>2013-07-13T12:36:26Z</time>
      </trkpt>
      <trkpt lat="44.14176" lon="6.83891">
        <ele>1354.9</ele>
        <time>2013-07-13T12:36:28Z</time>
      </trkpt>
      <trkpt lat="44.14179" lon="6.83888">
        <ele>1354.3</ele>
        <time>2013-07-13T12:36:30Z</time>
      </trkpt>
      <trkpt lat="44.14182" lon="6.8389">
        <ele>1353.6</ele>
        <time>2013-07-13T12:36:32Z</time>
      </trkpt>
      <trkpt lat="44.14188" lon="6.83892">
        <ele>1352.5</ele>
        <time>2013-07-13T12:36:34Z</time>
      </trkpt>
      <trkpt lat="44.1419" lon="6.83896">
        <ele>1351.2</ele>
        <time>2013-07-13T12:36:36Z</time>
      </trkpt>
      <trkpt lat="44.14187" lon="6.83902">
        <ele>1350.6</ele>
        <time>2013-07-13T12:36:38Z</time>
      </trkpt>
      <trkpt lat="44.14185" lon="6.83906">
        <ele>1349.6</ele>
        <time>2013-07-13T12:36:40Z</time>
      </trkpt>
      <trkpt lat="44.14186" lon="6.83913">
        <ele>1340.4</ele>
        <time>2013-07-13T12:37:10Z</time>
      </trkpt>
      <trkpt lat="44.14184" lon="6.83918">
        <ele>1340.3</ele>
        <time>2013-07-13T12:37:12Z</time>
      </trkpt>
      <trkpt lat="44.14183" lon="6.83926">
        <ele>1340.2</ele>
        <time>2013-07-13T12:37:15Z</time>
      </trkpt>
      <trkpt lat="44.14186" lon="6.83922">
        <ele>1338.9</ele>
        <time>2013-07-13T12:37:17Z</time>
      </trkpt>
      <trkpt lat="44.14194" lon="6.83927">
        <ele>1334.9</ele>
        <time>2013-07-13T12:37:25Z</time>
      </trkpt>
      <trkpt lat="44.14189" lon="6.83932">
        <ele>1334.3</ele>
        <time>2013-07-13T12:37:27Z</time>
      </trkpt>
      <trkpt lat="44.14184" lon="6.83936">
        <ele>1333.9</ele>
        <time>2013-07-13T12:37:28Z</time>
      </trkpt>
      <trkpt lat="44.14174" lon="6.83945">
        <ele>1333.5</ele>
        <time>2013-07-13T12:37:30Z</time>
      </trkpt>
      <trkpt lat="44.14166" lon="6.83957">
        <ele>1332.2</ele>
        <time>2013-07-13T12:37:33Z</time>
      </trkpt>
      <trkpt lat="44.14157" lon="6.8397">
        <ele>1331.7</ele>
        <time>2013-07-13T12:37:35Z</time>
      </trkpt>
      <trkpt lat="44.14147" lon="6.83982">
        <ele>1330.9</ele>
        <time>2013-07-13T12:37:37Z</time>
      </trkpt>
      <trkpt lat="44.14141" lon="6.83991">
        <ele>1329.9</ele>
        <time>2013-07-13T12:37:39Z</time>
      </trkpt>
      <trkpt lat="44.14134" lon="6.84">
        <ele>1328.6</ele>
        <time>2013-07-13T12:37:41Z</time>
      </trkpt>
      <trkpt lat="44.14128" lon="6.84007">
        <ele>1327.8</ele>
        <time>2013-07-13T12:37:43Z</time>
      </trkpt>
      <trkpt lat="44.1413" lon="6.8401">
        <ele>1326.6</ele>
        <time>2013-07-13T12:37:46Z</time>
      </trkpt>
      <trkpt lat="44.14134" lon="6.84014">
        <ele>1325.3</ele>
        <time>2013-07-13T12:37:48Z</time>
      </trkpt>
      <trkpt lat="44.14132" lon="6.84018">
        <ele>1323.5</ele>
        <time>2013-07-13T12:37:51Z</time>
      </trkpt>
      <trkpt lat="44.14126" lon="6.84025">
        <ele>1322.3</ele>
        <time>2013-07-13T12:37:53Z</time>
      </trkpt>
      <trkpt lat="44.14118" lon="6.84033">
        <ele>1320.9</ele>
        <time>2013-07-13T12:37:55Z</time>
      </trkpt>
      <trkpt lat="44.14111" lon="6.84039">
        <ele>1320</ele>
        <time>2013-07-13T12:37:57Z</time>
      </trkpt>
      <trkpt lat="44.14105" lon="6.84046">
        <ele>1319.1</ele>
        <time>2013-07-13T12:37:59Z</time>
      </trkpt>
      <trkpt lat="44.14098" lon="6.84051">
        <ele>1318.2</ele>
        <time>2013-07-13T12:38:01Z</time>
      </trkpt>
      <trkpt lat="44.14089" lon="6.84059">
        <ele>1316.9</ele>
        <time>2013-07-13T12:38:03Z</time>
      </trkpt>
      <trkpt lat="44.14082" lon="6.84068">
        <ele>1314.9</ele>
        <time>2013-07-13T12:38:05Z</time>
      </trkpt>
      <trkpt lat="44.14078" lon="6.84074">
        <ele>1312.3</ele>
        <time>2013-07-13T12:38:08Z</time>
      </trkpt>
      <trkpt lat="44.14078" lon="6.8408">
        <ele>1310.6</ele>
        <time>2013-07-13T12:38:11Z</time>
      </trkpt>
      <trkpt lat="44.14081" lon="6.84084">
        <ele>1308.7</ele>
        <time>2013-07-13T12:38:14Z</time>
      </trkpt>
      <trkpt lat="44.14078" lon="6.84086">
        <ele>1307.9</ele>
        <time>2013-07-13T12:38:16Z</time>
      </trkpt>
      <trkpt lat="44.14073" lon="6.84092">
        <ele>1306.5</ele>
        <time>2013-07-13T12:38:18Z</time>
      </trkpt>
      <trkpt lat="44.14067" lon="6.84096">
        <ele>1305.2</ele>
        <time>2013-07-13T12:38:20Z</time>
      </trkpt>
      <trkpt lat="44.14063" lon="6.84101">
        <ele>1303.3</ele>
        <time>2013-07-13T12:38:22Z</time>
      </trkpt>
      <trkpt lat="44.14059" lon="6.84108">
        <ele>1302</ele>
        <time>2013-07-13T12:38:24Z</time>
      </trkpt>
      <trkpt lat="44.14063" lon="6.84115">
        <ele>1300.6</ele>
        <time>2013-07-13T12:38:27Z</time>
      </trkpt>
      <trkpt lat="44.14059" lon="6.84116">
        <ele>1298.6</ele>
        <time>2013-07-13T12:38:30Z</time>
      </trkpt>
      <trkpt lat="44.14056" lon="6.84119">
        <ele>1297.2</ele>
        <time>2013-07-13T12:38:32Z</time>
      </trkpt>
      <trkpt lat="44.14057" lon="6.84123">
        <ele>1295.7</ele>
        <time>2013-07-13T12:38:34Z</time>
      </trkpt>
      <trkpt lat="44.14064" lon="6.8413">
        <ele>1293.1</ele>
        <time>2013-07-13T12:38:38Z</time>
      </trkpt>
      <trkpt lat="44.1407" lon="6.84131">
        <ele>1291.5</ele>
        <time>2013-07-13T12:38:40Z</time>
      </trkpt>
      <trkpt lat="44.1407" lon="6.84135">
        <ele>1289.6</ele>
        <time>2013-07-13T12:38:43Z</time>
      </trkpt>
      <trkpt lat="44.14071" lon="6.8414">
        <ele>1287.2</ele>
        <time>2013-07-13T12:38:46Z</time>
      </trkpt>
      <trkpt lat="44.14079" lon="6.84144">
        <ele>1284.7</ele>
        <time>2013-07-13T12:38:49Z</time>
      </trkpt>
      <trkpt lat="44.14082" lon="6.84148">
        <ele>1284</ele>
        <time>2013-07-13T12:38:51Z</time>
      </trkpt>
      <trkpt lat="44.14088" lon="6.84162">
        <ele>1279.2</ele>
        <time>2013-07-13T12:38:58Z</time>
      </trkpt>
      <trkpt lat="44.14083" lon="6.84165">
        <ele>1278.6</ele>
        <time>2013-07-13T12:38:59Z</time>
      </trkpt>
      <trkpt lat="44.1407" lon="6.84174">
        <ele>1278.2</ele>
        <time>2013-07-13T12:39:01Z</time>
      </trkpt>
      <trkpt lat="44.14052" lon="6.84182">
        <ele>1277</ele>
        <time>2013-07-13T12:39:04Z</time>
      </trkpt>
      <trkpt lat="44.14043" lon="6.84188">
        <ele>1275.9</ele>
        <time>2013-07-13T12:39:06Z</time>
      </trkpt>
      <trkpt lat="44.14035" lon="6.84191">
        <ele>1274.3</ele>
        <time>2013-07-13T12:39:08Z</time>
      </trkpt>
      <trkpt lat="44.14036" lon="6.84197">
        <ele>1271.6</ele>
        <time>2013-07-13T12:39:11Z</time>
      </trkpt>
      <trkpt lat="44.1404" lon="6.842">
        <ele>1270.1</ele>
        <time>2013-07-13T12:39:13Z</time>
      </trkpt>
      <trkpt lat="44.14044" lon="6.84203">
        <ele>1268.7</ele>
        <time>2013-07-13T12:39:15Z</time>
      </trkpt>
      <trkpt lat="44.14054" lon="6.84215">
        <ele>1267.5</ele>
        <time>2013-07-13T12:39:17Z</time>
      </trkpt>
      <trkpt lat="44.14063" lon="6.84225">
        <ele>1266.4</ele>
        <time>2013-07-13T12:39:19Z</time>
      </trkpt>
      <trkpt lat="44.14069" lon="6.84235">
        <ele>1265.1</ele>
        <time>2013-07-13T12:39:21Z</time>
      </trkpt>
      <trkpt lat="44.14069" lon="6.8424">
        <ele>1263.6</ele>
        <time>2013-07-13T12:39:23Z</time>
      </trkpt>
      <trkpt lat="44.14068" lon="6.84245">
        <ele>1262</ele>
        <time>2013-07-13T12:39:25Z</time>
      </trkpt>
      <trkpt lat="44.14073" lon="6.84253">
        <ele>1259.7</ele>
        <time>2013-07-13T12:39:28Z</time>
      </trkpt>
      <trkpt lat="44.14076" lon="6.84258">
        <ele>1257.6</ele>
        <time>2013-07-13T12:39:30Z</time>
      </trkpt>
      <trkpt lat="44.14079" lon="6.84263">
        <ele>1256.5</ele>
        <time>2013-07-13T12:39:31Z</time>
      </trkpt>
      <trkpt lat="44.14079" lon="6.84273">
        <ele>1253.5</ele>
        <time>2013-07-13T12:39:34Z</time>
      </trkpt>
      <trkpt lat="44.1407" lon="6.84279">
        <ele>1251.8</ele>
        <time>2013-07-13T12:39:36Z</time>
      </trkpt>
      <trkpt lat="44.14064" lon="6.84284">
        <ele>1250.1</ele>
        <time>2013-07-13T12:39:38Z</time>
      </trkpt>
      <trkpt lat="44.14067" lon="6.84285">
        <ele>1246.8</ele>
        <time>2013-07-13T12:39:40Z</time>
      </trkpt>
      <trkpt lat="44.1407" lon="6.8429">
        <ele>1243.6</ele>
        <time>2013-07-13T12:39:43Z</time>
      </trkpt>
      <trkpt lat="44.14065" lon="6.84296">
        <ele>1239.8</ele>
        <time>2013-07-13T12:39:48Z</time>
      </trkpt>
      <trkpt lat="44.14065" lon="6.84303">
        <ele>1237.7</ele>
        <time>2013-07-13T12:39:50Z</time>
      </trkpt>
      <trkpt lat="44.14061" lon="6.84304">
        <ele>1236.2</ele>
        <time>2013-07-13T12:39:52Z</time>
      </trkpt>
      <trkpt lat="44.14057" lon="6.84309">
        <ele>1233.2</ele>
        <time>2013-07-13T12:39:55Z</time>
      </trkpt>
      <trkpt lat="44.14056" lon="6.84315">
        <ele>1229.7</ele>
        <time>2013-07-13T12:39:58Z</time>
      </trkpt>
      <trkpt lat="44.14051" lon="6.84317">
        <ele>1228.3</ele>
        <time>2013-07-13T12:40:00Z</time>
      </trkpt>
      <trkpt lat="44.14046" lon="6.84316">
        <ele>1227.2</ele>
        <time>2013-07-13T12:40:02Z</time>
      </trkpt>
      <trkpt lat="44.1404" lon="6.84321">
        <ele>1223.9</ele>
        <time>2013-07-13T12:40:05Z</time>
      </trkpt>
      <trkpt lat="44.1404" lon="6.84331">
        <ele>1220.9</ele>
        <time>2013-07-13T12:40:08Z</time>
      </trkpt>
      <trkpt lat="44.14041" lon="6.84335">
        <ele>1217.1</ele>
        <time>2013-07-13T12:40:11Z</time>
      </trkpt>
      <trkpt lat="44.14037" lon="6.84335">
        <ele>1215.6</ele>
        <time>2013-07-13T12:40:13Z</time>
      </trkpt>
      <trkpt lat="44.14033" lon="6.84335">
        <ele>1214.1</ele>
        <time>2013-07-13T12:40:15Z</time>
      </trkpt>
      <trkpt lat="44.14027" lon="6.84338">
        <ele>1213</ele>
        <time>2013-07-13T12:40:17Z</time>
      </trkpt>
      <trkpt lat="44.14021" lon="6.8434">
        <ele>1211.9</ele>
        <time>2013-07-13T12:40:19Z</time>
      </trkpt>
      <trkpt lat="44.14013" lon="6.84345">
        <ele>1210.5</ele>
        <time>2013-07-13T12:40:22Z</time>
      </trkpt>
      <trkpt lat="44.14008" lon="6.84346">
        <ele>1209.5</ele>
        <time>2013-07-13T12:40:24Z</time>
      </trkpt>
      <trkpt lat="44.14005" lon="6.84348">
        <ele>1208.4</ele>
        <time>2013-07-13T12:40:26Z</time>
      </trkpt>
      <trkpt lat="44.14004" lon="6.84353">
        <ele>1207.2</ele>
        <time>2013-07-13T12:40:28Z</time>
      </trkpt>
      <trkpt lat="44.14001" lon="6.84356">
        <ele>1205.2</ele>
        <time>2013-07-13T12:40:31Z</time>
      </trkpt>
      <trkpt lat="44.13995" lon="6.8436">
        <ele>1204</ele>
        <time>2013-07-13T12:40:33Z</time>
      </trkpt>
      <trkpt lat="44.13984" lon="6.8437">
        <ele>1201.7</ele>
        <time>2013-07-13T12:40:36Z</time>
      </trkpt>
      <trkpt lat="44.13977" lon="6.84375">
        <ele>1200.3</ele>
        <time>2013-07-13T12:40:38Z</time>
      </trkpt>
      <trkpt lat="44.1397" lon="6.84376">
        <ele>1198.4</ele>
        <time>2013-07-13T12:40:40Z</time>
      </trkpt>
      <trkpt lat="44.13963" lon="6.84378">
        <ele>1196.6</ele>
        <time>2013-07-13T12:40:42Z</time>
      </trkpt>
      <trkpt lat="44.13958" lon="6.8438">
        <ele>1195.5</ele>
        <time>2013-07-13T12:40:44Z</time>
      </trkpt>
      <trkpt lat="44.1395" lon="6.84383">
        <ele>1193.5</ele>
        <time>2013-07-13T12:40:47Z</time>
      </trkpt>
      <trkpt lat="44.13943" lon="6.84385">
        <ele>1192.9</ele>
        <time>2013-07-13T12:40:49Z</time>
      </trkpt>
      <trkpt lat="44.13935" lon="6.84386">
        <ele>1192.1</ele>
        <time>2013-07-13T12:40:51Z</time>
      </trkpt>
      <trkpt lat="44.13928" lon="6.84386">
        <ele>1191.1</ele>
        <time>2013-07-13T12:40:53Z</time>
      </trkpt>
      <trkpt lat="44.13925" lon="6.84371">
        <ele>1162.3</ele>
        <time>2013-07-13T12:42:56Z</time>
      </trkpt>
      <trkpt lat="44.13921" lon="6.84373">
        <ele>1162.2</ele>
        <time>2013-07-13T12:42:58Z</time>
      </trkpt>
      <trkpt lat="44.13917" lon="6.84372">
        <ele>1161.9</ele>
        <time>2013-07-13T12:43:00Z</time>
      </trkpt>
      <trkpt lat="44.13911" lon="6.8437">
        <ele>1161.9</ele>
        <time>2013-07-13T12:43:02Z</time>
      </trkpt>
      <trkpt lat="44.13909" lon="6.84376">
        <ele>1160.9</ele>
        <time>2013-07-13T12:43:04Z</time>
      </trkpt>
      <trkpt lat="44.13908" lon="6.8439">
        <ele>1157.7</ele>
        <time>2013-07-13T12:43:16Z</time>
      </trkpt>
      <trkpt lat="44.13904" lon="6.84391">
        <ele>1157</ele>
        <time>2013-07-13T12:43:19Z</time>
      </trkpt>
      <trkpt lat="44.13898" lon="6.84389">
        <ele>1156.2</ele>
        <time>2013-07-13T12:43:21Z</time>
      </trkpt>
      <trkpt lat="44.13891" lon="6.84387">
        <ele>1156</ele>
        <time>2013-07-13T12:43:23Z</time>
      </trkpt>
      <trkpt lat="44.13885" lon="6.84385">
        <ele>1155.6</ele>
        <time>2013-07-13T12:43:25Z</time>
      </trkpt>
      <trkpt lat="44.1388" lon="6.84383">
        <ele>1155.2</ele>
        <time>2013-07-13T12:43:27Z</time>
      </trkpt>
      <trkpt lat="44.13875" lon="6.84379">
        <ele>1155</ele>
        <time>2013-07-13T12:43:31Z</time>
      </trkpt>
      <trkpt lat="44.13878" lon="6.84371">
        <ele>1142.5</ele>
        <time>2013-07-13T12:44:18Z</time>
      </trkpt>
      <trkpt lat="44.13875" lon="6.8437">
        <ele>1142.5</ele>
        <time>2013-07-13T12:44:20Z</time>
      </trkpt>
      <trkpt lat="44.13886" lon="6.84367">
        <ele>1147.5</ele>
        <time>2013-07-13T12:45:54Z</time>
      </trkpt>
      <trkpt lat="44.13922" lon="6.84376">
        <ele>1147.1</ele>
        <time>2013-07-13T12:47:05Z</time>
      </trkpt>
      <trkpt lat="44.13925" lon="6.84378">
        <ele>1147.3</ele>
        <time>2013-07-13T12:47:07Z</time>
      </trkpt>
      <trkpt lat="44.13906" lon="6.84336">
        <ele>1153.7</ele>
        <time>2013-07-13T12:48:15Z</time>
      </trkpt>
      <trkpt lat="44.13904" lon="6.84333">
        <ele>1154</ele>
        <time>2013-07-13T12:48:17Z</time>
      </trkpt>
      <trkpt lat="44.13878" lon="6.84295">
        <ele>1153.6</ele>
        <time>2013-07-13T12:49:05Z</time>
      </trkpt>
      <trkpt lat="44.13875" lon="6.84292">
        <ele>1153.2</ele>
        <time>2013-07-13T12:49:08Z</time>
      </trkpt>
      <trkpt lat="44.13848" lon="6.8426">
        <ele>1159.1</ele>
        <time>2013-07-13T12:49:53Z</time>
      </trkpt>
      <trkpt lat="44.13846" lon="6.84257">
        <ele>1159.2</ele>
        <time>2013-07-13T12:49:55Z</time>
      </trkpt>
      <trkpt lat="44.13839" lon="6.84234">
        <ele>1158</ele>
        <time>2013-07-13T12:50:04Z</time>
      </trkpt>
      <trkpt lat="44.13835" lon="6.84223">
        <ele>1156.9</ele>
        <time>2013-07-13T12:50:06Z</time>
      </trkpt>
      <trkpt lat="44.13832" lon="6.84215">
        <ele>1156.9</ele>
        <time>2013-07-13T12:50:08Z</time>
      </trkpt>
      <trkpt lat="44.13829" lon="6.84208">
        <ele>1156.4</ele>
        <time>2013-07-13T12:50:11Z</time>
      </trkpt>
      <trkpt lat="44.13791" lon="6.84214">
        <ele>1163.2</ele>
        <time>2013-07-13T12:50:55Z</time>
      </trkpt>
      <trkpt lat="44.13788" lon="6.84214">
        <ele>1163.2</ele>
        <time>2013-07-13T12:50:58Z</time>
      </trkpt>
      <trkpt lat="44.13756" lon="6.84204">
        <ele>1164.2</ele>
        <time>2013-07-13T12:51:23Z</time>
      </trkpt>
      <trkpt lat="44.13754" lon="6.84202">
        <ele>1164.4</ele>
        <time>2013-07-13T12:51:25Z</time>
      </trkpt>
      <trkpt lat="44.13716" lon="6.84207">
        <ele>1168.7</ele>
        <time>2013-07-13T12:52:06Z</time>
      </trkpt>
      <trkpt lat="44.13713" lon="6.8421">
        <ele>1169.4</ele>
        <time>2013-07-13T12:52:08Z</time>
      </trkpt>
      <trkpt lat="44.13709" lon="6.8421">
        <ele>1170</ele>
        <time>2013-07-13T12:52:11Z</time>
      </trkpt>
      <trkpt lat="44.13706" lon="6.84211">
        <ele>1170.3</ele>
        <time>2013-07-13T12:52:13Z</time>
      </trkpt>
      <trkpt lat="44.13685" lon="6.84208">
        <ele>1172.9</ele>
        <time>2013-07-13T12:52:27Z</time>
      </trkpt>
      <trkpt lat="44.13681" lon="6.8421">
        <ele>1172.9</ele>
        <time>2013-07-13T12:52:29Z</time>
      </trkpt>
      <trkpt lat="44.13678" lon="6.84212">
        <ele>1173.3</ele>
        <time>2013-07-13T12:52:31Z</time>
      </trkpt>
      <trkpt lat="44.13675" lon="6.84212">
        <ele>1175.4</ele>
        <time>2013-07-13T12:52:35Z</time>
      </trkpt>
      <trkpt lat="44.13639" lon="6.84213">
        <ele>1187.6</ele>
        <time>2013-07-13T12:53:20Z</time>
      </trkpt>
      <trkpt lat="44.13636" lon="6.84211">
        <ele>1187.9</ele>
        <time>2013-07-13T12:53:22Z</time>
      </trkpt>
      <trkpt lat="44.136" lon="6.84218">
        <ele>1190.5</ele>
        <time>2013-07-13T12:53:58Z</time>
      </trkpt>
      <trkpt lat="44.13597" lon="6.8422">
        <ele>1190.1</ele>
        <time>2013-07-13T12:54:00Z</time>
      </trkpt>
      <trkpt lat="44.13591" lon="6.84222">
        <ele>1190.7</ele>
        <time>2013-07-13T12:54:03Z</time>
      </trkpt>
      <trkpt lat="44.13588" lon="6.84224">
        <ele>1190.7</ele>
        <time>2013-07-13T12:54:06Z</time>
      </trkpt>
      <trkpt lat="44.1358" lon="6.84231">
        <ele>1192.5</ele>
        <time>2013-07-13T12:54:16Z</time>
      </trkpt>
      <trkpt lat="44.13577" lon="6.84232">
        <ele>1193.2</ele>
        <time>2013-07-13T12:54:18Z</time>
      </trkpt>
      <trkpt lat="44.13573" lon="6.84231">
        <ele>1194.5</ele>
        <time>2013-07-13T12:54:21Z</time>
      </trkpt>
      <trkpt lat="44.13571" lon="6.84216">
        <ele>1195.6</ele>
        <time>2013-07-13T12:54:33Z</time>
      </trkpt>
      <trkpt lat="44.1357" lon="6.84212">
        <ele>1195.6</ele>
        <time>2013-07-13T12:54:35Z</time>
      </trkpt>
      <trkpt lat="44.1357" lon="6.84207">
        <ele>1195.9</ele>
        <time>2013-07-13T12:54:38Z</time>
      </trkpt>
      <trkpt lat="44.13575" lon="6.84198">
        <ele>1196.1</ele>
        <time>2013-07-13T12:54:45Z</time>
      </trkpt>
      <trkpt lat="44.13577" lon="6.84194">
        <ele>1196.4</ele>
        <time>2013-07-13T12:54:47Z</time>
      </trkpt>
      <trkpt lat="44.13578" lon="6.8419">
        <ele>1196.6</ele>
        <time>2013-07-13T12:54:49Z</time>
      </trkpt>
      <trkpt lat="44.1358" lon="6.84185">
        <ele>1196.3</ele>
        <time>2013-07-13T12:54:51Z</time>
      </trkpt>
      <trkpt lat="44.13581" lon="6.8418">
        <ele>1196.2</ele>
        <time>2013-07-13T12:54:53Z</time>
      </trkpt>
      <trkpt lat="44.13581" lon="6.84176">
        <ele>1196.3</ele>
        <time>2013-07-13T12:54:55Z</time>
      </trkpt>
      <trkpt lat="44.13579" lon="6.8417">
        <ele>1196.9</ele>
        <time>2013-07-13T12:54:57Z</time>
      </trkpt>
      <trkpt lat="44.13576" lon="6.84167">
        <ele>1197.8</ele>
        <time>2013-07-13T12:54:59Z</time>
      </trkpt>
      <trkpt lat="44.13579" lon="6.84163">
        <ele>1197.3</ele>
        <time>2013-07-13T12:55:02Z</time>
      </trkpt>
      <trkpt lat="44.13579" lon="6.84152">
        <ele>1198.2</ele>
        <time>2013-07-13T12:55:09Z</time>
      </trkpt>
      <trkpt lat="44.13579" lon="6.84146">
        <ele>1198.7</ele>
        <time>2013-07-13T12:55:11Z</time>
      </trkpt>
      <trkpt lat="44.13577" lon="6.84143">
        <ele>1198.9</ele>
        <time>2013-07-13T12:55:13Z</time>
      </trkpt>
      <trkpt lat="44.13576" lon="6.84139">
        <ele>1199</ele>
        <time>2013-07-13T12:55:15Z</time>
      </trkpt>
      <trkpt lat="44.13576" lon="6.84134">
        <ele>1199.1</ele>
        <time>2013-07-13T12:55:17Z</time>
      </trkpt>
      <trkpt lat="44.13576" lon="6.84129">
        <ele>1199.1</ele>
        <time>2013-07-13T12:55:19Z</time>
      </trkpt>
      <trkpt lat="44.13573" lon="6.84125">
        <ele>1199.9</ele>
        <time>2013-07-13T12:55:21Z</time>
      </trkpt>
      <trkpt lat="44.13569" lon="6.84121">
        <ele>1199.8</ele>
        <time>2013-07-13T12:55:23Z</time>
      </trkpt>
      <trkpt lat="44.13567" lon="6.84117">
        <ele>1200.2</ele>
        <time>2013-07-13T12:55:25Z</time>
      </trkpt>
      <trkpt lat="44.13565" lon="6.84113">
        <ele>1200.6</ele>
        <time>2013-07-13T12:55:27Z</time>
      </trkpt>
      <trkpt lat="44.13563" lon="6.8411">
        <ele>1201</ele>
        <time>2013-07-13T12:55:29Z</time>
      </trkpt>
      <trkpt lat="44.13559" lon="6.84109">
        <ele>1201.8</ele>
        <time>2013-07-13T12:55:31Z</time>
      </trkpt>
      <trkpt lat="44.13555" lon="6.84107">
        <ele>1203.1</ele>
        <time>2013-07-13T12:55:33Z</time>
      </trkpt>
      <trkpt lat="44.13552" lon="6.84106">
        <ele>1203.5</ele>
        <time>2013-07-13T12:55:35Z</time>
      </trkpt>
      <trkpt lat="44.13546" lon="6.84108">
        <ele>1203.5</ele>
        <time>2013-07-13T12:55:37Z</time>
      </trkpt>
      <trkpt lat="44.13538" lon="6.84109">
        <ele>1203.6</ele>
        <time>2013-07-13T12:55:39Z</time>
      </trkpt>
      <trkpt lat="44.1353" lon="6.84113">
        <ele>1203.6</ele>
        <time>2013-07-13T12:55:41Z</time>
      </trkpt>
      <trkpt lat="44.13521" lon="6.84118">
        <ele>1203.7</ele>
        <time>2013-07-13T12:55:43Z</time>
      </trkpt>
      <trkpt lat="44.13515" lon="6.84122">
        <ele>1204.4</ele>
        <time>2013-07-13T12:55:46Z</time>
      </trkpt>
      <trkpt lat="44.13511" lon="6.84118">
        <ele>1203.6</ele>
        <time>2013-07-13T12:57:02Z</time>
      </trkpt>
      <trkpt lat="44.13506" lon="6.84116">
        <ele>1203.3</ele>
        <time>2013-07-13T12:57:04Z</time>
      </trkpt>
      <trkpt lat="44.13499" lon="6.84113">
        <ele>1203.2</ele>
        <time>2013-07-13T12:57:06Z</time>
      </trkpt>
      <trkpt lat="44.13495" lon="6.84106">
        <ele>1202.8</ele>
        <time>2013-07-13T12:57:08Z</time>
      </trkpt>
      <trkpt lat="44.13495" lon="6.84102">
        <ele>1202.5</ele>
        <time>2013-07-13T12:57:10Z</time>
      </trkpt>
      <trkpt lat="44.13498" lon="6.84095">
        <ele>1202</ele>
        <time>2013-07-13T12:57:12Z</time>
      </trkpt>
      <trkpt lat="44.13498" lon="6.84085">
        <ele>1201.6</ele>
        <time>2013-07-13T12:57:14Z</time>
      </trkpt>
      <trkpt lat="44.13501" lon="6.84075">
        <ele>1201.4</ele>
        <time>2013-07-13T12:57:16Z</time>
      </trkpt>
      <trkpt lat="44.13508" lon="6.8407">
        <ele>1201</ele>
        <time>2013-07-13T12:57:18Z</time>
      </trkpt>
      <trkpt lat="44.13509" lon="6.84059">
        <ele>1199.9</ele>
        <time>2013-07-13T12:57:21Z</time>
      </trkpt>
      <trkpt lat="44.13504" lon="6.84047">
        <ele>1199.3</ele>
        <time>2013-07-13T12:57:23Z</time>
      </trkpt>
      <trkpt lat="44.13503" lon="6.84036">
        <ele>1198.9</ele>
        <time>2013-07-13T12:57:25Z</time>
      </trkpt>
      <trkpt lat="44.13499" lon="6.84038">
        <ele>1196.1</ele>
        <time>2013-07-13T12:57:29Z</time>
      </trkpt>
      <trkpt lat="44.13497" lon="6.84036">
        <ele>1194</ele>
        <time>2013-07-13T12:57:32Z</time>
      </trkpt>
      <trkpt lat="44.13499" lon="6.84027">
        <ele>1192.2</ele>
        <time>2013-07-13T12:57:34Z</time>
      </trkpt>
      <trkpt lat="44.13506" lon="6.8402">
        <ele>1191.2</ele>
        <time>2013-07-13T12:57:36Z</time>
      </trkpt>
      <trkpt lat="44.13513" lon="6.84017">
        <ele>1190.2</ele>
        <time>2013-07-13T12:57:38Z</time>
      </trkpt>
      <trkpt lat="44.13516" lon="6.84011">
        <ele>1189.5</ele>
        <time>2013-07-13T12:57:40Z</time>
      </trkpt>
      <trkpt lat="44.13517" lon="6.84002">
        <ele>1189.2</ele>
        <time>2013-07-13T12:57:42Z</time>
      </trkpt>
      <trkpt lat="44.13519" lon="6.83996">
        <ele>1188.6</ele>
        <time>2013-07-13T12:57:44Z</time>
      </trkpt>
      <trkpt lat="44.1352" lon="6.8399">
        <ele>1188.5</ele>
        <time>2013-07-13T12:57:46Z</time>
      </trkpt>
      <trkpt lat="44.13515" lon="6.83986">
        <ele>1188</ele>
        <time>2013-07-13T12:57:52Z</time>
      </trkpt>
      <trkpt lat="44.1351" lon="6.83986">
        <ele>1187.6</ele>
        <time>2013-07-13T12:57:54Z</time>
      </trkpt>
      <trkpt lat="44.13502" lon="6.83986">
        <ele>1188</ele>
        <time>2013-07-13T12:57:57Z</time>
      </trkpt>
      <trkpt lat="44.13495" lon="6.83986">
        <ele>1187.7</ele>
        <time>2013-07-13T12:58:00Z</time>
      </trkpt>
      <trkpt lat="44.1349" lon="6.83985">
        <ele>1187.7</ele>
        <time>2013-07-13T12:58:02Z</time>
      </trkpt>
      <trkpt lat="44.13482" lon="6.83984">
        <ele>1187.8</ele>
        <time>2013-07-13T12:58:05Z</time>
      </trkpt>
      <trkpt lat="44.13473" lon="6.83989">
        <ele>1186.5</ele>
        <time>2013-07-13T12:58:07Z</time>
      </trkpt>
      <trkpt lat="44.13466" lon="6.83992">
        <ele>1185.8</ele>
        <time>2013-07-13T12:58:09Z</time>
      </trkpt>
      <trkpt lat="44.13459" lon="6.83995">
        <ele>1185.1</ele>
        <time>2013-07-13T12:58:11Z</time>
      </trkpt>
      <trkpt lat="44.13449" lon="6.83995">
        <ele>1184.3</ele>
        <time>2013-07-13T12:58:14Z</time>
      </trkpt>
      <trkpt lat="44.13442" lon="6.83995">
        <ele>1184.6</ele>
        <time>2013-07-13T12:58:16Z</time>
      </trkpt>
      <trkpt lat="44.13434" lon="6.83995">
        <ele>1184.3</ele>
        <time>2013-07-13T12:58:18Z</time>
      </trkpt>
      <trkpt lat="44.13425" lon="6.83995">
        <ele>1183.1</ele>
        <time>2013-07-13T12:58:20Z</time>
      </trkpt>
      <trkpt lat="44.13414" lon="6.83996">
        <ele>1182.4</ele>
        <time>2013-07-13T12:58:22Z</time>
      </trkpt>
      <trkpt lat="44.13401" lon="6.83994">
        <ele>1181.1</ele>
        <time>2013-07-13T12:58:24Z</time>
      </trkpt>
      <trkpt lat="44.13395" lon="6.83989">
        <ele>1179.5</ele>
        <time>2013-07-13T12:58:26Z</time>
      </trkpt>
      <trkpt lat="44.1339" lon="6.83997">
        <ele>1176.9</ele>
        <time>2013-07-13T12:58:29Z</time>
      </trkpt>
      <trkpt lat="44.13387" lon="6.83995">
        <ele>1175.7</ele>
        <time>2013-07-13T12:58:31Z</time>
      </trkpt>
      <trkpt lat="44.13384" lon="6.83983">
        <ele>1175.1</ele>
        <time>2013-07-13T12:58:33Z</time>
      </trkpt>
      <trkpt lat="44.13379" lon="6.83967">
        <ele>1173.5</ele>
        <time>2013-07-13T12:58:35Z</time>
      </trkpt>
      <trkpt lat="44.13376" lon="6.83953">
        <ele>1172.9</ele>
        <time>2013-07-13T12:58:37Z</time>
      </trkpt>
      <trkpt lat="44.13377" lon="6.83944">
        <ele>1171</ele>
        <time>2013-07-13T12:58:39Z</time>
      </trkpt>
      <trkpt lat="44.13379" lon="6.83938">
        <ele>1170.2</ele>
        <time>2013-07-13T12:58:41Z</time>
      </trkpt>
      <trkpt lat="44.13376" lon="6.83955">
        <ele>1167</ele>
        <time>2013-07-13T12:59:00Z</time>
      </trkpt>
      <trkpt lat="44.13374" lon="6.83964">
        <ele>1165.9</ele>
        <time>2013-07-13T12:59:02Z</time>
      </trkpt>
      <trkpt lat="44.13374" lon="6.83974">
        <ele>1165</ele>
        <time>2013-07-13T12:59:04Z</time>
      </trkpt>
      <trkpt lat="44.13372" lon="6.83986">
        <ele>1164.9</ele>
        <time>2013-07-13T12:59:06Z</time>
      </trkpt>
      <trkpt lat="44.13369" lon="6.84001">
        <ele>1164.7</ele>
        <time>2013-07-13T12:59:08Z</time>
      </trkpt>
      <trkpt lat="44.1337" lon="6.84016">
        <ele>1164</ele>
        <time>2013-07-13T12:59:10Z</time>
      </trkpt>
      <trkpt lat="44.13378" lon="6.84029">
        <ele>1163.4</ele>
        <time>2013-07-13T12:59:12Z</time>
      </trkpt>
      <trkpt lat="44.13383" lon="6.8404">
        <ele>1163.9</ele>
        <time>2013-07-13T12:59:14Z</time>
      </trkpt>
      <trkpt lat="44.13349" lon="6.84062">
        <ele>1159.4</ele>
        <time>2013-07-13T13:00:02Z</time>
      </trkpt>
      <trkpt lat="44.13346" lon="6.84064">
        <ele>1159.1</ele>
        <time>2013-07-13T13:00:05Z</time>
      </trkpt>
      <trkpt lat="44.13316" lon="6.84074">
        <ele>1160.1</ele>
        <time>2013-07-13T13:00:28Z</time>
      </trkpt>
      <trkpt lat="44.1331" lon="6.84074">
        <ele>1159.7</ele>
        <time>2013-07-13T13:00:30Z</time>
      </trkpt>
      <trkpt lat="44.13307" lon="6.84074">
        <ele>1159.5</ele>
        <time>2013-07-13T13:00:32Z</time>
      </trkpt>
      <trkpt lat="44.13304" lon="6.84075">
        <ele>1160.6</ele>
        <time>2013-07-13T13:00:35Z</time>
      </trkpt>
      <trkpt lat="44.133" lon="6.84077">
        <ele>1161.1</ele>
        <time>2013-07-13T13:00:37Z</time>
      </trkpt>
      <trkpt lat="44.13296" lon="6.84078">
        <ele>1161.1</ele>
        <time>2013-07-13T13:00:39Z</time>
      </trkpt>
      <trkpt lat="44.13293" lon="6.84079">
        <ele>1161.3</ele>
        <time>2013-07-13T13:00:41Z</time>
      </trkpt>
      <trkpt lat="44.13285" lon="6.8408">
        <ele>1161.6</ele>
        <time>2013-07-13T13:00:44Z</time>
      </trkpt>
      <trkpt lat="44.13281" lon="6.84079">
        <ele>1162.3</ele>
        <time>2013-07-13T13:00:46Z</time>
      </trkpt>
      <trkpt lat="44.13274" lon="6.84079">
        <ele>1162.8</ele>
        <time>2013-07-13T13:00:49Z</time>
      </trkpt>
      <trkpt lat="44.13268" lon="6.84081">
        <ele>1162.4</ele>
        <time>2013-07-13T13:00:52Z</time>
      </trkpt>
      <trkpt lat="44.13265" lon="6.84082">
        <ele>1162.6</ele>
        <time>2013-07-13T13:00:54Z</time>
      </trkpt>
      <trkpt lat="44.13248" lon="6.84098">
        <ele>1160.1</ele>
        <time>2013-07-13T13:01:12Z</time>
      </trkpt>
      <trkpt lat="44.13244" lon="6.84106">
        <ele>1160.3</ele>
        <time>2013-07-13T13:01:15Z</time>
      </trkpt>
      <trkpt lat="44.13244" lon="6.84116">
        <ele>1160.9</ele>
        <time>2013-07-13T13:01:18Z</time>
      </trkpt>
      <trkpt lat="44.13245" lon="6.84122">
        <ele>1160.5</ele>
        <time>2013-07-13T13:01:20Z</time>
      </trkpt>
      <trkpt lat="44.13245" lon="6.84129">
        <ele>1160.5</ele>
        <time>2013-07-13T13:01:22Z</time>
      </trkpt>
      <trkpt lat="44.13246" lon="6.84137">
        <ele>1160.6</ele>
        <time>2013-07-13T13:01:24Z</time>
      </trkpt>
      <trkpt lat="44.13248" lon="6.84147">
        <ele>1160.1</ele>
        <time>2013-07-13T13:01:26Z</time>
      </trkpt>
      <trkpt lat="44.13252" lon="6.84155">
        <ele>1160.2</ele>
        <time>2013-07-13T13:01:28Z</time>
      </trkpt>
      <trkpt lat="44.13258" lon="6.84161">
        <ele>1160.1</ele>
        <time>2013-07-13T13:01:30Z</time>
      </trkpt>
      <trkpt lat="44.13264" lon="6.84166">
        <ele>1159.6</ele>
        <time>2013-07-13T13:01:32Z</time>
      </trkpt>
      <trkpt lat="44.13274" lon="6.84174">
        <ele>1159</ele>
        <time>2013-07-13T13:01:34Z</time>
      </trkpt>
      <trkpt lat="44.13283" lon="6.84186">
        <ele>1158.8</ele>
        <time>2013-07-13T13:01:36Z</time>
      </trkpt>
      <trkpt lat="44.13291" lon="6.84195">
        <ele>1158.7</ele>
        <time>2013-07-13T13:01:38Z</time>
      </trkpt>
      <trkpt lat="44.13294" lon="6.84206">
        <ele>1158.5</ele>
        <time>2013-07-13T13:01:40Z</time>
      </trkpt>
      <trkpt lat="44.13298" lon="6.8422">
        <ele>1158.3</ele>
        <time>2013-07-13T13:01:42Z</time>
      </trkpt>
      <trkpt lat="44.13304" lon="6.84231">
        <ele>1158.3</ele>
        <time>2013-07-13T13:01:44Z</time>
      </trkpt>
      <trkpt lat="44.13313" lon="6.84235">
        <ele>1158.4</ele>
        <time>2013-07-13T13:01:46Z</time>
      </trkpt>
      <trkpt lat="44.13322" lon="6.8424">
        <ele>1158</ele>
        <time>2013-07-13T13:01:48Z</time>
      </trkpt>
      <trkpt lat="44.13331" lon="6.84246">
        <ele>1157.6</ele>
        <time>2013-07-13T13:01:50Z</time>
      </trkpt>
      <trkpt lat="44.13335" lon="6.84255">
        <ele>1157.4</ele>
        <time>2013-07-13T13:01:52Z</time>
      </trkpt>
      <trkpt lat="44.13334" lon="6.84264">
        <ele>1156.6</ele>
        <time>2013-07-13T13:01:54Z</time>
      </trkpt>
      <trkpt lat="44.13327" lon="6.84272">
        <ele>1154.5</ele>
        <time>2013-07-13T13:01:57Z</time>
      </trkpt>
      <trkpt lat="44.13325" lon="6.8428">
        <ele>1152.6</ele>
        <time>2013-07-13T13:01:59Z</time>
      </trkpt>
      <trkpt lat="44.1332" lon="6.84291">
        <ele>1152.3</ele>
        <time>2013-07-13T13:02:01Z</time>
      </trkpt>
      <trkpt lat="44.13316" lon="6.84304">
        <ele>1151.4</ele>
        <time>2013-07-13T13:02:03Z</time>
      </trkpt>
      <trkpt lat="44.13316" lon="6.84318">
        <ele>1150.8</ele>
        <time>2013-07-13T13:02:05Z</time>
      </trkpt>
      <trkpt lat="44.13323" lon="6.84329">
        <ele>1150.4</ele>
        <time>2013-07-13T13:02:07Z</time>
      </trkpt>
      <trkpt lat="44.13333" lon="6.8434">
        <ele>1149.3</ele>
        <time>2013-07-13T13:02:09Z</time>
      </trkpt>
      <trkpt lat="44.13343" lon="6.84348">
        <ele>1148.5</ele>
        <time>2013-07-13T13:02:11Z</time>
      </trkpt>
      <trkpt lat="44.13352" lon="6.84356">
        <ele>1147.8</ele>
        <time>2013-07-13T13:02:13Z</time>
      </trkpt>
      <trkpt lat="44.13357" lon="6.8437">
        <ele>1147</ele>
        <time>2013-07-13T13:02:15Z</time>
      </trkpt>
      <trkpt lat="44.13363" lon="6.84385">
        <ele>1146</ele>
        <time>2013-07-13T13:02:17Z</time>
      </trkpt>
      <trkpt lat="44.13372" lon="6.84399">
        <ele>1144</ele>
        <time>2013-07-13T13:02:19Z</time>
      </trkpt>
      <trkpt lat="44.1338" lon="6.84414">
        <ele>1142.8</ele>
        <time>2013-07-13T13:02:21Z</time>
      </trkpt>
      <trkpt lat="44.13389" lon="6.84425">
        <ele>1142.4</ele>
        <time>2013-07-13T13:02:23Z</time>
      </trkpt>
      <trkpt lat="44.13397" lon="6.84432">
        <ele>1141.7</ele>
        <time>2013-07-13T13:02:25Z</time>
      </trkpt>
      <trkpt lat="44.13402" lon="6.8443">
        <ele>1141.2</ele>
        <time>2013-07-13T13:02:27Z</time>
      </trkpt>
      <trkpt lat="44.13405" lon="6.84434">
        <ele>1140.3</ele>
        <time>2013-07-13T13:02:29Z</time>
      </trkpt>
      <trkpt lat="44.13407" lon="6.84441">
        <ele>1139.4</ele>
        <time>2013-07-13T13:02:31Z</time>
      </trkpt>
      <trkpt lat="44.13414" lon="6.8445">
        <ele>1138.5</ele>
        <time>2013-07-13T13:02:33Z</time>
      </trkpt>
      <trkpt lat="44.13423" lon="6.84446">
        <ele>1136.4</ele>
        <time>2013-07-13T13:02:35Z</time>
      </trkpt>
      <trkpt lat="44.13431" lon="6.84446">
        <ele>1135.2</ele>
        <time>2013-07-13T13:02:38Z</time>
      </trkpt>
      <trkpt lat="44.13442" lon="6.8445">
        <ele>1125.7</ele>
        <time>2013-07-13T13:02:56Z</time>
      </trkpt>
      <trkpt lat="44.13443" lon="6.84457">
        <ele>1124.1</ele>
        <time>2013-07-13T13:02:58Z</time>
      </trkpt>
      <trkpt lat="44.13441" lon="6.84462">
        <ele>1122.8</ele>
        <time>2013-07-13T13:03:00Z</time>
      </trkpt>
      <trkpt lat="44.13438" lon="6.84472">
        <ele>1119.9</ele>
        <time>2013-07-13T13:03:04Z</time>
      </trkpt>
      <trkpt lat="44.13439" lon="6.84477">
        <ele>1119.1</ele>
        <time>2013-07-13T13:03:06Z</time>
      </trkpt>
      <trkpt lat="44.13436" lon="6.84486">
        <ele>1117.8</ele>
        <time>2013-07-13T13:03:11Z</time>
      </trkpt>
      <trkpt lat="44.13435" lon="6.8449">
        <ele>1116.6</ele>
        <time>2013-07-13T13:03:13Z</time>
      </trkpt>
      <trkpt lat="44.13434" lon="6.84495">
        <ele>1116.8</ele>
        <time>2013-07-13T13:03:15Z</time>
      </trkpt>
      <trkpt lat="44.13436" lon="6.84499">
        <ele>1116.3</ele>
        <time>2013-07-13T13:03:17Z</time>
      </trkpt>
      <trkpt lat="44.13436" lon="6.84505">
        <ele>1115.7</ele>
        <time>2013-07-13T13:03:20Z</time>
      </trkpt>
      <trkpt lat="44.13436" lon="6.8451">
        <ele>1114.9</ele>
        <time>2013-07-13T13:03:22Z</time>
      </trkpt>
      <trkpt lat="44.13437" lon="6.84514">
        <ele>1114.3</ele>
        <time>2013-07-13T13:03:24Z</time>
      </trkpt>
      <trkpt lat="44.13437" lon="6.8452">
        <ele>1113.8</ele>
        <time>2013-07-13T13:03:26Z</time>
      </trkpt>
      <trkpt lat="44.13439" lon="6.84524">
        <ele>1113.9</ele>
        <time>2013-07-13T13:03:28Z</time>
      </trkpt>
      <trkpt lat="44.13444" lon="6.84533">
        <ele>1113.8</ele>
        <time>2013-07-13T13:03:33Z</time>
      </trkpt>
      <trkpt lat="44.13444" lon="6.84541">
        <ele>1113.1</ele>
        <time>2013-07-13T13:03:35Z</time>
      </trkpt>
      <trkpt lat="44.13448" lon="6.84549">
        <ele>1112.2</ele>
        <time>2013-07-13T13:03:37Z</time>
      </trkpt>
      <trkpt lat="44.13452" lon="6.84556">
        <ele>1112.1</ele>
        <time>2013-07-13T13:03:39Z</time>
      </trkpt>
      <trkpt lat="44.13458" lon="6.84562">
        <ele>1111.5</ele>
        <time>2013-07-13T13:03:41Z</time>
      </trkpt>
      <trkpt lat="44.13463" lon="6.84562">
        <ele>1110.9</ele>
        <time>2013-07-13T13:03:43Z</time>
      </trkpt>
      <trkpt lat="44.1347" lon="6.84565">
        <ele>1110.4</ele>
        <time>2013-07-13T13:03:46Z</time>
      </trkpt>
      <trkpt lat="44.13472" lon="6.84576">
        <ele>1109.5</ele>
        <time>2013-07-13T13:03:49Z</time>
      </trkpt>
      <trkpt lat="44.13471" lon="6.84582">
        <ele>1109</ele>
        <time>2013-07-13T13:03:51Z</time>
      </trkpt>
      <trkpt lat="44.13474" lon="6.84592">
        <ele>1108.4</ele>
        <time>2013-07-13T13:03:54Z</time>
      </trkpt>
      <trkpt lat="44.13475" lon="6.846">
        <ele>1108.2</ele>
        <time>2013-07-13T13:03:56Z</time>
      </trkpt>
      <trkpt lat="44.13477" lon="6.84604">
        <ele>1109.1</ele>
        <time>2013-07-13T13:03:58Z</time>
      </trkpt>
      <trkpt lat="44.13479" lon="6.84611">
        <ele>1109</ele>
        <time>2013-07-13T13:04:00Z</time>
      </trkpt>
      <trkpt lat="44.1348" lon="6.8462">
        <ele>1108.5</ele>
        <time>2013-07-13T13:04:02Z</time>
      </trkpt>
      <trkpt lat="44.13481" lon="6.84629">
        <ele>1108</ele>
        <time>2013-07-13T13:04:04Z</time>
      </trkpt>
      <trkpt lat="44.13481" lon="6.84637">
        <ele>1107</ele>
        <time>2013-07-13T13:04:06Z</time>
      </trkpt>
      <trkpt lat="44.13481" lon="6.84649">
        <ele>1105.5</ele>
        <time>2013-07-13T13:04:08Z</time>
      </trkpt>
      <trkpt lat="44.13482" lon="6.84664">
        <ele>1104.1</ele>
        <time>2013-07-13T13:04:10Z</time>
      </trkpt>
      <trkpt lat="44.13482" lon="6.84676">
        <ele>1103.3</ele>
        <time>2013-07-13T13:04:12Z</time>
      </trkpt>
      <trkpt lat="44.13483" lon="6.84681">
        <ele>1103.5</ele>
        <time>2013-07-13T13:04:14Z</time>
      </trkpt>
      <trkpt lat="44.13481" lon="6.84684">
        <ele>1105.9</ele>
        <time>2013-07-13T13:04:21Z</time>
      </trkpt>
      <trkpt lat="44.13496" lon="6.84692">
        <ele>1119.8</ele>
        <time>2013-07-13T13:05:31Z</time>
      </trkpt>
      <trkpt lat="44.135" lon="6.84694">
        <ele>1119.2</ele>
        <time>2013-07-13T13:05:34Z</time>
      </trkpt>
      <trkpt lat="44.1353" lon="6.84723">
        <ele>1111.7</ele>
        <time>2013-07-13T13:06:08Z</time>
      </trkpt>
      <trkpt lat="44.13532" lon="6.84726">
        <ele>1111.5</ele>
        <time>2013-07-13T13:06:10Z</time>
      </trkpt>
      <trkpt lat="44.13536" lon="6.84732">
        <ele>1110.6</ele>
        <time>2013-07-13T13:06:14Z</time>
      </trkpt>
      <trkpt lat="44.13542" lon="6.84739">
        <ele>1109</ele>
        <time>2013-07-13T13:06:17Z</time>
      </trkpt>
      <trkpt lat="44.13545" lon="6.84742">
        <ele>1108.3</ele>
        <time>2013-07-13T13:06:19Z</time>
      </trkpt>
      <trkpt lat="44.13554" lon="6.84749">
        <ele>1105.3</ele>
        <time>2013-07-13T13:06:25Z</time>
      </trkpt>
      <trkpt lat="44.13556" lon="6.84753">
        <ele>1104.8</ele>
        <time>2013-07-13T13:06:27Z</time>
      </trkpt>
      <trkpt lat="44.13557" lon="6.84757">
        <ele>1105.1</ele>
        <time>2013-07-13T13:06:29Z</time>
      </trkpt>
      <trkpt lat="44.13572" lon="6.84804">
        <ele>1105.9</ele>
        <time>2013-07-13T13:07:43Z</time>
      </trkpt>
      <trkpt lat="44.13573" lon="6.84808">
        <ele>1105.5</ele>
        <time>2013-07-13T13:07:45Z</time>
      </trkpt>
      <trkpt lat="44.13564" lon="6.84856">
        <ele>1119.4</ele>
        <time>2013-07-13T13:09:35Z</time>
      </trkpt>
      <trkpt lat="44.13564" lon="6.8486">
        <ele>1119.9</ele>
        <time>2013-07-13T13:09:38Z</time>
      </trkpt>
      <trkpt lat="44.13536" lon="6.84828">
        <ele>1128.1</ele>
        <time>2013-07-13T13:10:20Z</time>
      </trkpt>
      <trkpt lat="44.13533" lon="6.84827">
        <ele>1129.2</ele>
        <time>2013-07-13T13:10:22Z</time>
      </trkpt>
      <trkpt lat="44.13498" lon="6.84818">
        <ele>1139.6</ele>
        <time>2013-07-13T13:11:11Z</time>
      </trkpt>
      <trkpt lat="44.13464" lon="6.84823">
        <ele>1154.8</ele>
        <time>2013-07-13T13:12:15Z</time>
      </trkpt>
      <trkpt lat="44.13428" lon="6.84819">
        <ele>1165.8</ele>
        <time>2013-07-13T13:13:05Z</time>
      </trkpt>
      <trkpt lat="44.1339" lon="6.84832">
        <ele>1164.6</ele>
        <time>2013-07-13T13:15:36Z</time>
      </trkpt>
      <trkpt lat="44.1339" lon="6.84837">
        <ele>1164.4</ele>
        <time>2013-07-13T13:15:38Z</time>
      </trkpt>
      <trkpt lat="44.13387" lon="6.84842">
        <ele>1165</ele>
        <time>2013-07-13T13:15:40Z</time>
      </trkpt>
      <trkpt lat="44.13384" lon="6.84847">
        <ele>1166.2</ele>
        <time>2013-07-13T13:15:44Z</time>
      </trkpt>
      <trkpt lat="44.13387" lon="6.8487">
        <ele>1169.2</ele>
        <time>2013-07-13T13:15:59Z</time>
      </trkpt>
      <trkpt lat="44.13388" lon="6.84875">
        <ele>1170</ele>
        <time>2013-07-13T13:16:02Z</time>
      </trkpt>
      <trkpt lat="44.1339" lon="6.84895">
        <ele>1172.5</ele>
        <time>2013-07-13T13:16:13Z</time>
      </trkpt>
      <trkpt lat="44.1339" lon="6.84899">
        <ele>1173.5</ele>
        <time>2013-07-13T13:16:15Z</time>
      </trkpt>
      <trkpt lat="44.13413" lon="6.84939">
        <ele>1183.3</ele>
        <time>2013-07-13T13:17:10Z</time>
      </trkpt>
      <trkpt lat="44.13416" lon="6.8494">
        <ele>1184.5</ele>
        <time>2013-07-13T13:17:13Z</time>
      </trkpt>
      <trkpt lat="44.13386" lon="6.84953">
        <ele>1205</ele>
        <time>2013-07-13T13:18:51Z</time>
      </trkpt>
      <trkpt lat="44.13383" lon="6.8495">
        <ele>1204.7</ele>
        <time>2013-07-13T13:18:53Z</time>
      </trkpt>
      <trkpt lat="44.13368" lon="6.84946">
        <ele>1205.5</ele>
        <time>2013-07-13T13:19:03Z</time>
      </trkpt>
      <trkpt lat="44.13365" lon="6.84945">
        <ele>1205.5</ele>
        <time>2013-07-13T13:19:05Z</time>
      </trkpt>
      <trkpt lat="44.13346" lon="6.84935">
        <ele>1209.6</ele>
        <time>2013-07-13T13:19:21Z</time>
      </trkpt>
      <trkpt lat="44.13342" lon="6.84936">
        <ele>1210</ele>
        <time>2013-07-13T13:19:23Z</time>
      </trkpt>
      <trkpt lat="44.13339" lon="6.84936">
        <ele>1210.6</ele>
        <time>2013-07-13T13:19:25Z</time>
      </trkpt>
      <trkpt lat="44.13334" lon="6.84936">
        <ele>1212</ele>
        <time>2013-07-13T13:19:29Z</time>
      </trkpt>
      <trkpt lat="44.13331" lon="6.84937">
        <ele>1212.4</ele>
        <time>2013-07-13T13:19:32Z</time>
      </trkpt>
      <trkpt lat="44.13326" lon="6.8494">
        <ele>1213.7</ele>
        <time>2013-07-13T13:19:37Z</time>
      </trkpt>
      <trkpt lat="44.13324" lon="6.84942">
        <ele>1214.4</ele>
        <time>2013-07-13T13:19:40Z</time>
      </trkpt>
      <trkpt lat="44.13289" lon="6.84954">
        <ele>1219.2</ele>
        <time>2013-07-13T13:20:42Z</time>
      </trkpt>
      <trkpt lat="44.13251" lon="6.84956">
        <ele>1230.1</ele>
        <time>2013-07-13T13:21:45Z</time>
      </trkpt>
      <trkpt lat="44.13247" lon="6.84955">
        <ele>1230.4</ele>
        <time>2013-07-13T13:21:48Z</time>
      </trkpt>
      <trkpt lat="44.13211" lon="6.84954">
        <ele>1234.3</ele>
        <time>2013-07-13T13:22:42Z</time>
      </trkpt>
      <trkpt lat="44.13208" lon="6.84956">
        <ele>1234.5</ele>
        <time>2013-07-13T13:22:44Z</time>
      </trkpt>
      <trkpt lat="44.13173" lon="6.84959">
        <ele>1251.1</ele>
        <time>2013-07-13T13:24:29Z</time>
      </trkpt>
      <trkpt lat="44.1317" lon="6.84957">
        <ele>1251.7</ele>
        <time>2013-07-13T13:24:31Z</time>
      </trkpt>
      <trkpt lat="44.13136" lon="6.84945">
        <ele>1251.3</ele>
        <time>2013-07-13T13:25:57Z</time>
      </trkpt>
      <trkpt lat="44.13132" lon="6.84945">
        <ele>1252.3</ele>
        <time>2013-07-13T13:26:00Z</time>
      </trkpt>
      <trkpt lat="44.13157" lon="6.8491">
        <ele>1263.1</ele>
        <time>2013-07-13T13:27:04Z</time>
      </trkpt>
      <trkpt lat="44.13158" lon="6.84906">
        <ele>1262.7</ele>
        <time>2013-07-13T13:27:07Z</time>
      </trkpt>
      <trkpt lat="44.13124" lon="6.8489">
        <ele>1265.5</ele>
        <time>2013-07-13T13:28:22Z</time>
      </trkpt>
      <trkpt lat="44.13091" lon="6.84879">
        <ele>1269.8</ele>
        <time>2013-07-13T13:29:08Z</time>
      </trkpt>
      <trkpt lat="44.13087" lon="6.84878">
        <ele>1270</ele>
        <time>2013-07-13T13:29:10Z</time>
      </trkpt>
      <trkpt lat="44.13078" lon="6.84876">
        <ele>1272.5</ele>
        <time>2013-07-13T13:29:20Z</time>
      </trkpt>
      <trkpt lat="44.13072" lon="6.84875">
        <ele>1273.6</ele>
        <time>2013-07-13T13:29:22Z</time>
      </trkpt>
      <trkpt lat="44.13034" lon="6.84883">
        <ele>1279.6</ele>
        <time>2013-07-13T13:29:58Z</time>
      </trkpt>
      <trkpt lat="44.1303" lon="6.84889">
        <ele>1278.2</ele>
        <time>2013-07-13T13:30:00Z</time>
      </trkpt>
      <trkpt lat="44.13023" lon="6.849">
        <ele>1278.7</ele>
        <time>2013-07-13T13:30:05Z</time>
      </trkpt>
      <trkpt lat="44.13024" lon="6.84905">
        <ele>1278.9</ele>
        <time>2013-07-13T13:30:08Z</time>
      </trkpt>
      <trkpt lat="44.1302" lon="6.84912">
        <ele>1278.5</ele>
        <time>2013-07-13T13:30:13Z</time>
      </trkpt>
      <trkpt lat="44.13018" lon="6.84916">
        <ele>1277.6</ele>
        <time>2013-07-13T13:30:15Z</time>
      </trkpt>
      <trkpt lat="44.13015" lon="6.8492">
        <ele>1277.3</ele>
        <time>2013-07-13T13:30:18Z</time>
      </trkpt>
      <trkpt lat="44.13013" lon="6.84924">
        <ele>1277</ele>
        <time>2013-07-13T13:30:20Z</time>
      </trkpt>
      <trkpt lat="44.13004" lon="6.84972">
        <ele>1278.5</ele>
        <time>2013-07-13T13:30:49Z</time>
      </trkpt>
      <trkpt lat="44.13003" lon="6.84978">
        <ele>1279.6</ele>
        <time>2013-07-13T13:30:52Z</time>
      </trkpt>
      <trkpt lat="44.13001" lon="6.85028">
        <ele>1281.9</ele>
        <time>2013-07-13T13:31:22Z</time>
      </trkpt>
      <trkpt lat="44.13" lon="6.85033">
        <ele>1282.7</ele>
        <time>2013-07-13T13:31:24Z</time>
      </trkpt>
      <trkpt lat="44.13" lon="6.85037">
        <ele>1283.2</ele>
        <time>2013-07-13T13:31:26Z</time>
      </trkpt>
      <trkpt lat="44.12995" lon="6.85042">
        <ele>1283.3</ele>
        <time>2013-07-13T13:31:34Z</time>
      </trkpt>
      <trkpt lat="44.12992" lon="6.85041">
        <ele>1283.6</ele>
        <time>2013-07-13T13:31:37Z</time>
      </trkpt>
      <trkpt lat="44.12989" lon="6.85041">
        <ele>1284.4</ele>
        <time>2013-07-13T13:31:39Z</time>
      </trkpt>
      <trkpt lat="44.12971" lon="6.85062">
        <ele>1287.2</ele>
        <time>2013-07-13T13:32:03Z</time>
      </trkpt>
      <trkpt lat="44.12954" lon="6.85085">
        <ele>1292.7</ele>
        <time>2013-07-13T13:32:27Z</time>
      </trkpt>
      <trkpt lat="44.12951" lon="6.85089">
        <ele>1292.9</ele>
        <time>2013-07-13T13:32:29Z</time>
      </trkpt>
      <trkpt lat="44.12946" lon="6.85097">
        <ele>1293.3</ele>
        <time>2013-07-13T13:32:35Z</time>
      </trkpt>
      <trkpt lat="44.12943" lon="6.85099">
        <ele>1293.9</ele>
        <time>2013-07-13T13:32:38Z</time>
      </trkpt>
      <trkpt lat="44.12909" lon="6.85116">
        <ele>1303</ele>
        <time>2013-07-13T13:33:22Z</time>
      </trkpt>
      <trkpt lat="44.12906" lon="6.85117">
        <ele>1303.8</ele>
        <time>2013-07-13T13:33:25Z</time>
      </trkpt>
      <trkpt lat="44.12871" lon="6.85117">
        <ele>1315.1</ele>
        <time>2013-07-13T13:34:25Z</time>
      </trkpt>
      <trkpt lat="44.12848" lon="6.85118">
        <ele>1316.3</ele>
        <time>2013-07-13T13:34:55Z</time>
      </trkpt>
      <trkpt lat="44.12845" lon="6.85118">
        <ele>1316.5</ele>
        <time>2013-07-13T13:34:57Z</time>
      </trkpt>
      <trkpt lat="44.12807" lon="6.8512">
        <ele>1323.8</ele>
        <time>2013-07-13T13:35:28Z</time>
      </trkpt>
      <trkpt lat="44.12804" lon="6.85122">
        <ele>1325</ele>
        <time>2013-07-13T13:35:31Z</time>
      </trkpt>
      <trkpt lat="44.12801" lon="6.85123">
        <ele>1325.3</ele>
        <time>2013-07-13T13:35:34Z</time>
      </trkpt>
      <trkpt lat="44.12798" lon="6.85125">
        <ele>1326.7</ele>
        <time>2013-07-13T13:35:37Z</time>
      </trkpt>
      <trkpt lat="44.12778" lon="6.85157">
        <ele>1333.5</ele>
        <time>2013-07-13T13:36:05Z</time>
      </trkpt>
      <trkpt lat="44.1274" lon="6.85156">
        <ele>1338.9</ele>
        <time>2013-07-13T13:36:43Z</time>
      </trkpt>
      <trkpt lat="44.12736" lon="6.85156">
        <ele>1339.9</ele>
        <time>2013-07-13T13:36:46Z</time>
      </trkpt>
      <trkpt lat="44.12733" lon="6.85157">
        <ele>1340.5</ele>
        <time>2013-07-13T13:36:48Z</time>
      </trkpt>
      <trkpt lat="44.12703" lon="6.85147">
        <ele>1345.5</ele>
        <time>2013-07-13T13:37:26Z</time>
      </trkpt>
      <trkpt lat="44.12699" lon="6.85144">
        <ele>1344.5</ele>
        <time>2013-07-13T13:37:28Z</time>
      </trkpt>
      <trkpt lat="44.12693" lon="6.85142">
        <ele>1345.1</ele>
        <time>2013-07-13T13:37:33Z</time>
      </trkpt>
      <trkpt lat="44.1269" lon="6.85141">
        <ele>1345.3</ele>
        <time>2013-07-13T13:37:35Z</time>
      </trkpt>
      <trkpt lat="44.12684" lon="6.85141">
        <ele>1345.7</ele>
        <time>2013-07-13T13:37:42Z</time>
      </trkpt>
      <trkpt lat="44.1268" lon="6.85144">
        <ele>1345.7</ele>
        <time>2013-07-13T13:37:44Z</time>
      </trkpt>
      <trkpt lat="44.12665" lon="6.85146">
        <ele>1349.6</ele>
        <time>2013-07-13T13:37:57Z</time>
      </trkpt>
      <trkpt lat="44.12662" lon="6.85146">
        <ele>1350</ele>
        <time>2013-07-13T13:38:00Z</time>
      </trkpt>
      <trkpt lat="44.1263" lon="6.85168">
        <ele>1358.9</ele>
        <time>2013-07-13T13:38:49Z</time>
      </trkpt>
      <trkpt lat="44.12627" lon="6.85169">
        <ele>1359.3</ele>
        <time>2013-07-13T13:38:52Z</time>
      </trkpt>
      <trkpt lat="44.12625" lon="6.85171">
        <ele>1359.6</ele>
        <time>2013-07-13T13:38:54Z</time>
      </trkpt>
      <trkpt lat="44.12622" lon="6.85172">
        <ele>1360.2</ele>
        <time>2013-07-13T13:38:57Z</time>
      </trkpt>
      <trkpt lat="44.126" lon="6.85212">
        <ele>1362.5</ele>
        <time>2013-07-13T13:39:31Z</time>
      </trkpt>
      <trkpt lat="44.12588" lon="6.85254">
        <ele>1367.4</ele>
        <time>2013-07-13T13:44:04Z</time>
      </trkpt>
      <trkpt lat="44.12586" lon="6.85256">
        <ele>1368</ele>
        <time>2013-07-13T13:44:06Z</time>
      </trkpt>
      <trkpt lat="44.12568" lon="6.85269">
        <ele>1371.2</ele>
        <time>2013-07-13T13:44:21Z</time>
      </trkpt>
      <trkpt lat="44.12565" lon="6.85271">
        <ele>1371.7</ele>
        <time>2013-07-13T13:44:23Z</time>
      </trkpt>
      <trkpt lat="44.12543" lon="6.85314">
        <ele>1372</ele>
        <time>2013-07-13T13:45:05Z</time>
      </trkpt>
      <trkpt lat="44.12541" lon="6.85318">
        <ele>1372</ele>
        <time>2013-07-13T13:45:07Z</time>
      </trkpt>
      <trkpt lat="44.12539" lon="6.85321">
        <ele>1372.5</ele>
        <time>2013-07-13T13:45:09Z</time>
      </trkpt>
      <trkpt lat="44.12535" lon="6.85327">
        <ele>1373.1</ele>
        <time>2013-07-13T13:45:14Z</time>
      </trkpt>
      <trkpt lat="44.12533" lon="6.85331">
        <ele>1373.6</ele>
        <time>2013-07-13T13:45:16Z</time>
      </trkpt>
      <trkpt lat="44.12532" lon="6.85336">
        <ele>1374.6</ele>
        <time>2013-07-13T13:45:18Z</time>
      </trkpt>
      <trkpt lat="44.12515" lon="6.85349">
        <ele>1377.2</ele>
        <time>2013-07-13T13:45:37Z</time>
      </trkpt>
      <trkpt lat="44.12512" lon="6.85351">
        <ele>1377.5</ele>
        <time>2013-07-13T13:45:39Z</time>
      </trkpt>
      <trkpt lat="44.12481" lon="6.85379">
        <ele>1380.9</ele>
        <time>2013-07-13T13:46:18Z</time>
      </trkpt>
      <trkpt lat="44.12468" lon="6.85382">
        <ele>1382.1</ele>
        <time>2013-07-13T13:46:35Z</time>
      </trkpt>
      <trkpt lat="44.12465" lon="6.85382">
        <ele>1383.1</ele>
        <time>2013-07-13T13:46:37Z</time>
      </trkpt>
      <trkpt lat="44.12457" lon="6.85385">
        <ele>1384.3</ele>
        <time>2013-07-13T13:46:43Z</time>
      </trkpt>
      <trkpt lat="44.12453" lon="6.85384">
        <ele>1384.5</ele>
        <time>2013-07-13T13:46:46Z</time>
      </trkpt>
      <trkpt lat="44.1245" lon="6.85386">
        <ele>1384.7</ele>
        <time>2013-07-13T13:46:48Z</time>
      </trkpt>
      <trkpt lat="44.12446" lon="6.85389">
        <ele>1384.6</ele>
        <time>2013-07-13T13:46:50Z</time>
      </trkpt>
      <trkpt lat="44.12438" lon="6.85391">
        <ele>1384.8</ele>
        <time>2013-07-13T13:46:53Z</time>
      </trkpt>
      <trkpt lat="44.12432" lon="6.85393">
        <ele>1385.2</ele>
        <time>2013-07-13T13:46:55Z</time>
      </trkpt>
      <trkpt lat="44.12425" lon="6.85395">
        <ele>1385.9</ele>
        <time>2013-07-13T13:46:57Z</time>
      </trkpt>
      <trkpt lat="44.12416" lon="6.85397">
        <ele>1386.7</ele>
        <time>2013-07-13T13:46:59Z</time>
      </trkpt>
      <trkpt lat="44.12411" lon="6.85391">
        <ele>1387.3</ele>
        <time>2013-07-13T13:47:01Z</time>
      </trkpt>
      <trkpt lat="44.12409" lon="6.85386">
        <ele>1387.6</ele>
        <time>2013-07-13T13:47:03Z</time>
      </trkpt>
      <trkpt lat="44.12406" lon="6.85384">
        <ele>1388</ele>
        <time>2013-07-13T13:47:06Z</time>
      </trkpt>
      <trkpt lat="44.12403" lon="6.85379">
        <ele>1387.6</ele>
        <time>2013-07-13T13:47:09Z</time>
      </trkpt>
      <trkpt lat="44.12398" lon="6.85377">
        <ele>1386.6</ele>
        <time>2013-07-13T13:47:11Z</time>
      </trkpt>
      <trkpt lat="44.12393" lon="6.85377">
        <ele>1386.9</ele>
        <time>2013-07-13T13:47:13Z</time>
      </trkpt>
      <trkpt lat="44.12388" lon="6.85378">
        <ele>1386.5</ele>
        <time>2013-07-13T13:47:15Z</time>
      </trkpt>
      <trkpt lat="44.12384" lon="6.85379">
        <ele>1386.9</ele>
        <time>2013-07-13T13:47:17Z</time>
      </trkpt>
      <trkpt lat="44.12379" lon="6.85381">
        <ele>1387.2</ele>
        <time>2013-07-13T13:47:19Z</time>
      </trkpt>
      <trkpt lat="44.12374" lon="6.85384">
        <ele>1388.5</ele>
        <time>2013-07-13T13:47:21Z</time>
      </trkpt>
      <trkpt lat="44.1237" lon="6.8539">
        <ele>1388.5</ele>
        <time>2013-07-13T13:47:23Z</time>
      </trkpt>
      <trkpt lat="44.12367" lon="6.85398">
        <ele>1387.5</ele>
        <time>2013-07-13T13:47:25Z</time>
      </trkpt>
      <trkpt lat="44.12365" lon="6.85408">
        <ele>1386.7</ele>
        <time>2013-07-13T13:47:27Z</time>
      </trkpt>
      <trkpt lat="44.12363" lon="6.85414">
        <ele>1385.2</ele>
        <time>2013-07-13T13:47:29Z</time>
      </trkpt>
      <trkpt lat="44.12361" lon="6.85423">
        <ele>1385.8</ele>
        <time>2013-07-13T13:47:31Z</time>
      </trkpt>
      <trkpt lat="44.12358" lon="6.85433">
        <ele>1386.3</ele>
        <time>2013-07-13T13:47:33Z</time>
      </trkpt>
      <trkpt lat="44.12356" lon="6.85443">
        <ele>1386.8</ele>
        <time>2013-07-13T13:47:35Z</time>
      </trkpt>
      <trkpt lat="44.1235" lon="6.85448">
        <ele>1386.3</ele>
        <time>2013-07-13T13:47:38Z</time>
      </trkpt>
      <trkpt lat="44.12344" lon="6.8544">
        <ele>1386.3</ele>
        <time>2013-07-13T13:47:41Z</time>
      </trkpt>
      <trkpt lat="44.12342" lon="6.85434">
        <ele>1386.2</ele>
        <time>2013-07-13T13:47:43Z</time>
      </trkpt>
      <trkpt lat="44.12339" lon="6.85431">
        <ele>1386</ele>
        <time>2013-07-13T13:47:45Z</time>
      </trkpt>
      <trkpt lat="44.12336" lon="6.85429">
        <ele>1386.1</ele>
        <time>2013-07-13T13:47:47Z</time>
      </trkpt>
      <trkpt lat="44.12333" lon="6.85427">
        <ele>1385.7</ele>
        <time>2013-07-13T13:47:49Z</time>
      </trkpt>
      <trkpt lat="44.12328" lon="6.85426">
        <ele>1386</ele>
        <time>2013-07-13T13:47:51Z</time>
      </trkpt>
      <trkpt lat="44.12323" lon="6.85426">
        <ele>1386.3</ele>
        <time>2013-07-13T13:47:53Z</time>
      </trkpt>
      <trkpt lat="44.1232" lon="6.85428">
        <ele>1386.2</ele>
        <time>2013-07-13T13:47:55Z</time>
      </trkpt>
      <trkpt lat="44.12316" lon="6.85429">
        <ele>1386.6</ele>
        <time>2013-07-13T13:47:57Z</time>
      </trkpt>
      <trkpt lat="44.12308" lon="6.85434">
        <ele>1388.5</ele>
        <time>2013-07-13T13:48:01Z</time>
      </trkpt>
      <trkpt lat="44.12305" lon="6.85437">
        <ele>1389.4</ele>
        <time>2013-07-13T13:48:03Z</time>
      </trkpt>
      <trkpt lat="44.12302" lon="6.8544">
        <ele>1389.7</ele>
        <time>2013-07-13T13:48:05Z</time>
      </trkpt>
      <trkpt lat="44.12299" lon="6.85443">
        <ele>1390.5</ele>
        <time>2013-07-13T13:48:07Z</time>
      </trkpt>
      <trkpt lat="44.12296" lon="6.85445">
        <ele>1391.7</ele>
        <time>2013-07-13T13:48:09Z</time>
      </trkpt>
      <trkpt lat="44.12293" lon="6.85449">
        <ele>1392</ele>
        <time>2013-07-13T13:48:11Z</time>
      </trkpt>
      <trkpt lat="44.1229" lon="6.85452">
        <ele>1393.3</ele>
        <time>2013-07-13T13:48:13Z</time>
      </trkpt>
      <trkpt lat="44.12287" lon="6.85456">
        <ele>1393.5</ele>
        <time>2013-07-13T13:48:15Z</time>
      </trkpt>
      <trkpt lat="44.12284" lon="6.85461">
        <ele>1393.2</ele>
        <time>2013-07-13T13:48:17Z</time>
      </trkpt>
      <trkpt lat="44.12282" lon="6.85466">
        <ele>1393</ele>
        <time>2013-07-13T13:48:19Z</time>
      </trkpt>
      <trkpt lat="44.1228" lon="6.85471">
        <ele>1393.5</ele>
        <time>2013-07-13T13:48:21Z</time>
      </trkpt>
      <trkpt lat="44.12278" lon="6.85475">
        <ele>1393.5</ele>
        <time>2013-07-13T13:48:23Z</time>
      </trkpt>
      <trkpt lat="44.12277" lon="6.85479">
        <ele>1394.1</ele>
        <time>2013-07-13T13:48:25Z</time>
      </trkpt>
      <trkpt lat="44.12276" lon="6.85484">
        <ele>1394.4</ele>
        <time>2013-07-13T13:48:28Z</time>
      </trkpt>
      <trkpt lat="44.12272" lon="6.85496">
        <ele>1394.7</ele>
        <time>2013-07-13T13:48:35Z</time>
      </trkpt>
      <trkpt lat="44.1227" lon="6.855">
        <ele>1395.2</ele>
        <time>2013-07-13T13:48:37Z</time>
      </trkpt>
      <trkpt lat="44.12267" lon="6.85504">
        <ele>1395.9</ele>
        <time>2013-07-13T13:48:39Z</time>
      </trkpt>
      <trkpt lat="44.12265" lon="6.85507">
        <ele>1396.6</ele>
        <time>2013-07-13T13:48:41Z</time>
      </trkpt>
      <trkpt lat="44.12262" lon="6.85511">
        <ele>1397.6</ele>
        <time>2013-07-13T13:48:43Z</time>
      </trkpt>
      <trkpt lat="44.12259" lon="6.85514">
        <ele>1398.5</ele>
        <time>2013-07-13T13:48:45Z</time>
      </trkpt>
      <trkpt lat="44.12254" lon="6.85521">
        <ele>1399.1</ele>
        <time>2013-07-13T13:48:50Z</time>
      </trkpt>
      <trkpt lat="44.12251" lon="6.85525">
        <ele>1399.9</ele>
        <time>2013-07-13T13:48:52Z</time>
      </trkpt>
      <trkpt lat="44.12248" lon="6.85529">
        <ele>1400.7</ele>
        <time>2013-07-13T13:48:54Z</time>
      </trkpt>
      <trkpt lat="44.12246" lon="6.85532">
        <ele>1401.1</ele>
        <time>2013-07-13T13:48:56Z</time>
      </trkpt>
      <trkpt lat="44.12244" lon="6.85537">
        <ele>1401.3</ele>
        <time>2013-07-13T13:48:58Z</time>
      </trkpt>
      <trkpt lat="44.12242" lon="6.85541">
        <ele>1401.2</ele>
        <time>2013-07-13T13:49:00Z</time>
      </trkpt>
      <trkpt lat="44.1224" lon="6.85546">
        <ele>1401.3</ele>
        <time>2013-07-13T13:49:02Z</time>
      </trkpt>
      <trkpt lat="44.12237" lon="6.8555">
        <ele>1401.5</ele>
        <time>2013-07-13T13:49:04Z</time>
      </trkpt>
      <trkpt lat="44.12233" lon="6.85554">
        <ele>1402</ele>
        <time>2013-07-13T13:49:06Z</time>
      </trkpt>
      <trkpt lat="44.12231" lon="6.85558">
        <ele>1402.3</ele>
        <time>2013-07-13T13:49:08Z</time>
      </trkpt>
      <trkpt lat="44.12228" lon="6.85562">
        <ele>1402.7</ele>
        <time>2013-07-13T13:49:10Z</time>
      </trkpt>
      <trkpt lat="44.12226" lon="6.85566">
        <ele>1403</ele>
        <time>2013-07-13T13:49:12Z</time>
      </trkpt>
      <trkpt lat="44.12224" lon="6.8557">
        <ele>1402.8</ele>
        <time>2013-07-13T13:49:14Z</time>
      </trkpt>
      <trkpt lat="44.12222" lon="6.85574">
        <ele>1403.3</ele>
        <time>2013-07-13T13:49:16Z</time>
      </trkpt>
      <trkpt lat="44.1222" lon="6.85578">
        <ele>1403.8</ele>
        <time>2013-07-13T13:49:18Z</time>
      </trkpt>
      <trkpt lat="44.12218" lon="6.85581">
        <ele>1404.2</ele>
        <time>2013-07-13T13:49:20Z</time>
      </trkpt>
      <trkpt lat="44.12215" lon="6.85583">
        <ele>1404.9</ele>
        <time>2013-07-13T13:49:23Z</time>
      </trkpt>
      <trkpt lat="44.12207" lon="6.85596">
        <ele>1408.6</ele>
        <time>2013-07-13T13:52:57Z</time>
      </trkpt>
      <trkpt lat="44.12208" lon="6.85604">
        <ele>1408.3</ele>
        <time>2013-07-13T13:52:59Z</time>
      </trkpt>
      <trkpt lat="44.12209" lon="6.85616">
        <ele>1407.9</ele>
        <time>2013-07-13T13:53:01Z</time>
      </trkpt>
      <trkpt lat="44.12209" lon="6.85627">
        <ele>1407.6</ele>
        <time>2013-07-13T13:53:03Z</time>
      </trkpt>
      <trkpt lat="44.12207" lon="6.8563">
        <ele>1407.1</ele>
        <time>2013-07-13T13:53:05Z</time>
      </trkpt>
      <trkpt lat="44.12202" lon="6.85626">
        <ele>1406.5</ele>
        <time>2013-07-13T13:53:07Z</time>
      </trkpt>
      <trkpt lat="44.12197" lon="6.85617">
        <ele>1406.4</ele>
        <time>2013-07-13T13:53:09Z</time>
      </trkpt>
      <trkpt lat="44.12186" lon="6.85606">
        <ele>1406.1</ele>
        <time>2013-07-13T13:53:12Z</time>
      </trkpt>
      <trkpt lat="44.12177" lon="6.85604">
        <ele>1405.9</ele>
        <time>2013-07-13T13:53:14Z</time>
      </trkpt>
      <trkpt lat="44.1217" lon="6.8561">
        <ele>1404.6</ele>
        <time>2013-07-13T13:53:16Z</time>
      </trkpt>
      <trkpt lat="44.12166" lon="6.85614">
        <ele>1403.7</ele>
        <time>2013-07-13T13:53:18Z</time>
      </trkpt>
      <trkpt lat="44.12159" lon="6.85615">
        <ele>1403.3</ele>
        <time>2013-07-13T13:53:20Z</time>
      </trkpt>
      <trkpt lat="44.12152" lon="6.8562">
        <ele>1402.3</ele>
        <time>2013-07-13T13:53:22Z</time>
      </trkpt>
      <trkpt lat="44.12151" lon="6.8563">
        <ele>1400.8</ele>
        <time>2013-07-13T13:53:24Z</time>
      </trkpt>
      <trkpt lat="44.12152" lon="6.8564">
        <ele>1398.7</ele>
        <time>2013-07-13T13:53:27Z</time>
      </trkpt>
      <trkpt lat="44.12145" lon="6.85639">
        <ele>1398.7</ele>
        <time>2013-07-13T13:53:30Z</time>
      </trkpt>
      <trkpt lat="44.12137" lon="6.85638">
        <ele>1399</ele>
        <time>2013-07-13T13:53:33Z</time>
      </trkpt>
      <trkpt lat="44.12133" lon="6.85639">
        <ele>1398.9</ele>
        <time>2013-07-13T13:53:35Z</time>
      </trkpt>
      <trkpt lat="44.1213" lon="6.85639">
        <ele>1398</ele>
        <time>2013-07-13T13:53:39Z</time>
      </trkpt>
      <trkpt lat="44.12125" lon="6.85639">
        <ele>1398.4</ele>
        <time>2013-07-13T13:53:41Z</time>
      </trkpt>
      <trkpt lat="44.12121" lon="6.85639">
        <ele>1398</ele>
        <time>2013-07-13T13:53:43Z</time>
      </trkpt>
      <trkpt lat="44.12114" lon="6.85637">
        <ele>1397.8</ele>
        <time>2013-07-13T13:53:45Z</time>
      </trkpt>
      <trkpt lat="44.1211" lon="6.85637">
        <ele>1397.7</ele>
        <time>2013-07-13T13:53:47Z</time>
      </trkpt>
      <trkpt lat="44.12107" lon="6.85637">
        <ele>1397.8</ele>
        <time>2013-07-13T13:53:49Z</time>
      </trkpt>
      <trkpt lat="44.12103" lon="6.85639">
        <ele>1397.8</ele>
        <time>2013-07-13T13:53:51Z</time>
      </trkpt>
      <trkpt lat="44.12103" lon="6.85644">
        <ele>1398.4</ele>
        <time>2013-07-13T13:53:54Z</time>
      </trkpt>
      <trkpt lat="44.12099" lon="6.85647">
        <ele>1398.9</ele>
        <time>2013-07-13T13:53:58Z</time>
      </trkpt>
      <trkpt lat="44.12094" lon="6.8565">
        <ele>1399.4</ele>
        <time>2013-07-13T13:54:00Z</time>
      </trkpt>
      <trkpt lat="44.12091" lon="6.85652">
        <ele>1399.6</ele>
        <time>2013-07-13T13:54:02Z</time>
      </trkpt>
      <trkpt lat="44.12088" lon="6.85652">
        <ele>1399.6</ele>
        <time>2013-07-13T13:54:04Z</time>
      </trkpt>
      <trkpt lat="44.12084" lon="6.85651">
        <ele>1399.3</ele>
        <time>2013-07-13T13:54:06Z</time>
      </trkpt>
      <trkpt lat="44.12081" lon="6.8565">
        <ele>1399.8</ele>
        <time>2013-07-13T13:54:08Z</time>
      </trkpt>
      <trkpt lat="44.12074" lon="6.85653">
        <ele>1399.9</ele>
        <time>2013-07-13T13:54:11Z</time>
      </trkpt>
      <trkpt lat="44.12072" lon="6.85655">
        <ele>1399.7</ele>
        <time>2013-07-13T13:54:13Z</time>
      </trkpt>
      <trkpt lat="44.12067" lon="6.85655">
        <ele>1399.5</ele>
        <time>2013-07-13T13:54:15Z</time>
      </trkpt>
      <trkpt lat="44.1206" lon="6.85658">
        <ele>1399.5</ele>
        <time>2013-07-13T13:54:17Z</time>
      </trkpt>
      <trkpt lat="44.12049" lon="6.85657">
        <ele>1398.9</ele>
        <time>2013-07-13T13:54:19Z</time>
      </trkpt>
      <trkpt lat="44.12041" lon="6.85654">
        <ele>1398.4</ele>
        <time>2013-07-13T13:54:21Z</time>
      </trkpt>
      <trkpt lat="44.12032" lon="6.85648">
        <ele>1398.3</ele>
        <time>2013-07-13T13:54:24Z</time>
      </trkpt>
      <trkpt lat="44.12025" lon="6.85642">
        <ele>1397.6</ele>
        <time>2013-07-13T13:54:26Z</time>
      </trkpt>
      <trkpt lat="44.12019" lon="6.85643">
        <ele>1397.8</ele>
        <time>2013-07-13T13:54:28Z</time>
      </trkpt>
      <trkpt lat="44.12013" lon="6.85644">
        <ele>1398</ele>
        <time>2013-07-13T13:54:30Z</time>
      </trkpt>
      <trkpt lat="44.1201" lon="6.85645">
        <ele>1397.8</ele>
        <time>2013-07-13T13:54:32Z</time>
      </trkpt>
      <trkpt lat="44.12004" lon="6.85648">
        <ele>1397.2</ele>
        <time>2013-07-13T13:54:34Z</time>
      </trkpt>
      <trkpt lat="44.11997" lon="6.85651">
        <ele>1396.6</ele>
        <time>2013-07-13T13:54:36Z</time>
      </trkpt>
      <trkpt lat="44.11991" lon="6.85653">
        <ele>1396.4</ele>
        <time>2013-07-13T13:54:38Z</time>
      </trkpt>
      <trkpt lat="44.11984" lon="6.85654">
        <ele>1396</ele>
        <time>2013-07-13T13:54:40Z</time>
      </trkpt>
      <trkpt lat="44.11978" lon="6.85655">
        <ele>1396</ele>
        <time>2013-07-13T13:54:44Z</time>
      </trkpt>
      <trkpt lat="44.11969" lon="6.85659">
        <ele>1396.2</ele>
        <time>2013-07-13T13:54:49Z</time>
      </trkpt>
      <trkpt lat="44.11965" lon="6.85658">
        <ele>1396.1</ele>
        <time>2013-07-13T13:54:51Z</time>
      </trkpt>
      <trkpt lat="44.11926" lon="6.85652">
        <ele>1397</ele>
        <time>2013-07-13T13:55:14Z</time>
      </trkpt>
      <trkpt lat="44.11921" lon="6.85652">
        <ele>1396.4</ele>
        <time>2013-07-13T13:55:18Z</time>
      </trkpt>
      <trkpt lat="44.11882" lon="6.8565">
        <ele>1393.1</ele>
        <time>2013-07-13T13:55:32Z</time>
      </trkpt>
      <trkpt lat="44.11872" lon="6.85652">
        <ele>1392.2</ele>
        <time>2013-07-13T13:55:34Z</time>
      </trkpt>
      <trkpt lat="44.11865" lon="6.85652">
        <ele>1391.3</ele>
        <time>2013-07-13T13:55:36Z</time>
      </trkpt>
      <trkpt lat="44.11858" lon="6.85649">
        <ele>1390.9</ele>
        <time>2013-07-13T13:55:38Z</time>
      </trkpt>
      <trkpt lat="44.11851" lon="6.85645">
        <ele>1389.9</ele>
        <time>2013-07-13T13:55:40Z</time>
      </trkpt>
      <trkpt lat="44.11846" lon="6.85643">
        <ele>1389.6</ele>
        <time>2013-07-13T13:55:42Z</time>
      </trkpt>
      <trkpt lat="44.11841" lon="6.85642">
        <ele>1389.4</ele>
        <time>2013-07-13T13:55:44Z</time>
      </trkpt>
      <trkpt lat="44.11837" lon="6.85641">
        <ele>1389.7</ele>
        <time>2013-07-13T13:55:46Z</time>
      </trkpt>
      <trkpt lat="44.11834" lon="6.85641">
        <ele>1389.6</ele>
        <time>2013-07-13T13:55:48Z</time>
      </trkpt>
      <trkpt lat="44.11829" lon="6.85641">
        <ele>1390</ele>
        <time>2013-07-13T13:55:50Z</time>
      </trkpt>
      <trkpt lat="44.11821" lon="6.85642">
        <ele>1389.9</ele>
        <time>2013-07-13T13:55:52Z</time>
      </trkpt>
      <trkpt lat="44.11812" lon="6.85644">
        <ele>1389.8</ele>
        <time>2013-07-13T13:55:54Z</time>
      </trkpt>
      <trkpt lat="44.11805" lon="6.85643">
        <ele>1390</ele>
        <time>2013-07-13T13:55:56Z</time>
      </trkpt>
      <trkpt lat="44.11798" lon="6.85641">
        <ele>1389.8</ele>
        <time>2013-07-13T13:55:59Z</time>
      </trkpt>
      <trkpt lat="44.11782" lon="6.85635">
        <ele>1387.1</ele>
        <time>2013-07-13T13:56:04Z</time>
      </trkpt>
      <trkpt lat="44.11775" lon="6.85632">
        <ele>1386.2</ele>
        <time>2013-07-13T13:56:06Z</time>
      </trkpt>
      <trkpt lat="44.11765" lon="6.85629">
        <ele>1385</ele>
        <time>2013-07-13T13:56:08Z</time>
      </trkpt>
      <trkpt lat="44.11758" lon="6.85628">
        <ele>1385.8</ele>
        <time>2013-07-13T13:56:10Z</time>
      </trkpt>
      <trkpt lat="44.11749" lon="6.85626">
        <ele>1387.3</ele>
        <time>2013-07-13T13:56:13Z</time>
      </trkpt>
      <trkpt lat="44.11743" lon="6.85626">
        <ele>1387.8</ele>
        <time>2013-07-13T13:56:15Z</time>
      </trkpt>
      <trkpt lat="44.11738" lon="6.85623">
        <ele>1388.1</ele>
        <time>2013-07-13T13:56:17Z</time>
      </trkpt>
      <trkpt lat="44.11731" lon="6.85618">
        <ele>1388.9</ele>
        <time>2013-07-13T13:56:20Z</time>
      </trkpt>
      <trkpt lat="44.11722" lon="6.85616">
        <ele>1388.8</ele>
        <time>2013-07-13T13:56:22Z</time>
      </trkpt>
      <trkpt lat="44.11715" lon="6.85615">
        <ele>1388.8</ele>
        <time>2013-07-13T13:56:24Z</time>
      </trkpt>
      <trkpt lat="44.11712" lon="6.85614">
        <ele>1389</ele>
        <time>2013-07-13T13:56:26Z</time>
      </trkpt>
      <trkpt lat="44.11705" lon="6.85614">
        <ele>1386.6</ele>
        <time>2013-07-13T14:00:38Z</time>
      </trkpt>
      <trkpt lat="44.11699" lon="6.85612">
        <ele>1386.4</ele>
        <time>2013-07-13T14:00:40Z</time>
      </trkpt>
      <trkpt lat="44.11689" lon="6.85609">
        <ele>1385.9</ele>
        <time>2013-07-13T14:00:42Z</time>
      </trkpt>
      <trkpt lat="44.11679" lon="6.85606">
        <ele>1385.4</ele>
        <time>2013-07-13T14:00:44Z</time>
      </trkpt>
      <trkpt lat="44.11669" lon="6.85604">
        <ele>1384.9</ele>
        <time>2013-07-13T14:00:46Z</time>
      </trkpt>
      <trkpt lat="44.11661" lon="6.85599">
        <ele>1383.8</ele>
        <time>2013-07-13T14:00:48Z</time>
      </trkpt>
      <trkpt lat="44.11653" lon="6.8559">
        <ele>1382.9</ele>
        <time>2013-07-13T14:00:50Z</time>
      </trkpt>
      <trkpt lat="44.11646" lon="6.85578">
        <ele>1381.7</ele>
        <time>2013-07-13T14:00:52Z</time>
      </trkpt>
      <trkpt lat="44.11638" lon="6.85569">
        <ele>1380.7</ele>
        <time>2013-07-13T14:00:54Z</time>
      </trkpt>
      <trkpt lat="44.11631" lon="6.85561">
        <ele>1380.2</ele>
        <time>2013-07-13T14:00:56Z</time>
      </trkpt>
      <trkpt lat="44.11626" lon="6.85553">
        <ele>1379.4</ele>
        <time>2013-07-13T14:00:58Z</time>
      </trkpt>
      <trkpt lat="44.11621" lon="6.85548">
        <ele>1379</ele>
        <time>2013-07-13T14:01:01Z</time>
      </trkpt>
      <trkpt lat="44.11617" lon="6.85546">
        <ele>1378.3</ele>
        <time>2013-07-13T14:01:03Z</time>
      </trkpt>
      <trkpt lat="44.11612" lon="6.85542">
        <ele>1377.3</ele>
        <time>2013-07-13T14:01:05Z</time>
      </trkpt>
      <trkpt lat="44.11607" lon="6.85534">
        <ele>1376.2</ele>
        <time>2013-07-13T14:01:07Z</time>
      </trkpt>
      <trkpt lat="44.11601" lon="6.85526">
        <ele>1374.8</ele>
        <time>2013-07-13T14:01:09Z</time>
      </trkpt>
      <trkpt lat="44.11597" lon="6.85515">
        <ele>1373.7</ele>
        <time>2013-07-13T14:01:11Z</time>
      </trkpt>
      <trkpt lat="44.11594" lon="6.85505">
        <ele>1373.3</ele>
        <time>2013-07-13T14:01:13Z</time>
      </trkpt>
      <trkpt lat="44.11587" lon="6.85494">
        <ele>1372.3</ele>
        <time>2013-07-13T14:01:15Z</time>
      </trkpt>
      <trkpt lat="44.1158" lon="6.85485">
        <ele>1371.6</ele>
        <time>2013-07-13T14:01:17Z</time>
      </trkpt>
      <trkpt lat="44.11572" lon="6.85477">
        <ele>1371.1</ele>
        <time>2013-07-13T14:01:19Z</time>
      </trkpt>
      <trkpt lat="44.11569" lon="6.85467">
        <ele>1370.2</ele>
        <time>2013-07-13T14:01:21Z</time>
      </trkpt>
      <trkpt lat="44.11568" lon="6.85457">
        <ele>1369.2</ele>
        <time>2013-07-13T14:01:23Z</time>
      </trkpt>
      <trkpt lat="44.11568" lon="6.85448">
        <ele>1368.2</ele>
        <time>2013-07-13T14:01:25Z</time>
      </trkpt>
      <trkpt lat="44.11568" lon="6.85441">
        <ele>1367.9</ele>
        <time>2013-07-13T14:01:27Z</time>
      </trkpt>
      <trkpt lat="44.11564" lon="6.85437">
        <ele>1366.4</ele>
        <time>2013-07-13T14:01:29Z</time>
      </trkpt>
      <trkpt lat="44.11558" lon="6.8544">
        <ele>1365.6</ele>
        <time>2013-07-13T14:01:31Z</time>
      </trkpt>
      <trkpt lat="44.11549" lon="6.85444">
        <ele>1364.9</ele>
        <time>2013-07-13T14:01:33Z</time>
      </trkpt>
      <trkpt lat="44.11537" lon="6.85446">
        <ele>1363.6</ele>
        <time>2013-07-13T14:01:35Z</time>
      </trkpt>
      <trkpt lat="44.11527" lon="6.85451">
        <ele>1362.3</ele>
        <time>2013-07-13T14:01:37Z</time>
      </trkpt>
      <trkpt lat="44.11517" lon="6.85456">
        <ele>1360.4</ele>
        <time>2013-07-13T14:01:39Z</time>
      </trkpt>
      <trkpt lat="44.11512" lon="6.8546">
        <ele>1359.1</ele>
        <time>2013-07-13T14:01:41Z</time>
      </trkpt>
      <trkpt lat="44.11508" lon="6.85462">
        <ele>1358</ele>
        <time>2013-07-13T14:01:43Z</time>
      </trkpt>
      <trkpt lat="44.11505" lon="6.85465">
        <ele>1349.5</ele>
        <time>2013-07-13T14:02:08Z</time>
      </trkpt>
      <trkpt lat="44.11498" lon="6.85464">
        <ele>1348.5</ele>
        <time>2013-07-13T14:02:10Z</time>
      </trkpt>
      <trkpt lat="44.11487" lon="6.85463">
        <ele>1347.9</ele>
        <time>2013-07-13T14:02:12Z</time>
      </trkpt>
      <trkpt lat="44.11475" lon="6.85466">
        <ele>1347.6</ele>
        <time>2013-07-13T14:02:14Z</time>
      </trkpt>
      <trkpt lat="44.11462" lon="6.8547">
        <ele>1347.1</ele>
        <time>2013-07-13T14:02:16Z</time>
      </trkpt>
      <trkpt lat="44.11449" lon="6.85475">
        <ele>1346.3</ele>
        <time>2013-07-13T14:02:18Z</time>
      </trkpt>
      <trkpt lat="44.11437" lon="6.85484">
        <ele>1345.2</ele>
        <time>2013-07-13T14:02:20Z</time>
      </trkpt>
      <trkpt lat="44.1143" lon="6.85493">
        <ele>1343.6</ele>
        <time>2013-07-13T14:02:22Z</time>
      </trkpt>
      <trkpt lat="44.11427" lon="6.85503">
        <ele>1340.8</ele>
        <time>2013-07-13T14:02:25Z</time>
      </trkpt>
      <trkpt lat="44.11423" lon="6.85504">
        <ele>1339.7</ele>
        <time>2013-07-13T14:02:27Z</time>
      </trkpt>
      <trkpt lat="44.11419" lon="6.85504">
        <ele>1339.4</ele>
        <time>2013-07-13T14:02:29Z</time>
      </trkpt>
      <trkpt lat="44.11416" lon="6.855">
        <ele>1330.8</ele>
        <time>2013-07-13T14:02:46Z</time>
      </trkpt>
      <trkpt lat="44.11413" lon="6.85495">
        <ele>1329.8</ele>
        <time>2013-07-13T14:02:48Z</time>
      </trkpt>
      <trkpt lat="44.11406" lon="6.8549">
        <ele>1328.2</ele>
        <time>2013-07-13T14:02:51Z</time>
      </trkpt>
      <trkpt lat="44.11399" lon="6.85481">
        <ele>1326.8</ele>
        <time>2013-07-13T14:02:54Z</time>
      </trkpt>
      <trkpt lat="44.11394" lon="6.85476">
        <ele>1326.1</ele>
        <time>2013-07-13T14:02:56Z</time>
      </trkpt>
      <trkpt lat="44.1139" lon="6.85471">
        <ele>1325.2</ele>
        <time>2013-07-13T14:02:58Z</time>
      </trkpt>
      <trkpt lat="44.11387" lon="6.85465">
        <ele>1323.9</ele>
        <time>2013-07-13T14:03:00Z</time>
      </trkpt>
      <trkpt lat="44.11384" lon="6.85456">
        <ele>1322.6</ele>
        <time>2013-07-13T14:03:02Z</time>
      </trkpt>
      <trkpt lat="44.11385" lon="6.85447">
        <ele>1322.3</ele>
        <time>2013-07-13T14:03:04Z</time>
      </trkpt>
      <trkpt lat="44.11388" lon="6.85435">
        <ele>1322.1</ele>
        <time>2013-07-13T14:03:06Z</time>
      </trkpt>
      <trkpt lat="44.11394" lon="6.85422">
        <ele>1321.7</ele>
        <time>2013-07-13T14:03:08Z</time>
      </trkpt>
      <trkpt lat="44.114" lon="6.8541">
        <ele>1321.4</ele>
        <time>2013-07-13T14:03:10Z</time>
      </trkpt>
      <trkpt lat="44.11404" lon="6.854">
        <ele>1321.1</ele>
        <time>2013-07-13T14:03:12Z</time>
      </trkpt>
      <trkpt lat="44.11411" lon="6.8539">
        <ele>1321</ele>
        <time>2013-07-13T14:03:15Z</time>
      </trkpt>
      <trkpt lat="44.11416" lon="6.85381">
        <ele>1320.9</ele>
        <time>2013-07-13T14:03:17Z</time>
      </trkpt>
      <trkpt lat="44.11412" lon="6.85375">
        <ele>1320.8</ele>
        <time>2013-07-13T14:03:19Z</time>
      </trkpt>
      <trkpt lat="44.11406" lon="6.85372">
        <ele>1320.8</ele>
        <time>2013-07-13T14:03:21Z</time>
      </trkpt>
      <trkpt lat="44.11401" lon="6.85368">
        <ele>1320.8</ele>
        <time>2013-07-13T14:03:23Z</time>
      </trkpt>
      <trkpt lat="44.11398" lon="6.85365">
        <ele>1320.5</ele>
        <time>2013-07-13T14:03:25Z</time>
      </trkpt>
      <trkpt lat="44.11394" lon="6.85364">
        <ele>1315</ele>
        <time>2013-07-13T14:03:32Z</time>
      </trkpt>
      <trkpt lat="44.11391" lon="6.85368">
        <ele>1311.6</ele>
        <time>2013-07-13T14:03:53Z</time>
      </trkpt>
      <trkpt lat="44.11386" lon="6.85365">
        <ele>1310.8</ele>
        <time>2013-07-13T14:03:59Z</time>
      </trkpt>
      <trkpt lat="44.11382" lon="6.85366">
        <ele>1309.7</ele>
        <time>2013-07-13T14:04:01Z</time>
      </trkpt>
      <trkpt lat="44.11376" lon="6.85368">
        <ele>1309.3</ele>
        <time>2013-07-13T14:04:03Z</time>
      </trkpt>
      <trkpt lat="44.1137" lon="6.85369">
        <ele>1308.6</ele>
        <time>2013-07-13T14:04:05Z</time>
      </trkpt>
      <trkpt lat="44.11362" lon="6.85367">
        <ele>1308.1</ele>
        <time>2013-07-13T14:04:07Z</time>
      </trkpt>
      <trkpt lat="44.11352" lon="6.85366">
        <ele>1307.8</ele>
        <time>2013-07-13T14:04:09Z</time>
      </trkpt>
      <trkpt lat="44.11346" lon="6.85362">
        <ele>1306.5</ele>
        <time>2013-07-13T14:04:12Z</time>
      </trkpt>
      <trkpt lat="44.11343" lon="6.85359">
        <ele>1306</ele>
        <time>2013-07-13T14:04:14Z</time>
      </trkpt>
      <trkpt lat="44.11339" lon="6.85353">
        <ele>1304.9</ele>
        <time>2013-07-13T14:04:16Z</time>
      </trkpt>
      <trkpt lat="44.11335" lon="6.85346">
        <ele>1303.8</ele>
        <time>2013-07-13T14:04:18Z</time>
      </trkpt>
      <trkpt lat="44.11329" lon="6.85342">
        <ele>1303.1</ele>
        <time>2013-07-13T14:04:20Z</time>
      </trkpt>
      <trkpt lat="44.11321" lon="6.85338">
        <ele>1302.1</ele>
        <time>2013-07-13T14:04:22Z</time>
      </trkpt>
      <trkpt lat="44.11312" lon="6.85337">
        <ele>1301.4</ele>
        <time>2013-07-13T14:04:24Z</time>
      </trkpt>
      <trkpt lat="44.11308" lon="6.85336">
        <ele>1301</ele>
        <time>2013-07-13T14:04:26Z</time>
      </trkpt>
      <trkpt lat="44.11305" lon="6.85334">
        <ele>1300</ele>
        <time>2013-07-13T14:04:28Z</time>
      </trkpt>
      <trkpt lat="44.11302" lon="6.8533">
        <ele>1298.8</ele>
        <time>2013-07-13T14:04:30Z</time>
      </trkpt>
      <trkpt lat="44.11299" lon="6.85324">
        <ele>1297.7</ele>
        <time>2013-07-13T14:04:32Z</time>
      </trkpt>
      <trkpt lat="44.11294" lon="6.8532">
        <ele>1296.7</ele>
        <time>2013-07-13T14:04:34Z</time>
      </trkpt>
      <trkpt lat="44.11287" lon="6.85319">
        <ele>1296.2</ele>
        <time>2013-07-13T14:04:36Z</time>
      </trkpt>
      <trkpt lat="44.11282" lon="6.85315">
        <ele>1295.6</ele>
        <time>2013-07-13T14:04:38Z</time>
      </trkpt>
      <trkpt lat="44.11277" lon="6.85315">
        <ele>1295.4</ele>
        <time>2013-07-13T14:04:40Z</time>
      </trkpt>
      <trkpt lat="44.11274" lon="6.85318">
        <ele>1295.2</ele>
        <time>2013-07-13T14:04:42Z</time>
      </trkpt>
      <trkpt lat="44.11272" lon="6.85321">
        <ele>1295.2</ele>
        <time>2013-07-13T14:04:44Z</time>
      </trkpt>
      <trkpt lat="44.1127" lon="6.85324">
        <ele>1294.5</ele>
        <time>2013-07-13T14:04:46Z</time>
      </trkpt>
      <trkpt lat="44.11265" lon="6.85324">
        <ele>1294.3</ele>
        <time>2013-07-13T14:04:48Z</time>
      </trkpt>
      <trkpt lat="44.11257" lon="6.85323">
        <ele>1293.9</ele>
        <time>2013-07-13T14:04:50Z</time>
      </trkpt>
      <trkpt lat="44.11251" lon="6.8532">
        <ele>1293.2</ele>
        <time>2013-07-13T14:04:52Z</time>
      </trkpt>
      <trkpt lat="44.11246" lon="6.85319">
        <ele>1292.5</ele>
        <time>2013-07-13T14:04:54Z</time>
      </trkpt>
      <trkpt lat="44.11238" lon="6.85316">
        <ele>1292.2</ele>
        <time>2013-07-13T14:04:56Z</time>
      </trkpt>
      <trkpt lat="44.11231" lon="6.85312">
        <ele>1291.9</ele>
        <time>2013-07-13T14:04:58Z</time>
      </trkpt>
      <trkpt lat="44.11226" lon="6.85311">
        <ele>1291.7</ele>
        <time>2013-07-13T14:04:59Z</time>
      </trkpt>
      <trkpt lat="44.11217" lon="6.85307">
        <ele>1291.5</ele>
        <time>2013-07-13T14:05:01Z</time>
      </trkpt>
      <trkpt lat="44.11206" lon="6.85304">
        <ele>1291</ele>
        <time>2013-07-13T14:05:03Z</time>
      </trkpt>
      <trkpt lat="44.11194" lon="6.853">
        <ele>1290.6</ele>
        <time>2013-07-13T14:05:05Z</time>
      </trkpt>
      <trkpt lat="44.11185" lon="6.85296">
        <ele>1290.4</ele>
        <time>2013-07-13T14:05:07Z</time>
      </trkpt>
      <trkpt lat="44.1118" lon="6.85302">
        <ele>1289.1</ele>
        <time>2013-07-13T14:05:10Z</time>
      </trkpt>
      <trkpt lat="44.11178" lon="6.85306">
        <ele>1288</ele>
        <time>2013-07-13T14:05:12Z</time>
      </trkpt>
      <trkpt lat="44.11173" lon="6.85305">
        <ele>1286.9</ele>
        <time>2013-07-13T14:05:14Z</time>
      </trkpt>
      <trkpt lat="44.11166" lon="6.85304">
        <ele>1286.2</ele>
        <time>2013-07-13T14:05:16Z</time>
      </trkpt>
      <trkpt lat="44.11158" lon="6.85301">
        <ele>1284.9</ele>
        <time>2013-07-13T14:05:18Z</time>
      </trkpt>
      <trkpt lat="44.11152" lon="6.85293">
        <ele>1283.6</ele>
        <time>2013-07-13T14:05:20Z</time>
      </trkpt>
      <trkpt lat="44.11146" lon="6.85282">
        <ele>1281.6</ele>
        <time>2013-07-13T14:05:22Z</time>
      </trkpt>
      <trkpt lat="44.11141" lon="6.85274">
        <ele>1280.8</ele>
        <time>2013-07-13T14:05:24Z</time>
      </trkpt>
      <trkpt lat="44.11135" lon="6.8528">
        <ele>1279.3</ele>
        <time>2013-07-13T14:05:26Z</time>
      </trkpt>
      <trkpt lat="44.11132" lon="6.85291">
        <ele>1278.3</ele>
        <time>2013-07-13T14:05:28Z</time>
      </trkpt>
      <trkpt lat="44.11128" lon="6.85299">
        <ele>1277.5</ele>
        <time>2013-07-13T14:05:30Z</time>
      </trkpt>
      <trkpt lat="44.11122" lon="6.85298">
        <ele>1276.9</ele>
        <time>2013-07-13T14:05:32Z</time>
      </trkpt>
      <trkpt lat="44.11116" lon="6.85293">
        <ele>1274.7</ele>
        <time>2013-07-13T14:05:34Z</time>
      </trkpt>
      <trkpt lat="44.1111" lon="6.85282">
        <ele>1272.9</ele>
        <time>2013-07-13T14:05:36Z</time>
      </trkpt>
      <trkpt lat="44.11105" lon="6.85271">
        <ele>1270.8</ele>
        <time>2013-07-13T14:05:38Z</time>
      </trkpt>
      <trkpt lat="44.11101" lon="6.85258">
        <ele>1269.6</ele>
        <time>2013-07-13T14:05:40Z</time>
      </trkpt>
      <trkpt lat="44.11098" lon="6.85249">
        <ele>1268.9</ele>
        <time>2013-07-13T14:05:42Z</time>
      </trkpt>
      <trkpt lat="44.11095" lon="6.8525">
        <ele>1267</ele>
        <time>2013-07-13T14:05:44Z</time>
      </trkpt>
      <trkpt lat="44.11094" lon="6.85258">
        <ele>1265.4</ele>
        <time>2013-07-13T14:05:46Z</time>
      </trkpt>
      <trkpt lat="44.11091" lon="6.85268">
        <ele>1263.5</ele>
        <time>2013-07-13T14:05:48Z</time>
      </trkpt>
      <trkpt lat="44.11089" lon="6.85279">
        <ele>1262</ele>
        <time>2013-07-13T14:05:50Z</time>
      </trkpt>
      <trkpt lat="44.11087" lon="6.8529">
        <ele>1260.8</ele>
        <time>2013-07-13T14:05:52Z</time>
      </trkpt>
      <trkpt lat="44.11081" lon="6.85294">
        <ele>1258.5</ele>
        <time>2013-07-13T14:05:55Z</time>
      </trkpt>
      <trkpt lat="44.11075" lon="6.85285">
        <ele>1257.5</ele>
        <time>2013-07-13T14:05:57Z</time>
      </trkpt>
      <trkpt lat="44.1107" lon="6.85276">
        <ele>1256.5</ele>
        <time>2013-07-13T14:05:59Z</time>
      </trkpt>
      <trkpt lat="44.11063" lon="6.85269">
        <ele>1255.4</ele>
        <time>2013-07-13T14:06:01Z</time>
      </trkpt>
      <trkpt lat="44.11056" lon="6.85258">
        <ele>1255</ele>
        <time>2013-07-13T14:06:03Z</time>
      </trkpt>
      <trkpt lat="44.11048" lon="6.85252">
        <ele>1253.7</ele>
        <time>2013-07-13T14:06:05Z</time>
      </trkpt>
      <trkpt lat="44.1104" lon="6.85249">
        <ele>1252.8</ele>
        <time>2013-07-13T14:06:07Z</time>
      </trkpt>
      <trkpt lat="44.11031" lon="6.85242">
        <ele>1251.8</ele>
        <time>2013-07-13T14:06:09Z</time>
      </trkpt>
      <trkpt lat="44.11021" lon="6.85232">
        <ele>1250.1</ele>
        <time>2013-07-13T14:06:11Z</time>
      </trkpt>
      <trkpt lat="44.11012" lon="6.85226">
        <ele>1248.1</ele>
        <time>2013-07-13T14:06:13Z</time>
      </trkpt>
      <trkpt lat="44.11" lon="6.85224">
        <ele>1247.1</ele>
        <time>2013-07-13T14:06:15Z</time>
      </trkpt>
      <trkpt lat="44.10986" lon="6.85223">
        <ele>1246.2</ele>
        <time>2013-07-13T14:06:17Z</time>
      </trkpt>
      <trkpt lat="44.10974" lon="6.85225">
        <ele>1244.9</ele>
        <time>2013-07-13T14:06:19Z</time>
      </trkpt>
      <trkpt lat="44.10964" lon="6.85229">
        <ele>1244.3</ele>
        <time>2013-07-13T14:06:21Z</time>
      </trkpt>
      <trkpt lat="44.10954" lon="6.8523">
        <ele>1242.8</ele>
        <time>2013-07-13T14:06:23Z</time>
      </trkpt>
      <trkpt lat="44.10943" lon="6.8523">
        <ele>1240.4</ele>
        <time>2013-07-13T14:06:25Z</time>
      </trkpt>
      <trkpt lat="44.10934" lon="6.85231">
        <ele>1239.1</ele>
        <time>2013-07-13T14:06:27Z</time>
      </trkpt>
      <trkpt lat="44.10932" lon="6.85227">
        <ele>1217.6</ele>
        <time>2013-07-13T14:08:30Z</time>
      </trkpt>
      <trkpt lat="44.10927" lon="6.85224">
        <ele>1216.2</ele>
        <time>2013-07-13T14:08:32Z</time>
      </trkpt>
      <trkpt lat="44.10921" lon="6.85217">
        <ele>1214.2</ele>
        <time>2013-07-13T14:08:34Z</time>
      </trkpt>
      <trkpt lat="44.10912" lon="6.85211">
        <ele>1213</ele>
        <time>2013-07-13T14:08:36Z</time>
      </trkpt>
      <trkpt lat="44.10903" lon="6.8521">
        <ele>1211.7</ele>
        <time>2013-07-13T14:08:38Z</time>
      </trkpt>
      <trkpt lat="44.10898" lon="6.85217">
        <ele>1209.6</ele>
        <time>2013-07-13T14:08:40Z</time>
      </trkpt>
      <trkpt lat="44.10892" lon="6.85223">
        <ele>1208.3</ele>
        <time>2013-07-13T14:08:43Z</time>
      </trkpt>
      <trkpt lat="44.10892" lon="6.85218">
        <ele>1207.6</ele>
        <time>2013-07-13T14:08:45Z</time>
      </trkpt>
      <trkpt lat="44.10893" lon="6.85213">
        <ele>1207.1</ele>
        <time>2013-07-13T14:08:47Z</time>
      </trkpt>
      <trkpt lat="44.10897" lon="6.85199">
        <ele>1196.1</ele>
        <time>2013-07-13T14:11:05Z</time>
      </trkpt>
      <trkpt lat="44.10896" lon="6.85196">
        <ele>1195.9</ele>
        <time>2013-07-13T14:11:07Z</time>
      </trkpt>
      <trkpt lat="44.10893" lon="6.85195">
        <ele>1195.9</ele>
        <time>2013-07-13T14:11:09Z</time>
      </trkpt>
      <trkpt lat="44.10889" lon="6.85197">
        <ele>1195.1</ele>
        <time>2013-07-13T14:11:11Z</time>
      </trkpt>
      <trkpt lat="44.10885" lon="6.852">
        <ele>1194.5</ele>
        <time>2013-07-13T14:11:12Z</time>
      </trkpt>
      <trkpt lat="44.10878" lon="6.85207">
        <ele>1193.4</ele>
        <time>2013-07-13T14:11:14Z</time>
      </trkpt>
      <trkpt lat="44.10872" lon="6.8521">
        <ele>1192.5</ele>
        <time>2013-07-13T14:11:16Z</time>
      </trkpt>
      <trkpt lat="44.10864" lon="6.8521">
        <ele>1191.8</ele>
        <time>2013-07-13T14:11:18Z</time>
      </trkpt>
      <trkpt lat="44.10857" lon="6.85209">
        <ele>1191.1</ele>
        <time>2013-07-13T14:11:20Z</time>
      </trkpt>
      <trkpt lat="44.10853" lon="6.8521">
        <ele>1190.8</ele>
        <time>2013-07-13T14:11:21Z</time>
      </trkpt>
      <trkpt lat="44.10845" lon="6.85213">
        <ele>1189.9</ele>
        <time>2013-07-13T14:11:23Z</time>
      </trkpt>
      <trkpt lat="44.10839" lon="6.85214">
        <ele>1189.6</ele>
        <time>2013-07-13T14:11:26Z</time>
      </trkpt>
      <trkpt lat="44.10835" lon="6.85212">
        <ele>1188.4</ele>
        <time>2013-07-13T14:11:28Z</time>
      </trkpt>
      <trkpt lat="44.1083" lon="6.85208">
        <ele>1187.1</ele>
        <time>2013-07-13T14:11:30Z</time>
      </trkpt>
      <trkpt lat="44.10823" lon="6.85203">
        <ele>1185.7</ele>
        <time>2013-07-13T14:11:32Z</time>
      </trkpt>
      <trkpt lat="44.10816" lon="6.85205">
        <ele>1183.7</ele>
        <time>2013-07-13T14:11:35Z</time>
      </trkpt>
      <trkpt lat="44.10813" lon="6.85202">
        <ele>1183.1</ele>
        <time>2013-07-13T14:11:38Z</time>
      </trkpt>
      <trkpt lat="44.10814" lon="6.85199">
        <ele>1182</ele>
        <time>2013-07-13T14:11:40Z</time>
      </trkpt>
      <trkpt lat="44.10818" lon="6.85195">
        <ele>1181.5</ele>
        <time>2013-07-13T14:11:42Z</time>
      </trkpt>
      <trkpt lat="44.10816" lon="6.8519">
        <ele>1180.9</ele>
        <time>2013-07-13T14:11:48Z</time>
      </trkpt>
      <trkpt lat="44.10806" lon="6.85188">
        <ele>1180.4</ele>
        <time>2013-07-13T14:11:50Z</time>
      </trkpt>
      <trkpt lat="44.10799" lon="6.85184">
        <ele>1180</ele>
        <time>2013-07-13T14:11:52Z</time>
      </trkpt>
      <trkpt lat="44.10791" lon="6.85183">
        <ele>1179.6</ele>
        <time>2013-07-13T14:11:54Z</time>
      </trkpt>
      <trkpt lat="44.10783" lon="6.85183">
        <ele>1179.4</ele>
        <time>2013-07-13T14:11:56Z</time>
      </trkpt>
      <trkpt lat="44.10779" lon="6.85182">
        <ele>1179.5</ele>
        <time>2013-07-13T14:11:58Z</time>
      </trkpt>
      <trkpt lat="44.10776" lon="6.8517">
        <ele>1179.3</ele>
        <time>2013-07-13T14:12:02Z</time>
      </trkpt>
      <trkpt lat="44.10766" lon="6.85169">
        <ele>1179</ele>
        <time>2013-07-13T14:12:04Z</time>
      </trkpt>
      <trkpt lat="44.10759" lon="6.85171">
        <ele>1178.7</ele>
        <time>2013-07-13T14:12:06Z</time>
      </trkpt>
      <trkpt lat="44.10749" lon="6.85174">
        <ele>1178.5</ele>
        <time>2013-07-13T14:12:08Z</time>
      </trkpt>
      <trkpt lat="44.10739" lon="6.85178">
        <ele>1177.7</ele>
        <time>2013-07-13T14:12:10Z</time>
      </trkpt>
      <trkpt lat="44.10732" lon="6.85186">
        <ele>1174.8</ele>
        <time>2013-07-13T14:12:12Z</time>
      </trkpt>
      <trkpt lat="44.1073" lon="6.85187">
        <ele>1171.1</ele>
        <time>2013-07-13T14:12:16Z</time>
      </trkpt>
      <trkpt lat="44.10728" lon="6.8518">
        <ele>1170.2</ele>
        <time>2013-07-13T14:12:19Z</time>
      </trkpt>
      <trkpt lat="44.10727" lon="6.85185">
        <ele>1167</ele>
        <time>2013-07-13T14:12:23Z</time>
      </trkpt>
      <trkpt lat="44.10726" lon="6.85191">
        <ele>1165.1</ele>
        <time>2013-07-13T14:12:25Z</time>
      </trkpt>
      <trkpt lat="44.10723" lon="6.85192">
        <ele>1160.9</ele>
        <time>2013-07-13T14:12:32Z</time>
      </trkpt>
      <trkpt lat="44.10723" lon="6.85198">
        <ele>1158.8</ele>
        <time>2013-07-13T14:12:34Z</time>
      </trkpt>
      <trkpt lat="44.10728" lon="6.85205">
        <ele>1151.7</ele>
        <time>2013-07-13T14:12:37Z</time>
      </trkpt>
      <trkpt lat="44.10724" lon="6.85202">
        <ele>1149.4</ele>
        <time>2013-07-13T14:12:40Z</time>
      </trkpt>
      <trkpt lat="44.10719" lon="6.85191">
        <ele>1147.6</ele>
        <time>2013-07-13T14:12:43Z</time>
      </trkpt>
      <trkpt lat="44.10718" lon="6.85182">
        <ele>1146.5</ele>
        <time>2013-07-13T14:12:45Z</time>
      </trkpt>
      <trkpt lat="44.10716" lon="6.85173">
        <ele>1146.1</ele>
        <time>2013-07-13T14:12:47Z</time>
      </trkpt>
      <trkpt lat="44.10716" lon="6.85165">
        <ele>1145.7</ele>
        <time>2013-07-13T14:12:49Z</time>
      </trkpt>
      <trkpt lat="44.10717" lon="6.85155">
        <ele>1145.1</ele>
        <time>2013-07-13T14:12:51Z</time>
      </trkpt>
      <trkpt lat="44.10718" lon="6.85145">
        <ele>1144.1</ele>
        <time>2013-07-13T14:12:53Z</time>
      </trkpt>
      <trkpt lat="44.10718" lon="6.85139">
        <ele>1143</ele>
        <time>2013-07-13T14:12:55Z</time>
      </trkpt>
      <trkpt lat="44.10717" lon="6.85135">
        <ele>1142.4</ele>
        <time>2013-07-13T14:12:57Z</time>
      </trkpt>
      <trkpt lat="44.10712" lon="6.85137">
        <ele>1142.2</ele>
        <time>2013-07-13T14:12:59Z</time>
      </trkpt>
      <trkpt lat="44.10704" lon="6.85139">
        <ele>1141.9</ele>
        <time>2013-07-13T14:13:01Z</time>
      </trkpt>
      <trkpt lat="44.10699" lon="6.85145">
        <ele>1140</ele>
        <time>2013-07-13T14:13:03Z</time>
      </trkpt>
      <trkpt lat="44.10695" lon="6.85154">
        <ele>1137.5</ele>
        <time>2013-07-13T14:13:05Z</time>
      </trkpt>
      <trkpt lat="44.10691" lon="6.85163">
        <ele>1135.4</ele>
        <time>2013-07-13T14:13:07Z</time>
      </trkpt>
      <trkpt lat="44.10687" lon="6.85175">
        <ele>1133.7</ele>
        <time>2013-07-13T14:13:09Z</time>
      </trkpt>
      <trkpt lat="44.10684" lon="6.85185">
        <ele>1131.8</ele>
        <time>2013-07-13T14:13:11Z</time>
      </trkpt>
      <trkpt lat="44.10678" lon="6.85191">
        <ele>1131.3</ele>
        <time>2013-07-13T14:13:13Z</time>
      </trkpt>
      <trkpt lat="44.10677" lon="6.85186">
        <ele>1130.7</ele>
        <time>2013-07-13T14:13:15Z</time>
      </trkpt>
      <trkpt lat="44.10675" lon="6.85175">
        <ele>1129.7</ele>
        <time>2013-07-13T14:13:17Z</time>
      </trkpt>
      <trkpt lat="44.10674" lon="6.85163">
        <ele>1128.6</ele>
        <time>2013-07-13T14:13:19Z</time>
      </trkpt>
      <trkpt lat="44.10673" lon="6.85149">
        <ele>1127.1</ele>
        <time>2013-07-13T14:13:21Z</time>
      </trkpt>
      <trkpt lat="44.10672" lon="6.85134">
        <ele>1125.5</ele>
        <time>2013-07-13T14:13:23Z</time>
      </trkpt>
      <trkpt lat="44.10672" lon="6.85127">
        <ele>1125</ele>
        <time>2013-07-13T14:13:24Z</time>
      </trkpt>
      <trkpt lat="44.1067" lon="6.85116">
        <ele>1124.2</ele>
        <time>2013-07-13T14:13:26Z</time>
      </trkpt>
      <trkpt lat="44.10667" lon="6.85112">
        <ele>1121.3</ele>
        <time>2013-07-13T14:13:30Z</time>
      </trkpt>
      <trkpt lat="44.10668" lon="6.85104">
        <ele>1119.5</ele>
        <time>2013-07-13T14:13:34Z</time>
      </trkpt>
      <trkpt lat="44.10668" lon="6.85097">
        <ele>1118.8</ele>
        <time>2013-07-13T14:13:36Z</time>
      </trkpt>
      <trkpt lat="44.1067" lon="6.85089">
        <ele>1117.6</ele>
        <time>2013-07-13T14:13:38Z</time>
      </trkpt>
      <trkpt lat="44.1067" lon="6.85085">
        <ele>1117.3</ele>
        <time>2013-07-13T14:13:39Z</time>
      </trkpt>
      <trkpt lat="44.10661" lon="6.85083">
        <ele>1115.8</ele>
        <time>2013-07-13T14:13:43Z</time>
      </trkpt>
      <trkpt lat="44.10656" lon="6.8509">
        <ele>1115.1</ele>
        <time>2013-07-13T14:13:45Z</time>
      </trkpt>
      <trkpt lat="44.10653" lon="6.85101">
        <ele>1112.1</ele>
        <time>2013-07-13T14:13:47Z</time>
      </trkpt>
      <trkpt lat="44.10649" lon="6.85101">
        <ele>1109.1</ele>
        <time>2013-07-13T14:13:51Z</time>
      </trkpt>
      <trkpt lat="44.10651" lon="6.8509">
        <ele>1107.1</ele>
        <time>2013-07-13T14:13:54Z</time>
      </trkpt>
      <trkpt lat="44.10651" lon="6.85081">
        <ele>1106.2</ele>
        <time>2013-07-13T14:13:56Z</time>
      </trkpt>
      <trkpt lat="44.10652" lon="6.85069">
        <ele>1105.5</ele>
        <time>2013-07-13T14:13:58Z</time>
      </trkpt>
      <trkpt lat="44.10652" lon="6.85063">
        <ele>1105</ele>
        <time>2013-07-13T14:14:00Z</time>
      </trkpt>
      <trkpt lat="44.10653" lon="6.85055">
        <ele>1104.7</ele>
        <time>2013-07-13T14:14:03Z</time>
      </trkpt>
      <trkpt lat="44.1065" lon="6.85054">
        <ele>1104.1</ele>
        <time>2013-07-13T14:14:06Z</time>
      </trkpt>
      <trkpt lat="44.10646" lon="6.85056">
        <ele>1103.7</ele>
        <time>2013-07-13T14:14:08Z</time>
      </trkpt>
      <trkpt lat="44.10643" lon="6.8506">
        <ele>1103.5</ele>
        <time>2013-07-13T14:14:10Z</time>
      </trkpt>
      <trkpt lat="44.1064" lon="6.85066">
        <ele>1102.6</ele>
        <time>2013-07-13T14:14:12Z</time>
      </trkpt>
      <trkpt lat="44.10637" lon="6.85069">
        <ele>1101.7</ele>
        <time>2013-07-13T14:14:14Z</time>
      </trkpt>
      <trkpt lat="44.10639" lon="6.85063">
        <ele>1099.9</ele>
        <time>2013-07-13T14:14:17Z</time>
      </trkpt>
      <trkpt lat="44.10639" lon="6.85054">
        <ele>1099.1</ele>
        <time>2013-07-13T14:14:19Z</time>
      </trkpt>
      <trkpt lat="44.10641" lon="6.85046">
        <ele>1098.7</ele>
        <time>2013-07-13T14:14:21Z</time>
      </trkpt>
      <trkpt lat="44.10645" lon="6.85037">
        <ele>1098.6</ele>
        <time>2013-07-13T14:14:24Z</time>
      </trkpt>
      <trkpt lat="44.10647" lon="6.85034">
        <ele>1098.7</ele>
        <time>2013-07-13T14:14:26Z</time>
      </trkpt>
      <trkpt lat="44.10643" lon="6.8503">
        <ele>1098.6</ele>
        <time>2013-07-13T14:14:29Z</time>
      </trkpt>
      <trkpt lat="44.10641" lon="6.85026">
        <ele>1098.7</ele>
        <time>2013-07-13T14:14:32Z</time>
      </trkpt>
      <trkpt lat="44.1064" lon="6.85015">
        <ele>1098.7</ele>
        <time>2013-07-13T14:14:39Z</time>
      </trkpt>
      <trkpt lat="44.10632" lon="6.85019">
        <ele>1099.2</ele>
        <time>2013-07-13T14:15:01Z</time>
      </trkpt>
      <trkpt lat="44.10629" lon="6.8502">
        <ele>1099.3</ele>
        <time>2013-07-13T14:15:03Z</time>
      </trkpt>
      <trkpt lat="44.10628" lon="6.85014">
        <ele>1099.2</ele>
        <time>2013-07-13T14:15:07Z</time>
      </trkpt>
      <trkpt lat="44.10628" lon="6.85007">
        <ele>1099.2</ele>
        <time>2013-07-13T14:15:09Z</time>
      </trkpt>
      <trkpt lat="44.1063" lon="6.85003">
        <ele>1099.2</ele>
        <time>2013-07-13T14:15:11Z</time>
      </trkpt>
      <trkpt lat="44.10625" lon="6.84998">
        <ele>1099</ele>
        <time>2013-07-13T14:15:14Z</time>
      </trkpt>
      <trkpt lat="44.1062" lon="6.84997">
        <ele>1099</ele>
        <time>2013-07-13T14:15:16Z</time>
      </trkpt>
      <trkpt lat="44.10613" lon="6.84997">
        <ele>1099</ele>
        <time>2013-07-13T14:15:18Z</time>
      </trkpt>
      <trkpt lat="44.10606" lon="6.84995">
        <ele>1099.1</ele>
        <time>2013-07-13T14:15:20Z</time>
      </trkpt>
      <trkpt lat="44.10599" lon="6.84995">
        <ele>1099.1</ele>
        <time>2013-07-13T14:15:22Z</time>
      </trkpt>
      <trkpt lat="44.10597" lon="6.84993">
        <ele>1099.3</ele>
        <time>2013-07-13T14:15:24Z</time>
      </trkpt>
      <trkpt lat="44.10598" lon="6.84989">
        <ele>1099.2</ele>
        <time>2013-07-13T14:15:26Z</time>
      </trkpt>
      <trkpt lat="44.10597" lon="6.84983">
        <ele>1099.1</ele>
        <time>2013-07-13T14:15:28Z</time>
      </trkpt>
      <trkpt lat="44.10598" lon="6.84977">
        <ele>1099</ele>
        <time>2013-07-13T14:15:30Z</time>
      </trkpt>
      <trkpt lat="44.10599" lon="6.84974">
        <ele>1099.1</ele>
        <time>2013-07-13T14:15:32Z</time>
      </trkpt>
      <trkpt lat="44.10595" lon="6.84974">
        <ele>1099.2</ele>
        <time>2013-07-13T14:15:36Z</time>
      </trkpt>
      <trkpt lat="44.1059" lon="6.84975">
        <ele>1099.1</ele>
        <time>2013-07-13T14:15:38Z</time>
      </trkpt>
      <trkpt lat="44.10583" lon="6.84974">
        <ele>1099.2</ele>
        <time>2013-07-13T14:15:41Z</time>
      </trkpt>
      <trkpt lat="44.10581" lon="6.8497">
        <ele>1099</ele>
        <time>2013-07-13T14:15:44Z</time>
      </trkpt>
      <trkpt lat="44.10578" lon="6.84962">
        <ele>1098.6</ele>
        <time>2013-07-13T14:15:54Z</time>
      </trkpt>
      <trkpt lat="44.10574" lon="6.8496">
        <ele>1098.2</ele>
        <time>2013-07-13T14:15:56Z</time>
      </trkpt>
      <trkpt lat="44.10573" lon="6.84954">
        <ele>1096.9</ele>
        <time>2013-07-13T14:16:01Z</time>
      </trkpt>
      <trkpt lat="44.10574" lon="6.84947">
        <ele>1096.5</ele>
        <time>2013-07-13T14:16:03Z</time>
      </trkpt>
      <trkpt lat="44.1056" lon="6.84937">
        <ele>1096.5</ele>
        <time>2013-07-13T14:16:16Z</time>
      </trkpt>
      <trkpt lat="44.10558" lon="6.84934">
        <ele>1096.4</ele>
        <time>2013-07-13T14:16:19Z</time>
      </trkpt>
      <trkpt lat="44.10558" lon="6.84928">
        <ele>1096.4</ele>
        <time>2013-07-13T14:16:21Z</time>
      </trkpt>
      <trkpt lat="44.10556" lon="6.84922">
        <ele>1096.3</ele>
        <time>2013-07-13T14:16:23Z</time>
      </trkpt>
      <trkpt lat="44.10553" lon="6.84921">
        <ele>1096.5</ele>
        <time>2013-07-13T14:16:26Z</time>
      </trkpt>
      <trkpt lat="44.1055" lon="6.84915">
        <ele>1096.8</ele>
        <time>2013-07-13T14:16:33Z</time>
      </trkpt>
      <trkpt lat="44.10552" lon="6.84907">
        <ele>1096.8</ele>
        <time>2013-07-13T14:16:35Z</time>
      </trkpt>
      <trkpt lat="44.10553" lon="6.84903">
        <ele>1096.7</ele>
        <time>2013-07-13T14:16:39Z</time>
      </trkpt>
      <trkpt lat="44.10554" lon="6.84908">
        <ele>1094.6</ele>
        <time>2013-07-13T14:17:01Z</time>
      </trkpt>
      <trkpt lat="44.10547" lon="6.84909">
        <ele>1094.9</ele>
        <time>2013-07-13T14:17:03Z</time>
      </trkpt>
      <trkpt lat="44.10538" lon="6.84912">
        <ele>1094.9</ele>
        <time>2013-07-13T14:17:05Z</time>
      </trkpt>
      <trkpt lat="44.10528" lon="6.84916">
        <ele>1095.1</ele>
        <time>2013-07-13T14:17:07Z</time>
      </trkpt>
      <trkpt lat="44.10519" lon="6.84918">
        <ele>1094.7</ele>
        <time>2013-07-13T14:17:09Z</time>
      </trkpt>
      <trkpt lat="44.10512" lon="6.84917">
        <ele>1094.7</ele>
        <time>2013-07-13T14:17:11Z</time>
      </trkpt>
      <trkpt lat="44.10509" lon="6.84916">
        <ele>1094.7</ele>
        <time>2013-07-13T14:17:13Z</time>
      </trkpt>
      <trkpt lat="44.10505" lon="6.84912">
        <ele>1094.9</ele>
        <time>2013-07-13T14:17:18Z</time>
      </trkpt>
      <trkpt lat="44.10497" lon="6.84911">
        <ele>1094.9</ele>
        <time>2013-07-13T14:17:20Z</time>
      </trkpt>
      <trkpt lat="44.1049" lon="6.84912">
        <ele>1094.8</ele>
        <time>2013-07-13T14:17:22Z</time>
      </trkpt>
      <trkpt lat="44.10482" lon="6.84913">
        <ele>1094.8</ele>
        <time>2013-07-13T14:17:24Z</time>
      </trkpt>
      <trkpt lat="44.10475" lon="6.84909">
        <ele>1094.8</ele>
        <time>2013-07-13T14:17:26Z</time>
      </trkpt>
      <trkpt lat="44.10468" lon="6.84906">
        <ele>1094.7</ele>
        <time>2013-07-13T14:17:29Z</time>
      </trkpt>
      <trkpt lat="44.10469" lon="6.849">
        <ele>1095.1</ele>
        <time>2013-07-13T14:17:35Z</time>
      </trkpt>
      <trkpt lat="44.10471" lon="6.84895">
        <ele>1095.2</ele>
        <time>2013-07-13T14:17:37Z</time>
      </trkpt>
      <trkpt lat="44.10472" lon="6.84889">
        <ele>1095.3</ele>
        <time>2013-07-13T14:17:39Z</time>
      </trkpt>
      <trkpt lat="44.10472" lon="6.84885">
        <ele>1095.2</ele>
        <time>2013-07-13T14:17:41Z</time>
      </trkpt>
      <trkpt lat="44.10473" lon="6.84876">
        <ele>1095.1</ele>
        <time>2013-07-13T14:17:43Z</time>
      </trkpt>
      <trkpt lat="44.10473" lon="6.84867">
        <ele>1095.1</ele>
        <time>2013-07-13T14:17:46Z</time>
      </trkpt>
      <trkpt lat="44.1047" lon="6.84873">
        <ele>1095</ele>
        <time>2013-07-13T14:17:49Z</time>
      </trkpt>
      <trkpt lat="44.10463" lon="6.84878">
        <ele>1094.7</ele>
        <time>2013-07-13T14:17:51Z</time>
      </trkpt>
      <trkpt lat="44.10454" lon="6.84882">
        <ele>1094.6</ele>
        <time>2013-07-13T14:17:53Z</time>
      </trkpt>
      <trkpt lat="44.10447" lon="6.84886">
        <ele>1094.6</ele>
        <time>2013-07-13T14:17:55Z</time>
      </trkpt>
      <trkpt lat="44.10443" lon="6.84894">
        <ele>1094.5</ele>
        <time>2013-07-13T14:17:57Z</time>
      </trkpt>
      <trkpt lat="44.10437" lon="6.84907">
        <ele>1094.3</ele>
        <time>2013-07-13T14:17:59Z</time>
      </trkpt>
      <trkpt lat="44.10433" lon="6.84915">
        <ele>1094.3</ele>
        <time>2013-07-13T14:18:01Z</time>
      </trkpt>
      <trkpt lat="44.10433" lon="6.84907">
        <ele>1094.1</ele>
        <time>2013-07-13T14:18:06Z</time>
      </trkpt>
      <trkpt lat="44.10435" lon="6.84895">
        <ele>1094</ele>
        <time>2013-07-13T14:18:08Z</time>
      </trkpt>
      <trkpt lat="44.10438" lon="6.84883">
        <ele>1093.8</ele>
        <time>2013-07-13T14:18:10Z</time>
      </trkpt>
      <trkpt lat="44.1044" lon="6.84874">
        <ele>1093.8</ele>
        <time>2013-07-13T14:18:12Z</time>
      </trkpt>
      <trkpt lat="44.10439" lon="6.84871">
        <ele>1093.8</ele>
        <time>2013-07-13T14:18:14Z</time>
      </trkpt>
      <trkpt lat="44.10434" lon="6.84875">
        <ele>1093.8</ele>
        <time>2013-07-13T14:18:16Z</time>
      </trkpt>
      <trkpt lat="44.10426" lon="6.84884">
        <ele>1093.6</ele>
        <time>2013-07-13T14:18:18Z</time>
      </trkpt>
      <trkpt lat="44.1042" lon="6.84892">
        <ele>1093.5</ele>
        <time>2013-07-13T14:18:20Z</time>
      </trkpt>
      <trkpt lat="44.10412" lon="6.84906">
        <ele>1093.5</ele>
        <time>2013-07-13T14:18:22Z</time>
      </trkpt>
      <trkpt lat="44.10409" lon="6.84914">
        <ele>1093.3</ele>
        <time>2013-07-13T14:18:25Z</time>
      </trkpt>
      <trkpt lat="44.10405" lon="6.84907">
        <ele>1093.2</ele>
        <time>2013-07-13T14:18:29Z</time>
      </trkpt>
      <trkpt lat="44.10404" lon="6.84899">
        <ele>1093.1</ele>
        <time>2013-07-13T14:18:31Z</time>
      </trkpt>
      <trkpt lat="44.10403" lon="6.84891">
        <ele>1092.9</ele>
        <time>2013-07-13T14:18:33Z</time>
      </trkpt>
      <trkpt lat="44.10401" lon="6.84885">
        <ele>1092.8</ele>
        <time>2013-07-13T14:18:35Z</time>
      </trkpt>
      <trkpt lat="44.10393" lon="6.84881">
        <ele>1091</ele>
        <time>2013-07-13T14:20:18Z</time>
      </trkpt>
      <trkpt lat="44.1039" lon="6.8488">
        <ele>1090.9</ele>
        <time>2013-07-13T14:20:20Z</time>
      </trkpt>
      <trkpt lat="44.10391" lon="6.84874">
        <ele>1090.8</ele>
        <time>2013-07-13T14:20:23Z</time>
      </trkpt>
      <trkpt lat="44.10393" lon="6.84867">
        <ele>1090.7</ele>
        <time>2013-07-13T14:20:25Z</time>
      </trkpt>
      <trkpt lat="44.10393" lon="6.84854">
        <ele>1090.7</ele>
        <time>2013-07-13T14:20:27Z</time>
      </trkpt>
      <trkpt lat="44.10392" lon="6.84848">
        <ele>1090.8</ele>
        <time>2013-07-13T14:20:28Z</time>
      </trkpt>
      <trkpt lat="44.10393" lon="6.84837">
        <ele>1090.7</ele>
        <time>2013-07-13T14:20:30Z</time>
      </trkpt>
      <trkpt lat="44.104" lon="6.84817">
        <ele>1090.8</ele>
        <time>2013-07-13T14:20:32Z</time>
      </trkpt>
      <trkpt lat="44.10408" lon="6.848">
        <ele>1090.9</ele>
        <time>2013-07-13T14:20:34Z</time>
      </trkpt>
      <trkpt lat="44.10415" lon="6.84788">
        <ele>1090.9</ele>
        <time>2013-07-13T14:20:36Z</time>
      </trkpt>
      <trkpt lat="44.10419" lon="6.84776">
        <ele>1090.9</ele>
        <time>2013-07-13T14:20:38Z</time>
      </trkpt>
      <trkpt lat="44.10433" lon="6.84755">
        <ele>1090.6</ele>
        <time>2013-07-13T14:20:40Z</time>
      </trkpt>
      <trkpt lat="44.10443" lon="6.84733">
        <ele>1090.5</ele>
        <time>2013-07-13T14:20:42Z</time>
      </trkpt>
      <trkpt lat="44.10453" lon="6.84717">
        <ele>1090.4</ele>
        <time>2013-07-13T14:20:44Z</time>
      </trkpt>
      <trkpt lat="44.10457" lon="6.84707">
        <ele>1090.4</ele>
        <time>2013-07-13T14:20:46Z</time>
      </trkpt>
      <trkpt lat="44.10462" lon="6.84704">
        <ele>1090.5</ele>
        <time>2013-07-13T14:20:48Z</time>
      </trkpt>
      <trkpt lat="44.10465" lon="6.84693">
        <ele>1090.6</ele>
        <time>2013-07-13T14:20:50Z</time>
      </trkpt>
      <trkpt lat="44.10456" lon="6.84679">
        <ele>1092</ele>
        <time>2013-07-13T14:21:12Z</time>
      </trkpt>
      <trkpt lat="44.10453" lon="6.84681">
        <ele>1091.9</ele>
        <time>2013-07-13T14:21:14Z</time>
      </trkpt>
      <trkpt lat="44.1045" lon="6.84688">
        <ele>1091.4</ele>
        <time>2013-07-13T14:21:16Z</time>
      </trkpt>
      <trkpt lat="44.10447" lon="6.84694">
        <ele>1091.3</ele>
        <time>2013-07-13T14:21:18Z</time>
      </trkpt>
      <trkpt lat="44.10443" lon="6.847">
        <ele>1091.2</ele>
        <time>2013-07-13T14:21:20Z</time>
      </trkpt>
      <trkpt lat="44.10439" lon="6.84709">
        <ele>1091</ele>
        <time>2013-07-13T14:21:22Z</time>
      </trkpt>
      <trkpt lat="44.10436" lon="6.8472">
        <ele>1090.8</ele>
        <time>2013-07-13T14:21:24Z</time>
      </trkpt>
      <trkpt lat="44.10429" lon="6.84731">
        <ele>1090.7</ele>
        <time>2013-07-13T14:21:26Z</time>
      </trkpt>
      <trkpt lat="44.1042" lon="6.84744">
        <ele>1090.5</ele>
        <time>2013-07-13T14:21:28Z</time>
      </trkpt>
      <trkpt lat="44.10409" lon="6.84756">
        <ele>1090.3</ele>
        <time>2013-07-13T14:21:30Z</time>
      </trkpt>
      <trkpt lat="44.104" lon="6.84768">
        <ele>1090.2</ele>
        <time>2013-07-13T14:21:32Z</time>
      </trkpt>
      <trkpt lat="44.1039" lon="6.84781">
        <ele>1090</ele>
        <time>2013-07-13T14:21:34Z</time>
      </trkpt>
      <trkpt lat="44.1038" lon="6.84795">
        <ele>1090.1</ele>
        <time>2013-07-13T14:21:36Z</time>
      </trkpt>
      <trkpt lat="44.10371" lon="6.84811">
        <ele>1089.9</ele>
        <time>2013-07-13T14:21:38Z</time>
      </trkpt>
      <trkpt lat="44.10361" lon="6.84828">
        <ele>1089.7</ele>
        <time>2013-07-13T14:21:40Z</time>
      </trkpt>
      <trkpt lat="44.10351" lon="6.84841">
        <ele>1089.4</ele>
        <time>2013-07-13T14:21:42Z</time>
      </trkpt>
      <trkpt lat="44.1034" lon="6.84856">
        <ele>1089.1</ele>
        <time>2013-07-13T14:21:44Z</time>
      </trkpt>
      <trkpt lat="44.1033" lon="6.84876">
        <ele>1088.8</ele>
        <time>2013-07-13T14:21:46Z</time>
      </trkpt>
      <trkpt lat="44.10324" lon="6.84901">
        <ele>1088.7</ele>
        <time>2013-07-13T14:21:48Z</time>
      </trkpt>
      <trkpt lat="44.10318" lon="6.84924">
        <ele>1088.5</ele>
        <time>2013-07-13T14:21:50Z</time>
      </trkpt>
      <trkpt lat="44.10309" lon="6.84943">
        <ele>1088.3</ele>
        <time>2013-07-13T14:21:52Z</time>
      </trkpt>
      <trkpt lat="44.10298" lon="6.84951">
        <ele>1088.3</ele>
        <time>2013-07-13T14:21:54Z</time>
      </trkpt>
      <trkpt lat="44.1028" lon="6.84945">
        <ele>1088.3</ele>
        <time>2013-07-13T14:21:56Z</time>
      </trkpt>
      <trkpt lat="44.10263" lon="6.84938">
        <ele>1088.2</ele>
        <time>2013-07-13T14:21:58Z</time>
      </trkpt>
      <trkpt lat="44.10245" lon="6.84929">
        <ele>1088.2</ele>
        <time>2013-07-13T14:22:00Z</time>
      </trkpt>
      <trkpt lat="44.10227" lon="6.84923">
        <ele>1088.1</ele>
        <time>2013-07-13T14:22:02Z</time>
      </trkpt>
      <trkpt lat="44.10211" lon="6.8492">
        <ele>1088.2</ele>
        <time>2013-07-13T14:22:04Z</time>
      </trkpt>
      <trkpt lat="44.10193" lon="6.84916">
        <ele>1088.3</ele>
        <time>2013-07-13T14:22:06Z</time>
      </trkpt>
      <trkpt lat="44.10176" lon="6.84914">
        <ele>1088.4</ele>
        <time>2013-07-13T14:22:08Z</time>
      </trkpt>
      <trkpt lat="44.10159" lon="6.84913">
        <ele>1088.4</ele>
        <time>2013-07-13T14:22:10Z</time>
      </trkpt>
      <trkpt lat="44.10142" lon="6.84908">
        <ele>1088.2</ele>
        <time>2013-07-13T14:22:12Z</time>
      </trkpt>
      <trkpt lat="44.10125" lon="6.84902">
        <ele>1088.1</ele>
        <time>2013-07-13T14:22:14Z</time>
      </trkpt>
      <trkpt lat="44.101" lon="6.84891">
        <ele>1088.1</ele>
        <time>2013-07-13T14:22:17Z</time>
      </trkpt>
      <trkpt lat="44.10082" lon="6.84883">
        <ele>1088.1</ele>
        <time>2013-07-13T14:22:19Z</time>
      </trkpt>
      <trkpt lat="44.10065" lon="6.84876">
        <ele>1088.2</ele>
        <time>2013-07-13T14:22:21Z</time>
      </trkpt>
      <trkpt lat="44.10048" lon="6.84865">
        <ele>1088.4</ele>
        <time>2013-07-13T14:22:23Z</time>
      </trkpt>
      <trkpt lat="44.10032" lon="6.84852">
        <ele>1088.3</ele>
        <time>2013-07-13T14:22:25Z</time>
      </trkpt>
      <trkpt lat="44.10018" lon="6.8484">
        <ele>1088.3</ele>
        <time>2013-07-13T14:22:27Z</time>
      </trkpt>
      <trkpt lat="44.10004" lon="6.8483">
        <ele>1088.6</ele>
        <time>2013-07-13T14:22:29Z</time>
      </trkpt>
      <trkpt lat="44.09989" lon="6.84826">
        <ele>1088.7</ele>
        <time>2013-07-13T14:22:31Z</time>
      </trkpt>
      <trkpt lat="44.09976" lon="6.84833">
        <ele>1088.5</ele>
        <time>2013-07-13T14:22:33Z</time>
      </trkpt>
      <trkpt lat="44.09965" lon="6.84845">
        <ele>1088</ele>
        <time>2013-07-13T14:22:35Z</time>
      </trkpt>
      <trkpt lat="44.09955" lon="6.84858">
        <ele>1087.6</ele>
        <time>2013-07-13T14:22:37Z</time>
      </trkpt>
      <trkpt lat="44.09944" lon="6.8487">
        <ele>1087.2</ele>
        <time>2013-07-13T14:22:39Z</time>
      </trkpt>
      <trkpt lat="44.09931" lon="6.84878">
        <ele>1087.4</ele>
        <time>2013-07-13T14:22:41Z</time>
      </trkpt>
      <trkpt lat="44.09917" lon="6.84881">
        <ele>1087.5</ele>
        <time>2013-07-13T14:22:43Z</time>
      </trkpt>
      <trkpt lat="44.09888" lon="6.84887">
        <ele>1087.7</ele>
        <time>2013-07-13T14:22:47Z</time>
      </trkpt>
      <trkpt lat="44.09872" lon="6.84887">
        <ele>1088</ele>
        <time>2013-07-13T14:22:49Z</time>
      </trkpt>
      <trkpt lat="44.09855" lon="6.84887">
        <ele>1088.1</ele>
        <time>2013-07-13T14:22:51Z</time>
      </trkpt>
      <trkpt lat="44.09834" lon="6.8489">
        <ele>1088.9</ele>
        <time>2013-07-13T14:22:54Z</time>
      </trkpt>
      <trkpt lat="44.09819" lon="6.84894">
        <ele>1089.5</ele>
        <time>2013-07-13T14:22:56Z</time>
      </trkpt>
      <trkpt lat="44.09806" lon="6.849">
        <ele>1090.3</ele>
        <time>2013-07-13T14:22:58Z</time>
      </trkpt>
      <trkpt lat="44.09792" lon="6.84907">
        <ele>1090.7</ele>
        <time>2013-07-13T14:23:00Z</time>
      </trkpt>
      <trkpt lat="44.09778" lon="6.84909">
        <ele>1090.9</ele>
        <time>2013-07-13T14:23:02Z</time>
      </trkpt>
      <trkpt lat="44.09764" lon="6.84911">
        <ele>1091.9</ele>
        <time>2013-07-13T14:23:04Z</time>
      </trkpt>
      <trkpt lat="44.09752" lon="6.84917">
        <ele>1092.3</ele>
        <time>2013-07-13T14:23:06Z</time>
      </trkpt>
      <trkpt lat="44.09739" lon="6.84921">
        <ele>1092.5</ele>
        <time>2013-07-13T14:23:08Z</time>
      </trkpt>
      <trkpt lat="44.09728" lon="6.8493">
        <ele>1092.1</ele>
        <time>2013-07-13T14:23:10Z</time>
      </trkpt>
      <trkpt lat="44.09717" lon="6.84938">
        <ele>1090.3</ele>
        <time>2013-07-13T14:23:12Z</time>
      </trkpt>
      <trkpt lat="44.09705" lon="6.84945">
        <ele>1089</ele>
        <time>2013-07-13T14:23:14Z</time>
      </trkpt>
      <trkpt lat="44.09692" lon="6.8495">
        <ele>1089.9</ele>
        <time>2013-07-13T14:23:16Z</time>
      </trkpt>
      <trkpt lat="44.0968" lon="6.84955">
        <ele>1089.8</ele>
        <time>2013-07-13T14:23:18Z</time>
      </trkpt>
      <trkpt lat="44.09666" lon="6.84962">
        <ele>1090</ele>
        <time>2013-07-13T14:23:20Z</time>
      </trkpt>
      <trkpt lat="44.09651" lon="6.84968">
        <ele>1090.6</ele>
        <time>2013-07-13T14:23:22Z</time>
      </trkpt>
      <trkpt lat="44.09637" lon="6.84977">
        <ele>1090.6</ele>
        <time>2013-07-13T14:23:24Z</time>
      </trkpt>
      <trkpt lat="44.09625" lon="6.84988">
        <ele>1090.5</ele>
        <time>2013-07-13T14:23:26Z</time>
      </trkpt>
      <trkpt lat="44.09613" lon="6.85001">
        <ele>1090.4</ele>
        <time>2013-07-13T14:23:28Z</time>
      </trkpt>
      <trkpt lat="44.09601" lon="6.85014">
        <ele>1090.3</ele>
        <time>2013-07-13T14:23:30Z</time>
      </trkpt>
      <trkpt lat="44.0959" lon="6.85027">
        <ele>1090.4</ele>
        <time>2013-07-13T14:23:32Z</time>
      </trkpt>
      <trkpt lat="44.0958" lon="6.85042">
        <ele>1090.2</ele>
        <time>2013-07-13T14:23:34Z</time>
      </trkpt>
      <trkpt lat="44.09571" lon="6.85058">
        <ele>1089.9</ele>
        <time>2013-07-13T14:23:36Z</time>
      </trkpt>
      <trkpt lat="44.09561" lon="6.85073">
        <ele>1089.5</ele>
        <time>2013-07-13T14:23:38Z</time>
      </trkpt>
      <trkpt lat="44.0955" lon="6.85086">
        <ele>1089</ele>
        <time>2013-07-13T14:23:40Z</time>
      </trkpt>
      <trkpt lat="44.09538" lon="6.85098">
        <ele>1089.2</ele>
        <time>2013-07-13T14:23:42Z</time>
      </trkpt>
      <trkpt lat="44.09532" lon="6.85104">
        <ele>1089.4</ele>
        <time>2013-07-13T14:23:43Z</time>
      </trkpt>
      <trkpt lat="44.0952" lon="6.85114">
        <ele>1089.7</ele>
        <time>2013-07-13T14:23:45Z</time>
      </trkpt>
      <trkpt lat="44.09393" lon="6.85184">
        <ele>1091.1</ele>
        <time>2013-07-13T14:24:03Z</time>
      </trkpt>
      <trkpt lat="44.09378" lon="6.85184">
        <ele>1092.5</ele>
        <time>2013-07-13T14:24:05Z</time>
      </trkpt>
      <trkpt lat="44.09353" lon="6.85187">
        <ele>1094.7</ele>
        <time>2013-07-13T14:24:08Z</time>
      </trkpt>
      <trkpt lat="44.09336" lon="6.85195">
        <ele>1096.3</ele>
        <time>2013-07-13T14:24:10Z</time>
      </trkpt>
      <trkpt lat="44.09322" lon="6.85206">
        <ele>1097.8</ele>
        <time>2013-07-13T14:24:12Z</time>
      </trkpt>
      <trkpt lat="44.09309" lon="6.85212">
        <ele>1099.3</ele>
        <time>2013-07-13T14:24:14Z</time>
      </trkpt>
      <trkpt lat="44.0928" lon="6.85233">
        <ele>1101.5</ele>
        <time>2013-07-13T14:24:20Z</time>
      </trkpt>
      <trkpt lat="44.09262" lon="6.85236">
        <ele>1101.4</ele>
        <time>2013-07-13T14:24:22Z</time>
      </trkpt>
      <trkpt lat="44.09246" lon="6.85242">
        <ele>1101.2</ele>
        <time>2013-07-13T14:24:24Z</time>
      </trkpt>
      <trkpt lat="44.0923" lon="6.85245">
        <ele>1100.4</ele>
        <time>2013-07-13T14:24:26Z</time>
      </trkpt>
      <trkpt lat="44.09213" lon="6.85241">
        <ele>1100.4</ele>
        <time>2013-07-13T14:24:28Z</time>
      </trkpt>
      <trkpt lat="44.09197" lon="6.85232">
        <ele>1100.5</ele>
        <time>2013-07-13T14:24:30Z</time>
      </trkpt>
      <trkpt lat="44.09182" lon="6.85222">
        <ele>1100.4</ele>
        <time>2013-07-13T14:24:32Z</time>
      </trkpt>
      <trkpt lat="44.09168" lon="6.85216">
        <ele>1099.5</ele>
        <time>2013-07-13T14:24:34Z</time>
      </trkpt>
      <trkpt lat="44.09161" lon="6.85213">
        <ele>1099.6</ele>
        <time>2013-07-13T14:24:35Z</time>
      </trkpt>
      <trkpt lat="44.09145" lon="6.8521">
        <ele>1098.6</ele>
        <time>2013-07-13T14:24:37Z</time>
      </trkpt>
      <trkpt lat="44.0913" lon="6.85213">
        <ele>1097</ele>
        <time>2013-07-13T14:24:39Z</time>
      </trkpt>
      <trkpt lat="44.09116" lon="6.85222">
        <ele>1096.6</ele>
        <time>2013-07-13T14:24:41Z</time>
      </trkpt>
      <trkpt lat="44.09103" lon="6.85235">
        <ele>1095.7</ele>
        <time>2013-07-13T14:24:43Z</time>
      </trkpt>
      <trkpt lat="44.0909" lon="6.85246">
        <ele>1094.3</ele>
        <time>2013-07-13T14:24:45Z</time>
      </trkpt>
      <trkpt lat="44.09077" lon="6.85253">
        <ele>1091.7</ele>
        <time>2013-07-13T14:24:47Z</time>
      </trkpt>
      <trkpt lat="44.09064" lon="6.85259">
        <ele>1089.5</ele>
        <time>2013-07-13T14:24:49Z</time>
      </trkpt>
      <trkpt lat="44.09051" lon="6.85265">
        <ele>1088.5</ele>
        <time>2013-07-13T14:24:51Z</time>
      </trkpt>
      <trkpt lat="44.09039" lon="6.85272">
        <ele>1088.5</ele>
        <time>2013-07-13T14:24:53Z</time>
      </trkpt>
      <trkpt lat="44.09033" lon="6.85276">
        <ele>1088</ele>
        <time>2013-07-13T14:24:54Z</time>
      </trkpt>
      <trkpt lat="44.09022" lon="6.85283">
        <ele>1087.5</ele>
        <time>2013-07-13T14:24:56Z</time>
      </trkpt>
      <trkpt lat="44.09011" lon="6.85289">
        <ele>1086.4</ele>
        <time>2013-07-13T14:24:58Z</time>
      </trkpt>
      <trkpt lat="44.09" lon="6.85293">
        <ele>1086.7</ele>
        <time>2013-07-13T14:25:00Z</time>
      </trkpt>
      <trkpt lat="44.08989" lon="6.85299">
        <ele>1086.4</ele>
        <time>2013-07-13T14:25:02Z</time>
      </trkpt>
      <trkpt lat="44.08979" lon="6.85306">
        <ele>1086.3</ele>
        <time>2013-07-13T14:25:04Z</time>
      </trkpt>
      <trkpt lat="44.08968" lon="6.85312">
        <ele>1086.7</ele>
        <time>2013-07-13T14:25:06Z</time>
      </trkpt>
      <trkpt lat="44.08958" lon="6.8532">
        <ele>1086.2</ele>
        <time>2013-07-13T14:25:08Z</time>
      </trkpt>
      <trkpt lat="44.08947" lon="6.85328">
        <ele>1086.1</ele>
        <time>2013-07-13T14:25:10Z</time>
      </trkpt>
      <trkpt lat="44.08936" lon="6.85335">
        <ele>1085.2</ele>
        <time>2013-07-13T14:25:12Z</time>
      </trkpt>
      <trkpt lat="44.08925" lon="6.8534">
        <ele>1084.7</ele>
        <time>2013-07-13T14:25:14Z</time>
      </trkpt>
      <trkpt lat="44.08916" lon="6.85342">
        <ele>1085.1</ele>
        <time>2013-07-13T14:25:16Z</time>
      </trkpt>
      <trkpt lat="44.0891" lon="6.85342">
        <ele>1085.4</ele>
        <time>2013-07-13T14:25:18Z</time>
      </trkpt>
      <trkpt lat="44.08902" lon="6.85344">
        <ele>1085.5</ele>
        <time>2013-07-13T14:25:21Z</time>
      </trkpt>
      <trkpt lat="44.08891" lon="6.85345">
        <ele>1085.1</ele>
        <time>2013-07-13T14:25:25Z</time>
      </trkpt>
      <trkpt lat="44.08887" lon="6.85345">
        <ele>1084.8</ele>
        <time>2013-07-13T14:25:27Z</time>
      </trkpt>
      <trkpt lat="44.08882" lon="6.85345">
        <ele>1084.9</ele>
        <time>2013-07-13T14:25:29Z</time>
      </trkpt>
      <trkpt lat="44.08875" lon="6.85345">
        <ele>1084.9</ele>
        <time>2013-07-13T14:25:31Z</time>
      </trkpt>
      <trkpt lat="44.08869" lon="6.85346">
        <ele>1084.6</ele>
        <time>2013-07-13T14:25:33Z</time>
      </trkpt>
      <trkpt lat="44.08861" lon="6.85345">
        <ele>1084.8</ele>
        <time>2013-07-13T14:25:36Z</time>
      </trkpt>
      <trkpt lat="44.08858" lon="6.85346">
        <ele>1084.6</ele>
        <time>2013-07-13T14:25:38Z</time>
      </trkpt>
      <trkpt lat="44.08855" lon="6.85347">
        <ele>1084.3</ele>
        <time>2013-07-13T14:25:40Z</time>
      </trkpt>
      <trkpt lat="44.08846" lon="6.85347">
        <ele>1084</ele>
        <time>2013-07-13T14:25:50Z</time>
      </trkpt>
      <trkpt lat="44.08843" lon="6.85351">
        <ele>1084.3</ele>
        <time>2013-07-13T14:25:52Z</time>
      </trkpt>
      <trkpt lat="44.08842" lon="6.85355">
        <ele>1084.8</ele>
        <time>2013-07-13T14:25:55Z</time>
      </trkpt>
      <trkpt lat="44.08836" lon="6.85362">
        <ele>1085</ele>
        <time>2013-07-13T14:25:58Z</time>
      </trkpt>
      <trkpt lat="44.08832" lon="6.85364">
        <ele>1085.3</ele>
        <time>2013-07-13T14:26:00Z</time>
      </trkpt>
      <trkpt lat="44.08828" lon="6.85363">
        <ele>1085.2</ele>
        <time>2013-07-13T14:26:02Z</time>
      </trkpt>
      <trkpt lat="44.08824" lon="6.85362">
        <ele>1084.9</ele>
        <time>2013-07-13T14:26:04Z</time>
      </trkpt>
      <trkpt lat="44.08821" lon="6.85365">
        <ele>1084.6</ele>
        <time>2013-07-13T14:26:07Z</time>
      </trkpt>
      <trkpt lat="44.08819" lon="6.85369">
        <ele>1084.5</ele>
        <time>2013-07-13T14:26:09Z</time>
      </trkpt>
      <trkpt lat="44.08818" lon="6.85375">
        <ele>1084.4</ele>
        <time>2013-07-13T14:26:11Z</time>
      </trkpt>
      <trkpt lat="44.08819" lon="6.85383">
        <ele>1084.4</ele>
        <time>2013-07-13T14:26:13Z</time>
      </trkpt>
      <trkpt lat="44.08819" lon="6.8539">
        <ele>1084.2</ele>
        <time>2013-07-13T14:26:15Z</time>
      </trkpt>
      <trkpt lat="44.08821" lon="6.85398">
        <ele>1084.4</ele>
        <time>2013-07-13T14:26:17Z</time>
      </trkpt>
      <trkpt lat="44.08823" lon="6.85405">
        <ele>1084.2</ele>
        <time>2013-07-13T14:26:19Z</time>
      </trkpt>
      <trkpt lat="44.08825" lon="6.85416">
        <ele>1084.2</ele>
        <time>2013-07-13T14:26:22Z</time>
      </trkpt>
      <trkpt lat="44.08828" lon="6.85423">
        <ele>1084.2</ele>
        <time>2013-07-13T14:26:24Z</time>
      </trkpt>
      <trkpt lat="44.08829" lon="6.85429">
        <ele>1084</ele>
        <time>2013-07-13T14:26:26Z</time>
      </trkpt>
      <trkpt lat="44.08832" lon="6.85434">
        <ele>1083.7</ele>
        <time>2013-07-13T14:26:28Z</time>
      </trkpt>
      <trkpt lat="44.08834" lon="6.8544">
        <ele>1083.1</ele>
        <time>2013-07-13T14:26:30Z</time>
      </trkpt>
      <trkpt lat="44.08837" lon="6.85445">
        <ele>1082.7</ele>
        <time>2013-07-13T14:26:32Z</time>
      </trkpt>
      <trkpt lat="44.0884" lon="6.85448">
        <ele>1082.7</ele>
        <time>2013-07-13T14:26:34Z</time>
      </trkpt>
      <trkpt lat="44.08844" lon="6.85452">
        <ele>1082.7</ele>
        <time>2013-07-13T14:26:36Z</time>
      </trkpt>
      <trkpt lat="44.08846" lon="6.85456">
        <ele>1082.4</ele>
        <time>2013-07-13T14:26:38Z</time>
      </trkpt>
    </trkseg>
  </trk>
</gpx>